<?xml version="1.0" encoding="UTF-8" standalone="no" ?>
<gpx xmlns="http://www.topografix.com/GPX/1/1" xmlns:xsi="http://www.w3.org/2001/XMLSchema-instance" xsi:schemaLocation="http://www.topografix.com/GPX/1/1 http://www.topografix.com/GPX/1/1/gpx.xsd" version="1.1" creator="VisuGPX - https://www.visugpx.com">
  <metadata>
    <name>DOMMARTIN /LANY ET RETOUTR</name>
    <desc><![CDATA[Assez roulant, alternance de chemin et singles tecniques]]></desc>
  </metadata>
  <trk>
    <name><![CDATA[19-DEC-15 05:40:44 PM]]></name>
    <trkseg>
      <trkpt lat="45.84706" lon="4.72556">
        <ele>270.27</ele>
        <time>2015-12-19T11:38:09Z</time>
      </trkpt>
      <trkpt lat="45.84708" lon="4.7256">
        <ele>270.75</ele>
        <time>2015-12-19T11:38:14Z</time>
      </trkpt>
      <trkpt lat="45.84709" lon="4.72562">
        <ele>270.75</ele>
        <time>2015-12-19T11:38:18Z</time>
      </trkpt>
      <trkpt lat="45.84709" lon="4.72568">
        <ele>271.23</ele>
        <time>2015-12-19T11:38:22Z</time>
      </trkpt>
      <trkpt lat="45.84712" lon="4.72574">
        <ele>270.75</ele>
        <time>2015-12-19T11:38:26Z</time>
      </trkpt>
      <trkpt lat="45.84712" lon="4.72565">
        <ele>270.75</ele>
        <time>2015-12-19T11:38:30Z</time>
      </trkpt>
      <trkpt lat="45.84708" lon="4.72556">
        <ele>270.27</ele>
        <time>2015-12-19T11:38:32Z</time>
      </trkpt>
      <trkpt lat="45.84707" lon="4.72551">
        <ele>270.27</ele>
        <time>2015-12-19T11:38:33Z</time>
      </trkpt>
      <trkpt lat="45.84706" lon="4.72548">
        <ele>269.31</ele>
        <time>2015-12-19T11:38:34Z</time>
      </trkpt>
      <trkpt lat="45.84703" lon="4.72545">
        <ele>269.79</ele>
        <time>2015-12-19T11:38:35Z</time>
      </trkpt>
      <trkpt lat="45.84701" lon="4.72544">
        <ele>269.79</ele>
        <time>2015-12-19T11:38:36Z</time>
      </trkpt>
      <trkpt lat="45.84698" lon="4.72543">
        <ele>268.83</ele>
        <time>2015-12-19T11:38:37Z</time>
      </trkpt>
      <trkpt lat="45.84694" lon="4.72543">
        <ele>268.35</ele>
        <time>2015-12-19T11:38:38Z</time>
      </trkpt>
      <trkpt lat="45.8469" lon="4.72542">
        <ele>267.86</ele>
        <time>2015-12-19T11:38:39Z</time>
      </trkpt>
      <trkpt lat="45.84678" lon="4.72541">
        <ele>266.42</ele>
        <time>2015-12-19T11:38:41Z</time>
      </trkpt>
      <trkpt lat="45.84654" lon="4.72542">
        <ele>263.06</ele>
        <time>2015-12-19T11:38:44Z</time>
      </trkpt>
      <trkpt lat="45.84626" lon="4.72539">
        <ele>260.17</ele>
        <time>2015-12-19T11:38:48Z</time>
      </trkpt>
      <trkpt lat="45.84621" lon="4.72537">
        <ele>259.69</ele>
        <time>2015-12-19T11:38:49Z</time>
      </trkpt>
      <trkpt lat="45.84617" lon="4.72532">
        <ele>259.21</ele>
        <time>2015-12-19T11:38:50Z</time>
      </trkpt>
      <trkpt lat="45.84615" lon="4.72526">
        <ele>259.69</ele>
        <time>2015-12-19T11:38:51Z</time>
      </trkpt>
      <trkpt lat="45.84615" lon="4.7252">
        <ele>259.69</ele>
        <time>2015-12-19T11:38:52Z</time>
      </trkpt>
      <trkpt lat="45.84616" lon="4.72514">
        <ele>260.65</ele>
        <time>2015-12-19T11:38:53Z</time>
      </trkpt>
      <trkpt lat="45.84616" lon="4.72508">
        <ele>260.65</ele>
        <time>2015-12-19T11:38:54Z</time>
      </trkpt>
      <trkpt lat="45.84615" lon="4.72494">
        <ele>262.58</ele>
        <time>2015-12-19T11:38:57Z</time>
      </trkpt>
      <trkpt lat="45.84604" lon="4.72477">
        <ele>262.1</ele>
        <time>2015-12-19T11:39:06Z</time>
      </trkpt>
      <trkpt lat="45.84596" lon="4.72467">
        <ele>262.58</ele>
        <time>2015-12-19T11:39:16Z</time>
      </trkpt>
      <trkpt lat="45.84592" lon="4.72461">
        <ele>261.62</ele>
        <time>2015-12-19T11:39:17Z</time>
      </trkpt>
      <trkpt lat="45.84588" lon="4.72456">
        <ele>261.62</ele>
        <time>2015-12-19T11:39:18Z</time>
      </trkpt>
      <trkpt lat="45.84568" lon="4.72437">
        <ele>259.21</ele>
        <time>2015-12-19T11:39:22Z</time>
      </trkpt>
      <trkpt lat="45.84563" lon="4.72435">
        <ele>258.25</ele>
        <time>2015-12-19T11:39:23Z</time>
      </trkpt>
      <trkpt lat="45.84558" lon="4.72434">
        <ele>257.77</ele>
        <time>2015-12-19T11:39:24Z</time>
      </trkpt>
      <trkpt lat="45.84553" lon="4.72434">
        <ele>257.29</ele>
        <time>2015-12-19T11:39:25Z</time>
      </trkpt>
      <trkpt lat="45.8455" lon="4.72433">
        <ele>256.81</ele>
        <time>2015-12-19T11:39:26Z</time>
      </trkpt>
      <trkpt lat="45.84539" lon="4.72422">
        <ele>256.33</ele>
        <time>2015-12-19T11:39:30Z</time>
      </trkpt>
      <trkpt lat="45.84533" lon="4.72414">
        <ele>254.89</ele>
        <time>2015-12-19T11:39:33Z</time>
      </trkpt>
      <trkpt lat="45.84525" lon="4.72407">
        <ele>253.44</ele>
        <time>2015-12-19T11:39:40Z</time>
      </trkpt>
      <trkpt lat="45.8453" lon="4.724">
        <ele>253.93</ele>
        <time>2015-12-19T11:39:45Z</time>
      </trkpt>
      <trkpt lat="45.84546" lon="4.72384">
        <ele>254.89</ele>
        <time>2015-12-19T11:39:53Z</time>
      </trkpt>
      <trkpt lat="45.8457" lon="4.72355">
        <ele>259.21</ele>
        <time>2015-12-19T11:40:06Z</time>
      </trkpt>
      <trkpt lat="45.84593" lon="4.72332">
        <ele>262.1</ele>
        <time>2015-12-19T11:40:20Z</time>
      </trkpt>
      <trkpt lat="45.8462" lon="4.72323">
        <ele>263.54</ele>
        <time>2015-12-19T11:40:35Z</time>
      </trkpt>
      <trkpt lat="45.84645" lon="4.7232">
        <ele>266.42</ele>
        <time>2015-12-19T11:40:49Z</time>
      </trkpt>
      <trkpt lat="45.84675" lon="4.72317">
        <ele>268.83</ele>
        <time>2015-12-19T11:41:04Z</time>
      </trkpt>
      <trkpt lat="45.84701" lon="4.72311">
        <ele>271.23</ele>
        <time>2015-12-19T11:41:17Z</time>
      </trkpt>
      <trkpt lat="45.84712" lon="4.72314">
        <ele>271.23</ele>
        <time>2015-12-19T11:41:23Z</time>
      </trkpt>
      <trkpt lat="45.8473" lon="4.72314">
        <ele>271.71</ele>
        <time>2015-12-19T11:41:30Z</time>
      </trkpt>
      <trkpt lat="45.84763" lon="4.72313">
        <ele>272.67</ele>
        <time>2015-12-19T11:41:44Z</time>
      </trkpt>
      <trkpt lat="45.84792" lon="4.72293">
        <ele>273.15</ele>
        <time>2015-12-19T11:41:56Z</time>
      </trkpt>
      <trkpt lat="45.84821" lon="4.72253">
        <ele>276.04</ele>
        <time>2015-12-19T11:42:11Z</time>
      </trkpt>
      <trkpt lat="45.8487" lon="4.72223">
        <ele>276.52</ele>
        <time>2015-12-19T11:42:29Z</time>
      </trkpt>
      <trkpt lat="45.84914" lon="4.72202">
        <ele>274.59</ele>
        <time>2015-12-19T11:42:43Z</time>
      </trkpt>
      <trkpt lat="45.84968" lon="4.72214">
        <ele>273.63</ele>
        <time>2015-12-19T11:42:57Z</time>
      </trkpt>
      <trkpt lat="45.84977" lon="4.72216">
        <ele>273.63</ele>
        <time>2015-12-19T11:42:59Z</time>
      </trkpt>
      <trkpt lat="45.84981" lon="4.72216">
        <ele>274.11</ele>
        <time>2015-12-19T11:43:00Z</time>
      </trkpt>
      <trkpt lat="45.85024" lon="4.72221">
        <ele>273.63</ele>
        <time>2015-12-19T11:43:11Z</time>
      </trkpt>
      <trkpt lat="45.85075" lon="4.72224">
        <ele>273.15</ele>
        <time>2015-12-19T11:43:24Z</time>
      </trkpt>
      <trkpt lat="45.85134" lon="4.7223">
        <ele>273.15</ele>
        <time>2015-12-19T11:43:38Z</time>
      </trkpt>
      <trkpt lat="45.85168" lon="4.72258">
        <ele>275.07</ele>
        <time>2015-12-19T11:43:48Z</time>
      </trkpt>
      <trkpt lat="45.85201" lon="4.72286">
        <ele>277.48</ele>
        <time>2015-12-19T11:44:00Z</time>
      </trkpt>
      <trkpt lat="45.85243" lon="4.723">
        <ele>276.52</ele>
        <time>2015-12-19T11:44:10Z</time>
      </trkpt>
      <trkpt lat="45.85258" lon="4.72303">
        <ele>276.04</ele>
        <time>2015-12-19T11:44:13Z</time>
      </trkpt>
      <trkpt lat="45.85263" lon="4.72302">
        <ele>275.56</ele>
        <time>2015-12-19T11:44:14Z</time>
      </trkpt>
      <trkpt lat="45.85269" lon="4.72301">
        <ele>275.56</ele>
        <time>2015-12-19T11:44:15Z</time>
      </trkpt>
      <trkpt lat="45.85274" lon="4.72299">
        <ele>275.07</ele>
        <time>2015-12-19T11:44:16Z</time>
      </trkpt>
      <trkpt lat="45.85278" lon="4.72295">
        <ele>275.07</ele>
        <time>2015-12-19T11:44:17Z</time>
      </trkpt>
      <trkpt lat="45.85283" lon="4.72289">
        <ele>274.59</ele>
        <time>2015-12-19T11:44:18Z</time>
      </trkpt>
      <trkpt lat="45.85287" lon="4.72282">
        <ele>274.11</ele>
        <time>2015-12-19T11:44:19Z</time>
      </trkpt>
      <trkpt lat="45.8529" lon="4.72275">
        <ele>273.63</ele>
        <time>2015-12-19T11:44:20Z</time>
      </trkpt>
      <trkpt lat="45.85292" lon="4.72268">
        <ele>273.15</ele>
        <time>2015-12-19T11:44:21Z</time>
      </trkpt>
      <trkpt lat="45.85297" lon="4.72254">
        <ele>272.19</ele>
        <time>2015-12-19T11:44:23Z</time>
      </trkpt>
      <trkpt lat="45.85301" lon="4.72248">
        <ele>271.23</ele>
        <time>2015-12-19T11:44:24Z</time>
      </trkpt>
      <trkpt lat="45.85305" lon="4.72244">
        <ele>270.75</ele>
        <time>2015-12-19T11:44:25Z</time>
      </trkpt>
      <trkpt lat="45.8531" lon="4.72241">
        <ele>271.23</ele>
        <time>2015-12-19T11:44:26Z</time>
      </trkpt>
      <trkpt lat="45.85316" lon="4.72239">
        <ele>270.75</ele>
        <time>2015-12-19T11:44:27Z</time>
      </trkpt>
      <trkpt lat="45.85322" lon="4.72239">
        <ele>270.75</ele>
        <time>2015-12-19T11:44:28Z</time>
      </trkpt>
      <trkpt lat="45.85328" lon="4.72238">
        <ele>270.75</ele>
        <time>2015-12-19T11:44:29Z</time>
      </trkpt>
      <trkpt lat="45.85335" lon="4.72238">
        <ele>270.27</ele>
        <time>2015-12-19T11:44:30Z</time>
      </trkpt>
      <trkpt lat="45.85348" lon="4.72239">
        <ele>269.31</ele>
        <time>2015-12-19T11:44:32Z</time>
      </trkpt>
      <trkpt lat="45.85361" lon="4.72242">
        <ele>268.35</ele>
        <time>2015-12-19T11:44:34Z</time>
      </trkpt>
      <trkpt lat="45.85382" lon="4.72245">
        <ele>267.86</ele>
        <time>2015-12-19T11:44:37Z</time>
      </trkpt>
      <trkpt lat="45.85439" lon="4.72263">
        <ele>266.42</ele>
        <time>2015-12-19T11:44:45Z</time>
      </trkpt>
      <trkpt lat="45.85446" lon="4.72263">
        <ele>266.9</ele>
        <time>2015-12-19T11:44:46Z</time>
      </trkpt>
      <trkpt lat="45.85519" lon="4.72257">
        <ele>269.79</ele>
        <time>2015-12-19T11:44:57Z</time>
      </trkpt>
      <trkpt lat="45.8553" lon="4.72257">
        <ele>269.79</ele>
        <time>2015-12-19T11:44:59Z</time>
      </trkpt>
      <trkpt lat="45.85536" lon="4.72255">
        <ele>269.79</ele>
        <time>2015-12-19T11:45:00Z</time>
      </trkpt>
      <trkpt lat="45.85553" lon="4.72251">
        <ele>270.75</ele>
        <time>2015-12-19T11:45:03Z</time>
      </trkpt>
      <trkpt lat="45.85559" lon="4.72249">
        <ele>270.27</ele>
        <time>2015-12-19T11:45:04Z</time>
      </trkpt>
      <trkpt lat="45.85628" lon="4.72217">
        <ele>271.71</ele>
        <time>2015-12-19T11:45:17Z</time>
      </trkpt>
      <trkpt lat="45.85701" lon="4.72172">
        <ele>272.19</ele>
        <time>2015-12-19T11:45:31Z</time>
      </trkpt>
      <trkpt lat="45.85786" lon="4.72161">
        <ele>273.15</ele>
        <time>2015-12-19T11:45:45Z</time>
      </trkpt>
      <trkpt lat="45.85799" lon="4.72163">
        <ele>274.11</ele>
        <time>2015-12-19T11:45:54Z</time>
      </trkpt>
      <trkpt lat="45.85799" lon="4.72163">
        <ele>274.11</ele>
        <time>2015-12-19T11:46:23Z</time>
      </trkpt>
      <trkpt lat="45.85799" lon="4.72163">
        <ele>274.11</ele>
        <time>2015-12-19T11:46:51Z</time>
      </trkpt>
      <trkpt lat="45.85799" lon="4.72163">
        <ele>274.11</ele>
        <time>2015-12-19T11:47:11Z</time>
      </trkpt>
      <trkpt lat="45.85799" lon="4.72163">
        <ele>274.59</ele>
        <time>2015-12-19T11:47:35Z</time>
      </trkpt>
      <trkpt lat="45.85799" lon="4.72164">
        <ele>274.59</ele>
        <time>2015-12-19T11:48:05Z</time>
      </trkpt>
      <trkpt lat="45.85799" lon="4.72164">
        <ele>275.07</ele>
        <time>2015-12-19T11:48:28Z</time>
      </trkpt>
      <trkpt lat="45.85799" lon="4.72164">
        <ele>275.56</ele>
        <time>2015-12-19T11:49:00Z</time>
      </trkpt>
      <trkpt lat="45.85803" lon="4.72158">
        <ele>274.11</ele>
        <time>2015-12-19T11:49:18Z</time>
      </trkpt>
      <trkpt lat="45.85804" lon="4.72154">
        <ele>274.59</ele>
        <time>2015-12-19T11:49:19Z</time>
      </trkpt>
      <trkpt lat="45.8581" lon="4.72128">
        <ele>273.15</ele>
        <time>2015-12-19T11:49:23Z</time>
      </trkpt>
      <trkpt lat="45.85821" lon="4.72081">
        <ele>269.31</ele>
        <time>2015-12-19T11:49:28Z</time>
      </trkpt>
      <trkpt lat="45.85828" lon="4.7205">
        <ele>267.86</ele>
        <time>2015-12-19T11:49:31Z</time>
      </trkpt>
      <trkpt lat="45.85836" lon="4.72016">
        <ele>264.02</ele>
        <time>2015-12-19T11:49:34Z</time>
      </trkpt>
      <trkpt lat="45.85845" lon="4.71978">
        <ele>260.65</ele>
        <time>2015-12-19T11:49:37Z</time>
      </trkpt>
      <trkpt lat="45.85851" lon="4.71954">
        <ele>256.81</ele>
        <time>2015-12-19T11:49:39Z</time>
      </trkpt>
      <trkpt lat="45.85852" lon="4.71943">
        <ele>254.89</ele>
        <time>2015-12-19T11:49:40Z</time>
      </trkpt>
      <trkpt lat="45.85852" lon="4.71932">
        <ele>253.93</ele>
        <time>2015-12-19T11:49:41Z</time>
      </trkpt>
      <trkpt lat="45.85851" lon="4.71909">
        <ele>250.56</ele>
        <time>2015-12-19T11:49:43Z</time>
      </trkpt>
      <trkpt lat="45.85851" lon="4.71886">
        <ele>247.68</ele>
        <time>2015-12-19T11:49:45Z</time>
      </trkpt>
      <trkpt lat="45.85854" lon="4.71868">
        <ele>245.75</ele>
        <time>2015-12-19T11:49:47Z</time>
      </trkpt>
      <trkpt lat="45.85858" lon="4.71861">
        <ele>243.83</ele>
        <time>2015-12-19T11:49:48Z</time>
      </trkpt>
      <trkpt lat="45.85864" lon="4.71857">
        <ele>243.35</ele>
        <time>2015-12-19T11:49:49Z</time>
      </trkpt>
      <trkpt lat="45.8587" lon="4.71856">
        <ele>242.39</ele>
        <time>2015-12-19T11:49:50Z</time>
      </trkpt>
      <trkpt lat="45.85878" lon="4.71858">
        <ele>242.39</ele>
        <time>2015-12-19T11:49:51Z</time>
      </trkpt>
      <trkpt lat="45.85885" lon="4.7186">
        <ele>241.43</ele>
        <time>2015-12-19T11:49:52Z</time>
      </trkpt>
      <trkpt lat="45.85891" lon="4.71858">
        <ele>240.95</ele>
        <time>2015-12-19T11:49:53Z</time>
      </trkpt>
      <trkpt lat="45.85897" lon="4.71854">
        <ele>239.99</ele>
        <time>2015-12-19T11:49:54Z</time>
      </trkpt>
      <trkpt lat="45.85901" lon="4.71847">
        <ele>239.51</ele>
        <time>2015-12-19T11:49:55Z</time>
      </trkpt>
      <trkpt lat="45.85905" lon="4.71838">
        <ele>239.02</ele>
        <time>2015-12-19T11:49:56Z</time>
      </trkpt>
      <trkpt lat="45.85906" lon="4.71829">
        <ele>239.02</ele>
        <time>2015-12-19T11:49:57Z</time>
      </trkpt>
      <trkpt lat="45.85905" lon="4.7182">
        <ele>239.51</ele>
        <time>2015-12-19T11:49:58Z</time>
      </trkpt>
      <trkpt lat="45.85902" lon="4.71811">
        <ele>238.54</ele>
        <time>2015-12-19T11:49:59Z</time>
      </trkpt>
      <trkpt lat="45.85897" lon="4.71803">
        <ele>238.06</ele>
        <time>2015-12-19T11:50:00Z</time>
      </trkpt>
      <trkpt lat="45.85891" lon="4.71796">
        <ele>237.1</ele>
        <time>2015-12-19T11:50:01Z</time>
      </trkpt>
      <trkpt lat="45.85885" lon="4.71789">
        <ele>236.14</ele>
        <time>2015-12-19T11:50:02Z</time>
      </trkpt>
      <trkpt lat="45.85881" lon="4.7178">
        <ele>235.18</ele>
        <time>2015-12-19T11:50:03Z</time>
      </trkpt>
      <trkpt lat="45.8588" lon="4.7177">
        <ele>234.22</ele>
        <time>2015-12-19T11:50:04Z</time>
      </trkpt>
      <trkpt lat="45.85882" lon="4.7176">
        <ele>232.3</ele>
        <time>2015-12-19T11:50:05Z</time>
      </trkpt>
      <trkpt lat="45.85886" lon="4.71751">
        <ele>232.3</ele>
        <time>2015-12-19T11:50:06Z</time>
      </trkpt>
      <trkpt lat="45.85891" lon="4.71743">
        <ele>232.3</ele>
        <time>2015-12-19T11:50:07Z</time>
      </trkpt>
      <trkpt lat="45.85894" lon="4.71734">
        <ele>230.85</ele>
        <time>2015-12-19T11:50:08Z</time>
      </trkpt>
      <trkpt lat="45.85896" lon="4.71725">
        <ele>230.37</ele>
        <time>2015-12-19T11:50:09Z</time>
      </trkpt>
      <trkpt lat="45.85897" lon="4.71715">
        <ele>230.37</ele>
        <time>2015-12-19T11:50:10Z</time>
      </trkpt>
      <trkpt lat="45.85896" lon="4.71704">
        <ele>229.41</ele>
        <time>2015-12-19T11:50:11Z</time>
      </trkpt>
      <trkpt lat="45.85894" lon="4.71692">
        <ele>227.97</ele>
        <time>2015-12-19T11:50:12Z</time>
      </trkpt>
      <trkpt lat="45.85891" lon="4.7168">
        <ele>227.97</ele>
        <time>2015-12-19T11:50:13Z</time>
      </trkpt>
      <trkpt lat="45.85879" lon="4.71641">
        <ele>224.12</ele>
        <time>2015-12-19T11:50:16Z</time>
      </trkpt>
      <trkpt lat="45.85866" lon="4.71597">
        <ele>220.76</ele>
        <time>2015-12-19T11:50:20Z</time>
      </trkpt>
      <trkpt lat="45.85863" lon="4.71589">
        <ele>219.8</ele>
        <time>2015-12-19T11:50:21Z</time>
      </trkpt>
      <trkpt lat="45.85862" lon="4.7158">
        <ele>218.36</ele>
        <time>2015-12-19T11:50:22Z</time>
      </trkpt>
      <trkpt lat="45.8586" lon="4.71572">
        <ele>217.4</ele>
        <time>2015-12-19T11:50:23Z</time>
      </trkpt>
      <trkpt lat="45.85858" lon="4.71567">
        <ele>216.91</ele>
        <time>2015-12-19T11:50:24Z</time>
      </trkpt>
      <trkpt lat="45.85858" lon="4.71564">
        <ele>216.91</ele>
        <time>2015-12-19T11:50:31Z</time>
      </trkpt>
      <trkpt lat="45.85857" lon="4.71563">
        <ele>215.95</ele>
        <time>2015-12-19T11:50:40Z</time>
      </trkpt>
      <trkpt lat="45.85857" lon="4.71561">
        <ele>216.91</ele>
        <time>2015-12-19T11:50:41Z</time>
      </trkpt>
      <trkpt lat="45.85856" lon="4.71558">
        <ele>216.43</ele>
        <time>2015-12-19T11:50:42Z</time>
      </trkpt>
      <trkpt lat="45.85856" lon="4.71555">
        <ele>216.43</ele>
        <time>2015-12-19T11:50:43Z</time>
      </trkpt>
      <trkpt lat="45.85854" lon="4.7155">
        <ele>216.43</ele>
        <time>2015-12-19T11:50:44Z</time>
      </trkpt>
      <trkpt lat="45.85853" lon="4.71545">
        <ele>215.47</ele>
        <time>2015-12-19T11:50:45Z</time>
      </trkpt>
      <trkpt lat="45.8585" lon="4.71539">
        <ele>215.47</ele>
        <time>2015-12-19T11:50:46Z</time>
      </trkpt>
      <trkpt lat="45.85848" lon="4.71533">
        <ele>214.51</ele>
        <time>2015-12-19T11:50:47Z</time>
      </trkpt>
      <trkpt lat="45.85845" lon="4.71526">
        <ele>214.03</ele>
        <time>2015-12-19T11:50:48Z</time>
      </trkpt>
      <trkpt lat="45.85842" lon="4.71518">
        <ele>213.55</ele>
        <time>2015-12-19T11:50:49Z</time>
      </trkpt>
      <trkpt lat="45.8584" lon="4.7151">
        <ele>213.07</ele>
        <time>2015-12-19T11:50:50Z</time>
      </trkpt>
      <trkpt lat="45.85838" lon="4.71503">
        <ele>213.07</ele>
        <time>2015-12-19T11:50:51Z</time>
      </trkpt>
      <trkpt lat="45.85832" lon="4.71478">
        <ele>210.19</ele>
        <time>2015-12-19T11:50:54Z</time>
      </trkpt>
      <trkpt lat="45.85827" lon="4.71455">
        <ele>207.78</ele>
        <time>2015-12-19T11:50:57Z</time>
      </trkpt>
      <trkpt lat="45.85826" lon="4.71449">
        <ele>206.82</ele>
        <time>2015-12-19T11:50:58Z</time>
      </trkpt>
      <trkpt lat="45.85824" lon="4.71443">
        <ele>206.34</ele>
        <time>2015-12-19T11:50:59Z</time>
      </trkpt>
      <trkpt lat="45.85822" lon="4.71436">
        <ele>206.34</ele>
        <time>2015-12-19T11:51:00Z</time>
      </trkpt>
      <trkpt lat="45.8582" lon="4.7143">
        <ele>205.86</ele>
        <time>2015-12-19T11:51:01Z</time>
      </trkpt>
      <trkpt lat="45.85819" lon="4.71423">
        <ele>204.9</ele>
        <time>2015-12-19T11:51:02Z</time>
      </trkpt>
      <trkpt lat="45.85818" lon="4.71415">
        <ele>204.9</ele>
        <time>2015-12-19T11:51:03Z</time>
      </trkpt>
      <trkpt lat="45.85817" lon="4.71407">
        <ele>203.94</ele>
        <time>2015-12-19T11:51:04Z</time>
      </trkpt>
      <trkpt lat="45.85817" lon="4.71398">
        <ele>203.46</ele>
        <time>2015-12-19T11:51:05Z</time>
      </trkpt>
      <trkpt lat="45.85817" lon="4.71389">
        <ele>202.98</ele>
        <time>2015-12-19T11:51:06Z</time>
      </trkpt>
      <trkpt lat="45.85818" lon="4.71378">
        <ele>201.53</ele>
        <time>2015-12-19T11:51:07Z</time>
      </trkpt>
      <trkpt lat="45.85818" lon="4.71367">
        <ele>202.01</ele>
        <time>2015-12-19T11:51:08Z</time>
      </trkpt>
      <trkpt lat="45.85818" lon="4.71355">
        <ele>201.05</ele>
        <time>2015-12-19T11:51:09Z</time>
      </trkpt>
      <trkpt lat="45.85818" lon="4.71342">
        <ele>200.57</ele>
        <time>2015-12-19T11:51:10Z</time>
      </trkpt>
      <trkpt lat="45.85815" lon="4.7133">
        <ele>199.61</ele>
        <time>2015-12-19T11:51:11Z</time>
      </trkpt>
      <trkpt lat="45.85812" lon="4.71319">
        <ele>200.09</ele>
        <time>2015-12-19T11:51:12Z</time>
      </trkpt>
      <trkpt lat="45.85808" lon="4.71308">
        <ele>198.65</ele>
        <time>2015-12-19T11:51:13Z</time>
      </trkpt>
      <trkpt lat="45.85804" lon="4.71299">
        <ele>199.13</ele>
        <time>2015-12-19T11:51:14Z</time>
      </trkpt>
      <trkpt lat="45.85795" lon="4.71283">
        <ele>197.69</ele>
        <time>2015-12-19T11:51:16Z</time>
      </trkpt>
      <trkpt lat="45.85786" lon="4.71256">
        <ele>197.69</ele>
        <time>2015-12-19T11:51:21Z</time>
      </trkpt>
      <trkpt lat="45.85785" lon="4.71256">
        <ele>197.69</ele>
        <time>2015-12-19T11:51:22Z</time>
      </trkpt>
      <trkpt lat="45.85784" lon="4.71255">
        <ele>198.65</ele>
        <time>2015-12-19T11:51:23Z</time>
      </trkpt>
      <trkpt lat="45.85782" lon="4.71257">
        <ele>197.69</ele>
        <time>2015-12-19T11:51:24Z</time>
      </trkpt>
      <trkpt lat="45.85781" lon="4.71258">
        <ele>198.65</ele>
        <time>2015-12-19T11:51:25Z</time>
      </trkpt>
      <trkpt lat="45.85764" lon="4.71291">
        <ele>198.65</ele>
        <time>2015-12-19T11:51:37Z</time>
      </trkpt>
      <trkpt lat="45.85761" lon="4.71292">
        <ele>199.13</ele>
        <time>2015-12-19T11:51:50Z</time>
      </trkpt>
      <trkpt lat="45.8576" lon="4.71291">
        <ele>199.13</ele>
        <time>2015-12-19T11:51:51Z</time>
      </trkpt>
      <trkpt lat="45.85758" lon="4.71291">
        <ele>199.13</ele>
        <time>2015-12-19T11:51:52Z</time>
      </trkpt>
      <trkpt lat="45.85743" lon="4.71293">
        <ele>199.61</ele>
        <time>2015-12-19T11:51:59Z</time>
      </trkpt>
      <trkpt lat="45.85742" lon="4.71293">
        <ele>200.09</ele>
        <time>2015-12-19T11:52:00Z</time>
      </trkpt>
      <trkpt lat="45.85741" lon="4.71293">
        <ele>199.61</ele>
        <time>2015-12-19T11:52:01Z</time>
      </trkpt>
      <trkpt lat="45.85739" lon="4.71292">
        <ele>200.09</ele>
        <time>2015-12-19T11:52:02Z</time>
      </trkpt>
      <trkpt lat="45.85738" lon="4.71292">
        <ele>201.05</ele>
        <time>2015-12-19T11:52:03Z</time>
      </trkpt>
      <trkpt lat="45.85736" lon="4.71292">
        <ele>200.57</ele>
        <time>2015-12-19T11:52:04Z</time>
      </trkpt>
      <trkpt lat="45.85735" lon="4.71292">
        <ele>201.05</ele>
        <time>2015-12-19T11:52:05Z</time>
      </trkpt>
      <trkpt lat="45.85733" lon="4.71292">
        <ele>201.53</ele>
        <time>2015-12-19T11:52:06Z</time>
      </trkpt>
      <trkpt lat="45.85731" lon="4.71292">
        <ele>201.53</ele>
        <time>2015-12-19T11:52:07Z</time>
      </trkpt>
      <trkpt lat="45.85708" lon="4.7129">
        <ele>204.42</ele>
        <time>2015-12-19T11:52:20Z</time>
      </trkpt>
      <trkpt lat="45.85688" lon="4.71284">
        <ele>207.3</ele>
        <time>2015-12-19T11:52:33Z</time>
      </trkpt>
      <trkpt lat="45.85668" lon="4.71268">
        <ele>209.22</ele>
        <time>2015-12-19T11:52:46Z</time>
      </trkpt>
      <trkpt lat="45.85657" lon="4.71261">
        <ele>209.7</ele>
        <time>2015-12-19T11:52:53Z</time>
      </trkpt>
      <trkpt lat="45.85655" lon="4.7126">
        <ele>210.19</ele>
        <time>2015-12-19T11:52:54Z</time>
      </trkpt>
      <trkpt lat="45.85653" lon="4.7126">
        <ele>210.19</ele>
        <time>2015-12-19T11:52:55Z</time>
      </trkpt>
      <trkpt lat="45.85646" lon="4.71259">
        <ele>211.15</ele>
        <time>2015-12-19T11:52:59Z</time>
      </trkpt>
      <trkpt lat="45.85625" lon="4.71273">
        <ele>213.55</ele>
        <time>2015-12-19T11:53:12Z</time>
      </trkpt>
      <trkpt lat="45.85611" lon="4.71293">
        <ele>215.95</ele>
        <time>2015-12-19T11:53:24Z</time>
      </trkpt>
      <trkpt lat="45.85609" lon="4.71292">
        <ele>216.43</ele>
        <time>2015-12-19T11:53:25Z</time>
      </trkpt>
      <trkpt lat="45.85576" lon="4.71282">
        <ele>213.07</ele>
        <time>2015-12-19T11:53:36Z</time>
      </trkpt>
      <trkpt lat="45.85572" lon="4.71282">
        <ele>212.11</ele>
        <time>2015-12-19T11:53:37Z</time>
      </trkpt>
      <trkpt lat="45.85567" lon="4.71281">
        <ele>211.15</ele>
        <time>2015-12-19T11:53:38Z</time>
      </trkpt>
      <trkpt lat="45.85555" lon="4.71276">
        <ele>209.7</ele>
        <time>2015-12-19T11:53:41Z</time>
      </trkpt>
      <trkpt lat="45.85534" lon="4.7127">
        <ele>206.34</ele>
        <time>2015-12-19T11:53:48Z</time>
      </trkpt>
      <trkpt lat="45.85524" lon="4.71267">
        <ele>204.42</ele>
        <time>2015-12-19T11:53:51Z</time>
      </trkpt>
      <trkpt lat="45.85513" lon="4.71263">
        <ele>203.46</ele>
        <time>2015-12-19T11:53:53Z</time>
      </trkpt>
      <trkpt lat="45.85506" lon="4.71261">
        <ele>202.01</ele>
        <time>2015-12-19T11:53:54Z</time>
      </trkpt>
      <trkpt lat="45.85495" lon="4.71256">
        <ele>201.53</ele>
        <time>2015-12-19T11:53:56Z</time>
      </trkpt>
      <trkpt lat="45.85488" lon="4.71255">
        <ele>201.53</ele>
        <time>2015-12-19T11:53:57Z</time>
      </trkpt>
      <trkpt lat="45.85482" lon="4.71254">
        <ele>201.53</ele>
        <time>2015-12-19T11:53:58Z</time>
      </trkpt>
      <trkpt lat="45.85476" lon="4.71252">
        <ele>201.53</ele>
        <time>2015-12-19T11:53:59Z</time>
      </trkpt>
      <trkpt lat="45.8547" lon="4.71249">
        <ele>201.53</ele>
        <time>2015-12-19T11:54:00Z</time>
      </trkpt>
      <trkpt lat="45.85466" lon="4.71245">
        <ele>201.53</ele>
        <time>2015-12-19T11:54:01Z</time>
      </trkpt>
      <trkpt lat="45.85461" lon="4.71242">
        <ele>201.05</ele>
        <time>2015-12-19T11:54:02Z</time>
      </trkpt>
      <trkpt lat="45.85456" lon="4.7124">
        <ele>201.53</ele>
        <time>2015-12-19T11:54:03Z</time>
      </trkpt>
      <trkpt lat="45.85452" lon="4.71239">
        <ele>201.05</ele>
        <time>2015-12-19T11:54:04Z</time>
      </trkpt>
      <trkpt lat="45.85436" lon="4.71233">
        <ele>201.53</ele>
        <time>2015-12-19T11:54:09Z</time>
      </trkpt>
      <trkpt lat="45.85435" lon="4.71231">
        <ele>201.53</ele>
        <time>2015-12-19T11:54:10Z</time>
      </trkpt>
      <trkpt lat="45.85436" lon="4.7123">
        <ele>201.53</ele>
        <time>2015-12-19T11:54:12Z</time>
      </trkpt>
      <trkpt lat="45.85462" lon="4.71244">
        <ele>201.05</ele>
        <time>2015-12-19T11:54:22Z</time>
      </trkpt>
      <trkpt lat="45.8548" lon="4.71254">
        <ele>200.57</ele>
        <time>2015-12-19T11:54:30Z</time>
      </trkpt>
      <trkpt lat="45.85481" lon="4.7125">
        <ele>200.09</ele>
        <time>2015-12-19T11:54:33Z</time>
      </trkpt>
      <trkpt lat="45.85481" lon="4.71247">
        <ele>194.8</ele>
        <time>2015-12-19T11:54:36Z</time>
      </trkpt>
      <trkpt lat="45.85481" lon="4.71247">
        <ele>205.38</ele>
        <time>2015-12-19T11:54:37Z</time>
      </trkpt>
      <trkpt lat="45.85481" lon="4.71247">
        <ele>200.09</ele>
        <time>2015-12-19T11:54:38Z</time>
      </trkpt>
      <trkpt lat="45.8548" lon="4.71242">
        <ele>200.57</ele>
        <time>2015-12-19T11:54:51Z</time>
      </trkpt>
      <trkpt lat="45.8548" lon="4.71242">
        <ele>202.01</ele>
        <time>2015-12-19T11:54:57Z</time>
      </trkpt>
      <trkpt lat="45.8548" lon="4.7124">
        <ele>200.57</ele>
        <time>2015-12-19T11:54:59Z</time>
      </trkpt>
      <trkpt lat="45.8548" lon="4.71238">
        <ele>200.09</ele>
        <time>2015-12-19T11:55:00Z</time>
      </trkpt>
      <trkpt lat="45.85481" lon="4.71235">
        <ele>201.05</ele>
        <time>2015-12-19T11:55:02Z</time>
      </trkpt>
      <trkpt lat="45.85484" lon="4.71218">
        <ele>202.49</ele>
        <time>2015-12-19T11:55:12Z</time>
      </trkpt>
      <trkpt lat="45.85488" lon="4.71193">
        <ele>204.9</ele>
        <time>2015-12-19T11:55:22Z</time>
      </trkpt>
      <trkpt lat="45.85495" lon="4.71185">
        <ele>206.82</ele>
        <time>2015-12-19T11:55:33Z</time>
      </trkpt>
      <trkpt lat="45.85502" lon="4.71177">
        <ele>208.74</ele>
        <time>2015-12-19T11:55:45Z</time>
      </trkpt>
      <trkpt lat="45.85509" lon="4.71164">
        <ele>210.67</ele>
        <time>2015-12-19T11:55:59Z</time>
      </trkpt>
      <trkpt lat="45.85516" lon="4.7115">
        <ele>212.59</ele>
        <time>2015-12-19T11:56:11Z</time>
      </trkpt>
      <trkpt lat="45.85519" lon="4.71142">
        <ele>212.59</ele>
        <time>2015-12-19T11:56:23Z</time>
      </trkpt>
      <trkpt lat="45.85518" lon="4.7112">
        <ele>213.55</ele>
        <time>2015-12-19T11:56:35Z</time>
      </trkpt>
      <trkpt lat="45.8552" lon="4.71101">
        <ele>214.99</ele>
        <time>2015-12-19T11:56:42Z</time>
      </trkpt>
      <trkpt lat="45.8552" lon="4.71099">
        <ele>214.99</ele>
        <time>2015-12-19T11:56:43Z</time>
      </trkpt>
      <trkpt lat="45.85522" lon="4.71073">
        <ele>216.43</ele>
        <time>2015-12-19T11:56:52Z</time>
      </trkpt>
      <trkpt lat="45.85522" lon="4.71071">
        <ele>216.91</ele>
        <time>2015-12-19T11:56:53Z</time>
      </trkpt>
      <trkpt lat="45.85523" lon="4.71065">
        <ele>216.91</ele>
        <time>2015-12-19T11:56:56Z</time>
      </trkpt>
      <trkpt lat="45.85522" lon="4.71062">
        <ele>216.91</ele>
        <time>2015-12-19T11:56:57Z</time>
      </trkpt>
      <trkpt lat="45.85522" lon="4.71058">
        <ele>217.4</ele>
        <time>2015-12-19T11:56:58Z</time>
      </trkpt>
      <trkpt lat="45.85522" lon="4.71054">
        <ele>217.4</ele>
        <time>2015-12-19T11:56:59Z</time>
      </trkpt>
      <trkpt lat="45.85522" lon="4.71051">
        <ele>216.91</ele>
        <time>2015-12-19T11:57:00Z</time>
      </trkpt>
      <trkpt lat="45.8552" lon="4.71042">
        <ele>217.88</ele>
        <time>2015-12-19T11:57:03Z</time>
      </trkpt>
      <trkpt lat="45.85519" lon="4.71039">
        <ele>218.36</ele>
        <time>2015-12-19T11:57:04Z</time>
      </trkpt>
      <trkpt lat="45.85513" lon="4.7103">
        <ele>218.36</ele>
        <time>2015-12-19T11:57:17Z</time>
      </trkpt>
      <trkpt lat="45.85513" lon="4.7103">
        <ele>217.88</ele>
        <time>2015-12-19T11:57:45Z</time>
      </trkpt>
      <trkpt lat="45.85513" lon="4.7103">
        <ele>217.88</ele>
        <time>2015-12-19T11:58:16Z</time>
      </trkpt>
      <trkpt lat="45.85513" lon="4.7103">
        <ele>218.84</ele>
        <time>2015-12-19T11:58:27Z</time>
      </trkpt>
      <trkpt lat="45.85512" lon="4.71028">
        <ele>218.36</ele>
        <time>2015-12-19T11:58:28Z</time>
      </trkpt>
      <trkpt lat="45.85511" lon="4.71027">
        <ele>218.36</ele>
        <time>2015-12-19T11:58:29Z</time>
      </trkpt>
      <trkpt lat="45.85509" lon="4.71026">
        <ele>218.84</ele>
        <time>2015-12-19T11:58:30Z</time>
      </trkpt>
      <trkpt lat="45.85508" lon="4.71024">
        <ele>218.84</ele>
        <time>2015-12-19T11:58:31Z</time>
      </trkpt>
      <trkpt lat="45.855" lon="4.71011">
        <ele>219.32</ele>
        <time>2015-12-19T11:58:37Z</time>
      </trkpt>
      <trkpt lat="45.855" lon="4.7097">
        <ele>220.76</ele>
        <time>2015-12-19T11:58:50Z</time>
      </trkpt>
      <trkpt lat="45.855" lon="4.70933">
        <ele>220.76</ele>
        <time>2015-12-19T11:59:01Z</time>
      </trkpt>
      <trkpt lat="45.85498" lon="4.70931">
        <ele>220.28</ele>
        <time>2015-12-19T11:59:02Z</time>
      </trkpt>
      <trkpt lat="45.85496" lon="4.7093">
        <ele>220.76</ele>
        <time>2015-12-19T11:59:03Z</time>
      </trkpt>
      <trkpt lat="45.85493" lon="4.7093">
        <ele>220.76</ele>
        <time>2015-12-19T11:59:04Z</time>
      </trkpt>
      <trkpt lat="45.8549" lon="4.70929">
        <ele>220.28</ele>
        <time>2015-12-19T11:59:05Z</time>
      </trkpt>
      <trkpt lat="45.85487" lon="4.70928">
        <ele>220.76</ele>
        <time>2015-12-19T11:59:06Z</time>
      </trkpt>
      <trkpt lat="45.85485" lon="4.70926">
        <ele>220.76</ele>
        <time>2015-12-19T11:59:07Z</time>
      </trkpt>
      <trkpt lat="45.8548" lon="4.70925">
        <ele>216.91</ele>
        <time>2015-12-19T11:59:09Z</time>
      </trkpt>
      <trkpt lat="45.85477" lon="4.70925">
        <ele>223.16</ele>
        <time>2015-12-19T11:59:10Z</time>
      </trkpt>
      <trkpt lat="45.85451" lon="4.7092">
        <ele>221.72</ele>
        <time>2015-12-19T11:59:19Z</time>
      </trkpt>
      <trkpt lat="45.85421" lon="4.70904">
        <ele>222.2</ele>
        <time>2015-12-19T11:59:33Z</time>
      </trkpt>
      <trkpt lat="45.85389" lon="4.70887">
        <ele>223.16</ele>
        <time>2015-12-19T11:59:49Z</time>
      </trkpt>
      <trkpt lat="45.85352" lon="4.70874">
        <ele>223.64</ele>
        <time>2015-12-19T12:00:04Z</time>
      </trkpt>
      <trkpt lat="45.85325" lon="4.7085">
        <ele>225.09</ele>
        <time>2015-12-19T12:00:17Z</time>
      </trkpt>
      <trkpt lat="45.85304" lon="4.70821">
        <ele>226.53</ele>
        <time>2015-12-19T12:00:30Z</time>
      </trkpt>
      <trkpt lat="45.85276" lon="4.70787">
        <ele>227.97</ele>
        <time>2015-12-19T12:00:43Z</time>
      </trkpt>
      <trkpt lat="45.8525" lon="4.70794">
        <ele>229.41</ele>
        <time>2015-12-19T12:00:54Z</time>
      </trkpt>
      <trkpt lat="45.85224" lon="4.70816">
        <ele>231.81</ele>
        <time>2015-12-19T12:01:06Z</time>
      </trkpt>
      <trkpt lat="45.85193" lon="4.70834">
        <ele>233.26</ele>
        <time>2015-12-19T12:01:20Z</time>
      </trkpt>
      <trkpt lat="45.8517" lon="4.70835">
        <ele>235.66</ele>
        <time>2015-12-19T12:01:31Z</time>
      </trkpt>
      <trkpt lat="45.85146" lon="4.70821">
        <ele>238.06</ele>
        <time>2015-12-19T12:01:44Z</time>
      </trkpt>
      <trkpt lat="45.85128" lon="4.70814">
        <ele>241.43</ele>
        <time>2015-12-19T12:01:56Z</time>
      </trkpt>
      <trkpt lat="45.85105" lon="4.70812">
        <ele>244.31</ele>
        <time>2015-12-19T12:02:10Z</time>
      </trkpt>
      <trkpt lat="45.85082" lon="4.70812">
        <ele>247.2</ele>
        <time>2015-12-19T12:02:25Z</time>
      </trkpt>
      <trkpt lat="45.8508" lon="4.70811">
        <ele>248.16</ele>
        <time>2015-12-19T12:02:27Z</time>
      </trkpt>
      <trkpt lat="45.85074" lon="4.70809">
        <ele>249.12</ele>
        <time>2015-12-19T12:02:31Z</time>
      </trkpt>
      <trkpt lat="45.85072" lon="4.70809">
        <ele>248.64</ele>
        <time>2015-12-19T12:02:32Z</time>
      </trkpt>
      <trkpt lat="45.85071" lon="4.70809">
        <ele>249.12</ele>
        <time>2015-12-19T12:02:33Z</time>
      </trkpt>
      <trkpt lat="45.85066" lon="4.70808">
        <ele>249.6</ele>
        <time>2015-12-19T12:02:36Z</time>
      </trkpt>
      <trkpt lat="45.85065" lon="4.70808">
        <ele>251.04</ele>
        <time>2015-12-19T12:02:37Z</time>
      </trkpt>
      <trkpt lat="45.85057" lon="4.70806">
        <ele>252</ele>
        <time>2015-12-19T12:02:42Z</time>
      </trkpt>
      <trkpt lat="45.85055" lon="4.70805">
        <ele>252</ele>
        <time>2015-12-19T12:02:43Z</time>
      </trkpt>
      <trkpt lat="45.85053" lon="4.70805">
        <ele>251.52</ele>
        <time>2015-12-19T12:02:44Z</time>
      </trkpt>
      <trkpt lat="45.85052" lon="4.70805">
        <ele>251.52</ele>
        <time>2015-12-19T12:02:45Z</time>
      </trkpt>
      <trkpt lat="45.85051" lon="4.70804">
        <ele>252.48</ele>
        <time>2015-12-19T12:02:46Z</time>
      </trkpt>
      <trkpt lat="45.85049" lon="4.70804">
        <ele>252.96</ele>
        <time>2015-12-19T12:02:47Z</time>
      </trkpt>
      <trkpt lat="45.85048" lon="4.70803">
        <ele>252.48</ele>
        <time>2015-12-19T12:02:48Z</time>
      </trkpt>
      <trkpt lat="45.85046" lon="4.70802">
        <ele>253.44</ele>
        <time>2015-12-19T12:02:49Z</time>
      </trkpt>
      <trkpt lat="45.85045" lon="4.70802">
        <ele>253.44</ele>
        <time>2015-12-19T12:02:50Z</time>
      </trkpt>
      <trkpt lat="45.85039" lon="4.70799">
        <ele>254.89</ele>
        <time>2015-12-19T12:02:54Z</time>
      </trkpt>
      <trkpt lat="45.85018" lon="4.70788">
        <ele>257.77</ele>
        <time>2015-12-19T12:03:08Z</time>
      </trkpt>
      <trkpt lat="45.8501" lon="4.70785">
        <ele>259.21</ele>
        <time>2015-12-19T12:03:14Z</time>
      </trkpt>
      <trkpt lat="45.85009" lon="4.70785">
        <ele>259.21</ele>
        <time>2015-12-19T12:03:15Z</time>
      </trkpt>
      <trkpt lat="45.84994" lon="4.70781">
        <ele>262.1</ele>
        <time>2015-12-19T12:03:28Z</time>
      </trkpt>
      <trkpt lat="45.84987" lon="4.70778">
        <ele>262.58</ele>
        <time>2015-12-19T12:03:33Z</time>
      </trkpt>
      <trkpt lat="45.84981" lon="4.70778">
        <ele>263.06</ele>
        <time>2015-12-19T12:03:37Z</time>
      </trkpt>
      <trkpt lat="45.84963" lon="4.70777">
        <ele>265.46</ele>
        <time>2015-12-19T12:03:50Z</time>
      </trkpt>
      <trkpt lat="45.84955" lon="4.70775">
        <ele>265.94</ele>
        <time>2015-12-19T12:03:56Z</time>
      </trkpt>
      <trkpt lat="45.84954" lon="4.70774">
        <ele>265.94</ele>
        <time>2015-12-19T12:03:57Z</time>
      </trkpt>
      <trkpt lat="45.84933" lon="4.70768">
        <ele>266.9</ele>
        <time>2015-12-19T12:04:10Z</time>
      </trkpt>
      <trkpt lat="45.84931" lon="4.70768">
        <ele>266.42</ele>
        <time>2015-12-19T12:04:11Z</time>
      </trkpt>
      <trkpt lat="45.84929" lon="4.70767">
        <ele>267.38</ele>
        <time>2015-12-19T12:04:12Z</time>
      </trkpt>
      <trkpt lat="45.84927" lon="4.70766">
        <ele>267.38</ele>
        <time>2015-12-19T12:04:13Z</time>
      </trkpt>
      <trkpt lat="45.84924" lon="4.70765">
        <ele>268.35</ele>
        <time>2015-12-19T12:04:14Z</time>
      </trkpt>
      <trkpt lat="45.84922" lon="4.70764">
        <ele>267.38</ele>
        <time>2015-12-19T12:04:15Z</time>
      </trkpt>
      <trkpt lat="45.84919" lon="4.70762">
        <ele>267.38</ele>
        <time>2015-12-19T12:04:16Z</time>
      </trkpt>
      <trkpt lat="45.84884" lon="4.70748">
        <ele>267.86</ele>
        <time>2015-12-19T12:04:31Z</time>
      </trkpt>
      <trkpt lat="45.84872" lon="4.7074">
        <ele>268.35</ele>
        <time>2015-12-19T12:04:43Z</time>
      </trkpt>
      <trkpt lat="45.84872" lon="4.7074">
        <ele>267.86</ele>
        <time>2015-12-19T12:05:16Z</time>
      </trkpt>
      <trkpt lat="45.84872" lon="4.7074">
        <ele>267.86</ele>
        <time>2015-12-19T12:05:55Z</time>
      </trkpt>
      <trkpt lat="45.84872" lon="4.7074">
        <ele>268.35</ele>
        <time>2015-12-19T12:06:29Z</time>
      </trkpt>
      <trkpt lat="45.84872" lon="4.7074">
        <ele>267.86</ele>
        <time>2015-12-19T12:07:07Z</time>
      </trkpt>
      <trkpt lat="45.84873" lon="4.7074">
        <ele>267.38</ele>
        <time>2015-12-19T12:07:10Z</time>
      </trkpt>
      <trkpt lat="45.84874" lon="4.70739">
        <ele>268.35</ele>
        <time>2015-12-19T12:07:22Z</time>
      </trkpt>
      <trkpt lat="45.84873" lon="4.70738">
        <ele>267.86</ele>
        <time>2015-12-19T12:07:36Z</time>
      </trkpt>
      <trkpt lat="45.84873" lon="4.70737">
        <ele>267.86</ele>
        <time>2015-12-19T12:07:38Z</time>
      </trkpt>
      <trkpt lat="45.84871" lon="4.70735">
        <ele>267.86</ele>
        <time>2015-12-19T12:07:40Z</time>
      </trkpt>
      <trkpt lat="45.84869" lon="4.70733">
        <ele>267.86</ele>
        <time>2015-12-19T12:07:42Z</time>
      </trkpt>
      <trkpt lat="45.84868" lon="4.70731">
        <ele>267.86</ele>
        <time>2015-12-19T12:07:43Z</time>
      </trkpt>
      <trkpt lat="45.84867" lon="4.70729">
        <ele>268.35</ele>
        <time>2015-12-19T12:07:44Z</time>
      </trkpt>
      <trkpt lat="45.84843" lon="4.70693">
        <ele>268.83</ele>
        <time>2015-12-19T12:07:58Z</time>
      </trkpt>
      <trkpt lat="45.8482" lon="4.70651">
        <ele>270.75</ele>
        <time>2015-12-19T12:08:09Z</time>
      </trkpt>
      <trkpt lat="45.84792" lon="4.70604">
        <ele>271.23</ele>
        <time>2015-12-19T12:08:22Z</time>
      </trkpt>
      <trkpt lat="45.84749" lon="4.70548">
        <ele>272.19</ele>
        <time>2015-12-19T12:08:41Z</time>
      </trkpt>
      <trkpt lat="45.84718" lon="4.70509">
        <ele>272.67</ele>
        <time>2015-12-19T12:08:55Z</time>
      </trkpt>
      <trkpt lat="45.84679" lon="4.70476">
        <ele>273.15</ele>
        <time>2015-12-19T12:09:09Z</time>
      </trkpt>
      <trkpt lat="45.84634" lon="4.70475">
        <ele>274.11</ele>
        <time>2015-12-19T12:09:23Z</time>
      </trkpt>
      <trkpt lat="45.846" lon="4.70477">
        <ele>274.11</ele>
        <time>2015-12-19T12:09:34Z</time>
      </trkpt>
      <trkpt lat="45.84561" lon="4.70469">
        <ele>274.59</ele>
        <time>2015-12-19T12:09:48Z</time>
      </trkpt>
      <trkpt lat="45.84533" lon="4.70466">
        <ele>275.07</ele>
        <time>2015-12-19T12:09:58Z</time>
      </trkpt>
      <trkpt lat="45.84501" lon="4.70455">
        <ele>275.07</ele>
        <time>2015-12-19T12:10:09Z</time>
      </trkpt>
      <trkpt lat="45.84454" lon="4.70444">
        <ele>277</ele>
        <time>2015-12-19T12:10:23Z</time>
      </trkpt>
      <trkpt lat="45.84427" lon="4.70432">
        <ele>277.96</ele>
        <time>2015-12-19T12:10:34Z</time>
      </trkpt>
      <trkpt lat="45.84397" lon="4.70425">
        <ele>279.4</ele>
        <time>2015-12-19T12:10:45Z</time>
      </trkpt>
      <trkpt lat="45.84366" lon="4.70413">
        <ele>280.36</ele>
        <time>2015-12-19T12:10:57Z</time>
      </trkpt>
      <trkpt lat="45.84331" lon="4.70393">
        <ele>282.28</ele>
        <time>2015-12-19T12:11:08Z</time>
      </trkpt>
      <trkpt lat="45.84287" lon="4.70371">
        <ele>282.77</ele>
        <time>2015-12-19T12:11:20Z</time>
      </trkpt>
      <trkpt lat="45.84244" lon="4.70343">
        <ele>283.25</ele>
        <time>2015-12-19T12:11:34Z</time>
      </trkpt>
      <trkpt lat="45.8422" lon="4.70332">
        <ele>283.73</ele>
        <time>2015-12-19T12:11:42Z</time>
      </trkpt>
      <trkpt lat="45.84217" lon="4.7033">
        <ele>283.73</ele>
        <time>2015-12-19T12:11:43Z</time>
      </trkpt>
      <trkpt lat="45.84214" lon="4.70329">
        <ele>284.21</ele>
        <time>2015-12-19T12:11:44Z</time>
      </trkpt>
      <trkpt lat="45.8421" lon="4.70329">
        <ele>283.25</ele>
        <time>2015-12-19T12:11:45Z</time>
      </trkpt>
      <trkpt lat="45.84207" lon="4.70329">
        <ele>283.73</ele>
        <time>2015-12-19T12:11:46Z</time>
      </trkpt>
      <trkpt lat="45.84204" lon="4.70329">
        <ele>283.73</ele>
        <time>2015-12-19T12:11:47Z</time>
      </trkpt>
      <trkpt lat="45.84169" lon="4.70322">
        <ele>283.73</ele>
        <time>2015-12-19T12:11:58Z</time>
      </trkpt>
      <trkpt lat="45.84137" lon="4.70339">
        <ele>284.21</ele>
        <time>2015-12-19T12:12:09Z</time>
      </trkpt>
      <trkpt lat="45.84122" lon="4.70351">
        <ele>284.21</ele>
        <time>2015-12-19T12:12:17Z</time>
      </trkpt>
      <trkpt lat="45.8412" lon="4.70351">
        <ele>285.17</ele>
        <time>2015-12-19T12:12:18Z</time>
      </trkpt>
      <trkpt lat="45.84119" lon="4.7035">
        <ele>283.73</ele>
        <time>2015-12-19T12:12:19Z</time>
      </trkpt>
      <trkpt lat="45.84118" lon="4.70349">
        <ele>284.21</ele>
        <time>2015-12-19T12:12:20Z</time>
      </trkpt>
      <trkpt lat="45.84117" lon="4.70347">
        <ele>283.73</ele>
        <time>2015-12-19T12:12:21Z</time>
      </trkpt>
      <trkpt lat="45.84117" lon="4.70344">
        <ele>284.69</ele>
        <time>2015-12-19T12:12:22Z</time>
      </trkpt>
      <trkpt lat="45.84117" lon="4.70342">
        <ele>284.21</ele>
        <time>2015-12-19T12:12:23Z</time>
      </trkpt>
      <trkpt lat="45.84118" lon="4.7034">
        <ele>284.21</ele>
        <time>2015-12-19T12:12:24Z</time>
      </trkpt>
      <trkpt lat="45.84117" lon="4.70338">
        <ele>284.21</ele>
        <time>2015-12-19T12:12:25Z</time>
      </trkpt>
      <trkpt lat="45.84117" lon="4.70335">
        <ele>284.69</ele>
        <time>2015-12-19T12:12:26Z</time>
      </trkpt>
      <trkpt lat="45.84117" lon="4.70332">
        <ele>284.21</ele>
        <time>2015-12-19T12:12:27Z</time>
      </trkpt>
      <trkpt lat="45.84117" lon="4.7033">
        <ele>284.21</ele>
        <time>2015-12-19T12:12:28Z</time>
      </trkpt>
      <trkpt lat="45.84113" lon="4.70281">
        <ele>284.69</ele>
        <time>2015-12-19T12:12:41Z</time>
      </trkpt>
      <trkpt lat="45.84106" lon="4.70171">
        <ele>283.73</ele>
        <time>2015-12-19T12:12:56Z</time>
      </trkpt>
      <trkpt lat="45.84104" lon="4.70142">
        <ele>282.77</ele>
        <time>2015-12-19T12:13:00Z</time>
      </trkpt>
      <trkpt lat="45.84106" lon="4.70136">
        <ele>281.8</ele>
        <time>2015-12-19T12:13:01Z</time>
      </trkpt>
      <trkpt lat="45.84109" lon="4.70131">
        <ele>281.8</ele>
        <time>2015-12-19T12:13:02Z</time>
      </trkpt>
      <trkpt lat="45.84114" lon="4.70127">
        <ele>281.8</ele>
        <time>2015-12-19T12:13:03Z</time>
      </trkpt>
      <trkpt lat="45.84119" lon="4.70124">
        <ele>280.84</ele>
        <time>2015-12-19T12:13:04Z</time>
      </trkpt>
      <trkpt lat="45.84142" lon="4.70106">
        <ele>279.88</ele>
        <time>2015-12-19T12:13:08Z</time>
      </trkpt>
      <trkpt lat="45.84147" lon="4.701">
        <ele>278.92</ele>
        <time>2015-12-19T12:13:09Z</time>
      </trkpt>
      <trkpt lat="45.84153" lon="4.70094">
        <ele>279.4</ele>
        <time>2015-12-19T12:13:10Z</time>
      </trkpt>
      <trkpt lat="45.84165" lon="4.70085">
        <ele>277.96</ele>
        <time>2015-12-19T12:13:12Z</time>
      </trkpt>
      <trkpt lat="45.84172" lon="4.70083">
        <ele>277.48</ele>
        <time>2015-12-19T12:13:13Z</time>
      </trkpt>
      <trkpt lat="45.84178" lon="4.7008">
        <ele>277.48</ele>
        <time>2015-12-19T12:13:14Z</time>
      </trkpt>
      <trkpt lat="45.84185" lon="4.70077">
        <ele>277</ele>
        <time>2015-12-19T12:13:15Z</time>
      </trkpt>
      <trkpt lat="45.84191" lon="4.70072">
        <ele>276.52</ele>
        <time>2015-12-19T12:13:16Z</time>
      </trkpt>
      <trkpt lat="45.84211" lon="4.70059">
        <ele>274.59</ele>
        <time>2015-12-19T12:13:19Z</time>
      </trkpt>
      <trkpt lat="45.84217" lon="4.70057">
        <ele>274.59</ele>
        <time>2015-12-19T12:13:20Z</time>
      </trkpt>
      <trkpt lat="45.84223" lon="4.70053">
        <ele>273.63</ele>
        <time>2015-12-19T12:13:21Z</time>
      </trkpt>
      <trkpt lat="45.84229" lon="4.70049">
        <ele>273.15</ele>
        <time>2015-12-19T12:13:22Z</time>
      </trkpt>
      <trkpt lat="45.84236" lon="4.70047">
        <ele>272.67</ele>
        <time>2015-12-19T12:13:23Z</time>
      </trkpt>
      <trkpt lat="45.84242" lon="4.70045">
        <ele>272.67</ele>
        <time>2015-12-19T12:13:24Z</time>
      </trkpt>
      <trkpt lat="45.84256" lon="4.70042">
        <ele>272.67</ele>
        <time>2015-12-19T12:13:26Z</time>
      </trkpt>
      <trkpt lat="45.84263" lon="4.70043">
        <ele>272.67</ele>
        <time>2015-12-19T12:13:27Z</time>
      </trkpt>
      <trkpt lat="45.84269" lon="4.70044">
        <ele>271.71</ele>
        <time>2015-12-19T12:13:28Z</time>
      </trkpt>
      <trkpt lat="45.84274" lon="4.70048">
        <ele>271.71</ele>
        <time>2015-12-19T12:13:29Z</time>
      </trkpt>
      <trkpt lat="45.84279" lon="4.70052">
        <ele>271.71</ele>
        <time>2015-12-19T12:13:30Z</time>
      </trkpt>
      <trkpt lat="45.84284" lon="4.70057">
        <ele>271.71</ele>
        <time>2015-12-19T12:13:31Z</time>
      </trkpt>
      <trkpt lat="45.8429" lon="4.70063">
        <ele>271.23</ele>
        <time>2015-12-19T12:13:32Z</time>
      </trkpt>
      <trkpt lat="45.84335" lon="4.70103">
        <ele>269.79</ele>
        <time>2015-12-19T12:13:40Z</time>
      </trkpt>
      <trkpt lat="45.8434" lon="4.70106">
        <ele>270.27</ele>
        <time>2015-12-19T12:13:41Z</time>
      </trkpt>
      <trkpt lat="45.84346" lon="4.70108">
        <ele>269.79</ele>
        <time>2015-12-19T12:13:42Z</time>
      </trkpt>
      <trkpt lat="45.84352" lon="4.70108">
        <ele>269.31</ele>
        <time>2015-12-19T12:13:43Z</time>
      </trkpt>
      <trkpt lat="45.84358" lon="4.70108">
        <ele>269.79</ele>
        <time>2015-12-19T12:13:44Z</time>
      </trkpt>
      <trkpt lat="45.84364" lon="4.70109">
        <ele>269.79</ele>
        <time>2015-12-19T12:13:45Z</time>
      </trkpt>
      <trkpt lat="45.84406" lon="4.70113">
        <ele>271.23</ele>
        <time>2015-12-19T12:13:52Z</time>
      </trkpt>
      <trkpt lat="45.84411" lon="4.70112">
        <ele>271.71</ele>
        <time>2015-12-19T12:13:53Z</time>
      </trkpt>
      <trkpt lat="45.84415" lon="4.70111">
        <ele>270.75</ele>
        <time>2015-12-19T12:13:54Z</time>
      </trkpt>
      <trkpt lat="45.84419" lon="4.70108">
        <ele>271.71</ele>
        <time>2015-12-19T12:13:55Z</time>
      </trkpt>
      <trkpt lat="45.84423" lon="4.70103">
        <ele>271.23</ele>
        <time>2015-12-19T12:13:56Z</time>
      </trkpt>
      <trkpt lat="45.84436" lon="4.70088">
        <ele>271.71</ele>
        <time>2015-12-19T12:13:59Z</time>
      </trkpt>
      <trkpt lat="45.84444" lon="4.70077">
        <ele>271.71</ele>
        <time>2015-12-19T12:14:01Z</time>
      </trkpt>
      <trkpt lat="45.84448" lon="4.70072">
        <ele>270.75</ele>
        <time>2015-12-19T12:14:02Z</time>
      </trkpt>
      <trkpt lat="45.84465" lon="4.70045">
        <ele>270.75</ele>
        <time>2015-12-19T12:14:06Z</time>
      </trkpt>
      <trkpt lat="45.84468" lon="4.70037">
        <ele>270.75</ele>
        <time>2015-12-19T12:14:07Z</time>
      </trkpt>
      <trkpt lat="45.84471" lon="4.7003">
        <ele>270.75</ele>
        <time>2015-12-19T12:14:08Z</time>
      </trkpt>
      <trkpt lat="45.84473" lon="4.70022">
        <ele>269.79</ele>
        <time>2015-12-19T12:14:09Z</time>
      </trkpt>
      <trkpt lat="45.84476" lon="4.70017">
        <ele>269.79</ele>
        <time>2015-12-19T12:14:10Z</time>
      </trkpt>
      <trkpt lat="45.84479" lon="4.70016">
        <ele>269.31</ele>
        <time>2015-12-19T12:14:11Z</time>
      </trkpt>
      <trkpt lat="45.84481" lon="4.70016">
        <ele>268.83</ele>
        <time>2015-12-19T12:14:12Z</time>
      </trkpt>
      <trkpt lat="45.84483" lon="4.70017">
        <ele>269.31</ele>
        <time>2015-12-19T12:14:13Z</time>
      </trkpt>
      <trkpt lat="45.84486" lon="4.7002">
        <ele>269.79</ele>
        <time>2015-12-19T12:14:14Z</time>
      </trkpt>
      <trkpt lat="45.8449" lon="4.70022">
        <ele>269.31</ele>
        <time>2015-12-19T12:14:15Z</time>
      </trkpt>
      <trkpt lat="45.84494" lon="4.70024">
        <ele>269.31</ele>
        <time>2015-12-19T12:14:16Z</time>
      </trkpt>
      <trkpt lat="45.84499" lon="4.70027">
        <ele>269.79</ele>
        <time>2015-12-19T12:14:17Z</time>
      </trkpt>
      <trkpt lat="45.84504" lon="4.7003">
        <ele>269.31</ele>
        <time>2015-12-19T12:14:18Z</time>
      </trkpt>
      <trkpt lat="45.84509" lon="4.70035">
        <ele>269.31</ele>
        <time>2015-12-19T12:14:19Z</time>
      </trkpt>
      <trkpt lat="45.84512" lon="4.70039">
        <ele>269.31</ele>
        <time>2015-12-19T12:14:20Z</time>
      </trkpt>
      <trkpt lat="45.84516" lon="4.70043">
        <ele>269.79</ele>
        <time>2015-12-19T12:14:21Z</time>
      </trkpt>
      <trkpt lat="45.84528" lon="4.70054">
        <ele>269.79</ele>
        <time>2015-12-19T12:14:24Z</time>
      </trkpt>
      <trkpt lat="45.84531" lon="4.7006">
        <ele>270.27</ele>
        <time>2015-12-19T12:14:25Z</time>
      </trkpt>
      <trkpt lat="45.84532" lon="4.70065">
        <ele>269.31</ele>
        <time>2015-12-19T12:14:26Z</time>
      </trkpt>
      <trkpt lat="45.84535" lon="4.70071">
        <ele>269.79</ele>
        <time>2015-12-19T12:14:27Z</time>
      </trkpt>
      <trkpt lat="45.84539" lon="4.70075">
        <ele>269.79</ele>
        <time>2015-12-19T12:14:28Z</time>
      </trkpt>
      <trkpt lat="45.84544" lon="4.70082">
        <ele>269.31</ele>
        <time>2015-12-19T12:14:35Z</time>
      </trkpt>
      <trkpt lat="45.84544" lon="4.70082">
        <ele>268.83</ele>
        <time>2015-12-19T12:14:58Z</time>
      </trkpt>
      <trkpt lat="45.84546" lon="4.70084">
        <ele>268.83</ele>
        <time>2015-12-19T12:15:26Z</time>
      </trkpt>
      <trkpt lat="45.84562" lon="4.70098">
        <ele>269.31</ele>
        <time>2015-12-19T12:15:42Z</time>
      </trkpt>
      <trkpt lat="45.84602" lon="4.70138">
        <ele>270.27</ele>
        <time>2015-12-19T12:15:55Z</time>
      </trkpt>
      <trkpt lat="45.84622" lon="4.70151">
        <ele>270.75</ele>
        <time>2015-12-19T12:16:02Z</time>
      </trkpt>
      <trkpt lat="45.84633" lon="4.7014">
        <ele>269.79</ele>
        <time>2015-12-19T12:16:08Z</time>
      </trkpt>
      <trkpt lat="45.84635" lon="4.70139">
        <ele>269.31</ele>
        <time>2015-12-19T12:16:09Z</time>
      </trkpt>
      <trkpt lat="45.84637" lon="4.70138">
        <ele>269.31</ele>
        <time>2015-12-19T12:16:10Z</time>
      </trkpt>
      <trkpt lat="45.84639" lon="4.70137">
        <ele>269.79</ele>
        <time>2015-12-19T12:16:11Z</time>
      </trkpt>
      <trkpt lat="45.84641" lon="4.70136">
        <ele>268.83</ele>
        <time>2015-12-19T12:16:12Z</time>
      </trkpt>
      <trkpt lat="45.84641" lon="4.70134">
        <ele>269.31</ele>
        <time>2015-12-19T12:16:13Z</time>
      </trkpt>
      <trkpt lat="45.84641" lon="4.70131">
        <ele>268.83</ele>
        <time>2015-12-19T12:16:14Z</time>
      </trkpt>
      <trkpt lat="45.84642" lon="4.70127">
        <ele>268.35</ele>
        <time>2015-12-19T12:16:15Z</time>
      </trkpt>
      <trkpt lat="45.84644" lon="4.70123">
        <ele>267.86</ele>
        <time>2015-12-19T12:16:16Z</time>
      </trkpt>
      <trkpt lat="45.84646" lon="4.7012">
        <ele>267.86</ele>
        <time>2015-12-19T12:16:17Z</time>
      </trkpt>
      <trkpt lat="45.8465" lon="4.70115">
        <ele>267.38</ele>
        <time>2015-12-19T12:16:18Z</time>
      </trkpt>
      <trkpt lat="45.8466" lon="4.70104">
        <ele>267.86</ele>
        <time>2015-12-19T12:16:20Z</time>
      </trkpt>
      <trkpt lat="45.84673" lon="4.70093">
        <ele>266.9</ele>
        <time>2015-12-19T12:16:22Z</time>
      </trkpt>
      <trkpt lat="45.84686" lon="4.70084">
        <ele>265.94</ele>
        <time>2015-12-19T12:16:24Z</time>
      </trkpt>
      <trkpt lat="45.84706" lon="4.70071">
        <ele>264.02</ele>
        <time>2015-12-19T12:16:27Z</time>
      </trkpt>
      <trkpt lat="45.84712" lon="4.70064">
        <ele>263.54</ele>
        <time>2015-12-19T12:16:28Z</time>
      </trkpt>
      <trkpt lat="45.84718" lon="4.70057">
        <ele>263.06</ele>
        <time>2015-12-19T12:16:29Z</time>
      </trkpt>
      <trkpt lat="45.84724" lon="4.7005">
        <ele>262.58</ele>
        <time>2015-12-19T12:16:30Z</time>
      </trkpt>
      <trkpt lat="45.84731" lon="4.70045">
        <ele>262.58</ele>
        <time>2015-12-19T12:16:31Z</time>
      </trkpt>
      <trkpt lat="45.84737" lon="4.7004">
        <ele>261.14</ele>
        <time>2015-12-19T12:16:32Z</time>
      </trkpt>
      <trkpt lat="45.84744" lon="4.70035">
        <ele>260.65</ele>
        <time>2015-12-19T12:16:33Z</time>
      </trkpt>
      <trkpt lat="45.84758" lon="4.70027">
        <ele>259.21</ele>
        <time>2015-12-19T12:16:35Z</time>
      </trkpt>
      <trkpt lat="45.84766" lon="4.70025">
        <ele>258.73</ele>
        <time>2015-12-19T12:16:36Z</time>
      </trkpt>
      <trkpt lat="45.8479" lon="4.70023">
        <ele>257.29</ele>
        <time>2015-12-19T12:16:39Z</time>
      </trkpt>
      <trkpt lat="45.84805" lon="4.70022">
        <ele>255.85</ele>
        <time>2015-12-19T12:16:41Z</time>
      </trkpt>
      <trkpt lat="45.84812" lon="4.7002">
        <ele>253.93</ele>
        <time>2015-12-19T12:16:42Z</time>
      </trkpt>
      <trkpt lat="45.84818" lon="4.70018">
        <ele>254.41</ele>
        <time>2015-12-19T12:16:43Z</time>
      </trkpt>
      <trkpt lat="45.84824" lon="4.70015">
        <ele>254.41</ele>
        <time>2015-12-19T12:16:44Z</time>
      </trkpt>
      <trkpt lat="45.8483" lon="4.7001">
        <ele>253.44</ele>
        <time>2015-12-19T12:16:45Z</time>
      </trkpt>
      <trkpt lat="45.84836" lon="4.70006">
        <ele>252.48</ele>
        <time>2015-12-19T12:16:46Z</time>
      </trkpt>
      <trkpt lat="45.84842" lon="4.7">
        <ele>251.52</ele>
        <time>2015-12-19T12:16:47Z</time>
      </trkpt>
      <trkpt lat="45.84847" lon="4.69994">
        <ele>251.04</ele>
        <time>2015-12-19T12:16:48Z</time>
      </trkpt>
      <trkpt lat="45.84851" lon="4.69989">
        <ele>249.12</ele>
        <time>2015-12-19T12:16:49Z</time>
      </trkpt>
      <trkpt lat="45.84858" lon="4.6998">
        <ele>249.12</ele>
        <time>2015-12-19T12:16:51Z</time>
      </trkpt>
      <trkpt lat="45.84862" lon="4.69978">
        <ele>247.68</ele>
        <time>2015-12-19T12:16:52Z</time>
      </trkpt>
      <trkpt lat="45.84867" lon="4.69977">
        <ele>247.2</ele>
        <time>2015-12-19T12:16:53Z</time>
      </trkpt>
      <trkpt lat="45.84877" lon="4.69973">
        <ele>245.27</ele>
        <time>2015-12-19T12:16:55Z</time>
      </trkpt>
      <trkpt lat="45.84881" lon="4.69971">
        <ele>244.31</ele>
        <time>2015-12-19T12:16:56Z</time>
      </trkpt>
      <trkpt lat="45.84886" lon="4.69968">
        <ele>243.83</ele>
        <time>2015-12-19T12:16:57Z</time>
      </trkpt>
      <trkpt lat="45.84896" lon="4.69963">
        <ele>242.39</ele>
        <time>2015-12-19T12:16:59Z</time>
      </trkpt>
      <trkpt lat="45.849" lon="4.69961">
        <ele>240.95</ele>
        <time>2015-12-19T12:17:00Z</time>
      </trkpt>
      <trkpt lat="45.8491" lon="4.6996">
        <ele>240.47</ele>
        <time>2015-12-19T12:17:02Z</time>
      </trkpt>
      <trkpt lat="45.84914" lon="4.6996">
        <ele>239.51</ele>
        <time>2015-12-19T12:17:03Z</time>
      </trkpt>
      <trkpt lat="45.84932" lon="4.69965">
        <ele>238.54</ele>
        <time>2015-12-19T12:17:07Z</time>
      </trkpt>
      <trkpt lat="45.8495" lon="4.69963">
        <ele>235.18</ele>
        <time>2015-12-19T12:17:11Z</time>
      </trkpt>
      <trkpt lat="45.84955" lon="4.69959">
        <ele>234.7</ele>
        <time>2015-12-19T12:17:12Z</time>
      </trkpt>
      <trkpt lat="45.8496" lon="4.69957">
        <ele>235.18</ele>
        <time>2015-12-19T12:17:13Z</time>
      </trkpt>
      <trkpt lat="45.84965" lon="4.69953">
        <ele>234.22</ele>
        <time>2015-12-19T12:17:14Z</time>
      </trkpt>
      <trkpt lat="45.8497" lon="4.69949">
        <ele>233.74</ele>
        <time>2015-12-19T12:17:15Z</time>
      </trkpt>
      <trkpt lat="45.84979" lon="4.69941">
        <ele>233.26</ele>
        <time>2015-12-19T12:17:16Z</time>
      </trkpt>
      <trkpt lat="45.84986" lon="4.69935">
        <ele>232.78</ele>
        <time>2015-12-19T12:17:17Z</time>
      </trkpt>
      <trkpt lat="45.84995" lon="4.69929">
        <ele>232.3</ele>
        <time>2015-12-19T12:17:18Z</time>
      </trkpt>
      <trkpt lat="45.85023" lon="4.69912">
        <ele>230.85</ele>
        <time>2015-12-19T12:17:22Z</time>
      </trkpt>
      <trkpt lat="45.85028" lon="4.69909">
        <ele>230.37</ele>
        <time>2015-12-19T12:17:23Z</time>
      </trkpt>
      <trkpt lat="45.85034" lon="4.69906">
        <ele>229.41</ele>
        <time>2015-12-19T12:17:24Z</time>
      </trkpt>
      <trkpt lat="45.85041" lon="4.69905">
        <ele>228.93</ele>
        <time>2015-12-19T12:17:25Z</time>
      </trkpt>
      <trkpt lat="45.85047" lon="4.69904">
        <ele>228.93</ele>
        <time>2015-12-19T12:17:26Z</time>
      </trkpt>
      <trkpt lat="45.85059" lon="4.69901">
        <ele>227.97</ele>
        <time>2015-12-19T12:17:28Z</time>
      </trkpt>
      <trkpt lat="45.85071" lon="4.69896">
        <ele>227.01</ele>
        <time>2015-12-19T12:17:30Z</time>
      </trkpt>
      <trkpt lat="45.85077" lon="4.69892">
        <ele>226.05</ele>
        <time>2015-12-19T12:17:31Z</time>
      </trkpt>
      <trkpt lat="45.851" lon="4.6987">
        <ele>222.2</ele>
        <time>2015-12-19T12:17:35Z</time>
      </trkpt>
      <trkpt lat="45.85116" lon="4.69854">
        <ele>220.28</ele>
        <time>2015-12-19T12:17:38Z</time>
      </trkpt>
      <trkpt lat="45.8512" lon="4.69851">
        <ele>218.84</ele>
        <time>2015-12-19T12:17:39Z</time>
      </trkpt>
      <trkpt lat="45.85124" lon="4.69849">
        <ele>218.36</ele>
        <time>2015-12-19T12:17:40Z</time>
      </trkpt>
      <trkpt lat="45.85139" lon="4.69843">
        <ele>216.43</ele>
        <time>2015-12-19T12:17:45Z</time>
      </trkpt>
      <trkpt lat="45.85143" lon="4.69841">
        <ele>215.95</ele>
        <time>2015-12-19T12:17:56Z</time>
      </trkpt>
      <trkpt lat="45.85143" lon="4.69841">
        <ele>214.99</ele>
        <time>2015-12-19T12:18:23Z</time>
      </trkpt>
      <trkpt lat="45.85144" lon="4.69841">
        <ele>214.99</ele>
        <time>2015-12-19T12:18:54Z</time>
      </trkpt>
      <trkpt lat="45.85145" lon="4.6984">
        <ele>214.99</ele>
        <time>2015-12-19T12:19:27Z</time>
      </trkpt>
      <trkpt lat="45.85145" lon="4.69839">
        <ele>214.99</ele>
        <time>2015-12-19T12:19:31Z</time>
      </trkpt>
      <trkpt lat="45.85146" lon="4.69836">
        <ele>214.99</ele>
        <time>2015-12-19T12:19:32Z</time>
      </trkpt>
      <trkpt lat="45.85146" lon="4.6983">
        <ele>214.03</ele>
        <time>2015-12-19T12:19:33Z</time>
      </trkpt>
      <trkpt lat="45.85145" lon="4.69823">
        <ele>213.55</ele>
        <time>2015-12-19T12:19:34Z</time>
      </trkpt>
      <trkpt lat="45.85144" lon="4.69813">
        <ele>213.07</ele>
        <time>2015-12-19T12:19:35Z</time>
      </trkpt>
      <trkpt lat="45.85142" lon="4.69803">
        <ele>211.63</ele>
        <time>2015-12-19T12:19:36Z</time>
      </trkpt>
      <trkpt lat="45.85131" lon="4.69721">
        <ele>208.26</ele>
        <time>2015-12-19T12:19:43Z</time>
      </trkpt>
      <trkpt lat="45.85129" lon="4.69692">
        <ele>209.22</ele>
        <time>2015-12-19T12:19:46Z</time>
      </trkpt>
      <trkpt lat="45.85128" lon="4.69684">
        <ele>208.74</ele>
        <time>2015-12-19T12:19:47Z</time>
      </trkpt>
      <trkpt lat="45.85127" lon="4.69678">
        <ele>209.7</ele>
        <time>2015-12-19T12:19:48Z</time>
      </trkpt>
      <trkpt lat="45.85125" lon="4.69674">
        <ele>210.19</ele>
        <time>2015-12-19T12:19:49Z</time>
      </trkpt>
      <trkpt lat="45.85123" lon="4.69671">
        <ele>210.67</ele>
        <time>2015-12-19T12:19:50Z</time>
      </trkpt>
      <trkpt lat="45.85121" lon="4.69669">
        <ele>210.67</ele>
        <time>2015-12-19T12:19:51Z</time>
      </trkpt>
      <trkpt lat="45.85119" lon="4.69668">
        <ele>211.15</ele>
        <time>2015-12-19T12:19:52Z</time>
      </trkpt>
      <trkpt lat="45.85117" lon="4.69668">
        <ele>211.63</ele>
        <time>2015-12-19T12:19:53Z</time>
      </trkpt>
      <trkpt lat="45.85094" lon="4.69662">
        <ele>214.03</ele>
        <time>2015-12-19T12:20:02Z</time>
      </trkpt>
      <trkpt lat="45.85062" lon="4.69654">
        <ele>217.88</ele>
        <time>2015-12-19T12:20:15Z</time>
      </trkpt>
      <trkpt lat="45.85028" lon="4.69645">
        <ele>221.24</ele>
        <time>2015-12-19T12:20:30Z</time>
      </trkpt>
      <trkpt lat="45.84998" lon="4.69638">
        <ele>222.2</ele>
        <time>2015-12-19T12:20:44Z</time>
      </trkpt>
      <trkpt lat="45.84975" lon="4.69636">
        <ele>226.05</ele>
        <time>2015-12-19T12:20:54Z</time>
      </trkpt>
      <trkpt lat="45.84961" lon="4.69632">
        <ele>223.16</ele>
        <time>2015-12-19T12:21:00Z</time>
      </trkpt>
      <trkpt lat="45.84926" lon="4.69615">
        <ele>225.09</ele>
        <time>2015-12-19T12:21:14Z</time>
      </trkpt>
      <trkpt lat="45.84892" lon="4.69598">
        <ele>228.45</ele>
        <time>2015-12-19T12:21:30Z</time>
      </trkpt>
      <trkpt lat="45.8488" lon="4.69592">
        <ele>229.41</ele>
        <time>2015-12-19T12:21:37Z</time>
      </trkpt>
      <trkpt lat="45.84879" lon="4.69591">
        <ele>229.89</ele>
        <time>2015-12-19T12:21:38Z</time>
      </trkpt>
      <trkpt lat="45.84853" lon="4.6958">
        <ele>231.33</ele>
        <time>2015-12-19T12:21:52Z</time>
      </trkpt>
      <trkpt lat="45.84833" lon="4.69568">
        <ele>234.22</ele>
        <time>2015-12-19T12:22:05Z</time>
      </trkpt>
      <trkpt lat="45.84813" lon="4.69546">
        <ele>237.58</ele>
        <time>2015-12-19T12:22:20Z</time>
      </trkpt>
      <trkpt lat="45.84797" lon="4.69524">
        <ele>240.47</ele>
        <time>2015-12-19T12:22:34Z</time>
      </trkpt>
      <trkpt lat="45.84777" lon="4.69496">
        <ele>242.87</ele>
        <time>2015-12-19T12:22:52Z</time>
      </trkpt>
      <trkpt lat="45.84755" lon="4.69469">
        <ele>245.27</ele>
        <time>2015-12-19T12:23:09Z</time>
      </trkpt>
      <trkpt lat="45.84737" lon="4.69445">
        <ele>247.2</ele>
        <time>2015-12-19T12:23:23Z</time>
      </trkpt>
      <trkpt lat="45.84719" lon="4.69421">
        <ele>249.12</ele>
        <time>2015-12-19T12:23:37Z</time>
      </trkpt>
      <trkpt lat="45.84696" lon="4.69397">
        <ele>251.04</ele>
        <time>2015-12-19T12:23:53Z</time>
      </trkpt>
      <trkpt lat="45.84673" lon="4.69382">
        <ele>252</ele>
        <time>2015-12-19T12:24:07Z</time>
      </trkpt>
      <trkpt lat="45.84669" lon="4.6938">
        <ele>252.48</ele>
        <time>2015-12-19T12:24:10Z</time>
      </trkpt>
      <trkpt lat="45.84668" lon="4.69379">
        <ele>252</ele>
        <time>2015-12-19T12:24:11Z</time>
      </trkpt>
      <trkpt lat="45.84644" lon="4.69364">
        <ele>251.04</ele>
        <time>2015-12-19T12:24:25Z</time>
      </trkpt>
      <trkpt lat="45.84639" lon="4.69359">
        <ele>250.08</ele>
        <time>2015-12-19T12:24:28Z</time>
      </trkpt>
      <trkpt lat="45.84638" lon="4.69357">
        <ele>250.56</ele>
        <time>2015-12-19T12:24:29Z</time>
      </trkpt>
      <trkpt lat="45.84639" lon="4.69352">
        <ele>250.08</ele>
        <time>2015-12-19T12:24:35Z</time>
      </trkpt>
      <trkpt lat="45.8464" lon="4.69349">
        <ele>249.6</ele>
        <time>2015-12-19T12:24:36Z</time>
      </trkpt>
      <trkpt lat="45.84642" lon="4.69345">
        <ele>250.08</ele>
        <time>2015-12-19T12:24:37Z</time>
      </trkpt>
      <trkpt lat="45.84644" lon="4.69341">
        <ele>249.12</ele>
        <time>2015-12-19T12:24:38Z</time>
      </trkpt>
      <trkpt lat="45.84645" lon="4.69337">
        <ele>249.12</ele>
        <time>2015-12-19T12:24:39Z</time>
      </trkpt>
      <trkpt lat="45.84647" lon="4.69331">
        <ele>248.64</ele>
        <time>2015-12-19T12:24:40Z</time>
      </trkpt>
      <trkpt lat="45.84648" lon="4.69325">
        <ele>248.16</ele>
        <time>2015-12-19T12:24:41Z</time>
      </trkpt>
      <trkpt lat="45.84652" lon="4.69311">
        <ele>247.2</ele>
        <time>2015-12-19T12:24:43Z</time>
      </trkpt>
      <trkpt lat="45.84655" lon="4.69287">
        <ele>245.75</ele>
        <time>2015-12-19T12:24:46Z</time>
      </trkpt>
      <trkpt lat="45.84657" lon="4.69278">
        <ele>245.27</ele>
        <time>2015-12-19T12:24:47Z</time>
      </trkpt>
      <trkpt lat="45.84658" lon="4.69268">
        <ele>244.79</ele>
        <time>2015-12-19T12:24:48Z</time>
      </trkpt>
      <trkpt lat="45.84664" lon="4.6924">
        <ele>242.39</ele>
        <time>2015-12-19T12:24:51Z</time>
      </trkpt>
      <trkpt lat="45.84666" lon="4.69232">
        <ele>241.91</ele>
        <time>2015-12-19T12:24:52Z</time>
      </trkpt>
      <trkpt lat="45.84667" lon="4.69224">
        <ele>241.43</ele>
        <time>2015-12-19T12:24:53Z</time>
      </trkpt>
      <trkpt lat="45.84671" lon="4.69196">
        <ele>239.51</ele>
        <time>2015-12-19T12:24:56Z</time>
      </trkpt>
      <trkpt lat="45.84671" lon="4.69185">
        <ele>239.02</ele>
        <time>2015-12-19T12:24:57Z</time>
      </trkpt>
      <trkpt lat="45.84671" lon="4.69174">
        <ele>238.06</ele>
        <time>2015-12-19T12:24:58Z</time>
      </trkpt>
      <trkpt lat="45.8467" lon="4.69151">
        <ele>236.62</ele>
        <time>2015-12-19T12:25:00Z</time>
      </trkpt>
      <trkpt lat="45.84669" lon="4.69128">
        <ele>234.7</ele>
        <time>2015-12-19T12:25:02Z</time>
      </trkpt>
      <trkpt lat="45.8467" lon="4.69088">
        <ele>231.33</ele>
        <time>2015-12-19T12:25:06Z</time>
      </trkpt>
      <trkpt lat="45.84671" lon="4.69079">
        <ele>231.33</ele>
        <time>2015-12-19T12:25:07Z</time>
      </trkpt>
      <trkpt lat="45.84674" lon="4.6907">
        <ele>229.41</ele>
        <time>2015-12-19T12:25:08Z</time>
      </trkpt>
      <trkpt lat="45.84677" lon="4.69063">
        <ele>228.93</ele>
        <time>2015-12-19T12:25:09Z</time>
      </trkpt>
      <trkpt lat="45.84682" lon="4.69057">
        <ele>228.93</ele>
        <time>2015-12-19T12:25:10Z</time>
      </trkpt>
      <trkpt lat="45.84688" lon="4.69052">
        <ele>227.01</ele>
        <time>2015-12-19T12:25:11Z</time>
      </trkpt>
      <trkpt lat="45.84694" lon="4.69047">
        <ele>227.01</ele>
        <time>2015-12-19T12:25:12Z</time>
      </trkpt>
      <trkpt lat="45.84701" lon="4.69042">
        <ele>225.57</ele>
        <time>2015-12-19T12:25:13Z</time>
      </trkpt>
      <trkpt lat="45.84708" lon="4.69039">
        <ele>225.57</ele>
        <time>2015-12-19T12:25:14Z</time>
      </trkpt>
      <trkpt lat="45.84716" lon="4.69036">
        <ele>225.09</ele>
        <time>2015-12-19T12:25:15Z</time>
      </trkpt>
      <trkpt lat="45.84739" lon="4.69024">
        <ele>223.64</ele>
        <time>2015-12-19T12:25:18Z</time>
      </trkpt>
      <trkpt lat="45.84754" lon="4.69012">
        <ele>222.2</ele>
        <time>2015-12-19T12:25:20Z</time>
      </trkpt>
      <trkpt lat="45.8479" lon="4.68977">
        <ele>218.36</ele>
        <time>2015-12-19T12:25:25Z</time>
      </trkpt>
      <trkpt lat="45.84804" lon="4.68965">
        <ele>216.43</ele>
        <time>2015-12-19T12:25:27Z</time>
      </trkpt>
      <trkpt lat="45.84837" lon="4.68939">
        <ele>213.07</ele>
        <time>2015-12-19T12:25:33Z</time>
      </trkpt>
      <trkpt lat="45.84838" lon="4.68938">
        <ele>212.11</ele>
        <time>2015-12-19T12:25:41Z</time>
      </trkpt>
      <trkpt lat="45.84838" lon="4.68938">
        <ele>213.55</ele>
        <time>2015-12-19T12:26:10Z</time>
      </trkpt>
      <trkpt lat="45.84838" lon="4.68936">
        <ele>212.59</ele>
        <time>2015-12-19T12:26:23Z</time>
      </trkpt>
      <trkpt lat="45.84839" lon="4.68933">
        <ele>213.07</ele>
        <time>2015-12-19T12:26:24Z</time>
      </trkpt>
      <trkpt lat="45.8484" lon="4.68931">
        <ele>212.59</ele>
        <time>2015-12-19T12:26:25Z</time>
      </trkpt>
      <trkpt lat="45.84843" lon="4.68929">
        <ele>212.59</ele>
        <time>2015-12-19T12:26:26Z</time>
      </trkpt>
      <trkpt lat="45.84846" lon="4.68927">
        <ele>212.59</ele>
        <time>2015-12-19T12:26:27Z</time>
      </trkpt>
      <trkpt lat="45.84849" lon="4.68925">
        <ele>212.59</ele>
        <time>2015-12-19T12:26:28Z</time>
      </trkpt>
      <trkpt lat="45.84853" lon="4.68923">
        <ele>212.59</ele>
        <time>2015-12-19T12:26:29Z</time>
      </trkpt>
      <trkpt lat="45.84856" lon="4.6892">
        <ele>212.11</ele>
        <time>2015-12-19T12:26:30Z</time>
      </trkpt>
      <trkpt lat="45.8486" lon="4.68917">
        <ele>211.63</ele>
        <time>2015-12-19T12:26:31Z</time>
      </trkpt>
      <trkpt lat="45.84869" lon="4.68912">
        <ele>211.63</ele>
        <time>2015-12-19T12:26:33Z</time>
      </trkpt>
      <trkpt lat="45.84881" lon="4.68901">
        <ele>211.63</ele>
        <time>2015-12-19T12:26:36Z</time>
      </trkpt>
      <trkpt lat="45.84886" lon="4.68898">
        <ele>211.63</ele>
        <time>2015-12-19T12:26:37Z</time>
      </trkpt>
      <trkpt lat="45.8489" lon="4.68896">
        <ele>210.67</ele>
        <time>2015-12-19T12:26:38Z</time>
      </trkpt>
      <trkpt lat="45.84895" lon="4.68894">
        <ele>211.63</ele>
        <time>2015-12-19T12:26:39Z</time>
      </trkpt>
      <trkpt lat="45.84899" lon="4.68892">
        <ele>210.67</ele>
        <time>2015-12-19T12:26:40Z</time>
      </trkpt>
      <trkpt lat="45.84903" lon="4.6889">
        <ele>212.11</ele>
        <time>2015-12-19T12:26:41Z</time>
      </trkpt>
      <trkpt lat="45.84906" lon="4.68887">
        <ele>211.63</ele>
        <time>2015-12-19T12:26:42Z</time>
      </trkpt>
      <trkpt lat="45.84909" lon="4.68883">
        <ele>211.63</ele>
        <time>2015-12-19T12:26:43Z</time>
      </trkpt>
      <trkpt lat="45.84912" lon="4.6888">
        <ele>211.15</ele>
        <time>2015-12-19T12:26:44Z</time>
      </trkpt>
      <trkpt lat="45.84916" lon="4.68876">
        <ele>211.63</ele>
        <time>2015-12-19T12:26:45Z</time>
      </trkpt>
      <trkpt lat="45.8499" lon="4.688">
        <ele>211.63</ele>
        <time>2015-12-19T12:27:02Z</time>
      </trkpt>
      <trkpt lat="45.85024" lon="4.68735">
        <ele>213.07</ele>
        <time>2015-12-19T12:27:13Z</time>
      </trkpt>
      <trkpt lat="45.85045" lon="4.68679">
        <ele>214.51</ele>
        <time>2015-12-19T12:27:27Z</time>
      </trkpt>
      <trkpt lat="45.85046" lon="4.68674">
        <ele>215.47</ele>
        <time>2015-12-19T12:27:29Z</time>
      </trkpt>
      <trkpt lat="45.85044" lon="4.68672">
        <ele>215.47</ele>
        <time>2015-12-19T12:27:30Z</time>
      </trkpt>
      <trkpt lat="45.85042" lon="4.6867">
        <ele>214.99</ele>
        <time>2015-12-19T12:27:31Z</time>
      </trkpt>
      <trkpt lat="45.8504" lon="4.68669">
        <ele>215.47</ele>
        <time>2015-12-19T12:27:32Z</time>
      </trkpt>
      <trkpt lat="45.85037" lon="4.6867">
        <ele>215.47</ele>
        <time>2015-12-19T12:27:33Z</time>
      </trkpt>
      <trkpt lat="45.85034" lon="4.68671">
        <ele>215.47</ele>
        <time>2015-12-19T12:27:34Z</time>
      </trkpt>
      <trkpt lat="45.85031" lon="4.68671">
        <ele>215.95</ele>
        <time>2015-12-19T12:27:35Z</time>
      </trkpt>
      <trkpt lat="45.84998" lon="4.68667">
        <ele>217.4</ele>
        <time>2015-12-19T12:27:46Z</time>
      </trkpt>
      <trkpt lat="45.84967" lon="4.68666">
        <ele>217.4</ele>
        <time>2015-12-19T12:27:56Z</time>
      </trkpt>
      <trkpt lat="45.84922" lon="4.68667">
        <ele>214.99</ele>
        <time>2015-12-19T12:28:05Z</time>
      </trkpt>
      <trkpt lat="45.84879" lon="4.68667">
        <ele>212.59</ele>
        <time>2015-12-19T12:28:12Z</time>
      </trkpt>
      <trkpt lat="45.84872" lon="4.68668">
        <ele>212.11</ele>
        <time>2015-12-19T12:28:13Z</time>
      </trkpt>
      <trkpt lat="45.84866" lon="4.6867">
        <ele>211.63</ele>
        <time>2015-12-19T12:28:14Z</time>
      </trkpt>
      <trkpt lat="45.84859" lon="4.68673">
        <ele>211.15</ele>
        <time>2015-12-19T12:28:15Z</time>
      </trkpt>
      <trkpt lat="45.84852" lon="4.68676">
        <ele>211.15</ele>
        <time>2015-12-19T12:28:16Z</time>
      </trkpt>
      <trkpt lat="45.84845" lon="4.68679">
        <ele>211.15</ele>
        <time>2015-12-19T12:28:17Z</time>
      </trkpt>
      <trkpt lat="45.84771" lon="4.68703">
        <ele>211.63</ele>
        <time>2015-12-19T12:28:28Z</time>
      </trkpt>
      <trkpt lat="45.84764" lon="4.68706">
        <ele>212.11</ele>
        <time>2015-12-19T12:28:29Z</time>
      </trkpt>
      <trkpt lat="45.84759" lon="4.6871">
        <ele>213.07</ele>
        <time>2015-12-19T12:28:30Z</time>
      </trkpt>
      <trkpt lat="45.84754" lon="4.68716">
        <ele>213.55</ele>
        <time>2015-12-19T12:28:31Z</time>
      </trkpt>
      <trkpt lat="45.84751" lon="4.68722">
        <ele>213.55</ele>
        <time>2015-12-19T12:28:32Z</time>
      </trkpt>
      <trkpt lat="45.84749" lon="4.68728">
        <ele>215.47</ele>
        <time>2015-12-19T12:28:33Z</time>
      </trkpt>
      <trkpt lat="45.84746" lon="4.68734">
        <ele>214.99</ele>
        <time>2015-12-19T12:28:34Z</time>
      </trkpt>
      <trkpt lat="45.84743" lon="4.68739">
        <ele>215.95</ele>
        <time>2015-12-19T12:28:35Z</time>
      </trkpt>
      <trkpt lat="45.84741" lon="4.68743">
        <ele>215.47</ele>
        <time>2015-12-19T12:28:36Z</time>
      </trkpt>
      <trkpt lat="45.84738" lon="4.68747">
        <ele>215.95</ele>
        <time>2015-12-19T12:28:37Z</time>
      </trkpt>
      <trkpt lat="45.84735" lon="4.68751">
        <ele>216.43</ele>
        <time>2015-12-19T12:28:38Z</time>
      </trkpt>
      <trkpt lat="45.84713" lon="4.68783">
        <ele>217.4</ele>
        <time>2015-12-19T12:28:51Z</time>
      </trkpt>
      <trkpt lat="45.84688" lon="4.68776">
        <ele>218.84</ele>
        <time>2015-12-19T12:29:04Z</time>
      </trkpt>
      <trkpt lat="45.8467" lon="4.68759">
        <ele>222.2</ele>
        <time>2015-12-19T12:29:17Z</time>
      </trkpt>
      <trkpt lat="45.84658" lon="4.68751">
        <ele>223.64</ele>
        <time>2015-12-19T12:29:26Z</time>
      </trkpt>
      <trkpt lat="45.84657" lon="4.6875">
        <ele>224.61</ele>
        <time>2015-12-19T12:29:27Z</time>
      </trkpt>
      <trkpt lat="45.84655" lon="4.68749">
        <ele>224.12</ele>
        <time>2015-12-19T12:29:28Z</time>
      </trkpt>
      <trkpt lat="45.84654" lon="4.68749">
        <ele>224.12</ele>
        <time>2015-12-19T12:29:29Z</time>
      </trkpt>
      <trkpt lat="45.84653" lon="4.68748">
        <ele>224.12</ele>
        <time>2015-12-19T12:29:30Z</time>
      </trkpt>
      <trkpt lat="45.84651" lon="4.68746">
        <ele>224.12</ele>
        <time>2015-12-19T12:29:31Z</time>
      </trkpt>
      <trkpt lat="45.8465" lon="4.68745">
        <ele>224.61</ele>
        <time>2015-12-19T12:29:32Z</time>
      </trkpt>
      <trkpt lat="45.84649" lon="4.68745">
        <ele>224.61</ele>
        <time>2015-12-19T12:29:33Z</time>
      </trkpt>
      <trkpt lat="45.84647" lon="4.68745">
        <ele>224.61</ele>
        <time>2015-12-19T12:29:34Z</time>
      </trkpt>
      <trkpt lat="45.84646" lon="4.68745">
        <ele>225.09</ele>
        <time>2015-12-19T12:29:35Z</time>
      </trkpt>
      <trkpt lat="45.84645" lon="4.68744">
        <ele>225.09</ele>
        <time>2015-12-19T12:29:36Z</time>
      </trkpt>
      <trkpt lat="45.84644" lon="4.68743">
        <ele>225.09</ele>
        <time>2015-12-19T12:29:37Z</time>
      </trkpt>
      <trkpt lat="45.84643" lon="4.68742">
        <ele>225.09</ele>
        <time>2015-12-19T12:29:38Z</time>
      </trkpt>
      <trkpt lat="45.8463" lon="4.68727">
        <ele>228.45</ele>
        <time>2015-12-19T12:29:50Z</time>
      </trkpt>
      <trkpt lat="45.8462" lon="4.68716">
        <ele>229.89</ele>
        <time>2015-12-19T12:29:59Z</time>
      </trkpt>
      <trkpt lat="45.84615" lon="4.6871">
        <ele>230.85</ele>
        <time>2015-12-19T12:30:03Z</time>
      </trkpt>
      <trkpt lat="45.8461" lon="4.68702">
        <ele>231.33</ele>
        <time>2015-12-19T12:30:08Z</time>
      </trkpt>
      <trkpt lat="45.8461" lon="4.687">
        <ele>232.3</ele>
        <time>2015-12-19T12:30:09Z</time>
      </trkpt>
      <trkpt lat="45.84609" lon="4.68698">
        <ele>232.3</ele>
        <time>2015-12-19T12:30:10Z</time>
      </trkpt>
      <trkpt lat="45.84608" lon="4.68697">
        <ele>233.26</ele>
        <time>2015-12-19T12:30:11Z</time>
      </trkpt>
      <trkpt lat="45.84607" lon="4.68695">
        <ele>232.78</ele>
        <time>2015-12-19T12:30:12Z</time>
      </trkpt>
      <trkpt lat="45.84606" lon="4.68693">
        <ele>233.26</ele>
        <time>2015-12-19T12:30:13Z</time>
      </trkpt>
      <trkpt lat="45.84605" lon="4.68692">
        <ele>233.26</ele>
        <time>2015-12-19T12:30:14Z</time>
      </trkpt>
      <trkpt lat="45.84604" lon="4.6869">
        <ele>234.22</ele>
        <time>2015-12-19T12:30:15Z</time>
      </trkpt>
      <trkpt lat="45.84604" lon="4.68688">
        <ele>234.22</ele>
        <time>2015-12-19T12:30:16Z</time>
      </trkpt>
      <trkpt lat="45.84591" lon="4.68664">
        <ele>237.58</ele>
        <time>2015-12-19T12:30:30Z</time>
      </trkpt>
      <trkpt lat="45.8458" lon="4.68657">
        <ele>239.51</ele>
        <time>2015-12-19T12:30:38Z</time>
      </trkpt>
      <trkpt lat="45.84579" lon="4.68656">
        <ele>239.51</ele>
        <time>2015-12-19T12:30:39Z</time>
      </trkpt>
      <trkpt lat="45.84578" lon="4.68655">
        <ele>239.99</ele>
        <time>2015-12-19T12:30:40Z</time>
      </trkpt>
      <trkpt lat="45.84577" lon="4.68654">
        <ele>239.99</ele>
        <time>2015-12-19T12:30:41Z</time>
      </trkpt>
      <trkpt lat="45.84576" lon="4.68654">
        <ele>239.99</ele>
        <time>2015-12-19T12:30:42Z</time>
      </trkpt>
      <trkpt lat="45.84574" lon="4.68653">
        <ele>239.99</ele>
        <time>2015-12-19T12:30:43Z</time>
      </trkpt>
      <trkpt lat="45.84573" lon="4.68653">
        <ele>240.47</ele>
        <time>2015-12-19T12:30:44Z</time>
      </trkpt>
      <trkpt lat="45.84571" lon="4.68653">
        <ele>240.47</ele>
        <time>2015-12-19T12:30:45Z</time>
      </trkpt>
      <trkpt lat="45.8457" lon="4.68652">
        <ele>239.99</ele>
        <time>2015-12-19T12:30:46Z</time>
      </trkpt>
      <trkpt lat="45.84569" lon="4.68651">
        <ele>240.95</ele>
        <time>2015-12-19T12:30:47Z</time>
      </trkpt>
      <trkpt lat="45.84567" lon="4.6865">
        <ele>241.91</ele>
        <time>2015-12-19T12:30:48Z</time>
      </trkpt>
      <trkpt lat="45.84566" lon="4.68649">
        <ele>241.43</ele>
        <time>2015-12-19T12:30:49Z</time>
      </trkpt>
      <trkpt lat="45.84565" lon="4.68647">
        <ele>241.43</ele>
        <time>2015-12-19T12:30:50Z</time>
      </trkpt>
      <trkpt lat="45.84564" lon="4.68646">
        <ele>241.91</ele>
        <time>2015-12-19T12:30:51Z</time>
      </trkpt>
      <trkpt lat="45.8454" lon="4.68613">
        <ele>242.87</ele>
        <time>2015-12-19T12:31:10Z</time>
      </trkpt>
      <trkpt lat="45.84521" lon="4.68598">
        <ele>243.83</ele>
        <time>2015-12-19T12:31:23Z</time>
      </trkpt>
      <trkpt lat="45.84499" lon="4.6858">
        <ele>244.79</ele>
        <time>2015-12-19T12:31:37Z</time>
      </trkpt>
      <trkpt lat="45.84475" lon="4.68555">
        <ele>244.31</ele>
        <time>2015-12-19T12:31:49Z</time>
      </trkpt>
      <trkpt lat="45.84464" lon="4.68521">
        <ele>242.39</ele>
        <time>2015-12-19T12:31:56Z</time>
      </trkpt>
      <trkpt lat="45.84464" lon="4.68507">
        <ele>241.91</ele>
        <time>2015-12-19T12:31:58Z</time>
      </trkpt>
      <trkpt lat="45.84463" lon="4.685">
        <ele>241.43</ele>
        <time>2015-12-19T12:31:59Z</time>
      </trkpt>
      <trkpt lat="45.84461" lon="4.68493">
        <ele>240.95</ele>
        <time>2015-12-19T12:32:00Z</time>
      </trkpt>
      <trkpt lat="45.84458" lon="4.68486">
        <ele>240.47</ele>
        <time>2015-12-19T12:32:01Z</time>
      </trkpt>
      <trkpt lat="45.84451" lon="4.68478">
        <ele>240.47</ele>
        <time>2015-12-19T12:32:02Z</time>
      </trkpt>
      <trkpt lat="45.84443" lon="4.6847">
        <ele>240.47</ele>
        <time>2015-12-19T12:32:03Z</time>
      </trkpt>
      <trkpt lat="45.84437" lon="4.68464">
        <ele>240.47</ele>
        <time>2015-12-19T12:32:04Z</time>
      </trkpt>
      <trkpt lat="45.84431" lon="4.68457">
        <ele>240.47</ele>
        <time>2015-12-19T12:32:05Z</time>
      </trkpt>
      <trkpt lat="45.84425" lon="4.68451">
        <ele>239.99</ele>
        <time>2015-12-19T12:32:06Z</time>
      </trkpt>
      <trkpt lat="45.84382" lon="4.68406">
        <ele>239.99</ele>
        <time>2015-12-19T12:32:15Z</time>
      </trkpt>
      <trkpt lat="45.84378" lon="4.68402">
        <ele>239.99</ele>
        <time>2015-12-19T12:32:16Z</time>
      </trkpt>
      <trkpt lat="45.84373" lon="4.68398">
        <ele>240.47</ele>
        <time>2015-12-19T12:32:17Z</time>
      </trkpt>
      <trkpt lat="45.8436" lon="4.68384">
        <ele>239.51</ele>
        <time>2015-12-19T12:32:20Z</time>
      </trkpt>
      <trkpt lat="45.8435" lon="4.68376">
        <ele>239.99</ele>
        <time>2015-12-19T12:32:22Z</time>
      </trkpt>
      <trkpt lat="45.84341" lon="4.68368">
        <ele>240.47</ele>
        <time>2015-12-19T12:32:24Z</time>
      </trkpt>
      <trkpt lat="45.84329" lon="4.68354">
        <ele>239.51</ele>
        <time>2015-12-19T12:32:27Z</time>
      </trkpt>
      <trkpt lat="45.8432" lon="4.68347">
        <ele>239.99</ele>
        <time>2015-12-19T12:32:29Z</time>
      </trkpt>
      <trkpt lat="45.84316" lon="4.68343">
        <ele>239.99</ele>
        <time>2015-12-19T12:32:30Z</time>
      </trkpt>
      <trkpt lat="45.84312" lon="4.6834">
        <ele>240.47</ele>
        <time>2015-12-19T12:32:31Z</time>
      </trkpt>
      <trkpt lat="45.84308" lon="4.68338">
        <ele>239.99</ele>
        <time>2015-12-19T12:32:32Z</time>
      </trkpt>
      <trkpt lat="45.84305" lon="4.68336">
        <ele>239.99</ele>
        <time>2015-12-19T12:32:33Z</time>
      </trkpt>
      <trkpt lat="45.84283" lon="4.68325">
        <ele>240.47</ele>
        <time>2015-12-19T12:32:40Z</time>
      </trkpt>
      <trkpt lat="45.84276" lon="4.68328">
        <ele>240.95</ele>
        <time>2015-12-19T12:32:43Z</time>
      </trkpt>
      <trkpt lat="45.84275" lon="4.68329">
        <ele>241.43</ele>
        <time>2015-12-19T12:32:44Z</time>
      </trkpt>
      <trkpt lat="45.84272" lon="4.68329">
        <ele>241.43</ele>
        <time>2015-12-19T12:32:45Z</time>
      </trkpt>
      <trkpt lat="45.84245" lon="4.68326">
        <ele>242.87</ele>
        <time>2015-12-19T12:32:56Z</time>
      </trkpt>
      <trkpt lat="45.84204" lon="4.68318">
        <ele>244.31</ele>
        <time>2015-12-19T12:33:11Z</time>
      </trkpt>
      <trkpt lat="45.84194" lon="4.68311">
        <ele>244.31</ele>
        <time>2015-12-19T12:33:15Z</time>
      </trkpt>
      <trkpt lat="45.84192" lon="4.68309">
        <ele>244.79</ele>
        <time>2015-12-19T12:33:16Z</time>
      </trkpt>
      <trkpt lat="45.84189" lon="4.68308">
        <ele>244.79</ele>
        <time>2015-12-19T12:33:17Z</time>
      </trkpt>
      <trkpt lat="45.84186" lon="4.68306">
        <ele>244.79</ele>
        <time>2015-12-19T12:33:18Z</time>
      </trkpt>
      <trkpt lat="45.84184" lon="4.68304">
        <ele>244.31</ele>
        <time>2015-12-19T12:33:19Z</time>
      </trkpt>
      <trkpt lat="45.84182" lon="4.68302">
        <ele>244.79</ele>
        <time>2015-12-19T12:33:20Z</time>
      </trkpt>
      <trkpt lat="45.84179" lon="4.683">
        <ele>244.31</ele>
        <time>2015-12-19T12:33:21Z</time>
      </trkpt>
      <trkpt lat="45.84177" lon="4.68298">
        <ele>244.31</ele>
        <time>2015-12-19T12:33:22Z</time>
      </trkpt>
      <trkpt lat="45.84175" lon="4.68296">
        <ele>244.79</ele>
        <time>2015-12-19T12:33:23Z</time>
      </trkpt>
      <trkpt lat="45.84172" lon="4.68295">
        <ele>244.79</ele>
        <time>2015-12-19T12:33:24Z</time>
      </trkpt>
      <trkpt lat="45.8417" lon="4.68292">
        <ele>245.27</ele>
        <time>2015-12-19T12:33:25Z</time>
      </trkpt>
      <trkpt lat="45.84141" lon="4.68278">
        <ele>245.27</ele>
        <time>2015-12-19T12:33:34Z</time>
      </trkpt>
      <trkpt lat="45.84106" lon="4.6827">
        <ele>246.23</ele>
        <time>2015-12-19T12:33:45Z</time>
      </trkpt>
      <trkpt lat="45.84074" lon="4.68266">
        <ele>248.64</ele>
        <time>2015-12-19T12:33:57Z</time>
      </trkpt>
      <trkpt lat="45.84044" lon="4.68261">
        <ele>250.08</ele>
        <time>2015-12-19T12:34:10Z</time>
      </trkpt>
      <trkpt lat="45.84016" lon="4.68254">
        <ele>251.04</ele>
        <time>2015-12-19T12:34:22Z</time>
      </trkpt>
      <trkpt lat="45.83974" lon="4.68252">
        <ele>249.6</ele>
        <time>2015-12-19T12:34:36Z</time>
      </trkpt>
      <trkpt lat="45.83927" lon="4.68253">
        <ele>250.56</ele>
        <time>2015-12-19T12:34:50Z</time>
      </trkpt>
      <trkpt lat="45.83894" lon="4.68252">
        <ele>251.52</ele>
        <time>2015-12-19T12:35:01Z</time>
      </trkpt>
      <trkpt lat="45.83849" lon="4.68253">
        <ele>252</ele>
        <time>2015-12-19T12:35:16Z</time>
      </trkpt>
      <trkpt lat="45.8382" lon="4.68259">
        <ele>254.41</ele>
        <time>2015-12-19T12:35:28Z</time>
      </trkpt>
      <trkpt lat="45.83792" lon="4.68287">
        <ele>257.29</ele>
        <time>2015-12-19T12:35:44Z</time>
      </trkpt>
      <trkpt lat="45.83779" lon="4.68306">
        <ele>259.21</ele>
        <time>2015-12-19T12:35:53Z</time>
      </trkpt>
      <trkpt lat="45.83763" lon="4.68335">
        <ele>261.14</ele>
        <time>2015-12-19T12:36:06Z</time>
      </trkpt>
      <trkpt lat="45.83746" lon="4.68364">
        <ele>264.02</ele>
        <time>2015-12-19T12:36:19Z</time>
      </trkpt>
      <trkpt lat="45.83725" lon="4.68398">
        <ele>266.9</ele>
        <time>2015-12-19T12:36:34Z</time>
      </trkpt>
      <trkpt lat="45.83708" lon="4.68432">
        <ele>270.27</ele>
        <time>2015-12-19T12:36:49Z</time>
      </trkpt>
      <trkpt lat="45.83698" lon="4.68451">
        <ele>271.71</ele>
        <time>2015-12-19T12:37:00Z</time>
      </trkpt>
      <trkpt lat="45.83697" lon="4.68451">
        <ele>271.23</ele>
        <time>2015-12-19T12:37:01Z</time>
      </trkpt>
      <trkpt lat="45.83695" lon="4.68452">
        <ele>271.23</ele>
        <time>2015-12-19T12:37:02Z</time>
      </trkpt>
      <trkpt lat="45.83694" lon="4.68451">
        <ele>270.75</ele>
        <time>2015-12-19T12:37:03Z</time>
      </trkpt>
      <trkpt lat="45.83692" lon="4.6845">
        <ele>271.23</ele>
        <time>2015-12-19T12:37:04Z</time>
      </trkpt>
      <trkpt lat="45.83691" lon="4.68448">
        <ele>271.23</ele>
        <time>2015-12-19T12:37:05Z</time>
      </trkpt>
      <trkpt lat="45.83689" lon="4.68446">
        <ele>271.71</ele>
        <time>2015-12-19T12:37:06Z</time>
      </trkpt>
      <trkpt lat="45.83687" lon="4.68444">
        <ele>271.23</ele>
        <time>2015-12-19T12:37:07Z</time>
      </trkpt>
      <trkpt lat="45.83686" lon="4.68441">
        <ele>270.75</ele>
        <time>2015-12-19T12:37:08Z</time>
      </trkpt>
      <trkpt lat="45.83654" lon="4.68391">
        <ele>270.75</ele>
        <time>2015-12-19T12:37:24Z</time>
      </trkpt>
      <trkpt lat="45.83621" lon="4.68333">
        <ele>270.27</ele>
        <time>2015-12-19T12:37:37Z</time>
      </trkpt>
      <trkpt lat="45.83588" lon="4.683">
        <ele>269.79</ele>
        <time>2015-12-19T12:37:49Z</time>
      </trkpt>
      <trkpt lat="45.83581" lon="4.68309">
        <ele>269.79</ele>
        <time>2015-12-19T12:37:54Z</time>
      </trkpt>
      <trkpt lat="45.83581" lon="4.68351">
        <ele>269.31</ele>
        <time>2015-12-19T12:38:04Z</time>
      </trkpt>
      <trkpt lat="45.8357" lon="4.68393">
        <ele>268.83</ele>
        <time>2015-12-19T12:38:17Z</time>
      </trkpt>
      <trkpt lat="45.83546" lon="4.68428">
        <ele>269.79</ele>
        <time>2015-12-19T12:38:32Z</time>
      </trkpt>
      <trkpt lat="45.83511" lon="4.68456">
        <ele>269.79</ele>
        <time>2015-12-19T12:38:48Z</time>
      </trkpt>
      <trkpt lat="45.83471" lon="4.68482">
        <ele>272.19</ele>
        <time>2015-12-19T12:39:04Z</time>
      </trkpt>
      <trkpt lat="45.83433" lon="4.68505">
        <ele>273.63</ele>
        <time>2015-12-19T12:39:20Z</time>
      </trkpt>
      <trkpt lat="45.83395" lon="4.68527">
        <ele>275.56</ele>
        <time>2015-12-19T12:39:36Z</time>
      </trkpt>
      <trkpt lat="45.83353" lon="4.68545">
        <ele>277.96</ele>
        <time>2015-12-19T12:39:54Z</time>
      </trkpt>
      <trkpt lat="45.83318" lon="4.68526">
        <ele>277.96</ele>
        <time>2015-12-19T12:40:08Z</time>
      </trkpt>
      <trkpt lat="45.83293" lon="4.68529">
        <ele>278.44</ele>
        <time>2015-12-19T12:40:18Z</time>
      </trkpt>
      <trkpt lat="45.83271" lon="4.68508">
        <ele>280.36</ele>
        <time>2015-12-19T12:40:32Z</time>
      </trkpt>
      <trkpt lat="45.83246" lon="4.68482">
        <ele>282.77</ele>
        <time>2015-12-19T12:40:47Z</time>
      </trkpt>
      <trkpt lat="45.83222" lon="4.6846">
        <ele>285.65</ele>
        <time>2015-12-19T12:41:02Z</time>
      </trkpt>
      <trkpt lat="45.83204" lon="4.68433">
        <ele>287.09</ele>
        <time>2015-12-19T12:41:15Z</time>
      </trkpt>
      <trkpt lat="45.8319" lon="4.68402">
        <ele>289.97</ele>
        <time>2015-12-19T12:41:28Z</time>
      </trkpt>
      <trkpt lat="45.83173" lon="4.68368">
        <ele>290.94</ele>
        <time>2015-12-19T12:41:43Z</time>
      </trkpt>
      <trkpt lat="45.83152" lon="4.6833">
        <ele>291.9</ele>
        <time>2015-12-19T12:41:58Z</time>
      </trkpt>
      <trkpt lat="45.83135" lon="4.68295">
        <ele>293.82</ele>
        <time>2015-12-19T12:42:11Z</time>
      </trkpt>
      <trkpt lat="45.83123" lon="4.68271">
        <ele>294.78</ele>
        <time>2015-12-19T12:42:20Z</time>
      </trkpt>
      <trkpt lat="45.83118" lon="4.68257">
        <ele>295.26</ele>
        <time>2015-12-19T12:42:25Z</time>
      </trkpt>
      <trkpt lat="45.83104" lon="4.68209">
        <ele>296.22</ele>
        <time>2015-12-19T12:42:40Z</time>
      </trkpt>
      <trkpt lat="45.83093" lon="4.68155">
        <ele>295.74</ele>
        <time>2015-12-19T12:42:54Z</time>
      </trkpt>
      <trkpt lat="45.83087" lon="4.68107">
        <ele>295.26</ele>
        <time>2015-12-19T12:43:05Z</time>
      </trkpt>
      <trkpt lat="45.83085" lon="4.6808">
        <ele>294.78</ele>
        <time>2015-12-19T12:43:10Z</time>
      </trkpt>
      <trkpt lat="45.83077" lon="4.67991">
        <ele>293.34</ele>
        <time>2015-12-19T12:43:26Z</time>
      </trkpt>
      <trkpt lat="45.83074" lon="4.67976">
        <ele>292.86</ele>
        <time>2015-12-19T12:43:29Z</time>
      </trkpt>
      <trkpt lat="45.83073" lon="4.6797">
        <ele>292.86</ele>
        <time>2015-12-19T12:43:30Z</time>
      </trkpt>
      <trkpt lat="45.83058" lon="4.679">
        <ele>290.94</ele>
        <time>2015-12-19T12:43:40Z</time>
      </trkpt>
      <trkpt lat="45.83053" lon="4.67883">
        <ele>289.97</ele>
        <time>2015-12-19T12:43:43Z</time>
      </trkpt>
      <trkpt lat="45.83052" lon="4.67877">
        <ele>289.97</ele>
        <time>2015-12-19T12:43:44Z</time>
      </trkpt>
      <trkpt lat="45.8305" lon="4.67871">
        <ele>289.97</ele>
        <time>2015-12-19T12:43:45Z</time>
      </trkpt>
      <trkpt lat="45.83031" lon="4.67783">
        <ele>286.61</ele>
        <time>2015-12-19T12:43:58Z</time>
      </trkpt>
      <trkpt lat="45.83027" lon="4.67766">
        <ele>285.65</ele>
        <time>2015-12-19T12:44:00Z</time>
      </trkpt>
      <trkpt lat="45.83023" lon="4.6774">
        <ele>284.69</ele>
        <time>2015-12-19T12:44:03Z</time>
      </trkpt>
      <trkpt lat="45.83015" lon="4.67644">
        <ele>283.73</ele>
        <time>2015-12-19T12:44:15Z</time>
      </trkpt>
      <trkpt lat="45.83013" lon="4.67595">
        <ele>284.21</ele>
        <time>2015-12-19T12:44:22Z</time>
      </trkpt>
      <trkpt lat="45.83011" lon="4.67588">
        <ele>284.21</ele>
        <time>2015-12-19T12:44:23Z</time>
      </trkpt>
      <trkpt lat="45.83009" lon="4.67583">
        <ele>284.21</ele>
        <time>2015-12-19T12:44:24Z</time>
      </trkpt>
      <trkpt lat="45.83005" lon="4.67578">
        <ele>283.73</ele>
        <time>2015-12-19T12:44:25Z</time>
      </trkpt>
      <trkpt lat="45.83001" lon="4.67574">
        <ele>284.21</ele>
        <time>2015-12-19T12:44:26Z</time>
      </trkpt>
      <trkpt lat="45.82997" lon="4.67572">
        <ele>284.21</ele>
        <time>2015-12-19T12:44:27Z</time>
      </trkpt>
      <trkpt lat="45.82993" lon="4.67571">
        <ele>284.21</ele>
        <time>2015-12-19T12:44:28Z</time>
      </trkpt>
      <trkpt lat="45.82944" lon="4.67557">
        <ele>286.61</ele>
        <time>2015-12-19T12:44:42Z</time>
      </trkpt>
      <trkpt lat="45.8292" lon="4.67544">
        <ele>288.05</ele>
        <time>2015-12-19T12:44:52Z</time>
      </trkpt>
      <trkpt lat="45.82892" lon="4.67515">
        <ele>289.49</ele>
        <time>2015-12-19T12:45:06Z</time>
      </trkpt>
      <trkpt lat="45.82859" lon="4.67478">
        <ele>291.42</ele>
        <time>2015-12-19T12:45:22Z</time>
      </trkpt>
      <trkpt lat="45.82826" lon="4.67437">
        <ele>291.9</ele>
        <time>2015-12-19T12:45:39Z</time>
      </trkpt>
      <trkpt lat="45.82794" lon="4.67395">
        <ele>293.34</ele>
        <time>2015-12-19T12:45:56Z</time>
      </trkpt>
      <trkpt lat="45.82757" lon="4.67348">
        <ele>293.82</ele>
        <time>2015-12-19T12:46:14Z</time>
      </trkpt>
      <trkpt lat="45.82709" lon="4.67286">
        <ele>294.78</ele>
        <time>2015-12-19T12:46:34Z</time>
      </trkpt>
      <trkpt lat="45.82674" lon="4.67241">
        <ele>295.74</ele>
        <time>2015-12-19T12:46:51Z</time>
      </trkpt>
      <trkpt lat="45.82643" lon="4.67201">
        <ele>297.67</ele>
        <time>2015-12-19T12:47:08Z</time>
      </trkpt>
      <trkpt lat="45.82632" lon="4.67182">
        <ele>297.67</ele>
        <time>2015-12-19T12:47:15Z</time>
      </trkpt>
      <trkpt lat="45.82631" lon="4.6718">
        <ele>297.67</ele>
        <time>2015-12-19T12:47:16Z</time>
      </trkpt>
      <trkpt lat="45.82629" lon="4.67177">
        <ele>298.15</ele>
        <time>2015-12-19T12:47:17Z</time>
      </trkpt>
      <trkpt lat="45.82627" lon="4.67175">
        <ele>298.15</ele>
        <time>2015-12-19T12:47:18Z</time>
      </trkpt>
      <trkpt lat="45.82624" lon="4.67174">
        <ele>298.15</ele>
        <time>2015-12-19T12:47:19Z</time>
      </trkpt>
      <trkpt lat="45.82621" lon="4.67172">
        <ele>298.63</ele>
        <time>2015-12-19T12:47:20Z</time>
      </trkpt>
      <trkpt lat="45.82619" lon="4.6717">
        <ele>298.63</ele>
        <time>2015-12-19T12:47:21Z</time>
      </trkpt>
      <trkpt lat="45.82596" lon="4.67157">
        <ele>299.11</ele>
        <time>2015-12-19T12:47:31Z</time>
      </trkpt>
      <trkpt lat="45.82564" lon="4.67141">
        <ele>301.03</ele>
        <time>2015-12-19T12:47:45Z</time>
      </trkpt>
      <trkpt lat="45.82529" lon="4.67127">
        <ele>302.47</ele>
        <time>2015-12-19T12:47:59Z</time>
      </trkpt>
      <trkpt lat="45.82494" lon="4.67113">
        <ele>303.43</ele>
        <time>2015-12-19T12:48:13Z</time>
      </trkpt>
      <trkpt lat="45.8246" lon="4.67103">
        <ele>304.39</ele>
        <time>2015-12-19T12:48:28Z</time>
      </trkpt>
      <trkpt lat="45.82449" lon="4.67102">
        <ele>303.43</ele>
        <time>2015-12-19T12:48:33Z</time>
      </trkpt>
      <trkpt lat="45.82448" lon="4.67101">
        <ele>302.95</ele>
        <time>2015-12-19T12:48:34Z</time>
      </trkpt>
      <trkpt lat="45.82447" lon="4.67101">
        <ele>302.95</ele>
        <time>2015-12-19T12:48:44Z</time>
      </trkpt>
      <trkpt lat="45.82446" lon="4.67101">
        <ele>302.95</ele>
        <time>2015-12-19T12:48:46Z</time>
      </trkpt>
      <trkpt lat="45.82444" lon="4.671">
        <ele>302.95</ele>
        <time>2015-12-19T12:48:56Z</time>
      </trkpt>
      <trkpt lat="45.82439" lon="4.67096">
        <ele>302.47</ele>
        <time>2015-12-19T12:49:08Z</time>
      </trkpt>
      <trkpt lat="45.82438" lon="4.67096">
        <ele>302.95</ele>
        <time>2015-12-19T12:49:15Z</time>
      </trkpt>
      <trkpt lat="45.82438" lon="4.67099">
        <ele>302.95</ele>
        <time>2015-12-19T12:49:16Z</time>
      </trkpt>
      <trkpt lat="45.82443" lon="4.67102">
        <ele>302.47</ele>
        <time>2015-12-19T12:49:26Z</time>
      </trkpt>
      <trkpt lat="45.82443" lon="4.67102">
        <ele>302.47</ele>
        <time>2015-12-19T12:49:53Z</time>
      </trkpt>
      <trkpt lat="45.82443" lon="4.67102">
        <ele>302.95</ele>
        <time>2015-12-19T12:50:14Z</time>
      </trkpt>
      <trkpt lat="45.82443" lon="4.67102">
        <ele>301.99</ele>
        <time>2015-12-19T12:50:32Z</time>
      </trkpt>
      <trkpt lat="45.82443" lon="4.67102">
        <ele>302.95</ele>
        <time>2015-12-19T12:50:56Z</time>
      </trkpt>
      <trkpt lat="45.82443" lon="4.67102">
        <ele>302.47</ele>
        <time>2015-12-19T12:51:19Z</time>
      </trkpt>
      <trkpt lat="45.82443" lon="4.67102">
        <ele>302.47</ele>
        <time>2015-12-19T12:51:40Z</time>
      </trkpt>
      <trkpt lat="45.82443" lon="4.67102">
        <ele>302.95</ele>
        <time>2015-12-19T12:52:11Z</time>
      </trkpt>
      <trkpt lat="45.82443" lon="4.67102">
        <ele>302.95</ele>
        <time>2015-12-19T12:52:35Z</time>
      </trkpt>
      <trkpt lat="45.82443" lon="4.67101">
        <ele>303.43</ele>
        <time>2015-12-19T12:53:00Z</time>
      </trkpt>
      <trkpt lat="45.82442" lon="4.67101">
        <ele>302.95</ele>
        <time>2015-12-19T12:53:15Z</time>
      </trkpt>
      <trkpt lat="45.82442" lon="4.67101">
        <ele>302.95</ele>
        <time>2015-12-19T12:53:37Z</time>
      </trkpt>
      <trkpt lat="45.82442" lon="4.67101">
        <ele>303.43</ele>
        <time>2015-12-19T12:54:04Z</time>
      </trkpt>
      <trkpt lat="45.82442" lon="4.67101">
        <ele>302.95</ele>
        <time>2015-12-19T12:54:32Z</time>
      </trkpt>
      <trkpt lat="45.82442" lon="4.67101">
        <ele>303.91</ele>
        <time>2015-12-19T12:54:51Z</time>
      </trkpt>
      <trkpt lat="45.82442" lon="4.67101">
        <ele>302.95</ele>
        <time>2015-12-19T12:55:27Z</time>
      </trkpt>
      <trkpt lat="45.82442" lon="4.67101">
        <ele>302.95</ele>
        <time>2015-12-19T12:55:55Z</time>
      </trkpt>
      <trkpt lat="45.82442" lon="4.67101">
        <ele>302.47</ele>
        <time>2015-12-19T12:56:01Z</time>
      </trkpt>
      <trkpt lat="45.82441" lon="4.671">
        <ele>302.47</ele>
        <time>2015-12-19T12:56:02Z</time>
      </trkpt>
      <trkpt lat="45.82427" lon="4.67087">
        <ele>302.47</ele>
        <time>2015-12-19T12:56:16Z</time>
      </trkpt>
      <trkpt lat="45.82425" lon="4.67076">
        <ele>302.95</ele>
        <time>2015-12-19T12:56:28Z</time>
      </trkpt>
      <trkpt lat="45.82425" lon="4.67074">
        <ele>303.43</ele>
        <time>2015-12-19T12:56:29Z</time>
      </trkpt>
      <trkpt lat="45.82425" lon="4.67072">
        <ele>303.43</ele>
        <time>2015-12-19T12:56:30Z</time>
      </trkpt>
      <trkpt lat="45.82425" lon="4.6707">
        <ele>303.43</ele>
        <time>2015-12-19T12:56:31Z</time>
      </trkpt>
      <trkpt lat="45.82426" lon="4.67068">
        <ele>302.95</ele>
        <time>2015-12-19T12:56:43Z</time>
      </trkpt>
      <trkpt lat="45.82429" lon="4.67051">
        <ele>302.95</ele>
        <time>2015-12-19T12:56:55Z</time>
      </trkpt>
      <trkpt lat="45.8243" lon="4.67047">
        <ele>303.43</ele>
        <time>2015-12-19T12:56:57Z</time>
      </trkpt>
      <trkpt lat="45.82431" lon="4.67046">
        <ele>302.95</ele>
        <time>2015-12-19T12:56:58Z</time>
      </trkpt>
      <trkpt lat="45.82435" lon="4.6704">
        <ele>303.91</ele>
        <time>2015-12-19T12:57:01Z</time>
      </trkpt>
      <trkpt lat="45.82436" lon="4.67039">
        <ele>302.95</ele>
        <time>2015-12-19T12:57:02Z</time>
      </trkpt>
      <trkpt lat="45.82436" lon="4.67036">
        <ele>302.95</ele>
        <time>2015-12-19T12:57:03Z</time>
      </trkpt>
      <trkpt lat="45.82436" lon="4.67033">
        <ele>302.95</ele>
        <time>2015-12-19T12:57:04Z</time>
      </trkpt>
      <trkpt lat="45.82435" lon="4.6703">
        <ele>303.43</ele>
        <time>2015-12-19T12:57:05Z</time>
      </trkpt>
      <trkpt lat="45.82434" lon="4.67026">
        <ele>302.95</ele>
        <time>2015-12-19T12:57:06Z</time>
      </trkpt>
      <trkpt lat="45.82433" lon="4.67023">
        <ele>302.95</ele>
        <time>2015-12-19T12:57:07Z</time>
      </trkpt>
      <trkpt lat="45.82431" lon="4.67019">
        <ele>302.95</ele>
        <time>2015-12-19T12:57:08Z</time>
      </trkpt>
      <trkpt lat="45.82428" lon="4.67015">
        <ele>302.47</ele>
        <time>2015-12-19T12:57:09Z</time>
      </trkpt>
      <trkpt lat="45.8241" lon="4.66981">
        <ele>301.51</ele>
        <time>2015-12-19T12:57:16Z</time>
      </trkpt>
      <trkpt lat="45.82407" lon="4.66975">
        <ele>301.51</ele>
        <time>2015-12-19T12:57:17Z</time>
      </trkpt>
      <trkpt lat="45.82371" lon="4.66911">
        <ele>299.59</ele>
        <time>2015-12-19T12:57:27Z</time>
      </trkpt>
      <trkpt lat="45.82367" lon="4.66905">
        <ele>299.11</ele>
        <time>2015-12-19T12:57:28Z</time>
      </trkpt>
      <trkpt lat="45.82363" lon="4.66899">
        <ele>298.63</ele>
        <time>2015-12-19T12:57:29Z</time>
      </trkpt>
      <trkpt lat="45.82358" lon="4.66894">
        <ele>298.63</ele>
        <time>2015-12-19T12:57:30Z</time>
      </trkpt>
      <trkpt lat="45.82352" lon="4.66889">
        <ele>298.63</ele>
        <time>2015-12-19T12:57:31Z</time>
      </trkpt>
      <trkpt lat="45.82347" lon="4.66885">
        <ele>298.63</ele>
        <time>2015-12-19T12:57:32Z</time>
      </trkpt>
      <trkpt lat="45.82327" lon="4.66868">
        <ele>296.22</ele>
        <time>2015-12-19T12:57:40Z</time>
      </trkpt>
      <trkpt lat="45.82324" lon="4.66861">
        <ele>296.7</ele>
        <time>2015-12-19T12:57:45Z</time>
      </trkpt>
      <trkpt lat="45.82322" lon="4.66858">
        <ele>296.22</ele>
        <time>2015-12-19T12:57:46Z</time>
      </trkpt>
      <trkpt lat="45.82319" lon="4.66856">
        <ele>296.22</ele>
        <time>2015-12-19T12:57:47Z</time>
      </trkpt>
      <trkpt lat="45.82316" lon="4.66855">
        <ele>296.7</ele>
        <time>2015-12-19T12:57:48Z</time>
      </trkpt>
      <trkpt lat="45.82312" lon="4.66854">
        <ele>296.22</ele>
        <time>2015-12-19T12:57:49Z</time>
      </trkpt>
      <trkpt lat="45.82309" lon="4.66855">
        <ele>296.22</ele>
        <time>2015-12-19T12:57:50Z</time>
      </trkpt>
      <trkpt lat="45.82236" lon="4.66862">
        <ele>294.3</ele>
        <time>2015-12-19T12:58:06Z</time>
      </trkpt>
      <trkpt lat="45.82172" lon="4.66871">
        <ele>293.82</ele>
        <time>2015-12-19T12:58:19Z</time>
      </trkpt>
      <trkpt lat="45.82155" lon="4.66867">
        <ele>293.34</ele>
        <time>2015-12-19T12:58:24Z</time>
      </trkpt>
      <trkpt lat="45.82131" lon="4.66848">
        <ele>293.82</ele>
        <time>2015-12-19T12:58:33Z</time>
      </trkpt>
      <trkpt lat="45.82129" lon="4.66846">
        <ele>293.34</ele>
        <time>2015-12-19T12:58:34Z</time>
      </trkpt>
      <trkpt lat="45.82112" lon="4.66825">
        <ele>294.3</ele>
        <time>2015-12-19T12:58:41Z</time>
      </trkpt>
      <trkpt lat="45.8211" lon="4.66822">
        <ele>294.3</ele>
        <time>2015-12-19T12:58:42Z</time>
      </trkpt>
      <trkpt lat="45.82084" lon="4.66792">
        <ele>295.26</ele>
        <time>2015-12-19T12:58:53Z</time>
      </trkpt>
      <trkpt lat="45.82084" lon="4.66787">
        <ele>295.74</ele>
        <time>2015-12-19T12:58:54Z</time>
      </trkpt>
      <trkpt lat="45.82085" lon="4.66783">
        <ele>296.22</ele>
        <time>2015-12-19T12:58:55Z</time>
      </trkpt>
      <trkpt lat="45.82088" lon="4.6678">
        <ele>296.22</ele>
        <time>2015-12-19T12:58:56Z</time>
      </trkpt>
      <trkpt lat="45.82091" lon="4.6678">
        <ele>296.22</ele>
        <time>2015-12-19T12:58:57Z</time>
      </trkpt>
      <trkpt lat="45.82095" lon="4.66781">
        <ele>295.74</ele>
        <time>2015-12-19T12:58:58Z</time>
      </trkpt>
      <trkpt lat="45.82098" lon="4.66782">
        <ele>296.22</ele>
        <time>2015-12-19T12:58:59Z</time>
      </trkpt>
      <trkpt lat="45.82101" lon="4.66784">
        <ele>296.22</ele>
        <time>2015-12-19T12:59:00Z</time>
      </trkpt>
      <trkpt lat="45.82125" lon="4.66771">
        <ele>297.67</ele>
        <time>2015-12-19T12:59:11Z</time>
      </trkpt>
      <trkpt lat="45.82148" lon="4.66723">
        <ele>299.59</ele>
        <time>2015-12-19T12:59:27Z</time>
      </trkpt>
      <trkpt lat="45.82153" lon="4.66707">
        <ele>300.07</ele>
        <time>2015-12-19T12:59:33Z</time>
      </trkpt>
      <trkpt lat="45.82153" lon="4.66704">
        <ele>300.07</ele>
        <time>2015-12-19T12:59:34Z</time>
      </trkpt>
      <trkpt lat="45.82152" lon="4.66701">
        <ele>300.55</ele>
        <time>2015-12-19T12:59:35Z</time>
      </trkpt>
      <trkpt lat="45.8215" lon="4.66698">
        <ele>301.03</ele>
        <time>2015-12-19T12:59:36Z</time>
      </trkpt>
      <trkpt lat="45.82149" lon="4.66696">
        <ele>301.03</ele>
        <time>2015-12-19T12:59:37Z</time>
      </trkpt>
      <trkpt lat="45.82147" lon="4.66694">
        <ele>301.51</ele>
        <time>2015-12-19T12:59:38Z</time>
      </trkpt>
      <trkpt lat="45.82146" lon="4.66691">
        <ele>301.03</ele>
        <time>2015-12-19T12:59:39Z</time>
      </trkpt>
      <trkpt lat="45.82135" lon="4.66676">
        <ele>302.47</ele>
        <time>2015-12-19T12:59:46Z</time>
      </trkpt>
      <trkpt lat="45.82135" lon="4.66673">
        <ele>302.95</ele>
        <time>2015-12-19T12:59:47Z</time>
      </trkpt>
      <trkpt lat="45.82134" lon="4.6667">
        <ele>303.43</ele>
        <time>2015-12-19T12:59:48Z</time>
      </trkpt>
      <trkpt lat="45.82133" lon="4.66668">
        <ele>303.43</ele>
        <time>2015-12-19T12:59:49Z</time>
      </trkpt>
      <trkpt lat="45.82132" lon="4.66665">
        <ele>303.43</ele>
        <time>2015-12-19T12:59:50Z</time>
      </trkpt>
      <trkpt lat="45.82132" lon="4.66662">
        <ele>303.91</ele>
        <time>2015-12-19T12:59:51Z</time>
      </trkpt>
      <trkpt lat="45.82132" lon="4.66659">
        <ele>303.43</ele>
        <time>2015-12-19T12:59:52Z</time>
      </trkpt>
      <trkpt lat="45.82132" lon="4.66656">
        <ele>303.91</ele>
        <time>2015-12-19T12:59:53Z</time>
      </trkpt>
      <trkpt lat="45.82132" lon="4.66653">
        <ele>303.91</ele>
        <time>2015-12-19T12:59:54Z</time>
      </trkpt>
      <trkpt lat="45.82132" lon="4.6665">
        <ele>303.91</ele>
        <time>2015-12-19T12:59:55Z</time>
      </trkpt>
      <trkpt lat="45.82132" lon="4.66646">
        <ele>304.88</ele>
        <time>2015-12-19T12:59:56Z</time>
      </trkpt>
      <trkpt lat="45.82132" lon="4.66643">
        <ele>304.88</ele>
        <time>2015-12-19T12:59:57Z</time>
      </trkpt>
      <trkpt lat="45.82132" lon="4.6664">
        <ele>305.36</ele>
        <time>2015-12-19T12:59:58Z</time>
      </trkpt>
      <trkpt lat="45.82132" lon="4.66637">
        <ele>304.88</ele>
        <time>2015-12-19T12:59:59Z</time>
      </trkpt>
      <trkpt lat="45.82133" lon="4.66634">
        <ele>304.88</ele>
        <time>2015-12-19T13:00:00Z</time>
      </trkpt>
      <trkpt lat="45.82133" lon="4.66631">
        <ele>304.88</ele>
        <time>2015-12-19T13:00:01Z</time>
      </trkpt>
      <trkpt lat="45.82135" lon="4.6659">
        <ele>306.8</ele>
        <time>2015-12-19T13:00:13Z</time>
      </trkpt>
      <trkpt lat="45.82137" lon="4.66537">
        <ele>308.24</ele>
        <time>2015-12-19T13:00:28Z</time>
      </trkpt>
      <trkpt lat="45.8214" lon="4.66478">
        <ele>307.76</ele>
        <time>2015-12-19T13:00:42Z</time>
      </trkpt>
      <trkpt lat="45.8214" lon="4.66393">
        <ele>309.2</ele>
        <time>2015-12-19T13:00:57Z</time>
      </trkpt>
      <trkpt lat="45.82151" lon="4.66318">
        <ele>311.12</ele>
        <time>2015-12-19T13:01:13Z</time>
      </trkpt>
      <trkpt lat="45.82149" lon="4.66255">
        <ele>313.53</ele>
        <time>2015-12-19T13:01:27Z</time>
      </trkpt>
      <trkpt lat="45.82143" lon="4.66204">
        <ele>315.93</ele>
        <time>2015-12-19T13:01:40Z</time>
      </trkpt>
      <trkpt lat="45.82136" lon="4.66158">
        <ele>318.81</ele>
        <time>2015-12-19T13:01:55Z</time>
      </trkpt>
      <trkpt lat="45.82126" lon="4.66111">
        <ele>319.3</ele>
        <time>2015-12-19T13:02:10Z</time>
      </trkpt>
      <trkpt lat="45.82117" lon="4.66068">
        <ele>316.89</ele>
        <time>2015-12-19T13:02:19Z</time>
      </trkpt>
      <trkpt lat="45.8211" lon="4.66014">
        <ele>314.01</ele>
        <time>2015-12-19T13:02:25Z</time>
      </trkpt>
      <trkpt lat="45.82106" lon="4.65991">
        <ele>312.09</ele>
        <time>2015-12-19T13:02:27Z</time>
      </trkpt>
      <trkpt lat="45.82105" lon="4.65978">
        <ele>310.64</ele>
        <time>2015-12-19T13:02:28Z</time>
      </trkpt>
      <trkpt lat="45.82104" lon="4.6594">
        <ele>306.8</ele>
        <time>2015-12-19T13:02:31Z</time>
      </trkpt>
      <trkpt lat="45.82101" lon="4.65914">
        <ele>305.36</ele>
        <time>2015-12-19T13:02:33Z</time>
      </trkpt>
      <trkpt lat="45.82088" lon="4.65861">
        <ele>302.47</ele>
        <time>2015-12-19T13:02:37Z</time>
      </trkpt>
      <trkpt lat="45.82082" lon="4.65834">
        <ele>301.03</ele>
        <time>2015-12-19T13:02:39Z</time>
      </trkpt>
      <trkpt lat="45.82071" lon="4.65727">
        <ele>300.07</ele>
        <time>2015-12-19T13:02:48Z</time>
      </trkpt>
      <trkpt lat="45.82069" lon="4.65719">
        <ele>300.07</ele>
        <time>2015-12-19T13:02:49Z</time>
      </trkpt>
      <trkpt lat="45.82065" lon="4.65714">
        <ele>300.55</ele>
        <time>2015-12-19T13:02:50Z</time>
      </trkpt>
      <trkpt lat="45.82061" lon="4.65712">
        <ele>301.03</ele>
        <time>2015-12-19T13:02:51Z</time>
      </trkpt>
      <trkpt lat="45.82057" lon="4.65711">
        <ele>300.55</ele>
        <time>2015-12-19T13:02:52Z</time>
      </trkpt>
      <trkpt lat="45.82054" lon="4.65711">
        <ele>301.03</ele>
        <time>2015-12-19T13:02:53Z</time>
      </trkpt>
      <trkpt lat="45.82015" lon="4.65712">
        <ele>302.47</ele>
        <time>2015-12-19T13:03:07Z</time>
      </trkpt>
      <trkpt lat="45.8198" lon="4.65716">
        <ele>304.88</ele>
        <time>2015-12-19T13:03:21Z</time>
      </trkpt>
      <trkpt lat="45.81944" lon="4.65728">
        <ele>306.8</ele>
        <time>2015-12-19T13:03:35Z</time>
      </trkpt>
      <trkpt lat="45.81902" lon="4.65744">
        <ele>309.68</ele>
        <time>2015-12-19T13:03:51Z</time>
      </trkpt>
      <trkpt lat="45.81873" lon="4.65746">
        <ele>312.09</ele>
        <time>2015-12-19T13:04:03Z</time>
      </trkpt>
      <trkpt lat="45.8184" lon="4.65746">
        <ele>314.49</ele>
        <time>2015-12-19T13:04:17Z</time>
      </trkpt>
      <trkpt lat="45.8181" lon="4.65751">
        <ele>315.93</ele>
        <time>2015-12-19T13:04:30Z</time>
      </trkpt>
      <trkpt lat="45.81776" lon="4.6576">
        <ele>317.85</ele>
        <time>2015-12-19T13:04:44Z</time>
      </trkpt>
      <trkpt lat="45.81745" lon="4.65769">
        <ele>319.78</ele>
        <time>2015-12-19T13:04:58Z</time>
      </trkpt>
      <trkpt lat="45.81712" lon="4.65769">
        <ele>321.7</ele>
        <time>2015-12-19T13:05:13Z</time>
      </trkpt>
      <trkpt lat="45.81677" lon="4.65757">
        <ele>325.06</ele>
        <time>2015-12-19T13:05:28Z</time>
      </trkpt>
      <trkpt lat="45.81644" lon="4.65757">
        <ele>327.95</ele>
        <time>2015-12-19T13:05:43Z</time>
      </trkpt>
      <trkpt lat="45.81617" lon="4.65771">
        <ele>329.87</ele>
        <time>2015-12-19T13:05:57Z</time>
      </trkpt>
      <trkpt lat="45.81579" lon="4.6577">
        <ele>330.83</ele>
        <time>2015-12-19T13:06:14Z</time>
      </trkpt>
      <trkpt lat="45.81566" lon="4.65769">
        <ele>329.39</ele>
        <time>2015-12-19T13:06:21Z</time>
      </trkpt>
      <trkpt lat="45.81565" lon="4.65769">
        <ele>330.83</ele>
        <time>2015-12-19T13:06:32Z</time>
      </trkpt>
      <trkpt lat="45.81565" lon="4.65769">
        <ele>330.35</ele>
        <time>2015-12-19T13:07:05Z</time>
      </trkpt>
      <trkpt lat="45.81564" lon="4.65767">
        <ele>329.87</ele>
        <time>2015-12-19T13:07:13Z</time>
      </trkpt>
      <trkpt lat="45.81564" lon="4.65764">
        <ele>329.87</ele>
        <time>2015-12-19T13:07:14Z</time>
      </trkpt>
      <trkpt lat="45.81562" lon="4.65746">
        <ele>327.95</ele>
        <time>2015-12-19T13:07:18Z</time>
      </trkpt>
      <trkpt lat="45.81563" lon="4.6574">
        <ele>326.99</ele>
        <time>2015-12-19T13:07:19Z</time>
      </trkpt>
      <trkpt lat="45.81563" lon="4.65734">
        <ele>326.99</ele>
        <time>2015-12-19T13:07:20Z</time>
      </trkpt>
      <trkpt lat="45.81562" lon="4.65719">
        <ele>325.54</ele>
        <time>2015-12-19T13:07:22Z</time>
      </trkpt>
      <trkpt lat="45.81561" lon="4.65662">
        <ele>321.22</ele>
        <time>2015-12-19T13:07:27Z</time>
      </trkpt>
      <trkpt lat="45.81561" lon="4.65621">
        <ele>316.41</ele>
        <time>2015-12-19T13:07:30Z</time>
      </trkpt>
      <trkpt lat="45.81559" lon="4.65565">
        <ele>312.57</ele>
        <time>2015-12-19T13:07:34Z</time>
      </trkpt>
      <trkpt lat="45.81556" lon="4.6555">
        <ele>312.09</ele>
        <time>2015-12-19T13:07:35Z</time>
      </trkpt>
      <trkpt lat="45.8155" lon="4.6552">
        <ele>308.24</ele>
        <time>2015-12-19T13:07:37Z</time>
      </trkpt>
      <trkpt lat="45.81546" lon="4.65492">
        <ele>304.88</ele>
        <time>2015-12-19T13:07:39Z</time>
      </trkpt>
      <trkpt lat="45.81541" lon="4.65452">
        <ele>301.51</ele>
        <time>2015-12-19T13:07:43Z</time>
      </trkpt>
      <trkpt lat="45.81541" lon="4.65445">
        <ele>301.03</ele>
        <time>2015-12-19T13:07:44Z</time>
      </trkpt>
      <trkpt lat="45.8154" lon="4.6544">
        <ele>301.51</ele>
        <time>2015-12-19T13:07:45Z</time>
      </trkpt>
      <trkpt lat="45.81538" lon="4.65436">
        <ele>301.99</ele>
        <time>2015-12-19T13:07:46Z</time>
      </trkpt>
      <trkpt lat="45.81535" lon="4.65433">
        <ele>301.99</ele>
        <time>2015-12-19T13:07:47Z</time>
      </trkpt>
      <trkpt lat="45.81532" lon="4.6543">
        <ele>302.47</ele>
        <time>2015-12-19T13:07:48Z</time>
      </trkpt>
      <trkpt lat="45.81529" lon="4.65426">
        <ele>302.95</ele>
        <time>2015-12-19T13:07:49Z</time>
      </trkpt>
      <trkpt lat="45.81526" lon="4.65423">
        <ele>303.43</ele>
        <time>2015-12-19T13:07:50Z</time>
      </trkpt>
      <trkpt lat="45.8151" lon="4.65404">
        <ele>305.36</ele>
        <time>2015-12-19T13:08:00Z</time>
      </trkpt>
      <trkpt lat="45.81497" lon="4.65387">
        <ele>306.32</ele>
        <time>2015-12-19T13:08:10Z</time>
      </trkpt>
      <trkpt lat="45.81475" lon="4.65363">
        <ele>307.76</ele>
        <time>2015-12-19T13:08:22Z</time>
      </trkpt>
      <trkpt lat="45.81446" lon="4.6534">
        <ele>309.68</ele>
        <time>2015-12-19T13:08:37Z</time>
      </trkpt>
      <trkpt lat="45.81419" lon="4.65323">
        <ele>311.6</ele>
        <time>2015-12-19T13:08:51Z</time>
      </trkpt>
      <trkpt lat="45.81384" lon="4.65302">
        <ele>314.01</ele>
        <time>2015-12-19T13:09:06Z</time>
      </trkpt>
      <trkpt lat="45.81362" lon="4.65294">
        <ele>315.45</ele>
        <time>2015-12-19T13:09:19Z</time>
      </trkpt>
      <trkpt lat="45.81359" lon="4.65292">
        <ele>315.93</ele>
        <time>2015-12-19T13:09:21Z</time>
      </trkpt>
      <trkpt lat="45.81339" lon="4.65273">
        <ele>317.85</ele>
        <time>2015-12-19T13:09:34Z</time>
      </trkpt>
      <trkpt lat="45.81319" lon="4.65251">
        <ele>320.26</ele>
        <time>2015-12-19T13:09:49Z</time>
      </trkpt>
      <trkpt lat="45.81317" lon="4.65248">
        <ele>320.26</ele>
        <time>2015-12-19T13:09:51Z</time>
      </trkpt>
      <trkpt lat="45.81316" lon="4.65246">
        <ele>320.26</ele>
        <time>2015-12-19T13:09:52Z</time>
      </trkpt>
      <trkpt lat="45.81315" lon="4.65244">
        <ele>320.74</ele>
        <time>2015-12-19T13:09:53Z</time>
      </trkpt>
      <trkpt lat="45.81314" lon="4.65242">
        <ele>320.74</ele>
        <time>2015-12-19T13:09:54Z</time>
      </trkpt>
      <trkpt lat="45.81312" lon="4.6524">
        <ele>320.26</ele>
        <time>2015-12-19T13:09:55Z</time>
      </trkpt>
      <trkpt lat="45.81311" lon="4.65237">
        <ele>320.26</ele>
        <time>2015-12-19T13:09:56Z</time>
      </trkpt>
      <trkpt lat="45.81309" lon="4.65235">
        <ele>321.7</ele>
        <time>2015-12-19T13:09:57Z</time>
      </trkpt>
      <trkpt lat="45.81308" lon="4.65233">
        <ele>320.26</ele>
        <time>2015-12-19T13:09:58Z</time>
      </trkpt>
      <trkpt lat="45.81307" lon="4.65231">
        <ele>321.22</ele>
        <time>2015-12-19T13:09:59Z</time>
      </trkpt>
      <trkpt lat="45.81306" lon="4.65229">
        <ele>321.22</ele>
        <time>2015-12-19T13:10:00Z</time>
      </trkpt>
      <trkpt lat="45.81306" lon="4.65227">
        <ele>321.22</ele>
        <time>2015-12-19T13:10:01Z</time>
      </trkpt>
      <trkpt lat="45.81304" lon="4.65225">
        <ele>321.7</ele>
        <time>2015-12-19T13:10:02Z</time>
      </trkpt>
      <trkpt lat="45.81303" lon="4.65223">
        <ele>322.18</ele>
        <time>2015-12-19T13:10:03Z</time>
      </trkpt>
      <trkpt lat="45.81286" lon="4.65201">
        <ele>322.18</ele>
        <time>2015-12-19T13:10:14Z</time>
      </trkpt>
      <trkpt lat="45.81285" lon="4.65199">
        <ele>322.66</ele>
        <time>2015-12-19T13:10:15Z</time>
      </trkpt>
      <trkpt lat="45.81284" lon="4.65196">
        <ele>321.7</ele>
        <time>2015-12-19T13:10:16Z</time>
      </trkpt>
      <trkpt lat="45.81283" lon="4.65194">
        <ele>322.18</ele>
        <time>2015-12-19T13:10:17Z</time>
      </trkpt>
      <trkpt lat="45.81282" lon="4.65192">
        <ele>322.66</ele>
        <time>2015-12-19T13:10:18Z</time>
      </trkpt>
      <trkpt lat="45.8128" lon="4.6519">
        <ele>321.7</ele>
        <time>2015-12-19T13:10:19Z</time>
      </trkpt>
      <trkpt lat="45.81279" lon="4.65188">
        <ele>322.66</ele>
        <time>2015-12-19T13:10:20Z</time>
      </trkpt>
      <trkpt lat="45.81255" lon="4.65155">
        <ele>322.66</ele>
        <time>2015-12-19T13:10:34Z</time>
      </trkpt>
      <trkpt lat="45.81237" lon="4.65127">
        <ele>322.18</ele>
        <time>2015-12-19T13:10:44Z</time>
      </trkpt>
      <trkpt lat="45.81219" lon="4.65099">
        <ele>321.7</ele>
        <time>2015-12-19T13:10:54Z</time>
      </trkpt>
      <trkpt lat="45.81211" lon="4.6509">
        <ele>321.7</ele>
        <time>2015-12-19T13:10:58Z</time>
      </trkpt>
      <trkpt lat="45.81188" lon="4.65059">
        <ele>321.7</ele>
        <time>2015-12-19T13:11:10Z</time>
      </trkpt>
      <trkpt lat="45.81162" lon="4.65004">
        <ele>319.3</ele>
        <time>2015-12-19T13:11:23Z</time>
      </trkpt>
      <trkpt lat="45.8116" lon="4.64997">
        <ele>319.78</ele>
        <time>2015-12-19T13:11:24Z</time>
      </trkpt>
      <trkpt lat="45.81159" lon="4.6499">
        <ele>319.78</ele>
        <time>2015-12-19T13:11:25Z</time>
      </trkpt>
      <trkpt lat="45.8116" lon="4.64982">
        <ele>320.26</ele>
        <time>2015-12-19T13:11:26Z</time>
      </trkpt>
      <trkpt lat="45.8116" lon="4.64968">
        <ele>320.74</ele>
        <time>2015-12-19T13:11:29Z</time>
      </trkpt>
      <trkpt lat="45.81159" lon="4.64965">
        <ele>321.22</ele>
        <time>2015-12-19T13:11:30Z</time>
      </trkpt>
      <trkpt lat="45.81158" lon="4.64962">
        <ele>320.74</ele>
        <time>2015-12-19T13:11:31Z</time>
      </trkpt>
      <trkpt lat="45.81146" lon="4.64939">
        <ele>323.62</ele>
        <time>2015-12-19T13:11:42Z</time>
      </trkpt>
      <trkpt lat="45.81143" lon="4.64925">
        <ele>326.5</ele>
        <time>2015-12-19T13:11:50Z</time>
      </trkpt>
      <trkpt lat="45.81139" lon="4.64893">
        <ele>329.87</ele>
        <time>2015-12-19T13:12:03Z</time>
      </trkpt>
      <trkpt lat="45.81138" lon="4.64891">
        <ele>329.39</ele>
        <time>2015-12-19T13:12:04Z</time>
      </trkpt>
      <trkpt lat="45.81137" lon="4.64888">
        <ele>329.39</ele>
        <time>2015-12-19T13:12:05Z</time>
      </trkpt>
      <trkpt lat="45.81129" lon="4.64867">
        <ele>330.83</ele>
        <time>2015-12-19T13:12:14Z</time>
      </trkpt>
      <trkpt lat="45.81119" lon="4.64831">
        <ele>333.23</ele>
        <time>2015-12-19T13:12:29Z</time>
      </trkpt>
      <trkpt lat="45.81116" lon="4.64822">
        <ele>333.71</ele>
        <time>2015-12-19T13:12:33Z</time>
      </trkpt>
      <trkpt lat="45.81115" lon="4.6482">
        <ele>333.71</ele>
        <time>2015-12-19T13:12:34Z</time>
      </trkpt>
      <trkpt lat="45.81115" lon="4.64818">
        <ele>333.71</ele>
        <time>2015-12-19T13:12:35Z</time>
      </trkpt>
      <trkpt lat="45.81114" lon="4.64815">
        <ele>333.71</ele>
        <time>2015-12-19T13:12:36Z</time>
      </trkpt>
      <trkpt lat="45.81114" lon="4.64813">
        <ele>333.71</ele>
        <time>2015-12-19T13:12:37Z</time>
      </trkpt>
      <trkpt lat="45.81114" lon="4.64811">
        <ele>334.68</ele>
        <time>2015-12-19T13:12:38Z</time>
      </trkpt>
      <trkpt lat="45.81113" lon="4.64808">
        <ele>334.2</ele>
        <time>2015-12-19T13:12:39Z</time>
      </trkpt>
      <trkpt lat="45.81112" lon="4.64806">
        <ele>334.68</ele>
        <time>2015-12-19T13:12:40Z</time>
      </trkpt>
      <trkpt lat="45.81111" lon="4.64804">
        <ele>334.2</ele>
        <time>2015-12-19T13:12:41Z</time>
      </trkpt>
      <trkpt lat="45.8111" lon="4.64802">
        <ele>334.68</ele>
        <time>2015-12-19T13:12:42Z</time>
      </trkpt>
      <trkpt lat="45.81109" lon="4.648">
        <ele>334.68</ele>
        <time>2015-12-19T13:12:43Z</time>
      </trkpt>
      <trkpt lat="45.81098" lon="4.64777">
        <ele>337.08</ele>
        <time>2015-12-19T13:12:55Z</time>
      </trkpt>
      <trkpt lat="45.81082" lon="4.64754">
        <ele>338.04</ele>
        <time>2015-12-19T13:13:09Z</time>
      </trkpt>
      <trkpt lat="45.8107" lon="4.64733">
        <ele>339.48</ele>
        <time>2015-12-19T13:13:21Z</time>
      </trkpt>
      <trkpt lat="45.81054" lon="4.64709">
        <ele>341.89</ele>
        <time>2015-12-19T13:13:37Z</time>
      </trkpt>
      <trkpt lat="45.81037" lon="4.64683">
        <ele>343.33</ele>
        <time>2015-12-19T13:13:51Z</time>
      </trkpt>
      <trkpt lat="45.81023" lon="4.64662">
        <ele>345.25</ele>
        <time>2015-12-19T13:14:04Z</time>
      </trkpt>
      <trkpt lat="45.81007" lon="4.6464">
        <ele>346.21</ele>
        <time>2015-12-19T13:14:18Z</time>
      </trkpt>
      <trkpt lat="45.80992" lon="4.64616">
        <ele>349.1</ele>
        <time>2015-12-19T13:14:32Z</time>
      </trkpt>
      <trkpt lat="45.80974" lon="4.64594">
        <ele>351.5</ele>
        <time>2015-12-19T13:14:48Z</time>
      </trkpt>
      <trkpt lat="45.80957" lon="4.64574">
        <ele>353.42</ele>
        <time>2015-12-19T13:15:05Z</time>
      </trkpt>
      <trkpt lat="45.80939" lon="4.64555">
        <ele>355.83</ele>
        <time>2015-12-19T13:15:19Z</time>
      </trkpt>
      <trkpt lat="45.80924" lon="4.64531">
        <ele>357.27</ele>
        <time>2015-12-19T13:15:32Z</time>
      </trkpt>
      <trkpt lat="45.80921" lon="4.64523">
        <ele>357.27</ele>
        <time>2015-12-19T13:15:36Z</time>
      </trkpt>
      <trkpt lat="45.8092" lon="4.64521">
        <ele>358.23</ele>
        <time>2015-12-19T13:15:37Z</time>
      </trkpt>
      <trkpt lat="45.80909" lon="4.64494">
        <ele>359.19</ele>
        <time>2015-12-19T13:15:51Z</time>
      </trkpt>
      <trkpt lat="45.80894" lon="4.64473">
        <ele>360.15</ele>
        <time>2015-12-19T13:16:02Z</time>
      </trkpt>
      <trkpt lat="45.80893" lon="4.64469">
        <ele>360.63</ele>
        <time>2015-12-19T13:16:04Z</time>
      </trkpt>
      <trkpt lat="45.80893" lon="4.64467">
        <ele>360.15</ele>
        <time>2015-12-19T13:16:05Z</time>
      </trkpt>
      <trkpt lat="45.80893" lon="4.64465">
        <ele>361.11</ele>
        <time>2015-12-19T13:16:06Z</time>
      </trkpt>
      <trkpt lat="45.80891" lon="4.64463">
        <ele>360.15</ele>
        <time>2015-12-19T13:16:07Z</time>
      </trkpt>
      <trkpt lat="45.8089" lon="4.6446">
        <ele>360.63</ele>
        <time>2015-12-19T13:16:08Z</time>
      </trkpt>
      <trkpt lat="45.80878" lon="4.64441">
        <ele>362.07</ele>
        <time>2015-12-19T13:16:17Z</time>
      </trkpt>
      <trkpt lat="45.80878" lon="4.64439">
        <ele>363.04</ele>
        <time>2015-12-19T13:16:18Z</time>
      </trkpt>
      <trkpt lat="45.80877" lon="4.64437">
        <ele>362.55</ele>
        <time>2015-12-19T13:16:19Z</time>
      </trkpt>
      <trkpt lat="45.8087" lon="4.64427">
        <ele>364</ele>
        <time>2015-12-19T13:16:26Z</time>
      </trkpt>
      <trkpt lat="45.80869" lon="4.64426">
        <ele>364.48</ele>
        <time>2015-12-19T13:16:27Z</time>
      </trkpt>
      <trkpt lat="45.80867" lon="4.64425">
        <ele>364.96</ele>
        <time>2015-12-19T13:16:28Z</time>
      </trkpt>
      <trkpt lat="45.80866" lon="4.64423">
        <ele>364.96</ele>
        <time>2015-12-19T13:16:29Z</time>
      </trkpt>
      <trkpt lat="45.80865" lon="4.64422">
        <ele>364.96</ele>
        <time>2015-12-19T13:16:30Z</time>
      </trkpt>
      <trkpt lat="45.80864" lon="4.64421">
        <ele>365.44</ele>
        <time>2015-12-19T13:16:31Z</time>
      </trkpt>
      <trkpt lat="45.80862" lon="4.6442">
        <ele>364.96</ele>
        <time>2015-12-19T13:16:32Z</time>
      </trkpt>
      <trkpt lat="45.80861" lon="4.64418">
        <ele>364.48</ele>
        <time>2015-12-19T13:16:33Z</time>
      </trkpt>
      <trkpt lat="45.8086" lon="4.64416">
        <ele>366.4</ele>
        <time>2015-12-19T13:16:34Z</time>
      </trkpt>
      <trkpt lat="45.80858" lon="4.64415">
        <ele>366.4</ele>
        <time>2015-12-19T13:16:35Z</time>
      </trkpt>
      <trkpt lat="45.80856" lon="4.64413">
        <ele>366.4</ele>
        <time>2015-12-19T13:16:36Z</time>
      </trkpt>
      <trkpt lat="45.80846" lon="4.644">
        <ele>367.84</ele>
        <time>2015-12-19T13:16:45Z</time>
      </trkpt>
      <trkpt lat="45.80844" lon="4.64398">
        <ele>368.32</ele>
        <time>2015-12-19T13:16:46Z</time>
      </trkpt>
      <trkpt lat="45.80843" lon="4.64397">
        <ele>368.32</ele>
        <time>2015-12-19T13:16:47Z</time>
      </trkpt>
      <trkpt lat="45.80842" lon="4.64396">
        <ele>368.32</ele>
        <time>2015-12-19T13:16:48Z</time>
      </trkpt>
      <trkpt lat="45.8084" lon="4.64395">
        <ele>368.8</ele>
        <time>2015-12-19T13:16:49Z</time>
      </trkpt>
      <trkpt lat="45.80839" lon="4.64393">
        <ele>368.8</ele>
        <time>2015-12-19T13:16:50Z</time>
      </trkpt>
      <trkpt lat="45.80838" lon="4.64391">
        <ele>368.8</ele>
        <time>2015-12-19T13:16:51Z</time>
      </trkpt>
      <trkpt lat="45.80826" lon="4.64378">
        <ele>370.73</ele>
        <time>2015-12-19T13:17:01Z</time>
      </trkpt>
      <trkpt lat="45.80825" lon="4.64377">
        <ele>370.73</ele>
        <time>2015-12-19T13:17:02Z</time>
      </trkpt>
      <trkpt lat="45.80824" lon="4.64375">
        <ele>371.21</ele>
        <time>2015-12-19T13:17:03Z</time>
      </trkpt>
      <trkpt lat="45.80823" lon="4.64374">
        <ele>370.73</ele>
        <time>2015-12-19T13:17:04Z</time>
      </trkpt>
      <trkpt lat="45.80821" lon="4.64372">
        <ele>371.21</ele>
        <time>2015-12-19T13:17:05Z</time>
      </trkpt>
      <trkpt lat="45.8082" lon="4.64371">
        <ele>371.69</ele>
        <time>2015-12-19T13:17:06Z</time>
      </trkpt>
      <trkpt lat="45.80819" lon="4.64369">
        <ele>371.21</ele>
        <time>2015-12-19T13:17:07Z</time>
      </trkpt>
      <trkpt lat="45.80818" lon="4.64368">
        <ele>371.69</ele>
        <time>2015-12-19T13:17:08Z</time>
      </trkpt>
      <trkpt lat="45.80817" lon="4.64366">
        <ele>371.21</ele>
        <time>2015-12-19T13:17:09Z</time>
      </trkpt>
      <trkpt lat="45.80803" lon="4.64352">
        <ele>374.57</ele>
        <time>2015-12-19T13:17:21Z</time>
      </trkpt>
      <trkpt lat="45.80791" lon="4.64342">
        <ele>377.45</ele>
        <time>2015-12-19T13:17:33Z</time>
      </trkpt>
      <trkpt lat="45.80782" lon="4.64326">
        <ele>377.45</ele>
        <time>2015-12-19T13:17:42Z</time>
      </trkpt>
      <trkpt lat="45.80779" lon="4.64324">
        <ele>378.42</ele>
        <time>2015-12-19T13:18:03Z</time>
      </trkpt>
      <trkpt lat="45.80773" lon="4.64315">
        <ele>378.9</ele>
        <time>2015-12-19T13:18:10Z</time>
      </trkpt>
      <trkpt lat="45.80769" lon="4.64309">
        <ele>379.38</ele>
        <time>2015-12-19T13:18:16Z</time>
      </trkpt>
      <trkpt lat="45.80768" lon="4.64308">
        <ele>379.86</ele>
        <time>2015-12-19T13:18:17Z</time>
      </trkpt>
      <trkpt lat="45.80763" lon="4.64301">
        <ele>381.78</ele>
        <time>2015-12-19T13:18:26Z</time>
      </trkpt>
      <trkpt lat="45.80756" lon="4.64288">
        <ele>382.74</ele>
        <time>2015-12-19T13:18:40Z</time>
      </trkpt>
      <trkpt lat="45.80751" lon="4.64273">
        <ele>385.63</ele>
        <time>2015-12-19T13:18:53Z</time>
      </trkpt>
      <trkpt lat="45.80747" lon="4.64265">
        <ele>386.59</ele>
        <time>2015-12-19T13:19:01Z</time>
      </trkpt>
      <trkpt lat="45.80745" lon="4.64263">
        <ele>386.59</ele>
        <time>2015-12-19T13:19:03Z</time>
      </trkpt>
      <trkpt lat="45.80742" lon="4.64255">
        <ele>388.51</ele>
        <time>2015-12-19T13:19:10Z</time>
      </trkpt>
      <trkpt lat="45.80736" lon="4.64243">
        <ele>390.43</ele>
        <time>2015-12-19T13:19:24Z</time>
      </trkpt>
      <trkpt lat="45.80729" lon="4.6423">
        <ele>392.36</ele>
        <time>2015-12-19T13:19:36Z</time>
      </trkpt>
      <trkpt lat="45.80721" lon="4.64211">
        <ele>393.32</ele>
        <time>2015-12-19T13:19:52Z</time>
      </trkpt>
      <trkpt lat="45.80717" lon="4.6421">
        <ele>393.32</ele>
        <time>2015-12-19T13:19:56Z</time>
      </trkpt>
      <trkpt lat="45.80716" lon="4.6421">
        <ele>392.84</ele>
        <time>2015-12-19T13:20:11Z</time>
      </trkpt>
      <trkpt lat="45.80716" lon="4.6421">
        <ele>392.84</ele>
        <time>2015-12-19T13:20:52Z</time>
      </trkpt>
      <trkpt lat="45.80716" lon="4.6421">
        <ele>392.84</ele>
        <time>2015-12-19T13:21:32Z</time>
      </trkpt>
      <trkpt lat="45.80716" lon="4.6421">
        <ele>392.36</ele>
        <time>2015-12-19T13:22:13Z</time>
      </trkpt>
      <trkpt lat="45.80716" lon="4.6421">
        <ele>392.84</ele>
        <time>2015-12-19T13:22:48Z</time>
      </trkpt>
      <trkpt lat="45.80716" lon="4.64209">
        <ele>393.32</ele>
        <time>2015-12-19T13:23:04Z</time>
      </trkpt>
      <trkpt lat="45.80714" lon="4.64208">
        <ele>393.8</ele>
        <time>2015-12-19T13:23:21Z</time>
      </trkpt>
      <trkpt lat="45.80714" lon="4.64208">
        <ele>393.8</ele>
        <time>2015-12-19T13:23:42Z</time>
      </trkpt>
      <trkpt lat="45.80714" lon="4.64208">
        <ele>391.87</ele>
        <time>2015-12-19T13:23:59Z</time>
      </trkpt>
      <trkpt lat="45.80714" lon="4.64208">
        <ele>395.24</ele>
        <time>2015-12-19T13:24:01Z</time>
      </trkpt>
      <trkpt lat="45.80713" lon="4.64207">
        <ele>393.8</ele>
        <time>2015-12-19T13:24:21Z</time>
      </trkpt>
      <trkpt lat="45.80713" lon="4.64207">
        <ele>393.8</ele>
        <time>2015-12-19T13:24:45Z</time>
      </trkpt>
      <trkpt lat="45.80713" lon="4.64207">
        <ele>394.28</ele>
        <time>2015-12-19T13:25:06Z</time>
      </trkpt>
      <trkpt lat="45.80713" lon="4.64207">
        <ele>394.28</ele>
        <time>2015-12-19T13:25:27Z</time>
      </trkpt>
      <trkpt lat="45.80713" lon="4.64207">
        <ele>394.28</ele>
        <time>2015-12-19T13:25:45Z</time>
      </trkpt>
      <trkpt lat="45.80713" lon="4.64207">
        <ele>394.76</ele>
        <time>2015-12-19T13:26:07Z</time>
      </trkpt>
      <trkpt lat="45.80713" lon="4.64207">
        <ele>394.28</ele>
        <time>2015-12-19T13:26:19Z</time>
      </trkpt>
      <trkpt lat="45.80711" lon="4.64202">
        <ele>395.24</ele>
        <time>2015-12-19T13:26:30Z</time>
      </trkpt>
      <trkpt lat="45.80711" lon="4.642">
        <ele>395.24</ele>
        <time>2015-12-19T13:26:31Z</time>
      </trkpt>
      <trkpt lat="45.8071" lon="4.64198">
        <ele>395.24</ele>
        <time>2015-12-19T13:26:32Z</time>
      </trkpt>
      <trkpt lat="45.80709" lon="4.64195">
        <ele>395.24</ele>
        <time>2015-12-19T13:26:33Z</time>
      </trkpt>
      <trkpt lat="45.80708" lon="4.64193">
        <ele>395.72</ele>
        <time>2015-12-19T13:26:34Z</time>
      </trkpt>
      <trkpt lat="45.80707" lon="4.64191">
        <ele>395.24</ele>
        <time>2015-12-19T13:26:35Z</time>
      </trkpt>
      <trkpt lat="45.8069" lon="4.64162">
        <ele>397.16</ele>
        <time>2015-12-19T13:26:49Z</time>
      </trkpt>
      <trkpt lat="45.80665" lon="4.64128">
        <ele>398.12</ele>
        <time>2015-12-19T13:27:05Z</time>
      </trkpt>
      <trkpt lat="45.80637" lon="4.64133">
        <ele>397.64</ele>
        <time>2015-12-19T13:27:18Z</time>
      </trkpt>
      <trkpt lat="45.80637" lon="4.64134">
        <ele>397.64</ele>
        <time>2015-12-19T13:27:30Z</time>
      </trkpt>
      <trkpt lat="45.80636" lon="4.64136">
        <ele>397.64</ele>
        <time>2015-12-19T13:27:31Z</time>
      </trkpt>
      <trkpt lat="45.80634" lon="4.64137">
        <ele>397.16</ele>
        <time>2015-12-19T13:27:32Z</time>
      </trkpt>
      <trkpt lat="45.80633" lon="4.64139">
        <ele>396.68</ele>
        <time>2015-12-19T13:27:33Z</time>
      </trkpt>
      <trkpt lat="45.80632" lon="4.64141">
        <ele>396.68</ele>
        <time>2015-12-19T13:27:34Z</time>
      </trkpt>
      <trkpt lat="45.80632" lon="4.64144">
        <ele>397.16</ele>
        <time>2015-12-19T13:27:35Z</time>
      </trkpt>
      <trkpt lat="45.80632" lon="4.64146">
        <ele>397.16</ele>
        <time>2015-12-19T13:27:36Z</time>
      </trkpt>
      <trkpt lat="45.80632" lon="4.64148">
        <ele>397.64</ele>
        <time>2015-12-19T13:27:37Z</time>
      </trkpt>
      <trkpt lat="45.80631" lon="4.64155">
        <ele>397.16</ele>
        <time>2015-12-19T13:27:40Z</time>
      </trkpt>
      <trkpt lat="45.80628" lon="4.64159">
        <ele>397.16</ele>
        <time>2015-12-19T13:27:42Z</time>
      </trkpt>
      <trkpt lat="45.80628" lon="4.64163">
        <ele>397.16</ele>
        <time>2015-12-19T13:27:43Z</time>
      </trkpt>
      <trkpt lat="45.80628" lon="4.64166">
        <ele>397.16</ele>
        <time>2015-12-19T13:27:44Z</time>
      </trkpt>
      <trkpt lat="45.80626" lon="4.6422">
        <ele>398.6</ele>
        <time>2015-12-19T13:28:00Z</time>
      </trkpt>
      <trkpt lat="45.80615" lon="4.64274">
        <ele>399.57</ele>
        <time>2015-12-19T13:28:13Z</time>
      </trkpt>
      <trkpt lat="45.80588" lon="4.6435">
        <ele>401.97</ele>
        <time>2015-12-19T13:28:30Z</time>
      </trkpt>
      <trkpt lat="45.80561" lon="4.64414">
        <ele>402.93</ele>
        <time>2015-12-19T13:28:45Z</time>
      </trkpt>
      <trkpt lat="45.80534" lon="4.64486">
        <ele>404.37</ele>
        <time>2015-12-19T13:29:01Z</time>
      </trkpt>
      <trkpt lat="45.80514" lon="4.6455">
        <ele>405.33</ele>
        <time>2015-12-19T13:29:16Z</time>
      </trkpt>
      <trkpt lat="45.80499" lon="4.64582">
        <ele>406.77</ele>
        <time>2015-12-19T13:29:27Z</time>
      </trkpt>
      <trkpt lat="45.80481" lon="4.6462">
        <ele>407.74</ele>
        <time>2015-12-19T13:29:40Z</time>
      </trkpt>
      <trkpt lat="45.80466" lon="4.6466">
        <ele>408.7</ele>
        <time>2015-12-19T13:29:53Z</time>
      </trkpt>
      <trkpt lat="45.80465" lon="4.64662">
        <ele>409.66</ele>
        <time>2015-12-19T13:29:54Z</time>
      </trkpt>
      <trkpt lat="45.80463" lon="4.64664">
        <ele>409.66</ele>
        <time>2015-12-19T13:29:55Z</time>
      </trkpt>
      <trkpt lat="45.80461" lon="4.64667">
        <ele>409.66</ele>
        <time>2015-12-19T13:29:56Z</time>
      </trkpt>
      <trkpt lat="45.8046" lon="4.6467">
        <ele>409.18</ele>
        <time>2015-12-19T13:29:57Z</time>
      </trkpt>
      <trkpt lat="45.80459" lon="4.64674">
        <ele>409.18</ele>
        <time>2015-12-19T13:29:58Z</time>
      </trkpt>
      <trkpt lat="45.80459" lon="4.64677">
        <ele>410.14</ele>
        <time>2015-12-19T13:29:59Z</time>
      </trkpt>
      <trkpt lat="45.80456" lon="4.64686">
        <ele>410.14</ele>
        <time>2015-12-19T13:30:02Z</time>
      </trkpt>
      <trkpt lat="45.80455" lon="4.64689">
        <ele>410.14</ele>
        <time>2015-12-19T13:30:03Z</time>
      </trkpt>
      <trkpt lat="45.80454" lon="4.64691">
        <ele>410.62</ele>
        <time>2015-12-19T13:30:04Z</time>
      </trkpt>
      <trkpt lat="45.80454" lon="4.64694">
        <ele>411.1</ele>
        <time>2015-12-19T13:30:05Z</time>
      </trkpt>
      <trkpt lat="45.80454" lon="4.64697">
        <ele>410.62</ele>
        <time>2015-12-19T13:30:06Z</time>
      </trkpt>
      <trkpt lat="45.80449" lon="4.64732">
        <ele>413.02</ele>
        <time>2015-12-19T13:30:18Z</time>
      </trkpt>
      <trkpt lat="45.80443" lon="4.64762">
        <ele>415.43</ele>
        <time>2015-12-19T13:30:30Z</time>
      </trkpt>
      <trkpt lat="45.80442" lon="4.64764">
        <ele>415.91</ele>
        <time>2015-12-19T13:30:31Z</time>
      </trkpt>
      <trkpt lat="45.80441" lon="4.64766">
        <ele>415.91</ele>
        <time>2015-12-19T13:30:32Z</time>
      </trkpt>
      <trkpt lat="45.8044" lon="4.64769">
        <ele>415.91</ele>
        <time>2015-12-19T13:30:33Z</time>
      </trkpt>
      <trkpt lat="45.80439" lon="4.64771">
        <ele>415.91</ele>
        <time>2015-12-19T13:30:34Z</time>
      </trkpt>
      <trkpt lat="45.80423" lon="4.64788">
        <ele>418.31</ele>
        <time>2015-12-19T13:30:46Z</time>
      </trkpt>
      <trkpt lat="45.80421" lon="4.64789">
        <ele>417.83</ele>
        <time>2015-12-19T13:30:47Z</time>
      </trkpt>
      <trkpt lat="45.80419" lon="4.64791">
        <ele>418.79</ele>
        <time>2015-12-19T13:30:48Z</time>
      </trkpt>
      <trkpt lat="45.80402" lon="4.64805">
        <ele>420.71</ele>
        <time>2015-12-19T13:30:59Z</time>
      </trkpt>
      <trkpt lat="45.80398" lon="4.64811">
        <ele>422.16</ele>
        <time>2015-12-19T13:31:09Z</time>
      </trkpt>
      <trkpt lat="45.80397" lon="4.64815">
        <ele>421.19</ele>
        <time>2015-12-19T13:31:11Z</time>
      </trkpt>
      <trkpt lat="45.80396" lon="4.64817">
        <ele>422.16</ele>
        <time>2015-12-19T13:31:12Z</time>
      </trkpt>
      <trkpt lat="45.80395" lon="4.6482">
        <ele>422.16</ele>
        <time>2015-12-19T13:31:13Z</time>
      </trkpt>
      <trkpt lat="45.80394" lon="4.64822">
        <ele>422.64</ele>
        <time>2015-12-19T13:31:14Z</time>
      </trkpt>
      <trkpt lat="45.80393" lon="4.64825">
        <ele>422.16</ele>
        <time>2015-12-19T13:31:15Z</time>
      </trkpt>
      <trkpt lat="45.80392" lon="4.64827">
        <ele>422.64</ele>
        <time>2015-12-19T13:31:16Z</time>
      </trkpt>
      <trkpt lat="45.80391" lon="4.64829">
        <ele>423.12</ele>
        <time>2015-12-19T13:31:17Z</time>
      </trkpt>
      <trkpt lat="45.80387" lon="4.64836">
        <ele>424.08</ele>
        <time>2015-12-19T13:31:21Z</time>
      </trkpt>
      <trkpt lat="45.80386" lon="4.64838">
        <ele>423.12</ele>
        <time>2015-12-19T13:31:22Z</time>
      </trkpt>
      <trkpt lat="45.80385" lon="4.64841">
        <ele>424.08</ele>
        <time>2015-12-19T13:31:23Z</time>
      </trkpt>
      <trkpt lat="45.8037" lon="4.64858">
        <ele>424.56</ele>
        <time>2015-12-19T13:31:28Z</time>
      </trkpt>
      <trkpt lat="45.80367" lon="4.64861">
        <ele>425.04</ele>
        <time>2015-12-19T13:31:29Z</time>
      </trkpt>
      <trkpt lat="45.80359" lon="4.64878">
        <ele>426</ele>
        <time>2015-12-19T13:31:36Z</time>
      </trkpt>
      <trkpt lat="45.80342" lon="4.64908">
        <ele>426.48</ele>
        <time>2015-12-19T13:31:50Z</time>
      </trkpt>
      <trkpt lat="45.80326" lon="4.6494">
        <ele>428.89</ele>
        <time>2015-12-19T13:32:06Z</time>
      </trkpt>
      <trkpt lat="45.80311" lon="4.64975">
        <ele>428.4</ele>
        <time>2015-12-19T13:32:17Z</time>
      </trkpt>
      <trkpt lat="45.80305" lon="4.65009">
        <ele>427.92</ele>
        <time>2015-12-19T13:32:28Z</time>
      </trkpt>
      <trkpt lat="45.80294" lon="4.65043">
        <ele>427.92</ele>
        <time>2015-12-19T13:32:39Z</time>
      </trkpt>
      <trkpt lat="45.80279" lon="4.65094">
        <ele>428.4</ele>
        <time>2015-12-19T13:32:51Z</time>
      </trkpt>
      <trkpt lat="45.80256" lon="4.65137">
        <ele>429.37</ele>
        <time>2015-12-19T13:33:04Z</time>
      </trkpt>
      <trkpt lat="45.80231" lon="4.65174">
        <ele>430.33</ele>
        <time>2015-12-19T13:33:18Z</time>
      </trkpt>
      <trkpt lat="45.80209" lon="4.65212">
        <ele>432.25</ele>
        <time>2015-12-19T13:33:33Z</time>
      </trkpt>
      <trkpt lat="45.80194" lon="4.65243">
        <ele>433.69</ele>
        <time>2015-12-19T13:33:45Z</time>
      </trkpt>
      <trkpt lat="45.80174" lon="4.65276">
        <ele>435.13</ele>
        <time>2015-12-19T13:33:59Z</time>
      </trkpt>
      <trkpt lat="45.80149" lon="4.65325">
        <ele>435.61</ele>
        <time>2015-12-19T13:34:16Z</time>
      </trkpt>
      <trkpt lat="45.80127" lon="4.65377">
        <ele>435.61</ele>
        <time>2015-12-19T13:34:30Z</time>
      </trkpt>
      <trkpt lat="45.80097" lon="4.65439">
        <ele>434.65</ele>
        <time>2015-12-19T13:34:45Z</time>
      </trkpt>
      <trkpt lat="45.80073" lon="4.65489">
        <ele>434.65</ele>
        <time>2015-12-19T13:34:58Z</time>
      </trkpt>
      <trkpt lat="45.80057" lon="4.65526">
        <ele>434.65</ele>
        <time>2015-12-19T13:35:08Z</time>
      </trkpt>
      <trkpt lat="45.8004" lon="4.65576">
        <ele>435.13</ele>
        <time>2015-12-19T13:35:21Z</time>
      </trkpt>
      <trkpt lat="45.80026" lon="4.65622">
        <ele>435.13</ele>
        <time>2015-12-19T13:35:35Z</time>
      </trkpt>
      <trkpt lat="45.80004" lon="4.65671">
        <ele>437.54</ele>
        <time>2015-12-19T13:35:50Z</time>
      </trkpt>
      <trkpt lat="45.79989" lon="4.65705">
        <ele>440.42</ele>
        <time>2015-12-19T13:36:02Z</time>
      </trkpt>
      <trkpt lat="45.7998" lon="4.65736">
        <ele>442.34</ele>
        <time>2015-12-19T13:36:14Z</time>
      </trkpt>
      <trkpt lat="45.79978" lon="4.65749">
        <ele>441.86</ele>
        <time>2015-12-19T13:36:25Z</time>
      </trkpt>
      <trkpt lat="45.79978" lon="4.65749">
        <ele>441.86</ele>
        <time>2015-12-19T13:36:52Z</time>
      </trkpt>
      <trkpt lat="45.79978" lon="4.65748">
        <ele>441.86</ele>
        <time>2015-12-19T13:37:10Z</time>
      </trkpt>
      <trkpt lat="45.79978" lon="4.65748">
        <ele>441.38</ele>
        <time>2015-12-19T13:37:27Z</time>
      </trkpt>
      <trkpt lat="45.79978" lon="4.65748">
        <ele>441.86</ele>
        <time>2015-12-19T13:37:51Z</time>
      </trkpt>
      <trkpt lat="45.79978" lon="4.65749">
        <ele>441.38</ele>
        <time>2015-12-19T13:38:18Z</time>
      </trkpt>
      <trkpt lat="45.79977" lon="4.6575">
        <ele>441.38</ele>
        <time>2015-12-19T13:38:22Z</time>
      </trkpt>
      <trkpt lat="45.79976" lon="4.6575">
        <ele>441.38</ele>
        <time>2015-12-19T13:38:23Z</time>
      </trkpt>
      <trkpt lat="45.79974" lon="4.65751">
        <ele>441.86</ele>
        <time>2015-12-19T13:38:24Z</time>
      </trkpt>
      <trkpt lat="45.79972" lon="4.65751">
        <ele>441.38</ele>
        <time>2015-12-19T13:38:25Z</time>
      </trkpt>
      <trkpt lat="45.79971" lon="4.6575">
        <ele>441.38</ele>
        <time>2015-12-19T13:38:26Z</time>
      </trkpt>
      <trkpt lat="45.79969" lon="4.65749">
        <ele>441.86</ele>
        <time>2015-12-19T13:38:27Z</time>
      </trkpt>
      <trkpt lat="45.79944" lon="4.65746">
        <ele>442.34</ele>
        <time>2015-12-19T13:38:41Z</time>
      </trkpt>
      <trkpt lat="45.79942" lon="4.65746">
        <ele>442.82</ele>
        <time>2015-12-19T13:38:42Z</time>
      </trkpt>
      <trkpt lat="45.7994" lon="4.65746">
        <ele>442.82</ele>
        <time>2015-12-19T13:38:43Z</time>
      </trkpt>
      <trkpt lat="45.7991" lon="4.65749">
        <ele>442.82</ele>
        <time>2015-12-19T13:38:56Z</time>
      </trkpt>
      <trkpt lat="45.79874" lon="4.65753">
        <ele>442.34</ele>
        <time>2015-12-19T13:39:09Z</time>
      </trkpt>
      <trkpt lat="45.79819" lon="4.65758">
        <ele>440.9</ele>
        <time>2015-12-19T13:39:26Z</time>
      </trkpt>
      <trkpt lat="45.79764" lon="4.65764">
        <ele>440.42</ele>
        <time>2015-12-19T13:39:40Z</time>
      </trkpt>
      <trkpt lat="45.79729" lon="4.65786">
        <ele>440.42</ele>
        <time>2015-12-19T13:39:52Z</time>
      </trkpt>
      <trkpt lat="45.79692" lon="4.65805">
        <ele>441.38</ele>
        <time>2015-12-19T13:40:06Z</time>
      </trkpt>
      <trkpt lat="45.79659" lon="4.65822">
        <ele>443.31</ele>
        <time>2015-12-19T13:40:20Z</time>
      </trkpt>
      <trkpt lat="45.79632" lon="4.65829">
        <ele>443.79</ele>
        <time>2015-12-19T13:40:32Z</time>
      </trkpt>
      <trkpt lat="45.79613" lon="4.6583">
        <ele>445.23</ele>
        <time>2015-12-19T13:40:42Z</time>
      </trkpt>
      <trkpt lat="45.79605" lon="4.65829">
        <ele>445.23</ele>
        <time>2015-12-19T13:40:46Z</time>
      </trkpt>
      <trkpt lat="45.79604" lon="4.65829">
        <ele>445.71</ele>
        <time>2015-12-19T13:40:47Z</time>
      </trkpt>
      <trkpt lat="45.79602" lon="4.65829">
        <ele>445.71</ele>
        <time>2015-12-19T13:40:48Z</time>
      </trkpt>
      <trkpt lat="45.796" lon="4.65829">
        <ele>445.71</ele>
        <time>2015-12-19T13:40:49Z</time>
      </trkpt>
      <trkpt lat="45.79598" lon="4.65829">
        <ele>445.71</ele>
        <time>2015-12-19T13:40:50Z</time>
      </trkpt>
      <trkpt lat="45.79597" lon="4.65829">
        <ele>445.71</ele>
        <time>2015-12-19T13:40:51Z</time>
      </trkpt>
      <trkpt lat="45.79592" lon="4.65821">
        <ele>447.15</ele>
        <time>2015-12-19T13:40:56Z</time>
      </trkpt>
      <trkpt lat="45.79588" lon="4.65823">
        <ele>447.15</ele>
        <time>2015-12-19T13:40:58Z</time>
      </trkpt>
      <trkpt lat="45.79561" lon="4.65819">
        <ele>448.59</ele>
        <time>2015-12-19T13:41:11Z</time>
      </trkpt>
      <trkpt lat="45.79555" lon="4.65819">
        <ele>448.59</ele>
        <time>2015-12-19T13:41:14Z</time>
      </trkpt>
      <trkpt lat="45.79543" lon="4.65816">
        <ele>449.55</ele>
        <time>2015-12-19T13:41:20Z</time>
      </trkpt>
      <trkpt lat="45.79536" lon="4.65813">
        <ele>450.03</ele>
        <time>2015-12-19T13:41:24Z</time>
      </trkpt>
      <trkpt lat="45.79522" lon="4.65802">
        <ele>451.48</ele>
        <time>2015-12-19T13:41:36Z</time>
      </trkpt>
      <trkpt lat="45.79513" lon="4.65795">
        <ele>452.44</ele>
        <time>2015-12-19T13:41:44Z</time>
      </trkpt>
      <trkpt lat="45.7951" lon="4.65794">
        <ele>452.92</ele>
        <time>2015-12-19T13:41:46Z</time>
      </trkpt>
      <trkpt lat="45.79506" lon="4.6579">
        <ele>452.92</ele>
        <time>2015-12-19T13:41:49Z</time>
      </trkpt>
      <trkpt lat="45.79502" lon="4.65787">
        <ele>453.4</ele>
        <time>2015-12-19T13:41:52Z</time>
      </trkpt>
      <trkpt lat="45.79497" lon="4.65784">
        <ele>453.4</ele>
        <time>2015-12-19T13:41:55Z</time>
      </trkpt>
      <trkpt lat="45.79479" lon="4.65777">
        <ele>454.84</ele>
        <time>2015-12-19T13:42:06Z</time>
      </trkpt>
      <trkpt lat="45.79469" lon="4.65774">
        <ele>455.8</ele>
        <time>2015-12-19T13:42:12Z</time>
      </trkpt>
      <trkpt lat="45.79451" lon="4.65765">
        <ele>457.72</ele>
        <time>2015-12-19T13:42:26Z</time>
      </trkpt>
      <trkpt lat="45.79445" lon="4.65761">
        <ele>459.17</ele>
        <time>2015-12-19T13:42:31Z</time>
      </trkpt>
      <trkpt lat="45.79432" lon="4.65757">
        <ele>461.09</ele>
        <time>2015-12-19T13:42:43Z</time>
      </trkpt>
      <trkpt lat="45.7943" lon="4.65756">
        <ele>461.57</ele>
        <time>2015-12-19T13:42:45Z</time>
      </trkpt>
      <trkpt lat="45.79425" lon="4.65752">
        <ele>462.05</ele>
        <time>2015-12-19T13:42:58Z</time>
      </trkpt>
      <trkpt lat="45.79425" lon="4.65752">
        <ele>461.57</ele>
        <time>2015-12-19T13:43:19Z</time>
      </trkpt>
      <trkpt lat="45.79421" lon="4.65752">
        <ele>463.01</ele>
        <time>2015-12-19T13:43:41Z</time>
      </trkpt>
      <trkpt lat="45.79413" lon="4.65756">
        <ele>462.53</ele>
        <time>2015-12-19T13:43:46Z</time>
      </trkpt>
      <trkpt lat="45.79402" lon="4.65757">
        <ele>463.49</ele>
        <time>2015-12-19T13:43:58Z</time>
      </trkpt>
      <trkpt lat="45.79395" lon="4.65753">
        <ele>465.42</ele>
        <time>2015-12-19T13:44:10Z</time>
      </trkpt>
      <trkpt lat="45.79384" lon="4.65751">
        <ele>466.38</ele>
        <time>2015-12-19T13:44:25Z</time>
      </trkpt>
      <trkpt lat="45.79377" lon="4.65749">
        <ele>467.34</ele>
        <time>2015-12-19T13:44:40Z</time>
      </trkpt>
      <trkpt lat="45.79369" lon="4.65749">
        <ele>468.78</ele>
        <time>2015-12-19T13:44:51Z</time>
      </trkpt>
      <trkpt lat="45.79361" lon="4.65745">
        <ele>469.26</ele>
        <time>2015-12-19T13:45:02Z</time>
      </trkpt>
      <trkpt lat="45.79351" lon="4.65747">
        <ele>470.22</ele>
        <time>2015-12-19T13:45:13Z</time>
      </trkpt>
      <trkpt lat="45.79341" lon="4.65748">
        <ele>471.66</ele>
        <time>2015-12-19T13:45:25Z</time>
      </trkpt>
      <trkpt lat="45.79329" lon="4.65749">
        <ele>473.59</ele>
        <time>2015-12-19T13:45:37Z</time>
      </trkpt>
      <trkpt lat="45.79322" lon="4.65749">
        <ele>474.07</ele>
        <time>2015-12-19T13:45:47Z</time>
      </trkpt>
      <trkpt lat="45.79311" lon="4.65749">
        <ele>475.51</ele>
        <time>2015-12-19T13:45:58Z</time>
      </trkpt>
      <trkpt lat="45.79301" lon="4.65752">
        <ele>477.91</ele>
        <time>2015-12-19T13:46:10Z</time>
      </trkpt>
      <trkpt lat="45.7929" lon="4.65749">
        <ele>478.87</ele>
        <time>2015-12-19T13:46:23Z</time>
      </trkpt>
      <trkpt lat="45.79282" lon="4.65751">
        <ele>480.32</ele>
        <time>2015-12-19T13:46:35Z</time>
      </trkpt>
      <trkpt lat="45.7927" lon="4.65753">
        <ele>482.24</ele>
        <time>2015-12-19T13:46:47Z</time>
      </trkpt>
      <trkpt lat="45.79258" lon="4.65756">
        <ele>483.2</ele>
        <time>2015-12-19T13:47:01Z</time>
      </trkpt>
      <trkpt lat="45.79249" lon="4.65754">
        <ele>484.16</ele>
        <time>2015-12-19T13:47:12Z</time>
      </trkpt>
      <trkpt lat="45.79238" lon="4.65752">
        <ele>485.6</ele>
        <time>2015-12-19T13:47:25Z</time>
      </trkpt>
      <trkpt lat="45.79235" lon="4.65751">
        <ele>486.56</ele>
        <time>2015-12-19T13:47:29Z</time>
      </trkpt>
      <trkpt lat="45.79226" lon="4.65747">
        <ele>487.53</ele>
        <time>2015-12-19T13:47:41Z</time>
      </trkpt>
      <trkpt lat="45.79213" lon="4.65746">
        <ele>488.49</ele>
        <time>2015-12-19T13:47:52Z</time>
      </trkpt>
      <trkpt lat="45.79201" lon="4.65745">
        <ele>489.93</ele>
        <time>2015-12-19T13:48:05Z</time>
      </trkpt>
      <trkpt lat="45.79189" lon="4.65744">
        <ele>490.89</ele>
        <time>2015-12-19T13:48:16Z</time>
      </trkpt>
      <trkpt lat="45.79177" lon="4.65743">
        <ele>492.81</ele>
        <time>2015-12-19T13:48:29Z</time>
      </trkpt>
      <trkpt lat="45.7917" lon="4.65742">
        <ele>495.22</ele>
        <time>2015-12-19T13:48:39Z</time>
      </trkpt>
      <trkpt lat="45.79169" lon="4.65742">
        <ele>495.22</ele>
        <time>2015-12-19T13:48:40Z</time>
      </trkpt>
      <trkpt lat="45.79167" lon="4.65743">
        <ele>495.22</ele>
        <time>2015-12-19T13:48:43Z</time>
      </trkpt>
      <trkpt lat="45.79156" lon="4.65735">
        <ele>497.62</ele>
        <time>2015-12-19T13:48:57Z</time>
      </trkpt>
      <trkpt lat="45.79152" lon="4.65732">
        <ele>498.58</ele>
        <time>2015-12-19T13:49:08Z</time>
      </trkpt>
      <trkpt lat="45.79149" lon="4.65733">
        <ele>498.58</ele>
        <time>2015-12-19T13:49:10Z</time>
      </trkpt>
      <trkpt lat="45.7914" lon="4.65727">
        <ele>499.54</ele>
        <time>2015-12-19T13:49:18Z</time>
      </trkpt>
      <trkpt lat="45.7913" lon="4.65722">
        <ele>501.46</ele>
        <time>2015-12-19T13:49:28Z</time>
      </trkpt>
      <trkpt lat="45.79124" lon="4.65723">
        <ele>501.46</ele>
        <time>2015-12-19T13:49:32Z</time>
      </trkpt>
      <trkpt lat="45.79116" lon="4.65723">
        <ele>501.46</ele>
        <time>2015-12-19T13:49:37Z</time>
      </trkpt>
      <trkpt lat="45.7911" lon="4.6573">
        <ele>502.43</ele>
        <time>2015-12-19T13:49:42Z</time>
      </trkpt>
      <trkpt lat="45.79105" lon="4.6573">
        <ele>502.91</ele>
        <time>2015-12-19T13:49:46Z</time>
      </trkpt>
      <trkpt lat="45.79102" lon="4.65729">
        <ele>502.43</ele>
        <time>2015-12-19T13:49:48Z</time>
      </trkpt>
      <trkpt lat="45.79098" lon="4.65729">
        <ele>502.91</ele>
        <time>2015-12-19T13:50:00Z</time>
      </trkpt>
      <trkpt lat="45.79098" lon="4.65729">
        <ele>501.95</ele>
        <time>2015-12-19T13:50:17Z</time>
      </trkpt>
      <trkpt lat="45.79098" lon="4.65729">
        <ele>501.95</ele>
        <time>2015-12-19T13:50:42Z</time>
      </trkpt>
      <trkpt lat="45.79098" lon="4.65729">
        <ele>501.95</ele>
        <time>2015-12-19T13:51:07Z</time>
      </trkpt>
      <trkpt lat="45.79098" lon="4.65729">
        <ele>501.95</ele>
        <time>2015-12-19T13:51:26Z</time>
      </trkpt>
      <trkpt lat="45.79098" lon="4.65729">
        <ele>502.43</ele>
        <time>2015-12-19T13:51:31Z</time>
      </trkpt>
      <trkpt lat="45.79098" lon="4.65729">
        <ele>501.46</ele>
        <time>2015-12-19T13:51:50Z</time>
      </trkpt>
      <trkpt lat="45.79096" lon="4.65736">
        <ele>502.43</ele>
        <time>2015-12-19T13:52:09Z</time>
      </trkpt>
      <trkpt lat="45.79095" lon="4.65737">
        <ele>501.46</ele>
        <time>2015-12-19T13:52:19Z</time>
      </trkpt>
      <trkpt lat="45.79095" lon="4.65737">
        <ele>501.46</ele>
        <time>2015-12-19T13:52:29Z</time>
      </trkpt>
      <trkpt lat="45.79095" lon="4.65737">
        <ele>504.83</ele>
        <time>2015-12-19T13:52:52Z</time>
      </trkpt>
      <trkpt lat="45.79095" lon="4.65737">
        <ele>500.02</ele>
        <time>2015-12-19T13:52:54Z</time>
      </trkpt>
      <trkpt lat="45.79095" lon="4.65737">
        <ele>500.5</ele>
        <time>2015-12-19T13:52:55Z</time>
      </trkpt>
      <trkpt lat="45.79095" lon="4.65738">
        <ele>501.46</ele>
        <time>2015-12-19T13:53:19Z</time>
      </trkpt>
      <trkpt lat="45.79095" lon="4.65738">
        <ele>501.46</ele>
        <time>2015-12-19T13:53:34Z</time>
      </trkpt>
      <trkpt lat="45.79094" lon="4.65738">
        <ele>501.95</ele>
        <time>2015-12-19T13:53:59Z</time>
      </trkpt>
      <trkpt lat="45.79091" lon="4.65734">
        <ele>501.46</ele>
        <time>2015-12-19T13:54:03Z</time>
      </trkpt>
      <trkpt lat="45.79064" lon="4.65737">
        <ele>500.98</ele>
        <time>2015-12-19T13:54:18Z</time>
      </trkpt>
      <trkpt lat="45.79049" lon="4.65741">
        <ele>499.54</ele>
        <time>2015-12-19T13:54:22Z</time>
      </trkpt>
      <trkpt lat="45.79044" lon="4.65744">
        <ele>498.58</ele>
        <time>2015-12-19T13:54:23Z</time>
      </trkpt>
      <trkpt lat="45.79039" lon="4.65746">
        <ele>498.1</ele>
        <time>2015-12-19T13:54:24Z</time>
      </trkpt>
      <trkpt lat="45.79018" lon="4.65757">
        <ele>496.18</ele>
        <time>2015-12-19T13:54:32Z</time>
      </trkpt>
      <trkpt lat="45.79019" lon="4.65757">
        <ele>499.06</ele>
        <time>2015-12-19T13:54:35Z</time>
      </trkpt>
      <trkpt lat="45.79019" lon="4.65757">
        <ele>495.22</ele>
        <time>2015-12-19T13:54:36Z</time>
      </trkpt>
      <trkpt lat="45.79018" lon="4.65758">
        <ele>499.54</ele>
        <time>2015-12-19T13:54:42Z</time>
      </trkpt>
      <trkpt lat="45.79018" lon="4.65758">
        <ele>495.7</ele>
        <time>2015-12-19T13:54:43Z</time>
      </trkpt>
      <trkpt lat="45.79018" lon="4.65757">
        <ele>500.5</ele>
        <time>2015-12-19T13:54:53Z</time>
      </trkpt>
      <trkpt lat="45.79018" lon="4.65757">
        <ele>493.29</ele>
        <time>2015-12-19T13:54:54Z</time>
      </trkpt>
      <trkpt lat="45.79018" lon="4.65757">
        <ele>496.66</ele>
        <time>2015-12-19T13:54:55Z</time>
      </trkpt>
      <trkpt lat="45.79018" lon="4.65757">
        <ele>491.37</ele>
        <time>2015-12-19T13:55:00Z</time>
      </trkpt>
      <trkpt lat="45.79018" lon="4.65757">
        <ele>496.18</ele>
        <time>2015-12-19T13:55:01Z</time>
      </trkpt>
      <trkpt lat="45.79018" lon="4.65757">
        <ele>489.93</ele>
        <time>2015-12-19T13:55:05Z</time>
      </trkpt>
      <trkpt lat="45.79018" lon="4.65757">
        <ele>496.18</ele>
        <time>2015-12-19T13:55:06Z</time>
      </trkpt>
      <trkpt lat="45.79004" lon="4.65759">
        <ele>493.29</ele>
        <time>2015-12-19T13:55:16Z</time>
      </trkpt>
      <trkpt lat="45.78991" lon="4.65769">
        <ele>492.33</ele>
        <time>2015-12-19T13:55:20Z</time>
      </trkpt>
      <trkpt lat="45.78987" lon="4.65773">
        <ele>491.85</ele>
        <time>2015-12-19T13:55:21Z</time>
      </trkpt>
      <trkpt lat="45.78983" lon="4.65776">
        <ele>491.37</ele>
        <time>2015-12-19T13:55:22Z</time>
      </trkpt>
      <trkpt lat="45.78974" lon="4.65779">
        <ele>488.49</ele>
        <time>2015-12-19T13:55:24Z</time>
      </trkpt>
      <trkpt lat="45.7897" lon="4.6578">
        <ele>488.01</ele>
        <time>2015-12-19T13:55:25Z</time>
      </trkpt>
      <trkpt lat="45.78959" lon="4.65784">
        <ele>486.56</ele>
        <time>2015-12-19T13:55:29Z</time>
      </trkpt>
      <trkpt lat="45.78951" lon="4.65788">
        <ele>484.64</ele>
        <time>2015-12-19T13:55:34Z</time>
      </trkpt>
      <trkpt lat="45.78944" lon="4.65793">
        <ele>483.2</ele>
        <time>2015-12-19T13:55:37Z</time>
      </trkpt>
      <trkpt lat="45.78935" lon="4.65803">
        <ele>481.76</ele>
        <time>2015-12-19T13:55:40Z</time>
      </trkpt>
      <trkpt lat="45.78925" lon="4.65817">
        <ele>480.32</ele>
        <time>2015-12-19T13:55:43Z</time>
      </trkpt>
      <trkpt lat="45.78922" lon="4.65821">
        <ele>479.84</ele>
        <time>2015-12-19T13:55:44Z</time>
      </trkpt>
      <trkpt lat="45.7892" lon="4.65827">
        <ele>479.35</ele>
        <time>2015-12-19T13:55:45Z</time>
      </trkpt>
      <trkpt lat="45.78908" lon="4.65851">
        <ele>475.99</ele>
        <time>2015-12-19T13:55:50Z</time>
      </trkpt>
      <trkpt lat="45.78906" lon="4.65856">
        <ele>475.99</ele>
        <time>2015-12-19T13:55:51Z</time>
      </trkpt>
      <trkpt lat="45.78897" lon="4.65885">
        <ele>473.11</ele>
        <time>2015-12-19T13:55:57Z</time>
      </trkpt>
      <trkpt lat="45.78888" lon="4.65909">
        <ele>469.26</ele>
        <time>2015-12-19T13:56:02Z</time>
      </trkpt>
      <trkpt lat="45.78886" lon="4.65915">
        <ele>468.3</ele>
        <time>2015-12-19T13:56:03Z</time>
      </trkpt>
      <trkpt lat="45.78883" lon="4.65921">
        <ele>467.82</ele>
        <time>2015-12-19T13:56:04Z</time>
      </trkpt>
      <trkpt lat="45.78881" lon="4.65926">
        <ele>466.86</ele>
        <time>2015-12-19T13:56:05Z</time>
      </trkpt>
      <trkpt lat="45.78878" lon="4.65931">
        <ele>465.9</ele>
        <time>2015-12-19T13:56:06Z</time>
      </trkpt>
      <trkpt lat="45.78872" lon="4.65941">
        <ele>464.45</ele>
        <time>2015-12-19T13:56:08Z</time>
      </trkpt>
      <trkpt lat="45.78868" lon="4.65967">
        <ele>463.49</ele>
        <time>2015-12-19T13:56:13Z</time>
      </trkpt>
      <trkpt lat="45.78867" lon="4.65973">
        <ele>463.01</ele>
        <time>2015-12-19T13:56:14Z</time>
      </trkpt>
      <trkpt lat="45.78864" lon="4.65979">
        <ele>462.53</ele>
        <time>2015-12-19T13:56:15Z</time>
      </trkpt>
      <trkpt lat="45.78862" lon="4.65985">
        <ele>462.53</ele>
        <time>2015-12-19T13:56:16Z</time>
      </trkpt>
      <trkpt lat="45.7886" lon="4.65991">
        <ele>461.57</ele>
        <time>2015-12-19T13:56:17Z</time>
      </trkpt>
      <trkpt lat="45.78857" lon="4.66">
        <ele>460.13</ele>
        <time>2015-12-19T13:56:19Z</time>
      </trkpt>
      <trkpt lat="45.78855" lon="4.66008">
        <ele>458.21</ele>
        <time>2015-12-19T13:56:26Z</time>
      </trkpt>
      <trkpt lat="45.78849" lon="4.66015">
        <ele>457.24</ele>
        <time>2015-12-19T13:56:36Z</time>
      </trkpt>
      <trkpt lat="45.78845" lon="4.6602">
        <ele>455.8</ele>
        <time>2015-12-19T13:56:42Z</time>
      </trkpt>
      <trkpt lat="45.78842" lon="4.66022">
        <ele>454.84</ele>
        <time>2015-12-19T13:56:47Z</time>
      </trkpt>
      <trkpt lat="45.7884" lon="4.66025">
        <ele>454.84</ele>
        <time>2015-12-19T13:56:50Z</time>
      </trkpt>
      <trkpt lat="45.78837" lon="4.66028">
        <ele>454.36</ele>
        <time>2015-12-19T13:56:52Z</time>
      </trkpt>
      <trkpt lat="45.78831" lon="4.66031">
        <ele>452.92</ele>
        <time>2015-12-19T13:56:55Z</time>
      </trkpt>
      <trkpt lat="45.78829" lon="4.66032">
        <ele>451.96</ele>
        <time>2015-12-19T13:57:06Z</time>
      </trkpt>
      <trkpt lat="45.78821" lon="4.66039">
        <ele>450.03</ele>
        <time>2015-12-19T13:57:16Z</time>
      </trkpt>
      <trkpt lat="45.78815" lon="4.6604">
        <ele>449.07</ele>
        <time>2015-12-19T13:57:19Z</time>
      </trkpt>
      <trkpt lat="45.78806" lon="4.66049">
        <ele>447.15</ele>
        <time>2015-12-19T13:57:24Z</time>
      </trkpt>
      <trkpt lat="45.78801" lon="4.66054">
        <ele>446.19</ele>
        <time>2015-12-19T13:57:28Z</time>
      </trkpt>
      <trkpt lat="45.78795" lon="4.66058">
        <ele>444.75</ele>
        <time>2015-12-19T13:57:31Z</time>
      </trkpt>
      <trkpt lat="45.78788" lon="4.66065">
        <ele>443.31</ele>
        <time>2015-12-19T13:57:34Z</time>
      </trkpt>
      <trkpt lat="45.7878" lon="4.66099">
        <ele>440.42</ele>
        <time>2015-12-19T13:57:43Z</time>
      </trkpt>
      <trkpt lat="45.78768" lon="4.66124">
        <ele>437.06</ele>
        <time>2015-12-19T13:57:48Z</time>
      </trkpt>
      <trkpt lat="45.78765" lon="4.66128">
        <ele>437.06</ele>
        <time>2015-12-19T13:57:49Z</time>
      </trkpt>
      <trkpt lat="45.78753" lon="4.66137">
        <ele>435.13</ele>
        <time>2015-12-19T13:57:52Z</time>
      </trkpt>
      <trkpt lat="45.78743" lon="4.66142">
        <ele>434.17</ele>
        <time>2015-12-19T13:57:54Z</time>
      </trkpt>
      <trkpt lat="45.78721" lon="4.66149">
        <ele>431.29</ele>
        <time>2015-12-19T13:58:02Z</time>
      </trkpt>
      <trkpt lat="45.7872" lon="4.66149">
        <ele>431.29</ele>
        <time>2015-12-19T13:58:17Z</time>
      </trkpt>
      <trkpt lat="45.78718" lon="4.6615">
        <ele>429.85</ele>
        <time>2015-12-19T13:58:27Z</time>
      </trkpt>
      <trkpt lat="45.78713" lon="4.6615">
        <ele>427.92</ele>
        <time>2015-12-19T13:58:40Z</time>
      </trkpt>
      <trkpt lat="45.7871" lon="4.66152">
        <ele>426.96</ele>
        <time>2015-12-19T13:58:43Z</time>
      </trkpt>
      <trkpt lat="45.78703" lon="4.66151">
        <ele>426.48</ele>
        <time>2015-12-19T13:58:47Z</time>
      </trkpt>
      <trkpt lat="45.78699" lon="4.66151">
        <ele>426.48</ele>
        <time>2015-12-19T13:58:53Z</time>
      </trkpt>
      <trkpt lat="45.7869" lon="4.66156">
        <ele>425.04</ele>
        <time>2015-12-19T13:58:58Z</time>
      </trkpt>
      <trkpt lat="45.78672" lon="4.66169">
        <ele>422.16</ele>
        <time>2015-12-19T13:59:09Z</time>
      </trkpt>
      <trkpt lat="45.78663" lon="4.66176">
        <ele>421.19</ele>
        <time>2015-12-19T13:59:14Z</time>
      </trkpt>
      <trkpt lat="45.78657" lon="4.66182">
        <ele>419.75</ele>
        <time>2015-12-19T13:59:17Z</time>
      </trkpt>
      <trkpt lat="45.78648" lon="4.66191">
        <ele>419.27</ele>
        <time>2015-12-19T13:59:22Z</time>
      </trkpt>
      <trkpt lat="45.78644" lon="4.66194">
        <ele>419.27</ele>
        <time>2015-12-19T13:59:24Z</time>
      </trkpt>
      <trkpt lat="45.78636" lon="4.662">
        <ele>417.83</ele>
        <time>2015-12-19T13:59:32Z</time>
      </trkpt>
      <trkpt lat="45.78619" lon="4.66226">
        <ele>414.95</ele>
        <time>2015-12-19T13:59:44Z</time>
      </trkpt>
      <trkpt lat="45.78617" lon="4.66229">
        <ele>414.95</ele>
        <time>2015-12-19T13:59:45Z</time>
      </trkpt>
      <trkpt lat="45.78605" lon="4.6626">
        <ele>412.54</ele>
        <time>2015-12-19T13:59:55Z</time>
      </trkpt>
      <trkpt lat="45.78601" lon="4.66271">
        <ele>410.62</ele>
        <time>2015-12-19T13:59:59Z</time>
      </trkpt>
      <trkpt lat="45.78597" lon="4.66278">
        <ele>409.18</ele>
        <time>2015-12-19T14:00:02Z</time>
      </trkpt>
      <trkpt lat="45.78591" lon="4.66291">
        <ele>407.26</ele>
        <time>2015-12-19T14:00:07Z</time>
      </trkpt>
      <trkpt lat="45.78589" lon="4.66298">
        <ele>406.29</ele>
        <time>2015-12-19T14:00:15Z</time>
      </trkpt>
      <trkpt lat="45.78583" lon="4.66319">
        <ele>403.41</ele>
        <time>2015-12-19T14:00:20Z</time>
      </trkpt>
      <trkpt lat="45.78576" lon="4.66347">
        <ele>399.57</ele>
        <time>2015-12-19T14:00:26Z</time>
      </trkpt>
      <trkpt lat="45.78572" lon="4.66361">
        <ele>398.12</ele>
        <time>2015-12-19T14:00:29Z</time>
      </trkpt>
      <trkpt lat="45.78571" lon="4.66368">
        <ele>397.64</ele>
        <time>2015-12-19T14:00:30Z</time>
      </trkpt>
      <trkpt lat="45.78571" lon="4.66374">
        <ele>396.68</ele>
        <time>2015-12-19T14:00:31Z</time>
      </trkpt>
      <trkpt lat="45.78569" lon="4.66379">
        <ele>396.2</ele>
        <time>2015-12-19T14:00:32Z</time>
      </trkpt>
      <trkpt lat="45.78566" lon="4.66383">
        <ele>395.72</ele>
        <time>2015-12-19T14:00:33Z</time>
      </trkpt>
      <trkpt lat="45.78563" lon="4.66387">
        <ele>395.24</ele>
        <time>2015-12-19T14:00:34Z</time>
      </trkpt>
      <trkpt lat="45.78559" lon="4.6639">
        <ele>395.24</ele>
        <time>2015-12-19T14:00:35Z</time>
      </trkpt>
      <trkpt lat="45.78555" lon="4.66393">
        <ele>395.72</ele>
        <time>2015-12-19T14:00:36Z</time>
      </trkpt>
      <trkpt lat="45.78551" lon="4.66394">
        <ele>395.24</ele>
        <time>2015-12-19T14:00:37Z</time>
      </trkpt>
      <trkpt lat="45.78535" lon="4.66395">
        <ele>394.76</ele>
        <time>2015-12-19T14:00:41Z</time>
      </trkpt>
      <trkpt lat="45.78532" lon="4.66397">
        <ele>394.28</ele>
        <time>2015-12-19T14:00:42Z</time>
      </trkpt>
      <trkpt lat="45.7851" lon="4.66415">
        <ele>394.76</ele>
        <time>2015-12-19T14:00:51Z</time>
      </trkpt>
      <trkpt lat="45.78509" lon="4.66416">
        <ele>393.8</ele>
        <time>2015-12-19T14:01:14Z</time>
      </trkpt>
      <trkpt lat="45.78509" lon="4.66416">
        <ele>394.28</ele>
        <time>2015-12-19T14:01:15Z</time>
      </trkpt>
      <trkpt lat="45.7851" lon="4.66417">
        <ele>393.8</ele>
        <time>2015-12-19T14:01:39Z</time>
      </trkpt>
      <trkpt lat="45.7851" lon="4.66417">
        <ele>393.8</ele>
        <time>2015-12-19T14:02:04Z</time>
      </trkpt>
      <trkpt lat="45.78509" lon="4.6642">
        <ele>393.8</ele>
        <time>2015-12-19T14:02:28Z</time>
      </trkpt>
      <trkpt lat="45.78509" lon="4.6642">
        <ele>393.8</ele>
        <time>2015-12-19T14:02:42Z</time>
      </trkpt>
      <trkpt lat="45.78509" lon="4.6642">
        <ele>393.8</ele>
        <time>2015-12-19T14:03:12Z</time>
      </trkpt>
      <trkpt lat="45.78508" lon="4.6642">
        <ele>393.32</ele>
        <time>2015-12-19T14:03:41Z</time>
      </trkpt>
      <trkpt lat="45.78508" lon="4.66421">
        <ele>393.32</ele>
        <time>2015-12-19T14:04:05Z</time>
      </trkpt>
      <trkpt lat="45.78508" lon="4.66421">
        <ele>393.32</ele>
        <time>2015-12-19T14:04:28Z</time>
      </trkpt>
      <trkpt lat="45.78508" lon="4.66422">
        <ele>393.32</ele>
        <time>2015-12-19T14:04:51Z</time>
      </trkpt>
      <trkpt lat="45.78508" lon="4.66422">
        <ele>404.37</ele>
        <time>2015-12-19T14:05:02Z</time>
      </trkpt>
      <trkpt lat="45.78508" lon="4.66422">
        <ele>395.24</ele>
        <time>2015-12-19T14:05:03Z</time>
      </trkpt>
      <trkpt lat="45.78508" lon="4.66422">
        <ele>393.8</ele>
        <time>2015-12-19T14:05:05Z</time>
      </trkpt>
      <trkpt lat="45.78508" lon="4.66422">
        <ele>393.32</ele>
        <time>2015-12-19T14:05:26Z</time>
      </trkpt>
      <trkpt lat="45.78508" lon="4.66423">
        <ele>393.32</ele>
        <time>2015-12-19T14:05:27Z</time>
      </trkpt>
      <trkpt lat="45.78507" lon="4.66425">
        <ele>393.32</ele>
        <time>2015-12-19T14:05:28Z</time>
      </trkpt>
      <trkpt lat="45.78506" lon="4.66427">
        <ele>393.8</ele>
        <time>2015-12-19T14:05:29Z</time>
      </trkpt>
      <trkpt lat="45.78504" lon="4.66428">
        <ele>393.8</ele>
        <time>2015-12-19T14:05:30Z</time>
      </trkpt>
      <trkpt lat="45.78501" lon="4.66429">
        <ele>392.84</ele>
        <time>2015-12-19T14:05:31Z</time>
      </trkpt>
      <trkpt lat="45.78498" lon="4.6643">
        <ele>393.32</ele>
        <time>2015-12-19T14:05:32Z</time>
      </trkpt>
      <trkpt lat="45.78475" lon="4.66455">
        <ele>393.8</ele>
        <time>2015-12-19T14:05:38Z</time>
      </trkpt>
      <trkpt lat="45.78416" lon="4.66509">
        <ele>395.72</ele>
        <time>2015-12-19T14:05:52Z</time>
      </trkpt>
      <trkpt lat="45.78413" lon="4.66513">
        <ele>396.2</ele>
        <time>2015-12-19T14:05:53Z</time>
      </trkpt>
      <trkpt lat="45.78409" lon="4.66516">
        <ele>396.68</ele>
        <time>2015-12-19T14:05:54Z</time>
      </trkpt>
      <trkpt lat="45.78406" lon="4.66519">
        <ele>396.68</ele>
        <time>2015-12-19T14:05:55Z</time>
      </trkpt>
      <trkpt lat="45.78377" lon="4.6656">
        <ele>400.05</ele>
        <time>2015-12-19T14:06:08Z</time>
      </trkpt>
      <trkpt lat="45.78358" lon="4.66596">
        <ele>401.01</ele>
        <time>2015-12-19T14:06:20Z</time>
      </trkpt>
      <trkpt lat="45.78332" lon="4.66645">
        <ele>401.97</ele>
        <time>2015-12-19T14:06:33Z</time>
      </trkpt>
      <trkpt lat="45.783" lon="4.66667">
        <ele>402.93</ele>
        <time>2015-12-19T14:06:45Z</time>
      </trkpt>
      <trkpt lat="45.78269" lon="4.6667">
        <ele>401.97</ele>
        <time>2015-12-19T14:06:55Z</time>
      </trkpt>
      <trkpt lat="45.78266" lon="4.66667">
        <ele>401.49</ele>
        <time>2015-12-19T14:06:56Z</time>
      </trkpt>
      <trkpt lat="45.78264" lon="4.66663">
        <ele>401.49</ele>
        <time>2015-12-19T14:06:57Z</time>
      </trkpt>
      <trkpt lat="45.78243" lon="4.66629">
        <ele>400.05</ele>
        <time>2015-12-19T14:07:07Z</time>
      </trkpt>
      <trkpt lat="45.78245" lon="4.66642">
        <ele>400.05</ele>
        <time>2015-12-19T14:07:14Z</time>
      </trkpt>
      <trkpt lat="45.78267" lon="4.66674">
        <ele>401.97</ele>
        <time>2015-12-19T14:07:27Z</time>
      </trkpt>
      <trkpt lat="45.7829" lon="4.66671">
        <ele>402.93</ele>
        <time>2015-12-19T14:07:39Z</time>
      </trkpt>
      <trkpt lat="45.78294" lon="4.66672">
        <ele>402.45</ele>
        <time>2015-12-19T14:07:53Z</time>
      </trkpt>
      <trkpt lat="45.78308" lon="4.66666">
        <ele>402.93</ele>
        <time>2015-12-19T14:08:03Z</time>
      </trkpt>
      <trkpt lat="45.78328" lon="4.66659">
        <ele>401.97</ele>
        <time>2015-12-19T14:08:13Z</time>
      </trkpt>
      <trkpt lat="45.7834" lon="4.66674">
        <ele>399.08</ele>
        <time>2015-12-19T14:08:18Z</time>
      </trkpt>
      <trkpt lat="45.78348" lon="4.66694">
        <ele>395.72</ele>
        <time>2015-12-19T14:08:25Z</time>
      </trkpt>
      <trkpt lat="45.78354" lon="4.66716">
        <ele>392.36</ele>
        <time>2015-12-19T14:08:30Z</time>
      </trkpt>
      <trkpt lat="45.78358" lon="4.6675">
        <ele>389.95</ele>
        <time>2015-12-19T14:08:35Z</time>
      </trkpt>
      <trkpt lat="45.7836" lon="4.66764">
        <ele>388.99</ele>
        <time>2015-12-19T14:08:37Z</time>
      </trkpt>
      <trkpt lat="45.78361" lon="4.6677">
        <ele>388.51</ele>
        <time>2015-12-19T14:08:38Z</time>
      </trkpt>
      <trkpt lat="45.78363" lon="4.66785">
        <ele>387.55</ele>
        <time>2015-12-19T14:08:40Z</time>
      </trkpt>
      <trkpt lat="45.78366" lon="4.66815">
        <ele>384.66</ele>
        <time>2015-12-19T14:08:45Z</time>
      </trkpt>
      <trkpt lat="45.78371" lon="4.66862">
        <ele>380.82</ele>
        <time>2015-12-19T14:08:56Z</time>
      </trkpt>
      <trkpt lat="45.78372" lon="4.66886">
        <ele>378.42</ele>
        <time>2015-12-19T14:09:05Z</time>
      </trkpt>
      <trkpt lat="45.78372" lon="4.66889">
        <ele>378.42</ele>
        <time>2015-12-19T14:09:06Z</time>
      </trkpt>
      <trkpt lat="45.78372" lon="4.66892">
        <ele>377.94</ele>
        <time>2015-12-19T14:09:07Z</time>
      </trkpt>
      <trkpt lat="45.78372" lon="4.66896">
        <ele>376.97</ele>
        <time>2015-12-19T14:09:08Z</time>
      </trkpt>
      <trkpt lat="45.78372" lon="4.66898">
        <ele>376.97</ele>
        <time>2015-12-19T14:09:09Z</time>
      </trkpt>
      <trkpt lat="45.78374" lon="4.66912">
        <ele>375.05</ele>
        <time>2015-12-19T14:09:14Z</time>
      </trkpt>
      <trkpt lat="45.78374" lon="4.66915">
        <ele>375.05</ele>
        <time>2015-12-19T14:09:15Z</time>
      </trkpt>
      <trkpt lat="45.78375" lon="4.66925">
        <ele>372.65</ele>
        <time>2015-12-19T14:09:18Z</time>
      </trkpt>
      <trkpt lat="45.78377" lon="4.66936">
        <ele>372.17</ele>
        <time>2015-12-19T14:09:29Z</time>
      </trkpt>
      <trkpt lat="45.78381" lon="4.66952">
        <ele>369.28</ele>
        <time>2015-12-19T14:09:46Z</time>
      </trkpt>
      <trkpt lat="45.78381" lon="4.66955">
        <ele>369.28</ele>
        <time>2015-12-19T14:09:47Z</time>
      </trkpt>
      <trkpt lat="45.78381" lon="4.66961">
        <ele>368.32</ele>
        <time>2015-12-19T14:09:50Z</time>
      </trkpt>
      <trkpt lat="45.78382" lon="4.66963">
        <ele>368.32</ele>
        <time>2015-12-19T14:09:51Z</time>
      </trkpt>
      <trkpt lat="45.78382" lon="4.66966">
        <ele>367.84</ele>
        <time>2015-12-19T14:09:52Z</time>
      </trkpt>
      <trkpt lat="45.78382" lon="4.66968">
        <ele>366.88</ele>
        <time>2015-12-19T14:09:53Z</time>
      </trkpt>
      <trkpt lat="45.78382" lon="4.6697">
        <ele>367.36</ele>
        <time>2015-12-19T14:09:54Z</time>
      </trkpt>
      <trkpt lat="45.78383" lon="4.66973">
        <ele>366.4</ele>
        <time>2015-12-19T14:09:55Z</time>
      </trkpt>
      <trkpt lat="45.78384" lon="4.66976">
        <ele>365.92</ele>
        <time>2015-12-19T14:09:56Z</time>
      </trkpt>
      <trkpt lat="45.78385" lon="4.66978">
        <ele>366.4</ele>
        <time>2015-12-19T14:09:57Z</time>
      </trkpt>
      <trkpt lat="45.78386" lon="4.6698">
        <ele>365.92</ele>
        <time>2015-12-19T14:09:58Z</time>
      </trkpt>
      <trkpt lat="45.78388" lon="4.66985">
        <ele>364.96</ele>
        <time>2015-12-19T14:10:01Z</time>
      </trkpt>
      <trkpt lat="45.7839" lon="4.66996">
        <ele>364</ele>
        <time>2015-12-19T14:10:08Z</time>
      </trkpt>
      <trkpt lat="45.78393" lon="4.67014">
        <ele>360.63</ele>
        <time>2015-12-19T14:10:16Z</time>
      </trkpt>
      <trkpt lat="45.78393" lon="4.67015">
        <ele>360.63</ele>
        <time>2015-12-19T14:10:17Z</time>
      </trkpt>
      <trkpt lat="45.78394" lon="4.67021">
        <ele>360.15</ele>
        <time>2015-12-19T14:10:27Z</time>
      </trkpt>
      <trkpt lat="45.78393" lon="4.67033">
        <ele>358.23</ele>
        <time>2015-12-19T14:10:34Z</time>
      </trkpt>
      <trkpt lat="45.78392" lon="4.67037">
        <ele>358.23</ele>
        <time>2015-12-19T14:10:37Z</time>
      </trkpt>
      <trkpt lat="45.78392" lon="4.67039">
        <ele>357.75</ele>
        <time>2015-12-19T14:10:38Z</time>
      </trkpt>
      <trkpt lat="45.78391" lon="4.67041">
        <ele>357.27</ele>
        <time>2015-12-19T14:10:39Z</time>
      </trkpt>
      <trkpt lat="45.7839" lon="4.67043">
        <ele>357.27</ele>
        <time>2015-12-19T14:10:40Z</time>
      </trkpt>
      <trkpt lat="45.78391" lon="4.67046">
        <ele>356.79</ele>
        <time>2015-12-19T14:10:42Z</time>
      </trkpt>
      <trkpt lat="45.78391" lon="4.67049">
        <ele>356.31</ele>
        <time>2015-12-19T14:10:43Z</time>
      </trkpt>
      <trkpt lat="45.78391" lon="4.67052">
        <ele>355.83</ele>
        <time>2015-12-19T14:10:44Z</time>
      </trkpt>
      <trkpt lat="45.78392" lon="4.67057">
        <ele>355.34</ele>
        <time>2015-12-19T14:10:55Z</time>
      </trkpt>
      <trkpt lat="45.78392" lon="4.67057">
        <ele>355.34</ele>
        <time>2015-12-19T14:11:24Z</time>
      </trkpt>
      <trkpt lat="45.78393" lon="4.67059">
        <ele>354.86</ele>
        <time>2015-12-19T14:11:46Z</time>
      </trkpt>
      <trkpt lat="45.78398" lon="4.6707">
        <ele>354.38</ele>
        <time>2015-12-19T14:11:54Z</time>
      </trkpt>
      <trkpt lat="45.784" lon="4.67074">
        <ele>354.38</ele>
        <time>2015-12-19T14:11:56Z</time>
      </trkpt>
      <trkpt lat="45.784" lon="4.67078">
        <ele>354.38</ele>
        <time>2015-12-19T14:11:57Z</time>
      </trkpt>
      <trkpt lat="45.784" lon="4.67081">
        <ele>354.86</ele>
        <time>2015-12-19T14:11:58Z</time>
      </trkpt>
      <trkpt lat="45.78401" lon="4.67093">
        <ele>354.86</ele>
        <time>2015-12-19T14:12:07Z</time>
      </trkpt>
      <trkpt lat="45.78404" lon="4.67106">
        <ele>354.86</ele>
        <time>2015-12-19T14:12:15Z</time>
      </trkpt>
      <trkpt lat="45.78405" lon="4.67108">
        <ele>354.86</ele>
        <time>2015-12-19T14:12:16Z</time>
      </trkpt>
      <trkpt lat="45.78406" lon="4.6711">
        <ele>354.86</ele>
        <time>2015-12-19T14:12:17Z</time>
      </trkpt>
      <trkpt lat="45.78407" lon="4.67112">
        <ele>355.34</ele>
        <time>2015-12-19T14:12:18Z</time>
      </trkpt>
      <trkpt lat="45.78421" lon="4.67167">
        <ele>353.9</ele>
        <time>2015-12-19T14:12:32Z</time>
      </trkpt>
      <trkpt lat="45.78425" lon="4.6718">
        <ele>354.86</ele>
        <time>2015-12-19T14:12:35Z</time>
      </trkpt>
      <trkpt lat="45.78425" lon="4.67184">
        <ele>354.38</ele>
        <time>2015-12-19T14:12:36Z</time>
      </trkpt>
      <trkpt lat="45.78427" lon="4.67199">
        <ele>354.86</ele>
        <time>2015-12-19T14:12:39Z</time>
      </trkpt>
      <trkpt lat="45.78428" lon="4.67204">
        <ele>354.86</ele>
        <time>2015-12-19T14:12:40Z</time>
      </trkpt>
      <trkpt lat="45.78429" lon="4.67208">
        <ele>354.38</ele>
        <time>2015-12-19T14:12:41Z</time>
      </trkpt>
      <trkpt lat="45.78429" lon="4.67212">
        <ele>354.86</ele>
        <time>2015-12-19T14:12:42Z</time>
      </trkpt>
      <trkpt lat="45.7843" lon="4.67216">
        <ele>354.86</ele>
        <time>2015-12-19T14:12:43Z</time>
      </trkpt>
      <trkpt lat="45.7843" lon="4.6722">
        <ele>354.38</ele>
        <time>2015-12-19T14:12:44Z</time>
      </trkpt>
      <trkpt lat="45.78431" lon="4.67223">
        <ele>353.9</ele>
        <time>2015-12-19T14:12:45Z</time>
      </trkpt>
      <trkpt lat="45.78433" lon="4.67228">
        <ele>354.86</ele>
        <time>2015-12-19T14:12:46Z</time>
      </trkpt>
      <trkpt lat="45.78434" lon="4.67232">
        <ele>354.86</ele>
        <time>2015-12-19T14:12:47Z</time>
      </trkpt>
      <trkpt lat="45.78435" lon="4.67235">
        <ele>354.86</ele>
        <time>2015-12-19T14:12:48Z</time>
      </trkpt>
      <trkpt lat="45.78436" lon="4.67238">
        <ele>354.86</ele>
        <time>2015-12-19T14:12:49Z</time>
      </trkpt>
      <trkpt lat="45.78437" lon="4.67242">
        <ele>354.86</ele>
        <time>2015-12-19T14:12:50Z</time>
      </trkpt>
      <trkpt lat="45.78438" lon="4.67245">
        <ele>354.86</ele>
        <time>2015-12-19T14:12:51Z</time>
      </trkpt>
      <trkpt lat="45.78439" lon="4.67249">
        <ele>354.38</ele>
        <time>2015-12-19T14:12:52Z</time>
      </trkpt>
      <trkpt lat="45.78446" lon="4.67267">
        <ele>353.9</ele>
        <time>2015-12-19T14:13:04Z</time>
      </trkpt>
      <trkpt lat="45.78446" lon="4.67267">
        <ele>353.9</ele>
        <time>2015-12-19T14:13:28Z</time>
      </trkpt>
      <trkpt lat="45.78447" lon="4.67269">
        <ele>354.38</ele>
        <time>2015-12-19T14:13:50Z</time>
      </trkpt>
      <trkpt lat="45.78448" lon="4.67275">
        <ele>354.38</ele>
        <time>2015-12-19T14:14:05Z</time>
      </trkpt>
      <trkpt lat="45.78449" lon="4.67278">
        <ele>354.38</ele>
        <time>2015-12-19T14:14:06Z</time>
      </trkpt>
      <trkpt lat="45.78449" lon="4.67284">
        <ele>353.9</ele>
        <time>2015-12-19T14:14:07Z</time>
      </trkpt>
      <trkpt lat="45.78449" lon="4.67291">
        <ele>354.38</ele>
        <time>2015-12-19T14:14:08Z</time>
      </trkpt>
      <trkpt lat="45.78449" lon="4.67297">
        <ele>353.42</ele>
        <time>2015-12-19T14:14:09Z</time>
      </trkpt>
      <trkpt lat="45.7845" lon="4.6731">
        <ele>352.94</ele>
        <time>2015-12-19T14:14:11Z</time>
      </trkpt>
      <trkpt lat="45.78451" lon="4.67316">
        <ele>352.46</ele>
        <time>2015-12-19T14:14:12Z</time>
      </trkpt>
      <trkpt lat="45.78454" lon="4.67326">
        <ele>351.98</ele>
        <time>2015-12-19T14:14:14Z</time>
      </trkpt>
      <trkpt lat="45.78463" lon="4.67361">
        <ele>350.54</ele>
        <time>2015-12-19T14:14:20Z</time>
      </trkpt>
      <trkpt lat="45.78463" lon="4.67368">
        <ele>349.58</ele>
        <time>2015-12-19T14:14:21Z</time>
      </trkpt>
      <trkpt lat="45.78464" lon="4.67375">
        <ele>350.06</ele>
        <time>2015-12-19T14:14:22Z</time>
      </trkpt>
      <trkpt lat="45.78466" lon="4.67381">
        <ele>349.58</ele>
        <time>2015-12-19T14:14:23Z</time>
      </trkpt>
      <trkpt lat="45.78469" lon="4.67388">
        <ele>349.58</ele>
        <time>2015-12-19T14:14:24Z</time>
      </trkpt>
      <trkpt lat="45.78485" lon="4.67434">
        <ele>349.1</ele>
        <time>2015-12-19T14:14:29Z</time>
      </trkpt>
      <trkpt lat="45.78489" lon="4.67444">
        <ele>348.13</ele>
        <time>2015-12-19T14:14:30Z</time>
      </trkpt>
      <trkpt lat="45.78499" lon="4.6747">
        <ele>348.13</ele>
        <time>2015-12-19T14:14:33Z</time>
      </trkpt>
      <trkpt lat="45.78503" lon="4.67488">
        <ele>347.65</ele>
        <time>2015-12-19T14:14:35Z</time>
      </trkpt>
      <trkpt lat="45.78507" lon="4.67495">
        <ele>347.17</ele>
        <time>2015-12-19T14:14:36Z</time>
      </trkpt>
      <trkpt lat="45.78511" lon="4.67503">
        <ele>347.65</ele>
        <time>2015-12-19T14:14:37Z</time>
      </trkpt>
      <trkpt lat="45.78515" lon="4.6751">
        <ele>347.17</ele>
        <time>2015-12-19T14:14:38Z</time>
      </trkpt>
      <trkpt lat="45.7852" lon="4.67517">
        <ele>346.69</ele>
        <time>2015-12-19T14:14:39Z</time>
      </trkpt>
      <trkpt lat="45.78539" lon="4.67545">
        <ele>345.73</ele>
        <time>2015-12-19T14:14:43Z</time>
      </trkpt>
      <trkpt lat="45.78558" lon="4.67582">
        <ele>343.81</ele>
        <time>2015-12-19T14:14:48Z</time>
      </trkpt>
      <trkpt lat="45.78561" lon="4.67588">
        <ele>344.29</ele>
        <time>2015-12-19T14:14:49Z</time>
      </trkpt>
      <trkpt lat="45.78564" lon="4.67595">
        <ele>342.37</ele>
        <time>2015-12-19T14:14:50Z</time>
      </trkpt>
      <trkpt lat="45.78567" lon="4.67601">
        <ele>342.37</ele>
        <time>2015-12-19T14:14:51Z</time>
      </trkpt>
      <trkpt lat="45.78583" lon="4.67628">
        <ele>341.41</ele>
        <time>2015-12-19T14:14:55Z</time>
      </trkpt>
      <trkpt lat="45.7861" lon="4.67687">
        <ele>339.96</ele>
        <time>2015-12-19T14:15:01Z</time>
      </trkpt>
      <trkpt lat="45.78615" lon="4.67696">
        <ele>339.48</ele>
        <time>2015-12-19T14:15:02Z</time>
      </trkpt>
      <trkpt lat="45.7862" lon="4.67704">
        <ele>339.48</ele>
        <time>2015-12-19T14:15:03Z</time>
      </trkpt>
      <trkpt lat="45.78628" lon="4.67719">
        <ele>339.48</ele>
        <time>2015-12-19T14:15:05Z</time>
      </trkpt>
      <trkpt lat="45.78632" lon="4.67726">
        <ele>339.48</ele>
        <time>2015-12-19T14:15:06Z</time>
      </trkpt>
      <trkpt lat="45.78636" lon="4.67734">
        <ele>339</ele>
        <time>2015-12-19T14:15:07Z</time>
      </trkpt>
      <trkpt lat="45.78639" lon="4.67741">
        <ele>338.52</ele>
        <time>2015-12-19T14:15:08Z</time>
      </trkpt>
      <trkpt lat="45.78642" lon="4.67748">
        <ele>337.56</ele>
        <time>2015-12-19T14:15:09Z</time>
      </trkpt>
      <trkpt lat="45.78645" lon="4.67754">
        <ele>336.6</ele>
        <time>2015-12-19T14:15:10Z</time>
      </trkpt>
      <trkpt lat="45.78648" lon="4.6776">
        <ele>334.68</ele>
        <time>2015-12-19T14:15:11Z</time>
      </trkpt>
      <trkpt lat="45.7865" lon="4.67767">
        <ele>335.16</ele>
        <time>2015-12-19T14:15:12Z</time>
      </trkpt>
      <trkpt lat="45.78652" lon="4.67774">
        <ele>333.71</ele>
        <time>2015-12-19T14:15:13Z</time>
      </trkpt>
      <trkpt lat="45.78654" lon="4.67786">
        <ele>334.2</ele>
        <time>2015-12-19T14:15:20Z</time>
      </trkpt>
      <trkpt lat="45.78659" lon="4.67791">
        <ele>334.68</ele>
        <time>2015-12-19T14:15:29Z</time>
      </trkpt>
      <trkpt lat="45.78658" lon="4.67788">
        <ele>333.71</ele>
        <time>2015-12-19T14:15:33Z</time>
      </trkpt>
      <trkpt lat="45.78656" lon="4.67784">
        <ele>333.71</ele>
        <time>2015-12-19T14:15:44Z</time>
      </trkpt>
      <trkpt lat="45.78656" lon="4.67785">
        <ele>334.2</ele>
        <time>2015-12-19T14:15:55Z</time>
      </trkpt>
      <trkpt lat="45.78657" lon="4.67787">
        <ele>333.71</ele>
        <time>2015-12-19T14:15:56Z</time>
      </trkpt>
      <trkpt lat="45.78659" lon="4.6779">
        <ele>334.2</ele>
        <time>2015-12-19T14:15:57Z</time>
      </trkpt>
      <trkpt lat="45.7866" lon="4.67793">
        <ele>334.2</ele>
        <time>2015-12-19T14:15:58Z</time>
      </trkpt>
      <trkpt lat="45.7866" lon="4.67796">
        <ele>334.68</ele>
        <time>2015-12-19T14:15:59Z</time>
      </trkpt>
      <trkpt lat="45.7866" lon="4.67799">
        <ele>334.68</ele>
        <time>2015-12-19T14:16:00Z</time>
      </trkpt>
      <trkpt lat="45.78659" lon="4.67802">
        <ele>334.68</ele>
        <time>2015-12-19T14:16:01Z</time>
      </trkpt>
      <trkpt lat="45.78658" lon="4.67805">
        <ele>335.16</ele>
        <time>2015-12-19T14:16:02Z</time>
      </trkpt>
      <trkpt lat="45.78657" lon="4.67808">
        <ele>335.16</ele>
        <time>2015-12-19T14:16:03Z</time>
      </trkpt>
      <trkpt lat="45.78656" lon="4.6781">
        <ele>335.16</ele>
        <time>2015-12-19T14:16:04Z</time>
      </trkpt>
      <trkpt lat="45.78654" lon="4.67813">
        <ele>335.16</ele>
        <time>2015-12-19T14:16:05Z</time>
      </trkpt>
      <trkpt lat="45.78652" lon="4.67817">
        <ele>335.64</ele>
        <time>2015-12-19T14:16:07Z</time>
      </trkpt>
      <trkpt lat="45.78653" lon="4.67827">
        <ele>336.6</ele>
        <time>2015-12-19T14:16:10Z</time>
      </trkpt>
      <trkpt lat="45.78662" lon="4.67854">
        <ele>337.56</ele>
        <time>2015-12-19T14:16:20Z</time>
      </trkpt>
      <trkpt lat="45.78663" lon="4.67856">
        <ele>338.04</ele>
        <time>2015-12-19T14:16:21Z</time>
      </trkpt>
      <trkpt lat="45.78664" lon="4.67857">
        <ele>338.04</ele>
        <time>2015-12-19T14:16:22Z</time>
      </trkpt>
      <trkpt lat="45.78665" lon="4.67859">
        <ele>338.52</ele>
        <time>2015-12-19T14:16:23Z</time>
      </trkpt>
      <trkpt lat="45.78666" lon="4.67862">
        <ele>338.52</ele>
        <time>2015-12-19T14:16:24Z</time>
      </trkpt>
      <trkpt lat="45.78667" lon="4.67864">
        <ele>339</ele>
        <time>2015-12-19T14:16:25Z</time>
      </trkpt>
      <trkpt lat="45.78669" lon="4.67866">
        <ele>339.48</ele>
        <time>2015-12-19T14:16:26Z</time>
      </trkpt>
      <trkpt lat="45.7867" lon="4.67868">
        <ele>339</ele>
        <time>2015-12-19T14:16:27Z</time>
      </trkpt>
      <trkpt lat="45.78683" lon="4.67887">
        <ele>342.37</ele>
        <time>2015-12-19T14:16:39Z</time>
      </trkpt>
      <trkpt lat="45.78688" lon="4.67894">
        <ele>343.81</ele>
        <time>2015-12-19T14:16:44Z</time>
      </trkpt>
      <trkpt lat="45.78691" lon="4.67901">
        <ele>343.81</ele>
        <time>2015-12-19T14:16:49Z</time>
      </trkpt>
      <trkpt lat="45.78692" lon="4.67903">
        <ele>344.29</ele>
        <time>2015-12-19T14:16:50Z</time>
      </trkpt>
      <trkpt lat="45.78693" lon="4.67904">
        <ele>344.29</ele>
        <time>2015-12-19T14:16:51Z</time>
      </trkpt>
      <trkpt lat="45.78699" lon="4.67915">
        <ele>345.73</ele>
        <time>2015-12-19T14:16:58Z</time>
      </trkpt>
      <trkpt lat="45.787" lon="4.67916">
        <ele>346.21</ele>
        <time>2015-12-19T14:16:59Z</time>
      </trkpt>
      <trkpt lat="45.78701" lon="4.67917">
        <ele>346.69</ele>
        <time>2015-12-19T14:17:00Z</time>
      </trkpt>
      <trkpt lat="45.78702" lon="4.67918">
        <ele>346.69</ele>
        <time>2015-12-19T14:17:01Z</time>
      </trkpt>
      <trkpt lat="45.78703" lon="4.6792">
        <ele>346.69</ele>
        <time>2015-12-19T14:17:02Z</time>
      </trkpt>
      <trkpt lat="45.78705" lon="4.67922">
        <ele>347.17</ele>
        <time>2015-12-19T14:17:03Z</time>
      </trkpt>
      <trkpt lat="45.78706" lon="4.67923">
        <ele>346.69</ele>
        <time>2015-12-19T14:17:04Z</time>
      </trkpt>
      <trkpt lat="45.78707" lon="4.67924">
        <ele>347.17</ele>
        <time>2015-12-19T14:17:05Z</time>
      </trkpt>
      <trkpt lat="45.78719" lon="4.67942">
        <ele>350.06</ele>
        <time>2015-12-19T14:17:20Z</time>
      </trkpt>
      <trkpt lat="45.78731" lon="4.6796">
        <ele>351.98</ele>
        <time>2015-12-19T14:17:33Z</time>
      </trkpt>
      <trkpt lat="45.78738" lon="4.67966">
        <ele>353.9</ele>
        <time>2015-12-19T14:17:39Z</time>
      </trkpt>
      <trkpt lat="45.78738" lon="4.67968">
        <ele>353.9</ele>
        <time>2015-12-19T14:17:40Z</time>
      </trkpt>
      <trkpt lat="45.78746" lon="4.67976">
        <ele>355.34</ele>
        <time>2015-12-19T14:17:49Z</time>
      </trkpt>
      <trkpt lat="45.78748" lon="4.67977">
        <ele>355.34</ele>
        <time>2015-12-19T14:17:50Z</time>
      </trkpt>
      <trkpt lat="45.78758" lon="4.67988">
        <ele>357.27</ele>
        <time>2015-12-19T14:18:02Z</time>
      </trkpt>
      <trkpt lat="45.78771" lon="4.67999">
        <ele>358.71</ele>
        <time>2015-12-19T14:18:16Z</time>
      </trkpt>
      <trkpt lat="45.78786" lon="4.68017">
        <ele>360.15</ele>
        <time>2015-12-19T14:18:30Z</time>
      </trkpt>
      <trkpt lat="45.78787" lon="4.68018">
        <ele>360.15</ele>
        <time>2015-12-19T14:18:31Z</time>
      </trkpt>
      <trkpt lat="45.78788" lon="4.6802">
        <ele>360.15</ele>
        <time>2015-12-19T14:18:32Z</time>
      </trkpt>
      <trkpt lat="45.78788" lon="4.68022">
        <ele>360.63</ele>
        <time>2015-12-19T14:18:33Z</time>
      </trkpt>
      <trkpt lat="45.78789" lon="4.68023">
        <ele>361.11</ele>
        <time>2015-12-19T14:18:34Z</time>
      </trkpt>
      <trkpt lat="45.78793" lon="4.68027">
        <ele>361.11</ele>
        <time>2015-12-19T14:18:37Z</time>
      </trkpt>
      <trkpt lat="45.78794" lon="4.68028">
        <ele>361.59</ele>
        <time>2015-12-19T14:18:38Z</time>
      </trkpt>
      <trkpt lat="45.78809" lon="4.68043">
        <ele>362.55</ele>
        <time>2015-12-19T14:18:52Z</time>
      </trkpt>
      <trkpt lat="45.78825" lon="4.68061">
        <ele>365.44</ele>
        <time>2015-12-19T14:19:07Z</time>
      </trkpt>
      <trkpt lat="45.78826" lon="4.68062">
        <ele>365.44</ele>
        <time>2015-12-19T14:19:08Z</time>
      </trkpt>
      <trkpt lat="45.78828" lon="4.68066">
        <ele>365.44</ele>
        <time>2015-12-19T14:19:11Z</time>
      </trkpt>
      <trkpt lat="45.7883" lon="4.68068">
        <ele>365.44</ele>
        <time>2015-12-19T14:19:12Z</time>
      </trkpt>
      <trkpt lat="45.78831" lon="4.6807">
        <ele>365.92</ele>
        <time>2015-12-19T14:19:13Z</time>
      </trkpt>
      <trkpt lat="45.78845" lon="4.68083">
        <ele>366.4</ele>
        <time>2015-12-19T14:19:24Z</time>
      </trkpt>
      <trkpt lat="45.78846" lon="4.68085">
        <ele>366.4</ele>
        <time>2015-12-19T14:19:25Z</time>
      </trkpt>
      <trkpt lat="45.78847" lon="4.68086">
        <ele>366.88</ele>
        <time>2015-12-19T14:19:26Z</time>
      </trkpt>
      <trkpt lat="45.78848" lon="4.68088">
        <ele>366.4</ele>
        <time>2015-12-19T14:19:27Z</time>
      </trkpt>
      <trkpt lat="45.78849" lon="4.68089">
        <ele>366.4</ele>
        <time>2015-12-19T14:19:28Z</time>
      </trkpt>
      <trkpt lat="45.7885" lon="4.68091">
        <ele>366.88</ele>
        <time>2015-12-19T14:19:29Z</time>
      </trkpt>
      <trkpt lat="45.78851" lon="4.68092">
        <ele>366.88</ele>
        <time>2015-12-19T14:19:30Z</time>
      </trkpt>
      <trkpt lat="45.78852" lon="4.68093">
        <ele>366.88</ele>
        <time>2015-12-19T14:19:31Z</time>
      </trkpt>
      <trkpt lat="45.78853" lon="4.68094">
        <ele>366.4</ele>
        <time>2015-12-19T14:19:32Z</time>
      </trkpt>
      <trkpt lat="45.78854" lon="4.68096">
        <ele>366.88</ele>
        <time>2015-12-19T14:19:33Z</time>
      </trkpt>
      <trkpt lat="45.78855" lon="4.68099">
        <ele>367.36</ele>
        <time>2015-12-19T14:19:35Z</time>
      </trkpt>
      <trkpt lat="45.78855" lon="4.68101">
        <ele>366.4</ele>
        <time>2015-12-19T14:19:36Z</time>
      </trkpt>
      <trkpt lat="45.78854" lon="4.68103">
        <ele>365.92</ele>
        <time>2015-12-19T14:19:37Z</time>
      </trkpt>
      <trkpt lat="45.78853" lon="4.68105">
        <ele>365.44</ele>
        <time>2015-12-19T14:19:38Z</time>
      </trkpt>
      <trkpt lat="45.78853" lon="4.68107">
        <ele>364.96</ele>
        <time>2015-12-19T14:19:39Z</time>
      </trkpt>
      <trkpt lat="45.78853" lon="4.6811">
        <ele>364.48</ele>
        <time>2015-12-19T14:19:40Z</time>
      </trkpt>
      <trkpt lat="45.78854" lon="4.68113">
        <ele>364.48</ele>
        <time>2015-12-19T14:19:41Z</time>
      </trkpt>
      <trkpt lat="45.78856" lon="4.68115">
        <ele>364</ele>
        <time>2015-12-19T14:19:42Z</time>
      </trkpt>
      <trkpt lat="45.78858" lon="4.68116">
        <ele>363.52</ele>
        <time>2015-12-19T14:19:43Z</time>
      </trkpt>
      <trkpt lat="45.78859" lon="4.68118">
        <ele>363.52</ele>
        <time>2015-12-19T14:19:47Z</time>
      </trkpt>
      <trkpt lat="45.7886" lon="4.6812">
        <ele>363.52</ele>
        <time>2015-12-19T14:19:48Z</time>
      </trkpt>
      <trkpt lat="45.78861" lon="4.68121">
        <ele>362.55</ele>
        <time>2015-12-19T14:19:49Z</time>
      </trkpt>
      <trkpt lat="45.78861" lon="4.68124">
        <ele>362.07</ele>
        <time>2015-12-19T14:19:50Z</time>
      </trkpt>
      <trkpt lat="45.78862" lon="4.68128">
        <ele>362.07</ele>
        <time>2015-12-19T14:19:51Z</time>
      </trkpt>
      <trkpt lat="45.78862" lon="4.68131">
        <ele>362.07</ele>
        <time>2015-12-19T14:19:52Z</time>
      </trkpt>
      <trkpt lat="45.78862" lon="4.68135">
        <ele>361.11</ele>
        <time>2015-12-19T14:19:53Z</time>
      </trkpt>
      <trkpt lat="45.78862" lon="4.68139">
        <ele>361.11</ele>
        <time>2015-12-19T14:19:54Z</time>
      </trkpt>
      <trkpt lat="45.78862" lon="4.68141">
        <ele>361.11</ele>
        <time>2015-12-19T14:19:55Z</time>
      </trkpt>
      <trkpt lat="45.78861" lon="4.68145">
        <ele>361.11</ele>
        <time>2015-12-19T14:19:56Z</time>
      </trkpt>
      <trkpt lat="45.7886" lon="4.68149">
        <ele>360.63</ele>
        <time>2015-12-19T14:19:57Z</time>
      </trkpt>
      <trkpt lat="45.78859" lon="4.68153">
        <ele>360.63</ele>
        <time>2015-12-19T14:19:58Z</time>
      </trkpt>
      <trkpt lat="45.78858" lon="4.68157">
        <ele>359.67</ele>
        <time>2015-12-19T14:19:59Z</time>
      </trkpt>
      <trkpt lat="45.78858" lon="4.68162">
        <ele>360.15</ele>
        <time>2015-12-19T14:20:00Z</time>
      </trkpt>
      <trkpt lat="45.78857" lon="4.68166">
        <ele>359.67</ele>
        <time>2015-12-19T14:20:01Z</time>
      </trkpt>
      <trkpt lat="45.78857" lon="4.6817">
        <ele>359.19</ele>
        <time>2015-12-19T14:20:02Z</time>
      </trkpt>
      <trkpt lat="45.78854" lon="4.6818">
        <ele>357.75</ele>
        <time>2015-12-19T14:20:05Z</time>
      </trkpt>
      <trkpt lat="45.78853" lon="4.68182">
        <ele>357.27</ele>
        <time>2015-12-19T14:20:06Z</time>
      </trkpt>
      <trkpt lat="45.7885" lon="4.68183">
        <ele>355.83</ele>
        <time>2015-12-19T14:20:09Z</time>
      </trkpt>
      <trkpt lat="45.78842" lon="4.68185">
        <ele>354.38</ele>
        <time>2015-12-19T14:20:23Z</time>
      </trkpt>
      <trkpt lat="45.7884" lon="4.68186">
        <ele>353.9</ele>
        <time>2015-12-19T14:20:24Z</time>
      </trkpt>
      <trkpt lat="45.78823" lon="4.68186">
        <ele>350.54</ele>
        <time>2015-12-19T14:20:31Z</time>
      </trkpt>
      <trkpt lat="45.78821" lon="4.68189">
        <ele>349.58</ele>
        <time>2015-12-19T14:20:32Z</time>
      </trkpt>
      <trkpt lat="45.78819" lon="4.68191">
        <ele>348.62</ele>
        <time>2015-12-19T14:20:33Z</time>
      </trkpt>
      <trkpt lat="45.78817" lon="4.68194">
        <ele>348.62</ele>
        <time>2015-12-19T14:20:34Z</time>
      </trkpt>
      <trkpt lat="45.78816" lon="4.68196">
        <ele>348.13</ele>
        <time>2015-12-19T14:20:35Z</time>
      </trkpt>
      <trkpt lat="45.78815" lon="4.68197">
        <ele>347.65</ele>
        <time>2015-12-19T14:20:36Z</time>
      </trkpt>
      <trkpt lat="45.78813" lon="4.68199">
        <ele>347.65</ele>
        <time>2015-12-19T14:20:37Z</time>
      </trkpt>
      <trkpt lat="45.78811" lon="4.682">
        <ele>347.17</ele>
        <time>2015-12-19T14:20:38Z</time>
      </trkpt>
      <trkpt lat="45.78809" lon="4.682">
        <ele>345.73</ele>
        <time>2015-12-19T14:20:39Z</time>
      </trkpt>
      <trkpt lat="45.78807" lon="4.68199">
        <ele>346.21</ele>
        <time>2015-12-19T14:20:40Z</time>
      </trkpt>
      <trkpt lat="45.78805" lon="4.68199">
        <ele>345.25</ele>
        <time>2015-12-19T14:20:41Z</time>
      </trkpt>
      <trkpt lat="45.78803" lon="4.68199">
        <ele>345.25</ele>
        <time>2015-12-19T14:20:42Z</time>
      </trkpt>
      <trkpt lat="45.78802" lon="4.68199">
        <ele>345.25</ele>
        <time>2015-12-19T14:20:43Z</time>
      </trkpt>
      <trkpt lat="45.78801" lon="4.682">
        <ele>344.29</ele>
        <time>2015-12-19T14:20:44Z</time>
      </trkpt>
      <trkpt lat="45.78799" lon="4.68201">
        <ele>343.33</ele>
        <time>2015-12-19T14:20:45Z</time>
      </trkpt>
      <trkpt lat="45.78799" lon="4.68203">
        <ele>343.33</ele>
        <time>2015-12-19T14:20:46Z</time>
      </trkpt>
      <trkpt lat="45.78796" lon="4.68206">
        <ele>342.37</ele>
        <time>2015-12-19T14:20:49Z</time>
      </trkpt>
      <trkpt lat="45.78794" lon="4.68207">
        <ele>340.92</ele>
        <time>2015-12-19T14:20:50Z</time>
      </trkpt>
      <trkpt lat="45.78791" lon="4.68207">
        <ele>339.96</ele>
        <time>2015-12-19T14:20:51Z</time>
      </trkpt>
      <trkpt lat="45.7879" lon="4.68205">
        <ele>339.48</ele>
        <time>2015-12-19T14:20:52Z</time>
      </trkpt>
      <trkpt lat="45.78788" lon="4.68203">
        <ele>339</ele>
        <time>2015-12-19T14:20:53Z</time>
      </trkpt>
      <trkpt lat="45.78788" lon="4.682">
        <ele>339</ele>
        <time>2015-12-19T14:20:54Z</time>
      </trkpt>
      <trkpt lat="45.78784" lon="4.68191">
        <ele>338.04</ele>
        <time>2015-12-19T14:21:00Z</time>
      </trkpt>
      <trkpt lat="45.78783" lon="4.6819">
        <ele>338.04</ele>
        <time>2015-12-19T14:21:01Z</time>
      </trkpt>
      <trkpt lat="45.7878" lon="4.68181">
        <ele>336.12</ele>
        <time>2015-12-19T14:21:05Z</time>
      </trkpt>
      <trkpt lat="45.78781" lon="4.68178">
        <ele>335.64</ele>
        <time>2015-12-19T14:21:06Z</time>
      </trkpt>
      <trkpt lat="45.78781" lon="4.68175">
        <ele>336.12</ele>
        <time>2015-12-19T14:21:07Z</time>
      </trkpt>
      <trkpt lat="45.78781" lon="4.6817">
        <ele>335.64</ele>
        <time>2015-12-19T14:21:08Z</time>
      </trkpt>
      <trkpt lat="45.78779" lon="4.68166">
        <ele>334.68</ele>
        <time>2015-12-19T14:21:09Z</time>
      </trkpt>
      <trkpt lat="45.78777" lon="4.68163">
        <ele>334.68</ele>
        <time>2015-12-19T14:21:10Z</time>
      </trkpt>
      <trkpt lat="45.78773" lon="4.6816">
        <ele>334.68</ele>
        <time>2015-12-19T14:21:11Z</time>
      </trkpt>
      <trkpt lat="45.7877" lon="4.68156">
        <ele>333.71</ele>
        <time>2015-12-19T14:21:12Z</time>
      </trkpt>
      <trkpt lat="45.78765" lon="4.68153">
        <ele>333.71</ele>
        <time>2015-12-19T14:21:13Z</time>
      </trkpt>
      <trkpt lat="45.78762" lon="4.6815">
        <ele>333.23</ele>
        <time>2015-12-19T14:21:14Z</time>
      </trkpt>
      <trkpt lat="45.7876" lon="4.68148">
        <ele>333.71</ele>
        <time>2015-12-19T14:21:22Z</time>
      </trkpt>
      <trkpt lat="45.7876" lon="4.68148">
        <ele>333.23</ele>
        <time>2015-12-19T14:21:50Z</time>
      </trkpt>
      <trkpt lat="45.7876" lon="4.68148">
        <ele>332.75</ele>
        <time>2015-12-19T14:22:17Z</time>
      </trkpt>
      <trkpt lat="45.7876" lon="4.68148">
        <ele>333.23</ele>
        <time>2015-12-19T14:22:42Z</time>
      </trkpt>
      <trkpt lat="45.78756" lon="4.68145">
        <ele>332.75</ele>
        <time>2015-12-19T14:22:56Z</time>
      </trkpt>
      <trkpt lat="45.78755" lon="4.68143">
        <ele>332.75</ele>
        <time>2015-12-19T14:22:57Z</time>
      </trkpt>
      <trkpt lat="45.78753" lon="4.68142">
        <ele>332.75</ele>
        <time>2015-12-19T14:22:58Z</time>
      </trkpt>
      <trkpt lat="45.7875" lon="4.68141">
        <ele>333.23</ele>
        <time>2015-12-19T14:22:59Z</time>
      </trkpt>
      <trkpt lat="45.78747" lon="4.6814">
        <ele>332.75</ele>
        <time>2015-12-19T14:23:00Z</time>
      </trkpt>
      <trkpt lat="45.78744" lon="4.68138">
        <ele>332.27</ele>
        <time>2015-12-19T14:23:01Z</time>
      </trkpt>
      <trkpt lat="45.7874" lon="4.68136">
        <ele>331.79</ele>
        <time>2015-12-19T14:23:02Z</time>
      </trkpt>
      <trkpt lat="45.78735" lon="4.68133">
        <ele>331.79</ele>
        <time>2015-12-19T14:23:03Z</time>
      </trkpt>
      <trkpt lat="45.7873" lon="4.68131">
        <ele>330.83</ele>
        <time>2015-12-19T14:23:04Z</time>
      </trkpt>
      <trkpt lat="45.78725" lon="4.68129">
        <ele>330.35</ele>
        <time>2015-12-19T14:23:05Z</time>
      </trkpt>
      <trkpt lat="45.78721" lon="4.68127">
        <ele>329.87</ele>
        <time>2015-12-19T14:23:06Z</time>
      </trkpt>
      <trkpt lat="45.78716" lon="4.68125">
        <ele>329.39</ele>
        <time>2015-12-19T14:23:07Z</time>
      </trkpt>
      <trkpt lat="45.78712" lon="4.68123">
        <ele>328.43</ele>
        <time>2015-12-19T14:23:08Z</time>
      </trkpt>
      <trkpt lat="45.78709" lon="4.6812">
        <ele>328.43</ele>
        <time>2015-12-19T14:23:09Z</time>
      </trkpt>
      <trkpt lat="45.78706" lon="4.68117">
        <ele>327.95</ele>
        <time>2015-12-19T14:23:10Z</time>
      </trkpt>
      <trkpt lat="45.78702" lon="4.68116">
        <ele>327.95</ele>
        <time>2015-12-19T14:23:11Z</time>
      </trkpt>
      <trkpt lat="45.78695" lon="4.68112">
        <ele>326.99</ele>
        <time>2015-12-19T14:23:13Z</time>
      </trkpt>
      <trkpt lat="45.78693" lon="4.68109">
        <ele>326.02</ele>
        <time>2015-12-19T14:23:14Z</time>
      </trkpt>
      <trkpt lat="45.78689" lon="4.68104">
        <ele>325.54</ele>
        <time>2015-12-19T14:23:16Z</time>
      </trkpt>
      <trkpt lat="45.78683" lon="4.68097">
        <ele>323.62</ele>
        <time>2015-12-19T14:23:20Z</time>
      </trkpt>
      <trkpt lat="45.7868" lon="4.68095">
        <ele>322.66</ele>
        <time>2015-12-19T14:23:21Z</time>
      </trkpt>
      <trkpt lat="45.78677" lon="4.68093">
        <ele>323.14</ele>
        <time>2015-12-19T14:23:22Z</time>
      </trkpt>
      <trkpt lat="45.78674" lon="4.6809">
        <ele>322.66</ele>
        <time>2015-12-19T14:23:23Z</time>
      </trkpt>
      <trkpt lat="45.78669" lon="4.68088">
        <ele>321.7</ele>
        <time>2015-12-19T14:23:24Z</time>
      </trkpt>
      <trkpt lat="45.78652" lon="4.68083">
        <ele>319.78</ele>
        <time>2015-12-19T14:23:29Z</time>
      </trkpt>
      <trkpt lat="45.7865" lon="4.68084">
        <ele>319.3</ele>
        <time>2015-12-19T14:23:30Z</time>
      </trkpt>
      <trkpt lat="45.78648" lon="4.68085">
        <ele>319.3</ele>
        <time>2015-12-19T14:23:31Z</time>
      </trkpt>
      <trkpt lat="45.78652" lon="4.68104">
        <ele>321.22</ele>
        <time>2015-12-19T14:23:39Z</time>
      </trkpt>
      <trkpt lat="45.78657" lon="4.68113">
        <ele>321.22</ele>
        <time>2015-12-19T14:23:43Z</time>
      </trkpt>
      <trkpt lat="45.78662" lon="4.68127">
        <ele>321.22</ele>
        <time>2015-12-19T14:23:48Z</time>
      </trkpt>
      <trkpt lat="45.78666" lon="4.68138">
        <ele>321.22</ele>
        <time>2015-12-19T14:23:52Z</time>
      </trkpt>
      <trkpt lat="45.78668" lon="4.68145">
        <ele>320.74</ele>
        <time>2015-12-19T14:23:54Z</time>
      </trkpt>
      <trkpt lat="45.78675" lon="4.68165">
        <ele>322.18</ele>
        <time>2015-12-19T14:24:01Z</time>
      </trkpt>
      <trkpt lat="45.78678" lon="4.68171">
        <ele>321.7</ele>
        <time>2015-12-19T14:24:03Z</time>
      </trkpt>
      <trkpt lat="45.78684" lon="4.68174">
        <ele>322.66</ele>
        <time>2015-12-19T14:24:07Z</time>
      </trkpt>
      <trkpt lat="45.78692" lon="4.68184">
        <ele>323.14</ele>
        <time>2015-12-19T14:24:13Z</time>
      </trkpt>
      <trkpt lat="45.7869" lon="4.68215">
        <ele>323.62</ele>
        <time>2015-12-19T14:24:19Z</time>
      </trkpt>
      <trkpt lat="45.78685" lon="4.68238">
        <ele>324.58</ele>
        <time>2015-12-19T14:24:26Z</time>
      </trkpt>
      <trkpt lat="45.78673" lon="4.68271">
        <ele>326.5</ele>
        <time>2015-12-19T14:24:38Z</time>
      </trkpt>
      <trkpt lat="45.78668" lon="4.68279">
        <ele>326.02</ele>
        <time>2015-12-19T14:24:41Z</time>
      </trkpt>
      <trkpt lat="45.78653" lon="4.68285">
        <ele>328.91</ele>
        <time>2015-12-19T14:24:55Z</time>
      </trkpt>
      <trkpt lat="45.78646" lon="4.6829">
        <ele>329.39</ele>
        <time>2015-12-19T14:25:08Z</time>
      </trkpt>
      <trkpt lat="45.78641" lon="4.68291">
        <ele>330.35</ele>
        <time>2015-12-19T14:25:22Z</time>
      </trkpt>
      <trkpt lat="45.78641" lon="4.68291">
        <ele>330.35</ele>
        <time>2015-12-19T14:25:29Z</time>
      </trkpt>
      <trkpt lat="45.78631" lon="4.68293">
        <ele>332.75</ele>
        <time>2015-12-19T14:25:40Z</time>
      </trkpt>
      <trkpt lat="45.78621" lon="4.68296">
        <ele>333.71</ele>
        <time>2015-12-19T14:25:53Z</time>
      </trkpt>
      <trkpt lat="45.7861" lon="4.68299">
        <ele>335.64</ele>
        <time>2015-12-19T14:26:06Z</time>
      </trkpt>
      <trkpt lat="45.78603" lon="4.68301">
        <ele>337.56</ele>
        <time>2015-12-19T14:26:20Z</time>
      </trkpt>
      <trkpt lat="45.786" lon="4.68302">
        <ele>337.56</ele>
        <time>2015-12-19T14:26:37Z</time>
      </trkpt>
      <trkpt lat="45.78598" lon="4.68302">
        <ele>337.08</ele>
        <time>2015-12-19T14:26:38Z</time>
      </trkpt>
      <trkpt lat="45.78587" lon="4.68302">
        <ele>338.52</ele>
        <time>2015-12-19T14:26:45Z</time>
      </trkpt>
      <trkpt lat="45.7858" lon="4.68304">
        <ele>339.96</ele>
        <time>2015-12-19T14:26:50Z</time>
      </trkpt>
      <trkpt lat="45.78577" lon="4.68304">
        <ele>340.44</ele>
        <time>2015-12-19T14:26:53Z</time>
      </trkpt>
      <trkpt lat="45.78562" lon="4.68306">
        <ele>341.89</ele>
        <time>2015-12-19T14:27:03Z</time>
      </trkpt>
      <trkpt lat="45.78541" lon="4.68307">
        <ele>344.29</ele>
        <time>2015-12-19T14:27:21Z</time>
      </trkpt>
      <trkpt lat="45.78536" lon="4.68309">
        <ele>344.77</ele>
        <time>2015-12-19T14:27:26Z</time>
      </trkpt>
      <trkpt lat="45.78528" lon="4.6831">
        <ele>346.21</ele>
        <time>2015-12-19T14:27:32Z</time>
      </trkpt>
      <trkpt lat="45.78526" lon="4.6831">
        <ele>346.69</ele>
        <time>2015-12-19T14:27:34Z</time>
      </trkpt>
      <trkpt lat="45.7851" lon="4.68311">
        <ele>349.1</ele>
        <time>2015-12-19T14:27:50Z</time>
      </trkpt>
      <trkpt lat="45.78495" lon="4.68311">
        <ele>351.02</ele>
        <time>2015-12-19T14:28:04Z</time>
      </trkpt>
      <trkpt lat="45.78488" lon="4.68312">
        <ele>351.5</ele>
        <time>2015-12-19T14:28:10Z</time>
      </trkpt>
      <trkpt lat="45.78477" lon="4.68314">
        <ele>353.42</ele>
        <time>2015-12-19T14:28:19Z</time>
      </trkpt>
      <trkpt lat="45.78473" lon="4.68314">
        <ele>353.42</ele>
        <time>2015-12-19T14:28:22Z</time>
      </trkpt>
      <trkpt lat="45.7847" lon="4.68314">
        <ele>353.42</ele>
        <time>2015-12-19T14:28:38Z</time>
      </trkpt>
      <trkpt lat="45.7847" lon="4.68317">
        <ele>353.9</ele>
        <time>2015-12-19T14:28:57Z</time>
      </trkpt>
      <trkpt lat="45.7847" lon="4.68317">
        <ele>353.42</ele>
        <time>2015-12-19T14:29:22Z</time>
      </trkpt>
      <trkpt lat="45.78471" lon="4.68317">
        <ele>353.42</ele>
        <time>2015-12-19T14:29:56Z</time>
      </trkpt>
      <trkpt lat="45.78471" lon="4.68317">
        <ele>352.94</ele>
        <time>2015-12-19T14:30:31Z</time>
      </trkpt>
      <trkpt lat="45.78471" lon="4.68318">
        <ele>353.42</ele>
        <time>2015-12-19T14:31:05Z</time>
      </trkpt>
      <trkpt lat="45.78471" lon="4.68318">
        <ele>353.9</ele>
        <time>2015-12-19T14:31:33Z</time>
      </trkpt>
      <trkpt lat="45.7847" lon="4.68317">
        <ele>353.42</ele>
        <time>2015-12-19T14:32:05Z</time>
      </trkpt>
      <trkpt lat="45.7847" lon="4.68318">
        <ele>353.9</ele>
        <time>2015-12-19T14:32:23Z</time>
      </trkpt>
      <trkpt lat="45.78469" lon="4.6832">
        <ele>353.42</ele>
        <time>2015-12-19T14:32:26Z</time>
      </trkpt>
      <trkpt lat="45.78469" lon="4.6833">
        <ele>352.94</ele>
        <time>2015-12-19T14:32:30Z</time>
      </trkpt>
      <trkpt lat="45.78478" lon="4.68362">
        <ele>350.54</ele>
        <time>2015-12-19T14:32:38Z</time>
      </trkpt>
      <trkpt lat="45.78485" lon="4.68371">
        <ele>349.58</ele>
        <time>2015-12-19T14:32:40Z</time>
      </trkpt>
      <trkpt lat="45.78489" lon="4.68375">
        <ele>349.58</ele>
        <time>2015-12-19T14:32:41Z</time>
      </trkpt>
      <trkpt lat="45.785" lon="4.6839">
        <ele>347.65</ele>
        <time>2015-12-19T14:32:45Z</time>
      </trkpt>
      <trkpt lat="45.78511" lon="4.68403">
        <ele>345.73</ele>
        <time>2015-12-19T14:32:50Z</time>
      </trkpt>
      <trkpt lat="45.78519" lon="4.68415">
        <ele>343.33</ele>
        <time>2015-12-19T14:32:54Z</time>
      </trkpt>
      <trkpt lat="45.78523" lon="4.6842">
        <ele>342.85</ele>
        <time>2015-12-19T14:32:56Z</time>
      </trkpt>
      <trkpt lat="45.78526" lon="4.68421">
        <ele>342.85</ele>
        <time>2015-12-19T14:32:57Z</time>
      </trkpt>
      <trkpt lat="45.78529" lon="4.68423">
        <ele>341.41</ele>
        <time>2015-12-19T14:32:59Z</time>
      </trkpt>
      <trkpt lat="45.7853" lon="4.68425">
        <ele>341.89</ele>
        <time>2015-12-19T14:33:00Z</time>
      </trkpt>
      <trkpt lat="45.7853" lon="4.68427">
        <ele>341.41</ele>
        <time>2015-12-19T14:33:01Z</time>
      </trkpt>
      <trkpt lat="45.7853" lon="4.68429">
        <ele>340.92</ele>
        <time>2015-12-19T14:33:02Z</time>
      </trkpt>
      <trkpt lat="45.78525" lon="4.6844">
        <ele>338.04</ele>
        <time>2015-12-19T14:33:09Z</time>
      </trkpt>
      <trkpt lat="45.78519" lon="4.68446">
        <ele>336.6</ele>
        <time>2015-12-19T14:33:20Z</time>
      </trkpt>
      <trkpt lat="45.78506" lon="4.68474">
        <ele>336.12</ele>
        <time>2015-12-19T14:33:29Z</time>
      </trkpt>
      <trkpt lat="45.78506" lon="4.6848">
        <ele>336.12</ele>
        <time>2015-12-19T14:33:30Z</time>
      </trkpt>
      <trkpt lat="45.78508" lon="4.68486">
        <ele>336.12</ele>
        <time>2015-12-19T14:33:31Z</time>
      </trkpt>
      <trkpt lat="45.78511" lon="4.68491">
        <ele>336.12</ele>
        <time>2015-12-19T14:33:32Z</time>
      </trkpt>
      <trkpt lat="45.78514" lon="4.68497">
        <ele>336.12</ele>
        <time>2015-12-19T14:33:33Z</time>
      </trkpt>
      <trkpt lat="45.78516" lon="4.68502">
        <ele>336.6</ele>
        <time>2015-12-19T14:33:34Z</time>
      </trkpt>
      <trkpt lat="45.78518" lon="4.68508">
        <ele>336.6</ele>
        <time>2015-12-19T14:33:35Z</time>
      </trkpt>
      <trkpt lat="45.78523" lon="4.68523">
        <ele>337.56</ele>
        <time>2015-12-19T14:33:38Z</time>
      </trkpt>
      <trkpt lat="45.78532" lon="4.68561">
        <ele>339.96</ele>
        <time>2015-12-19T14:33:50Z</time>
      </trkpt>
      <trkpt lat="45.78535" lon="4.6857">
        <ele>339.48</ele>
        <time>2015-12-19T14:33:55Z</time>
      </trkpt>
      <trkpt lat="45.78536" lon="4.68571">
        <ele>340.44</ele>
        <time>2015-12-19T14:34:05Z</time>
      </trkpt>
      <trkpt lat="45.78536" lon="4.68571">
        <ele>339.96</ele>
        <time>2015-12-19T14:34:34Z</time>
      </trkpt>
      <trkpt lat="45.78539" lon="4.68573">
        <ele>339.48</ele>
        <time>2015-12-19T14:35:04Z</time>
      </trkpt>
      <trkpt lat="45.78546" lon="4.6858">
        <ele>338.52</ele>
        <time>2015-12-19T14:35:17Z</time>
      </trkpt>
      <trkpt lat="45.78546" lon="4.6858">
        <ele>337.08</ele>
        <time>2015-12-19T14:35:47Z</time>
      </trkpt>
      <trkpt lat="45.78546" lon="4.6858">
        <ele>337.56</ele>
        <time>2015-12-19T14:36:10Z</time>
      </trkpt>
      <trkpt lat="45.78546" lon="4.68578">
        <ele>339</ele>
        <time>2015-12-19T14:36:23Z</time>
      </trkpt>
      <trkpt lat="45.78546" lon="4.68577">
        <ele>338.52</ele>
        <time>2015-12-19T14:36:35Z</time>
      </trkpt>
      <trkpt lat="45.78546" lon="4.68577">
        <ele>338.04</ele>
        <time>2015-12-19T14:37:13Z</time>
      </trkpt>
      <trkpt lat="45.78547" lon="4.68578">
        <ele>338.52</ele>
        <time>2015-12-19T14:37:28Z</time>
      </trkpt>
      <trkpt lat="45.78548" lon="4.68579">
        <ele>338.04</ele>
        <time>2015-12-19T14:37:34Z</time>
      </trkpt>
      <trkpt lat="45.7855" lon="4.68581">
        <ele>338.52</ele>
        <time>2015-12-19T14:37:35Z</time>
      </trkpt>
      <trkpt lat="45.78558" lon="4.68584">
        <ele>336.6</ele>
        <time>2015-12-19T14:37:38Z</time>
      </trkpt>
      <trkpt lat="45.7858" lon="4.68595">
        <ele>334.68</ele>
        <time>2015-12-19T14:37:43Z</time>
      </trkpt>
      <trkpt lat="45.78602" lon="4.68606">
        <ele>333.23</ele>
        <time>2015-12-19T14:37:47Z</time>
      </trkpt>
      <trkpt lat="45.78621" lon="4.68618">
        <ele>331.79</ele>
        <time>2015-12-19T14:37:50Z</time>
      </trkpt>
      <trkpt lat="45.78626" lon="4.68623">
        <ele>330.35</ele>
        <time>2015-12-19T14:37:51Z</time>
      </trkpt>
      <trkpt lat="45.78631" lon="4.68629">
        <ele>330.83</ele>
        <time>2015-12-19T14:37:52Z</time>
      </trkpt>
      <trkpt lat="45.78636" lon="4.68635">
        <ele>330.83</ele>
        <time>2015-12-19T14:37:53Z</time>
      </trkpt>
      <trkpt lat="45.7864" lon="4.68642">
        <ele>330.35</ele>
        <time>2015-12-19T14:37:54Z</time>
      </trkpt>
      <trkpt lat="45.78673" lon="4.68694">
        <ele>327.47</ele>
        <time>2015-12-19T14:38:05Z</time>
      </trkpt>
      <trkpt lat="45.78676" lon="4.68693">
        <ele>326.99</ele>
        <time>2015-12-19T14:38:06Z</time>
      </trkpt>
      <trkpt lat="45.78678" lon="4.68691">
        <ele>326.5</ele>
        <time>2015-12-19T14:38:07Z</time>
      </trkpt>
      <trkpt lat="45.78681" lon="4.68688">
        <ele>326.02</ele>
        <time>2015-12-19T14:38:08Z</time>
      </trkpt>
      <trkpt lat="45.78683" lon="4.68685">
        <ele>326.02</ele>
        <time>2015-12-19T14:38:09Z</time>
      </trkpt>
      <trkpt lat="45.78685" lon="4.68682">
        <ele>326.02</ele>
        <time>2015-12-19T14:38:10Z</time>
      </trkpt>
      <trkpt lat="45.78687" lon="4.68678">
        <ele>325.54</ele>
        <time>2015-12-19T14:38:11Z</time>
      </trkpt>
      <trkpt lat="45.787" lon="4.68658">
        <ele>322.18</ele>
        <time>2015-12-19T14:38:17Z</time>
      </trkpt>
      <trkpt lat="45.78723" lon="4.68632">
        <ele>318.81</ele>
        <time>2015-12-19T14:38:26Z</time>
      </trkpt>
      <trkpt lat="45.78734" lon="4.6862">
        <ele>315.93</ele>
        <time>2015-12-19T14:38:29Z</time>
      </trkpt>
      <trkpt lat="45.78736" lon="4.68616">
        <ele>315.93</ele>
        <time>2015-12-19T14:38:30Z</time>
      </trkpt>
      <trkpt lat="45.78736" lon="4.68611">
        <ele>314.97</ele>
        <time>2015-12-19T14:38:31Z</time>
      </trkpt>
      <trkpt lat="45.78734" lon="4.68605">
        <ele>314.01</ele>
        <time>2015-12-19T14:38:32Z</time>
      </trkpt>
      <trkpt lat="45.7873" lon="4.68602">
        <ele>313.53</ele>
        <time>2015-12-19T14:38:33Z</time>
      </trkpt>
      <trkpt lat="45.78726" lon="4.68599">
        <ele>312.57</ele>
        <time>2015-12-19T14:38:34Z</time>
      </trkpt>
      <trkpt lat="45.78723" lon="4.68597">
        <ele>312.09</ele>
        <time>2015-12-19T14:38:35Z</time>
      </trkpt>
      <trkpt lat="45.78721" lon="4.68594">
        <ele>311.12</ele>
        <time>2015-12-19T14:38:36Z</time>
      </trkpt>
      <trkpt lat="45.7872" lon="4.68589">
        <ele>311.12</ele>
        <time>2015-12-19T14:38:37Z</time>
      </trkpt>
      <trkpt lat="45.7872" lon="4.68585">
        <ele>309.68</ele>
        <time>2015-12-19T14:38:38Z</time>
      </trkpt>
      <trkpt lat="45.78723" lon="4.68581">
        <ele>309.68</ele>
        <time>2015-12-19T14:38:39Z</time>
      </trkpt>
      <trkpt lat="45.78727" lon="4.68578">
        <ele>308.72</ele>
        <time>2015-12-19T14:38:40Z</time>
      </trkpt>
      <trkpt lat="45.78732" lon="4.68576">
        <ele>308.24</ele>
        <time>2015-12-19T14:38:41Z</time>
      </trkpt>
      <trkpt lat="45.78737" lon="4.68575">
        <ele>308.24</ele>
        <time>2015-12-19T14:38:42Z</time>
      </trkpt>
      <trkpt lat="45.78757" lon="4.68572">
        <ele>307.28</ele>
        <time>2015-12-19T14:38:45Z</time>
      </trkpt>
      <trkpt lat="45.78764" lon="4.68573">
        <ele>306.8</ele>
        <time>2015-12-19T14:38:46Z</time>
      </trkpt>
      <trkpt lat="45.7877" lon="4.68575">
        <ele>306.32</ele>
        <time>2015-12-19T14:38:47Z</time>
      </trkpt>
      <trkpt lat="45.78776" lon="4.68577">
        <ele>307.28</ele>
        <time>2015-12-19T14:38:48Z</time>
      </trkpt>
      <trkpt lat="45.7878" lon="4.6858">
        <ele>307.76</ele>
        <time>2015-12-19T14:38:49Z</time>
      </trkpt>
      <trkpt lat="45.78783" lon="4.68583">
        <ele>308.72</ele>
        <time>2015-12-19T14:38:50Z</time>
      </trkpt>
      <trkpt lat="45.78786" lon="4.68586">
        <ele>308.72</ele>
        <time>2015-12-19T14:38:51Z</time>
      </trkpt>
      <trkpt lat="45.78788" lon="4.68588">
        <ele>309.2</ele>
        <time>2015-12-19T14:38:52Z</time>
      </trkpt>
      <trkpt lat="45.7879" lon="4.6859">
        <ele>309.2</ele>
        <time>2015-12-19T14:38:53Z</time>
      </trkpt>
      <trkpt lat="45.78792" lon="4.68592">
        <ele>309.2</ele>
        <time>2015-12-19T14:38:54Z</time>
      </trkpt>
      <trkpt lat="45.78794" lon="4.68594">
        <ele>309.2</ele>
        <time>2015-12-19T14:38:55Z</time>
      </trkpt>
      <trkpt lat="45.78804" lon="4.68602">
        <ele>311.12</ele>
        <time>2015-12-19T14:39:00Z</time>
      </trkpt>
      <trkpt lat="45.78806" lon="4.68603">
        <ele>310.64</ele>
        <time>2015-12-19T14:39:01Z</time>
      </trkpt>
      <trkpt lat="45.78807" lon="4.68605">
        <ele>311.12</ele>
        <time>2015-12-19T14:39:02Z</time>
      </trkpt>
      <trkpt lat="45.78823" lon="4.68624">
        <ele>314.01</ele>
        <time>2015-12-19T14:39:15Z</time>
      </trkpt>
      <trkpt lat="45.78834" lon="4.68642">
        <ele>317.37</ele>
        <time>2015-12-19T14:39:28Z</time>
      </trkpt>
      <trkpt lat="45.78836" lon="4.68643">
        <ele>317.37</ele>
        <time>2015-12-19T14:39:29Z</time>
      </trkpt>
      <trkpt lat="45.78837" lon="4.68644">
        <ele>317.85</ele>
        <time>2015-12-19T14:39:30Z</time>
      </trkpt>
      <trkpt lat="45.78852" lon="4.68655">
        <ele>321.7</ele>
        <time>2015-12-19T14:39:45Z</time>
      </trkpt>
      <trkpt lat="45.78866" lon="4.68669">
        <ele>323.14</ele>
        <time>2015-12-19T14:40:00Z</time>
      </trkpt>
      <trkpt lat="45.78879" lon="4.68687">
        <ele>324.58</ele>
        <time>2015-12-19T14:40:15Z</time>
      </trkpt>
      <trkpt lat="45.78888" lon="4.68702">
        <ele>326.02</ele>
        <time>2015-12-19T14:40:26Z</time>
      </trkpt>
      <trkpt lat="45.78906" lon="4.68721">
        <ele>328.43</ele>
        <time>2015-12-19T14:40:40Z</time>
      </trkpt>
      <trkpt lat="45.78907" lon="4.68723">
        <ele>328.43</ele>
        <time>2015-12-19T14:40:41Z</time>
      </trkpt>
      <trkpt lat="45.78909" lon="4.68723">
        <ele>327.95</ele>
        <time>2015-12-19T14:40:42Z</time>
      </trkpt>
      <trkpt lat="45.7891" lon="4.68725">
        <ele>328.91</ele>
        <time>2015-12-19T14:40:43Z</time>
      </trkpt>
      <trkpt lat="45.78911" lon="4.68726">
        <ele>328.43</ele>
        <time>2015-12-19T14:40:44Z</time>
      </trkpt>
      <trkpt lat="45.78913" lon="4.68727">
        <ele>328.43</ele>
        <time>2015-12-19T14:40:45Z</time>
      </trkpt>
      <trkpt lat="45.78914" lon="4.68728">
        <ele>329.39</ele>
        <time>2015-12-19T14:40:46Z</time>
      </trkpt>
      <trkpt lat="45.78915" lon="4.6873">
        <ele>328.91</ele>
        <time>2015-12-19T14:40:47Z</time>
      </trkpt>
      <trkpt lat="45.78916" lon="4.68731">
        <ele>328.91</ele>
        <time>2015-12-19T14:40:48Z</time>
      </trkpt>
      <trkpt lat="45.78917" lon="4.68733">
        <ele>328.91</ele>
        <time>2015-12-19T14:40:49Z</time>
      </trkpt>
      <trkpt lat="45.78931" lon="4.68756">
        <ele>330.83</ele>
        <time>2015-12-19T14:41:03Z</time>
      </trkpt>
      <trkpt lat="45.78952" lon="4.68768">
        <ele>332.27</ele>
        <time>2015-12-19T14:41:18Z</time>
      </trkpt>
      <trkpt lat="45.78972" lon="4.68772">
        <ele>334.68</ele>
        <time>2015-12-19T14:41:32Z</time>
      </trkpt>
      <trkpt lat="45.78998" lon="4.68786">
        <ele>335.64</ele>
        <time>2015-12-19T14:41:44Z</time>
      </trkpt>
      <trkpt lat="45.7903" lon="4.68799">
        <ele>335.16</ele>
        <time>2015-12-19T14:41:54Z</time>
      </trkpt>
      <trkpt lat="45.79035" lon="4.68799">
        <ele>335.16</ele>
        <time>2015-12-19T14:41:55Z</time>
      </trkpt>
      <trkpt lat="45.79039" lon="4.68797">
        <ele>334.68</ele>
        <time>2015-12-19T14:41:56Z</time>
      </trkpt>
      <trkpt lat="45.79042" lon="4.68795">
        <ele>334.68</ele>
        <time>2015-12-19T14:41:57Z</time>
      </trkpt>
      <trkpt lat="45.79045" lon="4.68791">
        <ele>335.16</ele>
        <time>2015-12-19T14:41:58Z</time>
      </trkpt>
      <trkpt lat="45.79048" lon="4.68786">
        <ele>335.64</ele>
        <time>2015-12-19T14:41:59Z</time>
      </trkpt>
      <trkpt lat="45.79051" lon="4.68781">
        <ele>335.64</ele>
        <time>2015-12-19T14:42:00Z</time>
      </trkpt>
      <trkpt lat="45.79054" lon="4.68776">
        <ele>335.64</ele>
        <time>2015-12-19T14:42:01Z</time>
      </trkpt>
      <trkpt lat="45.7908" lon="4.68734">
        <ele>335.64</ele>
        <time>2015-12-19T14:42:12Z</time>
      </trkpt>
      <trkpt lat="45.79098" lon="4.68717">
        <ele>334.2</ele>
        <time>2015-12-19T14:42:16Z</time>
      </trkpt>
      <trkpt lat="45.79116" lon="4.68697">
        <ele>333.71</ele>
        <time>2015-12-19T14:42:20Z</time>
      </trkpt>
      <trkpt lat="45.79126" lon="4.68689">
        <ele>331.31</ele>
        <time>2015-12-19T14:42:22Z</time>
      </trkpt>
      <trkpt lat="45.79137" lon="4.6867">
        <ele>328.43</ele>
        <time>2015-12-19T14:42:26Z</time>
      </trkpt>
      <trkpt lat="45.79143" lon="4.68651">
        <ele>325.54</ele>
        <time>2015-12-19T14:42:30Z</time>
      </trkpt>
      <trkpt lat="45.79147" lon="4.68641">
        <ele>323.62</ele>
        <time>2015-12-19T14:42:32Z</time>
      </trkpt>
      <trkpt lat="45.79148" lon="4.68636">
        <ele>323.14</ele>
        <time>2015-12-19T14:42:33Z</time>
      </trkpt>
      <trkpt lat="45.7915" lon="4.68631">
        <ele>322.66</ele>
        <time>2015-12-19T14:42:34Z</time>
      </trkpt>
      <trkpt lat="45.79151" lon="4.68625">
        <ele>322.18</ele>
        <time>2015-12-19T14:42:35Z</time>
      </trkpt>
      <trkpt lat="45.79153" lon="4.68619">
        <ele>322.18</ele>
        <time>2015-12-19T14:42:36Z</time>
      </trkpt>
      <trkpt lat="45.79155" lon="4.68612">
        <ele>321.7</ele>
        <time>2015-12-19T14:42:37Z</time>
      </trkpt>
      <trkpt lat="45.79156" lon="4.68606">
        <ele>321.22</ele>
        <time>2015-12-19T14:42:38Z</time>
      </trkpt>
      <trkpt lat="45.79159" lon="4.68591">
        <ele>320.74</ele>
        <time>2015-12-19T14:42:41Z</time>
      </trkpt>
      <trkpt lat="45.7916" lon="4.68587">
        <ele>320.74</ele>
        <time>2015-12-19T14:42:42Z</time>
      </trkpt>
      <trkpt lat="45.79161" lon="4.68586">
        <ele>320.26</ele>
        <time>2015-12-19T14:42:52Z</time>
      </trkpt>
      <trkpt lat="45.79162" lon="4.68578">
        <ele>321.22</ele>
        <time>2015-12-19T14:42:57Z</time>
      </trkpt>
      <trkpt lat="45.79163" lon="4.68574">
        <ele>321.22</ele>
        <time>2015-12-19T14:42:58Z</time>
      </trkpt>
      <trkpt lat="45.79162" lon="4.68571">
        <ele>320.74</ele>
        <time>2015-12-19T14:42:59Z</time>
      </trkpt>
      <trkpt lat="45.79163" lon="4.68567">
        <ele>321.22</ele>
        <time>2015-12-19T14:43:00Z</time>
      </trkpt>
      <trkpt lat="45.79163" lon="4.68564">
        <ele>321.22</ele>
        <time>2015-12-19T14:43:01Z</time>
      </trkpt>
      <trkpt lat="45.79164" lon="4.68558">
        <ele>320.74</ele>
        <time>2015-12-19T14:43:03Z</time>
      </trkpt>
      <trkpt lat="45.79164" lon="4.68554">
        <ele>321.7</ele>
        <time>2015-12-19T14:43:04Z</time>
      </trkpt>
      <trkpt lat="45.79165" lon="4.68551">
        <ele>321.7</ele>
        <time>2015-12-19T14:43:05Z</time>
      </trkpt>
      <trkpt lat="45.79165" lon="4.68548">
        <ele>321.22</ele>
        <time>2015-12-19T14:43:06Z</time>
      </trkpt>
      <trkpt lat="45.79166" lon="4.68545">
        <ele>321.22</ele>
        <time>2015-12-19T14:43:07Z</time>
      </trkpt>
      <trkpt lat="45.79167" lon="4.68543">
        <ele>321.22</ele>
        <time>2015-12-19T14:43:08Z</time>
      </trkpt>
      <trkpt lat="45.79168" lon="4.6854">
        <ele>321.22</ele>
        <time>2015-12-19T14:43:09Z</time>
      </trkpt>
      <trkpt lat="45.79168" lon="4.68537">
        <ele>321.22</ele>
        <time>2015-12-19T14:43:11Z</time>
      </trkpt>
      <trkpt lat="45.79169" lon="4.68535">
        <ele>321.22</ele>
        <time>2015-12-19T14:43:12Z</time>
      </trkpt>
      <trkpt lat="45.79169" lon="4.68523">
        <ele>322.18</ele>
        <time>2015-12-19T14:43:21Z</time>
      </trkpt>
      <trkpt lat="45.7917" lon="4.6852">
        <ele>322.66</ele>
        <time>2015-12-19T14:43:22Z</time>
      </trkpt>
      <trkpt lat="45.79177" lon="4.68489">
        <ele>322.66</ele>
        <time>2015-12-19T14:43:31Z</time>
      </trkpt>
      <trkpt lat="45.79182" lon="4.68476">
        <ele>322.66</ele>
        <time>2015-12-19T14:43:35Z</time>
      </trkpt>
      <trkpt lat="45.79183" lon="4.68473">
        <ele>322.66</ele>
        <time>2015-12-19T14:43:36Z</time>
      </trkpt>
      <trkpt lat="45.79184" lon="4.6847">
        <ele>322.18</ele>
        <time>2015-12-19T14:43:37Z</time>
      </trkpt>
      <trkpt lat="45.79185" lon="4.68466">
        <ele>322.18</ele>
        <time>2015-12-19T14:43:38Z</time>
      </trkpt>
      <trkpt lat="45.79187" lon="4.68462">
        <ele>321.7</ele>
        <time>2015-12-19T14:43:39Z</time>
      </trkpt>
      <trkpt lat="45.79188" lon="4.68458">
        <ele>321.7</ele>
        <time>2015-12-19T14:43:40Z</time>
      </trkpt>
      <trkpt lat="45.79189" lon="4.68453">
        <ele>321.22</ele>
        <time>2015-12-19T14:43:41Z</time>
      </trkpt>
      <trkpt lat="45.79191" lon="4.68448">
        <ele>320.74</ele>
        <time>2015-12-19T14:43:42Z</time>
      </trkpt>
      <trkpt lat="45.79192" lon="4.68444">
        <ele>320.74</ele>
        <time>2015-12-19T14:43:43Z</time>
      </trkpt>
      <trkpt lat="45.79202" lon="4.68419">
        <ele>318.81</ele>
        <time>2015-12-19T14:43:48Z</time>
      </trkpt>
      <trkpt lat="45.79224" lon="4.68379">
        <ele>317.85</ele>
        <time>2015-12-19T14:43:59Z</time>
      </trkpt>
      <trkpt lat="45.7923" lon="4.68372">
        <ele>323.14</ele>
        <time>2015-12-19T14:44:02Z</time>
      </trkpt>
      <trkpt lat="45.79232" lon="4.6837">
        <ele>317.85</ele>
        <time>2015-12-19T14:44:03Z</time>
      </trkpt>
      <trkpt lat="45.79258" lon="4.68361">
        <ele>316.41</ele>
        <time>2015-12-19T14:44:14Z</time>
      </trkpt>
      <trkpt lat="45.79261" lon="4.68361">
        <ele>316.41</ele>
        <time>2015-12-19T14:44:18Z</time>
      </trkpt>
      <trkpt lat="45.79262" lon="4.68361">
        <ele>316.89</ele>
        <time>2015-12-19T14:44:19Z</time>
      </trkpt>
      <trkpt lat="45.79264" lon="4.68361">
        <ele>316.41</ele>
        <time>2015-12-19T14:44:20Z</time>
      </trkpt>
      <trkpt lat="45.79266" lon="4.68361">
        <ele>316.89</ele>
        <time>2015-12-19T14:44:21Z</time>
      </trkpt>
      <trkpt lat="45.79268" lon="4.68361">
        <ele>316.89</ele>
        <time>2015-12-19T14:44:22Z</time>
      </trkpt>
      <trkpt lat="45.7927" lon="4.68362">
        <ele>316.89</ele>
        <time>2015-12-19T14:44:23Z</time>
      </trkpt>
      <trkpt lat="45.79272" lon="4.68363">
        <ele>316.89</ele>
        <time>2015-12-19T14:44:24Z</time>
      </trkpt>
      <trkpt lat="45.79274" lon="4.68365">
        <ele>317.85</ele>
        <time>2015-12-19T14:44:25Z</time>
      </trkpt>
      <trkpt lat="45.79275" lon="4.68365">
        <ele>317.37</ele>
        <time>2015-12-19T14:44:26Z</time>
      </trkpt>
      <trkpt lat="45.79277" lon="4.68365">
        <ele>317.85</ele>
        <time>2015-12-19T14:44:27Z</time>
      </trkpt>
      <trkpt lat="45.79279" lon="4.68366">
        <ele>317.37</ele>
        <time>2015-12-19T14:44:28Z</time>
      </trkpt>
      <trkpt lat="45.7928" lon="4.68366">
        <ele>317.85</ele>
        <time>2015-12-19T14:44:29Z</time>
      </trkpt>
      <trkpt lat="45.79282" lon="4.68367">
        <ele>317.85</ele>
        <time>2015-12-19T14:44:30Z</time>
      </trkpt>
      <trkpt lat="45.79284" lon="4.68369">
        <ele>318.33</ele>
        <time>2015-12-19T14:44:31Z</time>
      </trkpt>
      <trkpt lat="45.79285" lon="4.68369">
        <ele>318.33</ele>
        <time>2015-12-19T14:44:32Z</time>
      </trkpt>
      <trkpt lat="45.79286" lon="4.6837">
        <ele>318.81</ele>
        <time>2015-12-19T14:44:33Z</time>
      </trkpt>
      <trkpt lat="45.79288" lon="4.68371">
        <ele>319.3</ele>
        <time>2015-12-19T14:44:34Z</time>
      </trkpt>
      <trkpt lat="45.7929" lon="4.68372">
        <ele>319.78</ele>
        <time>2015-12-19T14:44:35Z</time>
      </trkpt>
      <trkpt lat="45.79292" lon="4.68373">
        <ele>320.26</ele>
        <time>2015-12-19T14:44:36Z</time>
      </trkpt>
      <trkpt lat="45.79293" lon="4.68375">
        <ele>320.26</ele>
        <time>2015-12-19T14:44:37Z</time>
      </trkpt>
      <trkpt lat="45.79294" lon="4.68377">
        <ele>320.74</ele>
        <time>2015-12-19T14:44:38Z</time>
      </trkpt>
      <trkpt lat="45.79301" lon="4.68387">
        <ele>322.66</ele>
        <time>2015-12-19T14:44:44Z</time>
      </trkpt>
      <trkpt lat="45.793" lon="4.68393">
        <ele>323.62</ele>
        <time>2015-12-19T14:44:47Z</time>
      </trkpt>
      <trkpt lat="45.79299" lon="4.68404">
        <ele>324.1</ele>
        <time>2015-12-19T14:44:57Z</time>
      </trkpt>
      <trkpt lat="45.793" lon="4.68409">
        <ele>325.54</ele>
        <time>2015-12-19T14:45:10Z</time>
      </trkpt>
      <trkpt lat="45.79302" lon="4.68411">
        <ele>325.54</ele>
        <time>2015-12-19T14:45:33Z</time>
      </trkpt>
      <trkpt lat="45.79305" lon="4.68418">
        <ele>326.5</ele>
        <time>2015-12-19T14:45:39Z</time>
      </trkpt>
      <trkpt lat="45.79305" lon="4.6842">
        <ele>326.02</ele>
        <time>2015-12-19T14:45:40Z</time>
      </trkpt>
      <trkpt lat="45.79306" lon="4.68425">
        <ele>326.99</ele>
        <time>2015-12-19T14:45:44Z</time>
      </trkpt>
      <trkpt lat="45.79307" lon="4.6843">
        <ele>327.47</ele>
        <time>2015-12-19T14:45:47Z</time>
      </trkpt>
      <trkpt lat="45.79308" lon="4.68431">
        <ele>327.47</ele>
        <time>2015-12-19T14:45:48Z</time>
      </trkpt>
      <trkpt lat="45.79309" lon="4.68434">
        <ele>327.95</ele>
        <time>2015-12-19T14:45:50Z</time>
      </trkpt>
      <trkpt lat="45.7931" lon="4.68436">
        <ele>328.43</ele>
        <time>2015-12-19T14:45:51Z</time>
      </trkpt>
      <trkpt lat="45.79312" lon="4.68441">
        <ele>328.43</ele>
        <time>2015-12-19T14:45:54Z</time>
      </trkpt>
      <trkpt lat="45.79313" lon="4.68443">
        <ele>328.43</ele>
        <time>2015-12-19T14:45:55Z</time>
      </trkpt>
      <trkpt lat="45.79313" lon="4.68445">
        <ele>329.39</ele>
        <time>2015-12-19T14:45:56Z</time>
      </trkpt>
      <trkpt lat="45.79314" lon="4.68448">
        <ele>329.87</ele>
        <time>2015-12-19T14:45:58Z</time>
      </trkpt>
      <trkpt lat="45.79315" lon="4.6845">
        <ele>330.35</ele>
        <time>2015-12-19T14:45:59Z</time>
      </trkpt>
      <trkpt lat="45.79315" lon="4.68451">
        <ele>329.87</ele>
        <time>2015-12-19T14:46:00Z</time>
      </trkpt>
      <trkpt lat="45.79317" lon="4.68452">
        <ele>329.87</ele>
        <time>2015-12-19T14:46:01Z</time>
      </trkpt>
      <trkpt lat="45.79323" lon="4.6846">
        <ele>330.83</ele>
        <time>2015-12-19T14:46:09Z</time>
      </trkpt>
      <trkpt lat="45.79324" lon="4.68461">
        <ele>331.31</ele>
        <time>2015-12-19T14:46:10Z</time>
      </trkpt>
      <trkpt lat="45.79324" lon="4.68462">
        <ele>331.31</ele>
        <time>2015-12-19T14:46:11Z</time>
      </trkpt>
      <trkpt lat="45.79329" lon="4.6847">
        <ele>332.75</ele>
        <time>2015-12-19T14:46:18Z</time>
      </trkpt>
      <trkpt lat="45.79332" lon="4.68474">
        <ele>333.71</ele>
        <time>2015-12-19T14:46:22Z</time>
      </trkpt>
      <trkpt lat="45.79339" lon="4.68485">
        <ele>334.68</ele>
        <time>2015-12-19T14:46:31Z</time>
      </trkpt>
      <trkpt lat="45.7934" lon="4.68486">
        <ele>335.16</ele>
        <time>2015-12-19T14:46:32Z</time>
      </trkpt>
      <trkpt lat="45.79341" lon="4.68487">
        <ele>335.16</ele>
        <time>2015-12-19T14:46:33Z</time>
      </trkpt>
      <trkpt lat="45.79343" lon="4.68491">
        <ele>336.12</ele>
        <time>2015-12-19T14:46:36Z</time>
      </trkpt>
      <trkpt lat="45.79344" lon="4.68493">
        <ele>335.16</ele>
        <time>2015-12-19T14:46:37Z</time>
      </trkpt>
      <trkpt lat="45.79345" lon="4.68494">
        <ele>335.64</ele>
        <time>2015-12-19T14:46:38Z</time>
      </trkpt>
      <trkpt lat="45.79346" lon="4.68496">
        <ele>336.12</ele>
        <time>2015-12-19T14:46:39Z</time>
      </trkpt>
      <trkpt lat="45.79346" lon="4.68497">
        <ele>336.12</ele>
        <time>2015-12-19T14:46:40Z</time>
      </trkpt>
      <trkpt lat="45.79346" lon="4.68499">
        <ele>336.12</ele>
        <time>2015-12-19T14:46:41Z</time>
      </trkpt>
      <trkpt lat="45.79352" lon="4.68507">
        <ele>337.08</ele>
        <time>2015-12-19T14:46:47Z</time>
      </trkpt>
      <trkpt lat="45.79353" lon="4.68508">
        <ele>337.56</ele>
        <time>2015-12-19T14:46:48Z</time>
      </trkpt>
      <trkpt lat="45.79354" lon="4.68509">
        <ele>337.08</ele>
        <time>2015-12-19T14:46:49Z</time>
      </trkpt>
      <trkpt lat="45.79355" lon="4.68511">
        <ele>337.56</ele>
        <time>2015-12-19T14:46:50Z</time>
      </trkpt>
      <trkpt lat="45.79356" lon="4.68512">
        <ele>337.56</ele>
        <time>2015-12-19T14:46:51Z</time>
      </trkpt>
      <trkpt lat="45.79369" lon="4.68525">
        <ele>339</ele>
        <time>2015-12-19T14:47:04Z</time>
      </trkpt>
      <trkpt lat="45.79391" lon="4.68544">
        <ele>339.96</ele>
        <time>2015-12-19T14:47:19Z</time>
      </trkpt>
      <trkpt lat="45.79422" lon="4.68568">
        <ele>340.44</ele>
        <time>2015-12-19T14:47:34Z</time>
      </trkpt>
      <trkpt lat="45.79454" lon="4.68583">
        <ele>341.41</ele>
        <time>2015-12-19T14:47:45Z</time>
      </trkpt>
      <trkpt lat="45.79489" lon="4.68601">
        <ele>342.85</ele>
        <time>2015-12-19T14:48:01Z</time>
      </trkpt>
      <trkpt lat="45.79518" lon="4.68619">
        <ele>343.33</ele>
        <time>2015-12-19T14:48:14Z</time>
      </trkpt>
      <trkpt lat="45.7954" lon="4.68634">
        <ele>342.37</ele>
        <time>2015-12-19T14:48:25Z</time>
      </trkpt>
      <trkpt lat="45.79541" lon="4.68636">
        <ele>341.89</ele>
        <time>2015-12-19T14:48:39Z</time>
      </trkpt>
      <trkpt lat="45.79542" lon="4.68637">
        <ele>341.41</ele>
        <time>2015-12-19T14:48:56Z</time>
      </trkpt>
      <trkpt lat="45.79542" lon="4.68639">
        <ele>341.89</ele>
        <time>2015-12-19T14:48:57Z</time>
      </trkpt>
      <trkpt lat="45.79542" lon="4.68642">
        <ele>341.89</ele>
        <time>2015-12-19T14:48:58Z</time>
      </trkpt>
      <trkpt lat="45.7954" lon="4.68646">
        <ele>341.89</ele>
        <time>2015-12-19T14:48:59Z</time>
      </trkpt>
      <trkpt lat="45.79539" lon="4.6865">
        <ele>341.41</ele>
        <time>2015-12-19T14:49:00Z</time>
      </trkpt>
      <trkpt lat="45.7953" lon="4.68668">
        <ele>341.41</ele>
        <time>2015-12-19T14:49:04Z</time>
      </trkpt>
      <trkpt lat="45.79527" lon="4.68674">
        <ele>340.92</ele>
        <time>2015-12-19T14:49:05Z</time>
      </trkpt>
      <trkpt lat="45.79525" lon="4.68679">
        <ele>340.92</ele>
        <time>2015-12-19T14:49:06Z</time>
      </trkpt>
      <trkpt lat="45.79508" lon="4.68715">
        <ele>339.48</ele>
        <time>2015-12-19T14:49:12Z</time>
      </trkpt>
      <trkpt lat="45.79505" lon="4.68721">
        <ele>339</ele>
        <time>2015-12-19T14:49:13Z</time>
      </trkpt>
      <trkpt lat="45.79483" lon="4.68805">
        <ele>337.56</ele>
        <time>2015-12-19T14:49:25Z</time>
      </trkpt>
      <trkpt lat="45.79477" lon="4.68873">
        <ele>336.6</ele>
        <time>2015-12-19T14:49:37Z</time>
      </trkpt>
      <trkpt lat="45.79476" lon="4.68879">
        <ele>336.12</ele>
        <time>2015-12-19T14:49:38Z</time>
      </trkpt>
      <trkpt lat="45.79475" lon="4.68891">
        <ele>335.16</ele>
        <time>2015-12-19T14:49:40Z</time>
      </trkpt>
      <trkpt lat="45.79472" lon="4.68912">
        <ele>335.64</ele>
        <time>2015-12-19T14:49:43Z</time>
      </trkpt>
      <trkpt lat="45.79471" lon="4.68985">
        <ele>334.2</ele>
        <time>2015-12-19T14:49:54Z</time>
      </trkpt>
      <trkpt lat="45.79472" lon="4.68997">
        <ele>333.71</ele>
        <time>2015-12-19T14:49:56Z</time>
      </trkpt>
      <trkpt lat="45.79474" lon="4.69002">
        <ele>333.23</ele>
        <time>2015-12-19T14:49:57Z</time>
      </trkpt>
      <trkpt lat="45.79476" lon="4.69007">
        <ele>332.75</ele>
        <time>2015-12-19T14:49:58Z</time>
      </trkpt>
      <trkpt lat="45.79479" lon="4.6901">
        <ele>333.23</ele>
        <time>2015-12-19T14:49:59Z</time>
      </trkpt>
      <trkpt lat="45.79483" lon="4.69013">
        <ele>333.23</ele>
        <time>2015-12-19T14:50:00Z</time>
      </trkpt>
      <trkpt lat="45.79487" lon="4.69015">
        <ele>332.27</ele>
        <time>2015-12-19T14:50:01Z</time>
      </trkpt>
      <trkpt lat="45.79491" lon="4.69016">
        <ele>332.75</ele>
        <time>2015-12-19T14:50:02Z</time>
      </trkpt>
      <trkpt lat="45.79496" lon="4.69016">
        <ele>331.79</ele>
        <time>2015-12-19T14:50:03Z</time>
      </trkpt>
      <trkpt lat="45.79575" lon="4.69021">
        <ele>328.43</ele>
        <time>2015-12-19T14:50:16Z</time>
      </trkpt>
      <trkpt lat="45.79583" lon="4.69023">
        <ele>327.95</ele>
        <time>2015-12-19T14:50:17Z</time>
      </trkpt>
      <trkpt lat="45.79591" lon="4.69027">
        <ele>327.47</ele>
        <time>2015-12-19T14:50:18Z</time>
      </trkpt>
      <trkpt lat="45.79599" lon="4.69033">
        <ele>326.99</ele>
        <time>2015-12-19T14:50:19Z</time>
      </trkpt>
      <trkpt lat="45.79607" lon="4.6904">
        <ele>325.54</ele>
        <time>2015-12-19T14:50:20Z</time>
      </trkpt>
      <trkpt lat="45.79615" lon="4.69047">
        <ele>326.5</ele>
        <time>2015-12-19T14:50:21Z</time>
      </trkpt>
      <trkpt lat="45.79621" lon="4.69055">
        <ele>326.02</ele>
        <time>2015-12-19T14:50:22Z</time>
      </trkpt>
      <trkpt lat="45.79627" lon="4.69064">
        <ele>325.54</ele>
        <time>2015-12-19T14:50:23Z</time>
      </trkpt>
      <trkpt lat="45.7966" lon="4.69108">
        <ele>326.02</ele>
        <time>2015-12-19T14:50:29Z</time>
      </trkpt>
      <trkpt lat="45.79666" lon="4.69113">
        <ele>326.5</ele>
        <time>2015-12-19T14:50:30Z</time>
      </trkpt>
      <trkpt lat="45.79754" lon="4.69174">
        <ele>326.99</ele>
        <time>2015-12-19T14:50:45Z</time>
      </trkpt>
      <trkpt lat="45.79782" lon="4.69197">
        <ele>326.5</ele>
        <time>2015-12-19T14:50:50Z</time>
      </trkpt>
      <trkpt lat="45.79787" lon="4.69203">
        <ele>326.02</ele>
        <time>2015-12-19T14:50:51Z</time>
      </trkpt>
      <trkpt lat="45.79792" lon="4.6921">
        <ele>325.54</ele>
        <time>2015-12-19T14:50:52Z</time>
      </trkpt>
      <trkpt lat="45.79797" lon="4.69217">
        <ele>325.54</ele>
        <time>2015-12-19T14:50:53Z</time>
      </trkpt>
      <trkpt lat="45.79801" lon="4.69225">
        <ele>325.54</ele>
        <time>2015-12-19T14:50:54Z</time>
      </trkpt>
      <trkpt lat="45.79805" lon="4.69233">
        <ele>325.06</ele>
        <time>2015-12-19T14:50:55Z</time>
      </trkpt>
      <trkpt lat="45.79854" lon="4.69323">
        <ele>321.7</ele>
        <time>2015-12-19T14:51:06Z</time>
      </trkpt>
      <trkpt lat="45.79917" lon="4.69414">
        <ele>319.3</ele>
        <time>2015-12-19T14:51:18Z</time>
      </trkpt>
      <trkpt lat="45.79926" lon="4.69423">
        <ele>318.81</ele>
        <time>2015-12-19T14:51:20Z</time>
      </trkpt>
      <trkpt lat="45.7993" lon="4.69426">
        <ele>318.33</ele>
        <time>2015-12-19T14:51:21Z</time>
      </trkpt>
      <trkpt lat="45.79933" lon="4.69429">
        <ele>318.81</ele>
        <time>2015-12-19T14:51:22Z</time>
      </trkpt>
      <trkpt lat="45.7994" lon="4.69438">
        <ele>317.85</ele>
        <time>2015-12-19T14:51:24Z</time>
      </trkpt>
      <trkpt lat="45.79942" lon="4.69444">
        <ele>317.85</ele>
        <time>2015-12-19T14:51:25Z</time>
      </trkpt>
      <trkpt lat="45.79943" lon="4.6945">
        <ele>317.85</ele>
        <time>2015-12-19T14:51:26Z</time>
      </trkpt>
      <trkpt lat="45.79943" lon="4.69457">
        <ele>318.33</ele>
        <time>2015-12-19T14:51:27Z</time>
      </trkpt>
      <trkpt lat="45.79943" lon="4.69464">
        <ele>318.33</ele>
        <time>2015-12-19T14:51:28Z</time>
      </trkpt>
      <trkpt lat="45.79942" lon="4.69485">
        <ele>317.37</ele>
        <time>2015-12-19T14:51:31Z</time>
      </trkpt>
      <trkpt lat="45.7994" lon="4.69509">
        <ele>316.89</ele>
        <time>2015-12-19T14:51:34Z</time>
      </trkpt>
      <trkpt lat="45.79925" lon="4.6963">
        <ele>314.97</ele>
        <time>2015-12-19T14:51:49Z</time>
      </trkpt>
      <trkpt lat="45.79924" lon="4.69649">
        <ele>314.01</ele>
        <time>2015-12-19T14:51:53Z</time>
      </trkpt>
      <trkpt lat="45.79925" lon="4.69652">
        <ele>314.49</ele>
        <time>2015-12-19T14:51:54Z</time>
      </trkpt>
      <trkpt lat="45.79925" lon="4.69657">
        <ele>314.01</ele>
        <time>2015-12-19T14:51:55Z</time>
      </trkpt>
      <trkpt lat="45.79924" lon="4.69695">
        <ele>313.05</ele>
        <time>2015-12-19T14:52:01Z</time>
      </trkpt>
      <trkpt lat="45.79923" lon="4.69708">
        <ele>313.53</ele>
        <time>2015-12-19T14:52:03Z</time>
      </trkpt>
      <trkpt lat="45.79923" lon="4.69715">
        <ele>313.53</ele>
        <time>2015-12-19T14:52:04Z</time>
      </trkpt>
      <trkpt lat="45.79922" lon="4.6973">
        <ele>313.53</ele>
        <time>2015-12-19T14:52:06Z</time>
      </trkpt>
      <trkpt lat="45.79922" lon="4.69736">
        <ele>313.05</ele>
        <time>2015-12-19T14:52:07Z</time>
      </trkpt>
      <trkpt lat="45.79922" lon="4.69748">
        <ele>312.57</ele>
        <time>2015-12-19T14:52:09Z</time>
      </trkpt>
      <trkpt lat="45.79922" lon="4.69754">
        <ele>312.57</ele>
        <time>2015-12-19T14:52:10Z</time>
      </trkpt>
      <trkpt lat="45.79921" lon="4.6976">
        <ele>312.09</ele>
        <time>2015-12-19T14:52:11Z</time>
      </trkpt>
      <trkpt lat="45.79922" lon="4.69781">
        <ele>312.09</ele>
        <time>2015-12-19T14:52:14Z</time>
      </trkpt>
      <trkpt lat="45.79921" lon="4.69787">
        <ele>312.09</ele>
        <time>2015-12-19T14:52:15Z</time>
      </trkpt>
      <trkpt lat="45.79919" lon="4.69794">
        <ele>311.6</ele>
        <time>2015-12-19T14:52:16Z</time>
      </trkpt>
      <trkpt lat="45.79918" lon="4.698">
        <ele>312.09</ele>
        <time>2015-12-19T14:52:17Z</time>
      </trkpt>
      <trkpt lat="45.79916" lon="4.69806">
        <ele>311.6</ele>
        <time>2015-12-19T14:52:18Z</time>
      </trkpt>
      <trkpt lat="45.79915" lon="4.69813">
        <ele>311.12</ele>
        <time>2015-12-19T14:52:19Z</time>
      </trkpt>
      <trkpt lat="45.79913" lon="4.69821">
        <ele>311.12</ele>
        <time>2015-12-19T14:52:20Z</time>
      </trkpt>
      <trkpt lat="45.7989" lon="4.699">
        <ele>309.2</ele>
        <time>2015-12-19T14:52:29Z</time>
      </trkpt>
      <trkpt lat="45.79884" lon="4.69928">
        <ele>307.28</ele>
        <time>2015-12-19T14:52:32Z</time>
      </trkpt>
      <trkpt lat="45.79884" lon="4.69936">
        <ele>307.76</ele>
        <time>2015-12-19T14:52:33Z</time>
      </trkpt>
      <trkpt lat="45.79882" lon="4.69986">
        <ele>307.28</ele>
        <time>2015-12-19T14:52:39Z</time>
      </trkpt>
      <trkpt lat="45.79884" lon="4.70002">
        <ele>306.32</ele>
        <time>2015-12-19T14:52:41Z</time>
      </trkpt>
      <trkpt lat="45.79887" lon="4.70009">
        <ele>306.8</ele>
        <time>2015-12-19T14:52:42Z</time>
      </trkpt>
      <trkpt lat="45.79897" lon="4.70038">
        <ele>305.84</ele>
        <time>2015-12-19T14:52:46Z</time>
      </trkpt>
      <trkpt lat="45.79901" lon="4.70045">
        <ele>305.84</ele>
        <time>2015-12-19T14:52:47Z</time>
      </trkpt>
      <trkpt lat="45.79915" lon="4.70067">
        <ele>305.84</ele>
        <time>2015-12-19T14:52:51Z</time>
      </trkpt>
      <trkpt lat="45.79918" lon="4.70072">
        <ele>305.84</ele>
        <time>2015-12-19T14:52:52Z</time>
      </trkpt>
      <trkpt lat="45.79924" lon="4.70083">
        <ele>305.84</ele>
        <time>2015-12-19T14:52:54Z</time>
      </trkpt>
      <trkpt lat="45.79949" lon="4.70127">
        <ele>304.88</ele>
        <time>2015-12-19T14:53:06Z</time>
      </trkpt>
      <trkpt lat="45.79951" lon="4.70128">
        <ele>305.36</ele>
        <time>2015-12-19T14:53:07Z</time>
      </trkpt>
      <trkpt lat="45.7998" lon="4.70129">
        <ele>305.36</ele>
        <time>2015-12-19T14:53:18Z</time>
      </trkpt>
      <trkpt lat="45.8002" lon="4.70123">
        <ele>305.84</ele>
        <time>2015-12-19T14:53:28Z</time>
      </trkpt>
      <trkpt lat="45.80052" lon="4.70136">
        <ele>305.36</ele>
        <time>2015-12-19T14:53:37Z</time>
      </trkpt>
      <trkpt lat="45.80078" lon="4.70182">
        <ele>305.84</ele>
        <time>2015-12-19T14:53:47Z</time>
      </trkpt>
      <trkpt lat="45.80097" lon="4.70221">
        <ele>305.84</ele>
        <time>2015-12-19T14:53:54Z</time>
      </trkpt>
      <trkpt lat="45.80102" lon="4.70223">
        <ele>306.32</ele>
        <time>2015-12-19T14:53:55Z</time>
      </trkpt>
      <trkpt lat="45.80105" lon="4.70223">
        <ele>305.84</ele>
        <time>2015-12-19T14:53:56Z</time>
      </trkpt>
      <trkpt lat="45.80155" lon="4.70205">
        <ele>306.8</ele>
        <time>2015-12-19T14:54:07Z</time>
      </trkpt>
      <trkpt lat="45.80184" lon="4.70175">
        <ele>307.28</ele>
        <time>2015-12-19T14:54:17Z</time>
      </trkpt>
      <trkpt lat="45.80203" lon="4.7015">
        <ele>307.76</ele>
        <time>2015-12-19T14:54:24Z</time>
      </trkpt>
      <trkpt lat="45.80241" lon="4.70106">
        <ele>307.76</ele>
        <time>2015-12-19T14:54:36Z</time>
      </trkpt>
      <trkpt lat="45.80253" lon="4.70092">
        <ele>307.28</ele>
        <time>2015-12-19T14:54:40Z</time>
      </trkpt>
      <trkpt lat="45.80255" lon="4.70088">
        <ele>307.76</ele>
        <time>2015-12-19T14:54:41Z</time>
      </trkpt>
      <trkpt lat="45.80262" lon="4.70082">
        <ele>307.76</ele>
        <time>2015-12-19T14:54:43Z</time>
      </trkpt>
      <trkpt lat="45.80267" lon="4.70078">
        <ele>307.76</ele>
        <time>2015-12-19T14:54:44Z</time>
      </trkpt>
      <trkpt lat="45.80271" lon="4.70074">
        <ele>308.24</ele>
        <time>2015-12-19T14:54:45Z</time>
      </trkpt>
      <trkpt lat="45.80275" lon="4.7007">
        <ele>308.24</ele>
        <time>2015-12-19T14:54:46Z</time>
      </trkpt>
      <trkpt lat="45.80279" lon="4.70066">
        <ele>307.76</ele>
        <time>2015-12-19T14:54:47Z</time>
      </trkpt>
      <trkpt lat="45.80304" lon="4.70038">
        <ele>306.8</ele>
        <time>2015-12-19T14:54:53Z</time>
      </trkpt>
      <trkpt lat="45.80308" lon="4.70036">
        <ele>306.8</ele>
        <time>2015-12-19T14:54:54Z</time>
      </trkpt>
      <trkpt lat="45.80313" lon="4.70036">
        <ele>305.84</ele>
        <time>2015-12-19T14:54:55Z</time>
      </trkpt>
      <trkpt lat="45.80316" lon="4.70038">
        <ele>306.8</ele>
        <time>2015-12-19T14:54:56Z</time>
      </trkpt>
      <trkpt lat="45.8032" lon="4.70041">
        <ele>306.8</ele>
        <time>2015-12-19T14:54:57Z</time>
      </trkpt>
      <trkpt lat="45.80324" lon="4.70043">
        <ele>306.32</ele>
        <time>2015-12-19T14:54:58Z</time>
      </trkpt>
      <trkpt lat="45.80328" lon="4.70044">
        <ele>306.32</ele>
        <time>2015-12-19T14:54:59Z</time>
      </trkpt>
      <trkpt lat="45.80333" lon="4.70044">
        <ele>306.32</ele>
        <time>2015-12-19T14:55:00Z</time>
      </trkpt>
      <trkpt lat="45.80338" lon="4.70046">
        <ele>306.32</ele>
        <time>2015-12-19T14:55:01Z</time>
      </trkpt>
      <trkpt lat="45.80375" lon="4.70067">
        <ele>305.36</ele>
        <time>2015-12-19T14:55:08Z</time>
      </trkpt>
      <trkpt lat="45.80381" lon="4.70071">
        <ele>305.36</ele>
        <time>2015-12-19T14:55:09Z</time>
      </trkpt>
      <trkpt lat="45.80386" lon="4.70076">
        <ele>305.36</ele>
        <time>2015-12-19T14:55:10Z</time>
      </trkpt>
      <trkpt lat="45.80409" lon="4.70091">
        <ele>305.36</ele>
        <time>2015-12-19T14:55:14Z</time>
      </trkpt>
      <trkpt lat="45.80415" lon="4.70094">
        <ele>304.88</ele>
        <time>2015-12-19T14:55:15Z</time>
      </trkpt>
      <trkpt lat="45.80477" lon="4.7012">
        <ele>301.99</ele>
        <time>2015-12-19T14:55:24Z</time>
      </trkpt>
      <trkpt lat="45.80484" lon="4.70122">
        <ele>301.99</ele>
        <time>2015-12-19T14:55:25Z</time>
      </trkpt>
      <trkpt lat="45.80498" lon="4.70127">
        <ele>301.51</ele>
        <time>2015-12-19T14:55:27Z</time>
      </trkpt>
      <trkpt lat="45.80505" lon="4.70131">
        <ele>301.03</ele>
        <time>2015-12-19T14:55:28Z</time>
      </trkpt>
      <trkpt lat="45.80512" lon="4.70137">
        <ele>301.03</ele>
        <time>2015-12-19T14:55:29Z</time>
      </trkpt>
      <trkpt lat="45.80518" lon="4.70145">
        <ele>300.07</ele>
        <time>2015-12-19T14:55:30Z</time>
      </trkpt>
      <trkpt lat="45.80523" lon="4.70153">
        <ele>299.59</ele>
        <time>2015-12-19T14:55:31Z</time>
      </trkpt>
      <trkpt lat="45.8053" lon="4.7016">
        <ele>300.07</ele>
        <time>2015-12-19T14:55:32Z</time>
      </trkpt>
      <trkpt lat="45.80536" lon="4.70167">
        <ele>299.11</ele>
        <time>2015-12-19T14:55:33Z</time>
      </trkpt>
      <trkpt lat="45.80544" lon="4.70173">
        <ele>298.63</ele>
        <time>2015-12-19T14:55:34Z</time>
      </trkpt>
      <trkpt lat="45.80555" lon="4.70186">
        <ele>297.67</ele>
        <time>2015-12-19T14:55:36Z</time>
      </trkpt>
      <trkpt lat="45.8056" lon="4.70191">
        <ele>297.67</ele>
        <time>2015-12-19T14:55:37Z</time>
      </trkpt>
      <trkpt lat="45.80566" lon="4.70195">
        <ele>297.18</ele>
        <time>2015-12-19T14:55:38Z</time>
      </trkpt>
      <trkpt lat="45.80574" lon="4.70196">
        <ele>296.7</ele>
        <time>2015-12-19T14:55:39Z</time>
      </trkpt>
      <trkpt lat="45.80581" lon="4.70195">
        <ele>296.7</ele>
        <time>2015-12-19T14:55:40Z</time>
      </trkpt>
      <trkpt lat="45.80588" lon="4.70193">
        <ele>296.22</ele>
        <time>2015-12-19T14:55:41Z</time>
      </trkpt>
      <trkpt lat="45.80595" lon="4.70189">
        <ele>295.74</ele>
        <time>2015-12-19T14:55:42Z</time>
      </trkpt>
      <trkpt lat="45.80667" lon="4.70151">
        <ele>292.86</ele>
        <time>2015-12-19T14:55:52Z</time>
      </trkpt>
      <trkpt lat="45.80706" lon="4.70132">
        <ele>289.01</ele>
        <time>2015-12-19T14:55:57Z</time>
      </trkpt>
      <trkpt lat="45.80718" lon="4.70124">
        <ele>287.09</ele>
        <time>2015-12-19T14:55:59Z</time>
      </trkpt>
      <trkpt lat="45.80723" lon="4.70119">
        <ele>286.13</ele>
        <time>2015-12-19T14:56:00Z</time>
      </trkpt>
      <trkpt lat="45.80725" lon="4.70112">
        <ele>285.65</ele>
        <time>2015-12-19T14:56:01Z</time>
      </trkpt>
      <trkpt lat="45.80726" lon="4.70105">
        <ele>284.21</ele>
        <time>2015-12-19T14:56:02Z</time>
      </trkpt>
      <trkpt lat="45.80725" lon="4.70098">
        <ele>283.73</ele>
        <time>2015-12-19T14:56:03Z</time>
      </trkpt>
      <trkpt lat="45.80722" lon="4.70093">
        <ele>283.25</ele>
        <time>2015-12-19T14:56:04Z</time>
      </trkpt>
      <trkpt lat="45.80718" lon="4.70084">
        <ele>282.28</ele>
        <time>2015-12-19T14:56:06Z</time>
      </trkpt>
      <trkpt lat="45.80717" lon="4.70074">
        <ele>280.84</ele>
        <time>2015-12-19T14:56:09Z</time>
      </trkpt>
      <trkpt lat="45.80718" lon="4.70072">
        <ele>279.88</ele>
        <time>2015-12-19T14:56:10Z</time>
      </trkpt>
      <trkpt lat="45.80723" lon="4.70067">
        <ele>278.92</ele>
        <time>2015-12-19T14:56:12Z</time>
      </trkpt>
      <trkpt lat="45.80725" lon="4.70067">
        <ele>278.44</ele>
        <time>2015-12-19T14:56:13Z</time>
      </trkpt>
      <trkpt lat="45.80727" lon="4.70066">
        <ele>277.48</ele>
        <time>2015-12-19T14:56:14Z</time>
      </trkpt>
      <trkpt lat="45.80729" lon="4.70065">
        <ele>277</ele>
        <time>2015-12-19T14:56:15Z</time>
      </trkpt>
      <trkpt lat="45.80732" lon="4.70064">
        <ele>276.52</ele>
        <time>2015-12-19T14:56:16Z</time>
      </trkpt>
      <trkpt lat="45.80735" lon="4.70063">
        <ele>276.52</ele>
        <time>2015-12-19T14:56:17Z</time>
      </trkpt>
      <trkpt lat="45.8074" lon="4.70061">
        <ele>276.04</ele>
        <time>2015-12-19T14:56:18Z</time>
      </trkpt>
      <trkpt lat="45.80744" lon="4.70061">
        <ele>275.07</ele>
        <time>2015-12-19T14:56:19Z</time>
      </trkpt>
      <trkpt lat="45.80749" lon="4.70062">
        <ele>274.59</ele>
        <time>2015-12-19T14:56:20Z</time>
      </trkpt>
      <trkpt lat="45.80753" lon="4.70063">
        <ele>274.59</ele>
        <time>2015-12-19T14:56:21Z</time>
      </trkpt>
      <trkpt lat="45.80758" lon="4.70064">
        <ele>274.11</ele>
        <time>2015-12-19T14:56:22Z</time>
      </trkpt>
      <trkpt lat="45.80764" lon="4.70064">
        <ele>273.63</ele>
        <time>2015-12-19T14:56:23Z</time>
      </trkpt>
      <trkpt lat="45.80769" lon="4.70066">
        <ele>274.11</ele>
        <time>2015-12-19T14:56:24Z</time>
      </trkpt>
      <trkpt lat="45.80774" lon="4.7007">
        <ele>273.15</ele>
        <time>2015-12-19T14:56:25Z</time>
      </trkpt>
      <trkpt lat="45.80778" lon="4.70074">
        <ele>273.63</ele>
        <time>2015-12-19T14:56:26Z</time>
      </trkpt>
      <trkpt lat="45.80783" lon="4.70078">
        <ele>273.63</ele>
        <time>2015-12-19T14:56:27Z</time>
      </trkpt>
      <trkpt lat="45.80794" lon="4.70086">
        <ele>273.15</ele>
        <time>2015-12-19T14:56:30Z</time>
      </trkpt>
      <trkpt lat="45.80796" lon="4.70087">
        <ele>273.63</ele>
        <time>2015-12-19T14:56:41Z</time>
      </trkpt>
      <trkpt lat="45.80797" lon="4.70091">
        <ele>273.15</ele>
        <time>2015-12-19T14:57:09Z</time>
      </trkpt>
      <trkpt lat="45.80805" lon="4.70119">
        <ele>272.19</ele>
        <time>2015-12-19T14:57:18Z</time>
      </trkpt>
      <trkpt lat="45.80812" lon="4.70159">
        <ele>272.19</ele>
        <time>2015-12-19T14:57:28Z</time>
      </trkpt>
      <trkpt lat="45.80812" lon="4.70208">
        <ele>273.15</ele>
        <time>2015-12-19T14:57:38Z</time>
      </trkpt>
      <trkpt lat="45.80809" lon="4.70234">
        <ele>274.11</ele>
        <time>2015-12-19T14:57:45Z</time>
      </trkpt>
      <trkpt lat="45.80809" lon="4.70237">
        <ele>274.59</ele>
        <time>2015-12-19T14:57:46Z</time>
      </trkpt>
      <trkpt lat="45.80809" lon="4.70241">
        <ele>274.11</ele>
        <time>2015-12-19T14:57:47Z</time>
      </trkpt>
      <trkpt lat="45.80809" lon="4.70244">
        <ele>274.59</ele>
        <time>2015-12-19T14:57:48Z</time>
      </trkpt>
      <trkpt lat="45.80809" lon="4.70249">
        <ele>274.11</ele>
        <time>2015-12-19T14:57:49Z</time>
      </trkpt>
      <trkpt lat="45.80807" lon="4.70255">
        <ele>274.11</ele>
        <time>2015-12-19T14:57:50Z</time>
      </trkpt>
      <trkpt lat="45.80806" lon="4.7026">
        <ele>274.11</ele>
        <time>2015-12-19T14:57:51Z</time>
      </trkpt>
      <trkpt lat="45.80805" lon="4.70265">
        <ele>274.11</ele>
        <time>2015-12-19T14:57:52Z</time>
      </trkpt>
      <trkpt lat="45.80805" lon="4.7027">
        <ele>274.11</ele>
        <time>2015-12-19T14:57:53Z</time>
      </trkpt>
      <trkpt lat="45.80803" lon="4.70276">
        <ele>274.11</ele>
        <time>2015-12-19T14:57:54Z</time>
      </trkpt>
      <trkpt lat="45.80802" lon="4.70289">
        <ele>274.11</ele>
        <time>2015-12-19T14:57:56Z</time>
      </trkpt>
      <trkpt lat="45.80802" lon="4.70294">
        <ele>274.11</ele>
        <time>2015-12-19T14:57:57Z</time>
      </trkpt>
      <trkpt lat="45.80803" lon="4.70298">
        <ele>274.11</ele>
        <time>2015-12-19T14:57:58Z</time>
      </trkpt>
      <trkpt lat="45.80805" lon="4.70301">
        <ele>274.11</ele>
        <time>2015-12-19T14:57:59Z</time>
      </trkpt>
      <trkpt lat="45.80807" lon="4.70303">
        <ele>274.59</ele>
        <time>2015-12-19T14:58:00Z</time>
      </trkpt>
      <trkpt lat="45.8081" lon="4.70304">
        <ele>274.59</ele>
        <time>2015-12-19T14:58:01Z</time>
      </trkpt>
      <trkpt lat="45.80817" lon="4.70312">
        <ele>274.59</ele>
        <time>2015-12-19T14:58:04Z</time>
      </trkpt>
      <trkpt lat="45.80818" lon="4.70319">
        <ele>274.59</ele>
        <time>2015-12-19T14:58:05Z</time>
      </trkpt>
      <trkpt lat="45.80819" lon="4.70324">
        <ele>275.07</ele>
        <time>2015-12-19T14:58:06Z</time>
      </trkpt>
      <trkpt lat="45.8082" lon="4.7033">
        <ele>275.07</ele>
        <time>2015-12-19T14:58:07Z</time>
      </trkpt>
      <trkpt lat="45.80821" lon="4.70335">
        <ele>275.56</ele>
        <time>2015-12-19T14:58:08Z</time>
      </trkpt>
      <trkpt lat="45.80822" lon="4.70339">
        <ele>275.56</ele>
        <time>2015-12-19T14:58:09Z</time>
      </trkpt>
      <trkpt lat="45.80824" lon="4.70342">
        <ele>276.52</ele>
        <time>2015-12-19T14:58:10Z</time>
      </trkpt>
      <trkpt lat="45.80826" lon="4.70344">
        <ele>276.52</ele>
        <time>2015-12-19T14:58:11Z</time>
      </trkpt>
      <trkpt lat="45.80828" lon="4.70346">
        <ele>276.04</ele>
        <time>2015-12-19T14:58:12Z</time>
      </trkpt>
      <trkpt lat="45.8083" lon="4.70348">
        <ele>276.52</ele>
        <time>2015-12-19T14:58:13Z</time>
      </trkpt>
      <trkpt lat="45.80852" lon="4.70363">
        <ele>278.44</ele>
        <time>2015-12-19T14:58:24Z</time>
      </trkpt>
      <trkpt lat="45.80881" lon="4.70361">
        <ele>279.88</ele>
        <time>2015-12-19T14:58:34Z</time>
      </trkpt>
      <trkpt lat="45.80891" lon="4.70338">
        <ele>281.8</ele>
        <time>2015-12-19T14:58:45Z</time>
      </trkpt>
      <trkpt lat="45.80883" lon="4.70324">
        <ele>283.25</ele>
        <time>2015-12-19T14:58:53Z</time>
      </trkpt>
      <trkpt lat="45.80881" lon="4.70321">
        <ele>282.77</ele>
        <time>2015-12-19T14:58:54Z</time>
      </trkpt>
      <trkpt lat="45.8088" lon="4.70317">
        <ele>283.73</ele>
        <time>2015-12-19T14:58:55Z</time>
      </trkpt>
      <trkpt lat="45.80878" lon="4.70314">
        <ele>283.73</ele>
        <time>2015-12-19T14:58:56Z</time>
      </trkpt>
      <trkpt lat="45.80877" lon="4.70311">
        <ele>284.21</ele>
        <time>2015-12-19T14:58:57Z</time>
      </trkpt>
      <trkpt lat="45.80874" lon="4.70308">
        <ele>283.73</ele>
        <time>2015-12-19T14:58:59Z</time>
      </trkpt>
      <trkpt lat="45.80873" lon="4.70306">
        <ele>284.21</ele>
        <time>2015-12-19T14:59:00Z</time>
      </trkpt>
      <trkpt lat="45.80872" lon="4.70305">
        <ele>284.69</ele>
        <time>2015-12-19T14:59:01Z</time>
      </trkpt>
      <trkpt lat="45.80866" lon="4.70291">
        <ele>285.65</ele>
        <time>2015-12-19T14:59:07Z</time>
      </trkpt>
      <trkpt lat="45.80865" lon="4.70289">
        <ele>285.65</ele>
        <time>2015-12-19T14:59:08Z</time>
      </trkpt>
      <trkpt lat="45.80865" lon="4.70286">
        <ele>286.13</ele>
        <time>2015-12-19T14:59:09Z</time>
      </trkpt>
      <trkpt lat="45.80864" lon="4.70284">
        <ele>285.65</ele>
        <time>2015-12-19T14:59:10Z</time>
      </trkpt>
      <trkpt lat="45.80862" lon="4.70283">
        <ele>286.13</ele>
        <time>2015-12-19T14:59:11Z</time>
      </trkpt>
      <trkpt lat="45.80861" lon="4.70281">
        <ele>286.13</ele>
        <time>2015-12-19T14:59:12Z</time>
      </trkpt>
      <trkpt lat="45.80859" lon="4.70278">
        <ele>286.13</ele>
        <time>2015-12-19T14:59:13Z</time>
      </trkpt>
      <trkpt lat="45.80858" lon="4.70276">
        <ele>286.13</ele>
        <time>2015-12-19T14:59:14Z</time>
      </trkpt>
      <trkpt lat="45.80857" lon="4.70272">
        <ele>286.61</ele>
        <time>2015-12-19T14:59:15Z</time>
      </trkpt>
      <trkpt lat="45.80855" lon="4.70269">
        <ele>286.13</ele>
        <time>2015-12-19T14:59:16Z</time>
      </trkpt>
      <trkpt lat="45.80854" lon="4.70266">
        <ele>286.13</ele>
        <time>2015-12-19T14:59:17Z</time>
      </trkpt>
      <trkpt lat="45.80851" lon="4.70227">
        <ele>285.65</ele>
        <time>2015-12-19T14:59:25Z</time>
      </trkpt>
      <trkpt lat="45.80862" lon="4.70153">
        <ele>285.17</ele>
        <time>2015-12-19T14:59:36Z</time>
      </trkpt>
      <trkpt lat="45.80862" lon="4.70099">
        <ele>287.57</ele>
        <time>2015-12-19T14:59:50Z</time>
      </trkpt>
      <trkpt lat="45.80868" lon="4.70055">
        <ele>288.53</ele>
        <time>2015-12-19T15:00:01Z</time>
      </trkpt>
      <trkpt lat="45.8087" lon="4.70053">
        <ele>288.53</ele>
        <time>2015-12-19T15:00:02Z</time>
      </trkpt>
      <trkpt lat="45.80872" lon="4.70052">
        <ele>289.49</ele>
        <time>2015-12-19T15:00:03Z</time>
      </trkpt>
      <trkpt lat="45.80882" lon="4.70052">
        <ele>290.94</ele>
        <time>2015-12-19T15:00:08Z</time>
      </trkpt>
      <trkpt lat="45.80883" lon="4.70051">
        <ele>291.42</ele>
        <time>2015-12-19T15:00:09Z</time>
      </trkpt>
      <trkpt lat="45.80884" lon="4.70051">
        <ele>290.94</ele>
        <time>2015-12-19T15:00:10Z</time>
      </trkpt>
      <trkpt lat="45.80886" lon="4.70051">
        <ele>291.42</ele>
        <time>2015-12-19T15:00:11Z</time>
      </trkpt>
      <trkpt lat="45.80888" lon="4.70051">
        <ele>291.42</ele>
        <time>2015-12-19T15:00:12Z</time>
      </trkpt>
      <trkpt lat="45.80889" lon="4.70052">
        <ele>291.9</ele>
        <time>2015-12-19T15:00:13Z</time>
      </trkpt>
      <trkpt lat="45.80891" lon="4.70052">
        <ele>292.38</ele>
        <time>2015-12-19T15:00:14Z</time>
      </trkpt>
      <trkpt lat="45.80892" lon="4.70053">
        <ele>292.38</ele>
        <time>2015-12-19T15:00:15Z</time>
      </trkpt>
      <trkpt lat="45.809" lon="4.70054">
        <ele>294.3</ele>
        <time>2015-12-19T15:00:20Z</time>
      </trkpt>
      <trkpt lat="45.80901" lon="4.70054">
        <ele>294.3</ele>
        <time>2015-12-19T15:00:21Z</time>
      </trkpt>
      <trkpt lat="45.80903" lon="4.70055">
        <ele>294.3</ele>
        <time>2015-12-19T15:00:22Z</time>
      </trkpt>
      <trkpt lat="45.80904" lon="4.70055">
        <ele>294.3</ele>
        <time>2015-12-19T15:00:23Z</time>
      </trkpt>
      <trkpt lat="45.80906" lon="4.70056">
        <ele>294.3</ele>
        <time>2015-12-19T15:00:24Z</time>
      </trkpt>
      <trkpt lat="45.80923" lon="4.7006">
        <ele>297.67</ele>
        <time>2015-12-19T15:00:36Z</time>
      </trkpt>
      <trkpt lat="45.80944" lon="4.70065">
        <ele>300.07</ele>
        <time>2015-12-19T15:00:51Z</time>
      </trkpt>
      <trkpt lat="45.80963" lon="4.7007">
        <ele>301.99</ele>
        <time>2015-12-19T15:01:06Z</time>
      </trkpt>
      <trkpt lat="45.80983" lon="4.70079">
        <ele>304.88</ele>
        <time>2015-12-19T15:01:21Z</time>
      </trkpt>
      <trkpt lat="45.81008" lon="4.70097">
        <ele>306.8</ele>
        <time>2015-12-19T15:01:37Z</time>
      </trkpt>
      <trkpt lat="45.81029" lon="4.70115">
        <ele>309.2</ele>
        <time>2015-12-19T15:01:51Z</time>
      </trkpt>
      <trkpt lat="45.81056" lon="4.70126">
        <ele>311.6</ele>
        <time>2015-12-19T15:02:06Z</time>
      </trkpt>
      <trkpt lat="45.81066" lon="4.70129">
        <ele>311.6</ele>
        <time>2015-12-19T15:02:12Z</time>
      </trkpt>
      <trkpt lat="45.81068" lon="4.70129">
        <ele>311.6</ele>
        <time>2015-12-19T15:02:13Z</time>
      </trkpt>
      <trkpt lat="45.81094" lon="4.70133">
        <ele>313.05</ele>
        <time>2015-12-19T15:02:27Z</time>
      </trkpt>
      <trkpt lat="45.81121" lon="4.70137">
        <ele>314.49</ele>
        <time>2015-12-19T15:02:42Z</time>
      </trkpt>
      <trkpt lat="45.81153" lon="4.70141">
        <ele>317.37</ele>
        <time>2015-12-19T15:02:58Z</time>
      </trkpt>
      <trkpt lat="45.8118" lon="4.70144">
        <ele>319.3</ele>
        <time>2015-12-19T15:03:11Z</time>
      </trkpt>
      <trkpt lat="45.81213" lon="4.70148">
        <ele>321.22</ele>
        <time>2015-12-19T15:03:27Z</time>
      </trkpt>
      <trkpt lat="45.8124" lon="4.7015">
        <ele>324.1</ele>
        <time>2015-12-19T15:03:40Z</time>
      </trkpt>
      <trkpt lat="45.81272" lon="4.70155">
        <ele>325.54</ele>
        <time>2015-12-19T15:03:56Z</time>
      </trkpt>
      <trkpt lat="45.81303" lon="4.70159">
        <ele>327.47</ele>
        <time>2015-12-19T15:04:12Z</time>
      </trkpt>
      <trkpt lat="45.81333" lon="4.70167">
        <ele>328.43</ele>
        <time>2015-12-19T15:04:26Z</time>
      </trkpt>
      <trkpt lat="45.81346" lon="4.70197">
        <ele>330.35</ele>
        <time>2015-12-19T15:04:37Z</time>
      </trkpt>
      <trkpt lat="45.81358" lon="4.70243">
        <ele>330.83</ele>
        <time>2015-12-19T15:04:50Z</time>
      </trkpt>
      <trkpt lat="45.81369" lon="4.70295">
        <ele>331.31</ele>
        <time>2015-12-19T15:05:04Z</time>
      </trkpt>
      <trkpt lat="45.81377" lon="4.70333">
        <ele>331.31</ele>
        <time>2015-12-19T15:05:15Z</time>
      </trkpt>
      <trkpt lat="45.81398" lon="4.70346">
        <ele>332.27</ele>
        <time>2015-12-19T15:05:26Z</time>
      </trkpt>
      <trkpt lat="45.81428" lon="4.70349">
        <ele>335.16</ele>
        <time>2015-12-19T15:05:41Z</time>
      </trkpt>
      <trkpt lat="45.81458" lon="4.70355">
        <ele>337.56</ele>
        <time>2015-12-19T15:05:57Z</time>
      </trkpt>
      <trkpt lat="45.81482" lon="4.70365">
        <ele>339</ele>
        <time>2015-12-19T15:06:11Z</time>
      </trkpt>
      <trkpt lat="45.81497" lon="4.70373">
        <ele>339.96</ele>
        <time>2015-12-19T15:06:20Z</time>
      </trkpt>
      <trkpt lat="45.81498" lon="4.70374">
        <ele>340.92</ele>
        <time>2015-12-19T15:06:21Z</time>
      </trkpt>
      <trkpt lat="45.81501" lon="4.70376">
        <ele>340.92</ele>
        <time>2015-12-19T15:06:23Z</time>
      </trkpt>
      <trkpt lat="45.81503" lon="4.70377">
        <ele>340.92</ele>
        <time>2015-12-19T15:06:24Z</time>
      </trkpt>
      <trkpt lat="45.81505" lon="4.70378">
        <ele>340.92</ele>
        <time>2015-12-19T15:06:25Z</time>
      </trkpt>
      <trkpt lat="45.81506" lon="4.7038">
        <ele>340.92</ele>
        <time>2015-12-19T15:06:26Z</time>
      </trkpt>
      <trkpt lat="45.81508" lon="4.70381">
        <ele>340.92</ele>
        <time>2015-12-19T15:06:27Z</time>
      </trkpt>
      <trkpt lat="45.81537" lon="4.70375">
        <ele>342.85</ele>
        <time>2015-12-19T15:06:43Z</time>
      </trkpt>
      <trkpt lat="45.81568" lon="4.70376">
        <ele>344.29</ele>
        <time>2015-12-19T15:06:56Z</time>
      </trkpt>
      <trkpt lat="45.81609" lon="4.70401">
        <ele>345.25</ele>
        <time>2015-12-19T15:07:11Z</time>
      </trkpt>
      <trkpt lat="45.81647" lon="4.70426">
        <ele>346.69</ele>
        <time>2015-12-19T15:07:25Z</time>
      </trkpt>
      <trkpt lat="45.81688" lon="4.70446">
        <ele>346.21</ele>
        <time>2015-12-19T15:07:40Z</time>
      </trkpt>
      <trkpt lat="45.81706" lon="4.70454">
        <ele>345.73</ele>
        <time>2015-12-19T15:07:46Z</time>
      </trkpt>
      <trkpt lat="45.81708" lon="4.70457">
        <ele>345.25</ele>
        <time>2015-12-19T15:07:47Z</time>
      </trkpt>
      <trkpt lat="45.8171" lon="4.7046">
        <ele>345.25</ele>
        <time>2015-12-19T15:07:48Z</time>
      </trkpt>
      <trkpt lat="45.81713" lon="4.70463">
        <ele>344.77</ele>
        <time>2015-12-19T15:07:49Z</time>
      </trkpt>
      <trkpt lat="45.81715" lon="4.70465">
        <ele>345.25</ele>
        <time>2015-12-19T15:07:50Z</time>
      </trkpt>
      <trkpt lat="45.81718" lon="4.70465">
        <ele>344.77</ele>
        <time>2015-12-19T15:07:51Z</time>
      </trkpt>
      <trkpt lat="45.8172" lon="4.70465">
        <ele>345.25</ele>
        <time>2015-12-19T15:07:52Z</time>
      </trkpt>
      <trkpt lat="45.81728" lon="4.70463">
        <ele>344.77</ele>
        <time>2015-12-19T15:08:01Z</time>
      </trkpt>
      <trkpt lat="45.81728" lon="4.70463">
        <ele>344.29</ele>
        <time>2015-12-19T15:08:02Z</time>
      </trkpt>
      <trkpt lat="45.81728" lon="4.70461">
        <ele>344.77</ele>
        <time>2015-12-19T15:08:23Z</time>
      </trkpt>
      <trkpt lat="45.81732" lon="4.70465">
        <ele>345.25</ele>
        <time>2015-12-19T15:08:36Z</time>
      </trkpt>
      <trkpt lat="45.81734" lon="4.70465">
        <ele>345.25</ele>
        <time>2015-12-19T15:08:39Z</time>
      </trkpt>
      <trkpt lat="45.81736" lon="4.70465">
        <ele>344.77</ele>
        <time>2015-12-19T15:08:40Z</time>
      </trkpt>
      <trkpt lat="45.81739" lon="4.70466">
        <ele>344.29</ele>
        <time>2015-12-19T15:08:41Z</time>
      </trkpt>
      <trkpt lat="45.81742" lon="4.70466">
        <ele>344.29</ele>
        <time>2015-12-19T15:08:42Z</time>
      </trkpt>
      <trkpt lat="45.81745" lon="4.70467">
        <ele>344.29</ele>
        <time>2015-12-19T15:08:43Z</time>
      </trkpt>
      <trkpt lat="45.81749" lon="4.70468">
        <ele>344.29</ele>
        <time>2015-12-19T15:08:44Z</time>
      </trkpt>
      <trkpt lat="45.81753" lon="4.70469">
        <ele>343.81</ele>
        <time>2015-12-19T15:08:45Z</time>
      </trkpt>
      <trkpt lat="45.81792" lon="4.70483">
        <ele>340.92</ele>
        <time>2015-12-19T15:08:55Z</time>
      </trkpt>
      <trkpt lat="45.81804" lon="4.70486">
        <ele>339.96</ele>
        <time>2015-12-19T15:08:58Z</time>
      </trkpt>
      <trkpt lat="45.81814" lon="4.7049">
        <ele>338.52</ele>
        <time>2015-12-19T15:09:02Z</time>
      </trkpt>
      <trkpt lat="45.81816" lon="4.70493">
        <ele>338.04</ele>
        <time>2015-12-19T15:09:13Z</time>
      </trkpt>
      <trkpt lat="45.81819" lon="4.70496">
        <ele>338.52</ele>
        <time>2015-12-19T15:09:26Z</time>
      </trkpt>
      <trkpt lat="45.81822" lon="4.70496">
        <ele>338.04</ele>
        <time>2015-12-19T15:09:42Z</time>
      </trkpt>
      <trkpt lat="45.81823" lon="4.70496">
        <ele>338.04</ele>
        <time>2015-12-19T15:09:47Z</time>
      </trkpt>
      <trkpt lat="45.81825" lon="4.70496">
        <ele>338.04</ele>
        <time>2015-12-19T15:09:48Z</time>
      </trkpt>
      <trkpt lat="45.81826" lon="4.70497">
        <ele>338.04</ele>
        <time>2015-12-19T15:09:49Z</time>
      </trkpt>
      <trkpt lat="45.81827" lon="4.70498">
        <ele>338.52</ele>
        <time>2015-12-19T15:09:50Z</time>
      </trkpt>
      <trkpt lat="45.81828" lon="4.705">
        <ele>338.04</ele>
        <time>2015-12-19T15:09:51Z</time>
      </trkpt>
      <trkpt lat="45.8183" lon="4.70501">
        <ele>337.56</ele>
        <time>2015-12-19T15:09:52Z</time>
      </trkpt>
      <trkpt lat="45.81832" lon="4.70502">
        <ele>338.04</ele>
        <time>2015-12-19T15:09:53Z</time>
      </trkpt>
      <trkpt lat="45.81834" lon="4.70503">
        <ele>338.04</ele>
        <time>2015-12-19T15:09:54Z</time>
      </trkpt>
      <trkpt lat="45.81837" lon="4.70504">
        <ele>338.04</ele>
        <time>2015-12-19T15:09:55Z</time>
      </trkpt>
      <trkpt lat="45.8184" lon="4.70506">
        <ele>338.04</ele>
        <time>2015-12-19T15:09:56Z</time>
      </trkpt>
      <trkpt lat="45.8185" lon="4.70512">
        <ele>337.56</ele>
        <time>2015-12-19T15:09:59Z</time>
      </trkpt>
      <trkpt lat="45.81854" lon="4.70513">
        <ele>337.08</ele>
        <time>2015-12-19T15:10:00Z</time>
      </trkpt>
      <trkpt lat="45.81891" lon="4.70522">
        <ele>333.23</ele>
        <time>2015-12-19T15:10:06Z</time>
      </trkpt>
      <trkpt lat="45.81914" lon="4.70529">
        <ele>331.79</ele>
        <time>2015-12-19T15:10:09Z</time>
      </trkpt>
      <trkpt lat="45.81921" lon="4.70532">
        <ele>331.31</ele>
        <time>2015-12-19T15:10:10Z</time>
      </trkpt>
      <trkpt lat="45.81928" lon="4.70537">
        <ele>330.35</ele>
        <time>2015-12-19T15:10:11Z</time>
      </trkpt>
      <trkpt lat="45.81939" lon="4.7055">
        <ele>329.39</ele>
        <time>2015-12-19T15:10:13Z</time>
      </trkpt>
      <trkpt lat="45.81944" lon="4.70558">
        <ele>327.95</ele>
        <time>2015-12-19T15:10:14Z</time>
      </trkpt>
      <trkpt lat="45.81947" lon="4.70568">
        <ele>328.43</ele>
        <time>2015-12-19T15:10:15Z</time>
      </trkpt>
      <trkpt lat="45.81948" lon="4.70579">
        <ele>327.47</ele>
        <time>2015-12-19T15:10:16Z</time>
      </trkpt>
      <trkpt lat="45.81948" lon="4.7059">
        <ele>327.95</ele>
        <time>2015-12-19T15:10:17Z</time>
      </trkpt>
      <trkpt lat="45.81948" lon="4.70601">
        <ele>327.47</ele>
        <time>2015-12-19T15:10:18Z</time>
      </trkpt>
      <trkpt lat="45.81947" lon="4.70631">
        <ele>326.99</ele>
        <time>2015-12-19T15:10:21Z</time>
      </trkpt>
      <trkpt lat="45.81946" lon="4.7064">
        <ele>327.47</ele>
        <time>2015-12-19T15:10:22Z</time>
      </trkpt>
      <trkpt lat="45.81945" lon="4.70649">
        <ele>326.99</ele>
        <time>2015-12-19T15:10:23Z</time>
      </trkpt>
      <trkpt lat="45.81945" lon="4.70658">
        <ele>326.99</ele>
        <time>2015-12-19T15:10:24Z</time>
      </trkpt>
      <trkpt lat="45.81945" lon="4.70666">
        <ele>326.99</ele>
        <time>2015-12-19T15:10:25Z</time>
      </trkpt>
      <trkpt lat="45.81945" lon="4.70684">
        <ele>326.5</ele>
        <time>2015-12-19T15:10:27Z</time>
      </trkpt>
      <trkpt lat="45.81944" lon="4.70693">
        <ele>326.5</ele>
        <time>2015-12-19T15:10:28Z</time>
      </trkpt>
      <trkpt lat="45.81945" lon="4.70714">
        <ele>325.54</ele>
        <time>2015-12-19T15:10:32Z</time>
      </trkpt>
      <trkpt lat="45.81947" lon="4.70715">
        <ele>325.06</ele>
        <time>2015-12-19T15:10:33Z</time>
      </trkpt>
      <trkpt lat="45.81952" lon="4.70715">
        <ele>324.58</ele>
        <time>2015-12-19T15:10:38Z</time>
      </trkpt>
      <trkpt lat="45.81954" lon="4.70714">
        <ele>324.1</ele>
        <time>2015-12-19T15:10:39Z</time>
      </trkpt>
      <trkpt lat="45.81955" lon="4.70714">
        <ele>324.1</ele>
        <time>2015-12-19T15:10:40Z</time>
      </trkpt>
      <trkpt lat="45.81958" lon="4.70713">
        <ele>324.58</ele>
        <time>2015-12-19T15:10:41Z</time>
      </trkpt>
      <trkpt lat="45.81962" lon="4.70712">
        <ele>324.1</ele>
        <time>2015-12-19T15:10:42Z</time>
      </trkpt>
      <trkpt lat="45.81966" lon="4.7071">
        <ele>324.58</ele>
        <time>2015-12-19T15:10:43Z</time>
      </trkpt>
      <trkpt lat="45.8197" lon="4.70708">
        <ele>324.1</ele>
        <time>2015-12-19T15:10:44Z</time>
      </trkpt>
      <trkpt lat="45.81974" lon="4.70708">
        <ele>324.1</ele>
        <time>2015-12-19T15:10:45Z</time>
      </trkpt>
      <trkpt lat="45.81979" lon="4.70707">
        <ele>324.1</ele>
        <time>2015-12-19T15:10:46Z</time>
      </trkpt>
      <trkpt lat="45.82025" lon="4.70698">
        <ele>323.62</ele>
        <time>2015-12-19T15:10:55Z</time>
      </trkpt>
      <trkpt lat="45.8203" lon="4.70695">
        <ele>323.14</ele>
        <time>2015-12-19T15:10:56Z</time>
      </trkpt>
      <trkpt lat="45.82035" lon="4.7069">
        <ele>323.14</ele>
        <time>2015-12-19T15:10:57Z</time>
      </trkpt>
      <trkpt lat="45.8204" lon="4.70684">
        <ele>322.18</ele>
        <time>2015-12-19T15:10:58Z</time>
      </trkpt>
      <trkpt lat="45.82043" lon="4.70676">
        <ele>322.18</ele>
        <time>2015-12-19T15:10:59Z</time>
      </trkpt>
      <trkpt lat="45.82046" lon="4.70666">
        <ele>321.7</ele>
        <time>2015-12-19T15:11:00Z</time>
      </trkpt>
      <trkpt lat="45.82047" lon="4.70655">
        <ele>321.22</ele>
        <time>2015-12-19T15:11:01Z</time>
      </trkpt>
      <trkpt lat="45.82048" lon="4.70643">
        <ele>320.74</ele>
        <time>2015-12-19T15:11:02Z</time>
      </trkpt>
      <trkpt lat="45.8205" lon="4.7063">
        <ele>319.78</ele>
        <time>2015-12-19T15:11:03Z</time>
      </trkpt>
      <trkpt lat="45.82052" lon="4.70617">
        <ele>318.81</ele>
        <time>2015-12-19T15:11:04Z</time>
      </trkpt>
      <trkpt lat="45.82057" lon="4.70605">
        <ele>317.85</ele>
        <time>2015-12-19T15:11:05Z</time>
      </trkpt>
      <trkpt lat="45.82062" lon="4.70593">
        <ele>317.37</ele>
        <time>2015-12-19T15:11:06Z</time>
      </trkpt>
      <trkpt lat="45.82069" lon="4.70582">
        <ele>315.45</ele>
        <time>2015-12-19T15:11:07Z</time>
      </trkpt>
      <trkpt lat="45.82077" lon="4.70572">
        <ele>315.45</ele>
        <time>2015-12-19T15:11:08Z</time>
      </trkpt>
      <trkpt lat="45.82086" lon="4.70562">
        <ele>314.01</ele>
        <time>2015-12-19T15:11:09Z</time>
      </trkpt>
      <trkpt lat="45.82094" lon="4.70551">
        <ele>314.01</ele>
        <time>2015-12-19T15:11:10Z</time>
      </trkpt>
      <trkpt lat="45.82119" lon="4.70521">
        <ele>311.6</ele>
        <time>2015-12-19T15:11:13Z</time>
      </trkpt>
      <trkpt lat="45.82142" lon="4.70489">
        <ele>309.68</ele>
        <time>2015-12-19T15:11:16Z</time>
      </trkpt>
      <trkpt lat="45.82206" lon="4.70374">
        <ele>306.8</ele>
        <time>2015-12-19T15:11:26Z</time>
      </trkpt>
      <trkpt lat="45.82221" lon="4.7034">
        <ele>305.36</ele>
        <time>2015-12-19T15:11:29Z</time>
      </trkpt>
      <trkpt lat="45.8228" lon="4.70209">
        <ele>302.47</ele>
        <time>2015-12-19T15:11:42Z</time>
      </trkpt>
      <trkpt lat="45.82295" lon="4.70175">
        <ele>302.47</ele>
        <time>2015-12-19T15:11:45Z</time>
      </trkpt>
      <trkpt lat="45.82301" lon="4.70166">
        <ele>301.99</ele>
        <time>2015-12-19T15:11:46Z</time>
      </trkpt>
      <trkpt lat="45.82308" lon="4.70158">
        <ele>301.51</ele>
        <time>2015-12-19T15:11:47Z</time>
      </trkpt>
      <trkpt lat="45.82316" lon="4.70153">
        <ele>301.99</ele>
        <time>2015-12-19T15:11:48Z</time>
      </trkpt>
      <trkpt lat="45.82324" lon="4.7015">
        <ele>301.51</ele>
        <time>2015-12-19T15:11:49Z</time>
      </trkpt>
      <trkpt lat="45.82332" lon="4.7015">
        <ele>301.51</ele>
        <time>2015-12-19T15:11:50Z</time>
      </trkpt>
      <trkpt lat="45.8234" lon="4.70151">
        <ele>301.99</ele>
        <time>2015-12-19T15:11:51Z</time>
      </trkpt>
      <trkpt lat="45.82348" lon="4.70152">
        <ele>301.51</ele>
        <time>2015-12-19T15:11:52Z</time>
      </trkpt>
      <trkpt lat="45.82407" lon="4.70156">
        <ele>302.95</ele>
        <time>2015-12-19T15:12:00Z</time>
      </trkpt>
      <trkpt lat="45.82415" lon="4.70156">
        <ele>302.95</ele>
        <time>2015-12-19T15:12:01Z</time>
      </trkpt>
      <trkpt lat="45.82422" lon="4.70155">
        <ele>303.43</ele>
        <time>2015-12-19T15:12:02Z</time>
      </trkpt>
      <trkpt lat="45.82454" lon="4.70147">
        <ele>303.91</ele>
        <time>2015-12-19T15:12:07Z</time>
      </trkpt>
      <trkpt lat="45.82489" lon="4.70147">
        <ele>306.32</ele>
        <time>2015-12-19T15:12:17Z</time>
      </trkpt>
      <trkpt lat="45.82515" lon="4.7015">
        <ele>309.2</ele>
        <time>2015-12-19T15:12:29Z</time>
      </trkpt>
      <trkpt lat="45.8254" lon="4.7015">
        <ele>311.12</ele>
        <time>2015-12-19T15:12:42Z</time>
      </trkpt>
      <trkpt lat="45.82569" lon="4.70151">
        <ele>313.53</ele>
        <time>2015-12-19T15:12:57Z</time>
      </trkpt>
      <trkpt lat="45.82597" lon="4.70151">
        <ele>315.45</ele>
        <time>2015-12-19T15:13:12Z</time>
      </trkpt>
      <trkpt lat="45.82626" lon="4.70146">
        <ele>317.37</ele>
        <time>2015-12-19T15:13:27Z</time>
      </trkpt>
      <trkpt lat="45.82654" lon="4.7013">
        <ele>319.3</ele>
        <time>2015-12-19T15:13:41Z</time>
      </trkpt>
      <trkpt lat="45.82684" lon="4.70111">
        <ele>320.26</ele>
        <time>2015-12-19T15:13:57Z</time>
      </trkpt>
      <trkpt lat="45.82704" lon="4.70102">
        <ele>323.62</ele>
        <time>2015-12-19T15:14:10Z</time>
      </trkpt>
      <trkpt lat="45.82721" lon="4.70093">
        <ele>325.54</ele>
        <time>2015-12-19T15:14:22Z</time>
      </trkpt>
      <trkpt lat="45.82743" lon="4.70078">
        <ele>326.5</ele>
        <time>2015-12-19T15:14:35Z</time>
      </trkpt>
      <trkpt lat="45.82764" lon="4.7006">
        <ele>327.47</ele>
        <time>2015-12-19T15:14:48Z</time>
      </trkpt>
      <trkpt lat="45.82766" lon="4.70059">
        <ele>327.47</ele>
        <time>2015-12-19T15:14:49Z</time>
      </trkpt>
      <trkpt lat="45.8278" lon="4.70047">
        <ele>326.5</ele>
        <time>2015-12-19T15:15:01Z</time>
      </trkpt>
      <trkpt lat="45.8278" lon="4.70047">
        <ele>326.5</ele>
        <time>2015-12-19T15:15:31Z</time>
      </trkpt>
      <trkpt lat="45.82785" lon="4.7005">
        <ele>326.02</ele>
        <time>2015-12-19T15:15:48Z</time>
      </trkpt>
      <trkpt lat="45.82787" lon="4.70051">
        <ele>326.02</ele>
        <time>2015-12-19T15:15:49Z</time>
      </trkpt>
      <trkpt lat="45.82788" lon="4.70053">
        <ele>326.02</ele>
        <time>2015-12-19T15:15:50Z</time>
      </trkpt>
      <trkpt lat="45.8279" lon="4.70054">
        <ele>325.54</ele>
        <time>2015-12-19T15:15:51Z</time>
      </trkpt>
      <trkpt lat="45.82791" lon="4.70055">
        <ele>325.06</ele>
        <time>2015-12-19T15:15:52Z</time>
      </trkpt>
      <trkpt lat="45.82792" lon="4.70057">
        <ele>325.06</ele>
        <time>2015-12-19T15:16:07Z</time>
      </trkpt>
      <trkpt lat="45.82795" lon="4.70062">
        <ele>325.54</ele>
        <time>2015-12-19T15:16:09Z</time>
      </trkpt>
      <trkpt lat="45.82827" lon="4.70111">
        <ele>323.62</ele>
        <time>2015-12-19T15:16:21Z</time>
      </trkpt>
      <trkpt lat="45.82866" lon="4.70178">
        <ele>320.74</ele>
        <time>2015-12-19T15:16:33Z</time>
      </trkpt>
      <trkpt lat="45.82883" lon="4.70209">
        <ele>318.81</ele>
        <time>2015-12-19T15:16:38Z</time>
      </trkpt>
      <trkpt lat="45.82919" lon="4.70271">
        <ele>315.45</ele>
        <time>2015-12-19T15:16:49Z</time>
      </trkpt>
      <trkpt lat="45.82922" lon="4.70275">
        <ele>315.45</ele>
        <time>2015-12-19T15:16:50Z</time>
      </trkpt>
      <trkpt lat="45.82974" lon="4.70362">
        <ele>314.01</ele>
        <time>2015-12-19T15:17:06Z</time>
      </trkpt>
      <trkpt lat="45.82977" lon="4.70369">
        <ele>314.01</ele>
        <time>2015-12-19T15:17:07Z</time>
      </trkpt>
      <trkpt lat="45.83019" lon="4.70457">
        <ele>313.53</ele>
        <time>2015-12-19T15:17:22Z</time>
      </trkpt>
      <trkpt lat="45.83022" lon="4.70461">
        <ele>314.01</ele>
        <time>2015-12-19T15:17:23Z</time>
      </trkpt>
      <trkpt lat="45.83034" lon="4.70487">
        <ele>313.05</ele>
        <time>2015-12-19T15:17:28Z</time>
      </trkpt>
      <trkpt lat="45.83036" lon="4.70492">
        <ele>314.01</ele>
        <time>2015-12-19T15:17:29Z</time>
      </trkpt>
      <trkpt lat="45.83073" lon="4.70574">
        <ele>314.97</ele>
        <time>2015-12-19T15:17:45Z</time>
      </trkpt>
      <trkpt lat="45.83083" lon="4.70594">
        <ele>314.97</ele>
        <time>2015-12-19T15:17:49Z</time>
      </trkpt>
      <trkpt lat="45.83085" lon="4.70599">
        <ele>314.97</ele>
        <time>2015-12-19T15:17:50Z</time>
      </trkpt>
      <trkpt lat="45.83087" lon="4.70604">
        <ele>314.97</ele>
        <time>2015-12-19T15:17:51Z</time>
      </trkpt>
      <trkpt lat="45.83106" lon="4.70643">
        <ele>314.01</ele>
        <time>2015-12-19T15:18:01Z</time>
      </trkpt>
      <trkpt lat="45.83107" lon="4.70646">
        <ele>314.01</ele>
        <time>2015-12-19T15:18:02Z</time>
      </trkpt>
      <trkpt lat="45.83108" lon="4.70652">
        <ele>314.01</ele>
        <time>2015-12-19T15:18:04Z</time>
      </trkpt>
      <trkpt lat="45.8311" lon="4.70655">
        <ele>313.53</ele>
        <time>2015-12-19T15:18:05Z</time>
      </trkpt>
      <trkpt lat="45.83112" lon="4.70658">
        <ele>313.53</ele>
        <time>2015-12-19T15:18:06Z</time>
      </trkpt>
      <trkpt lat="45.83113" lon="4.70662">
        <ele>314.01</ele>
        <time>2015-12-19T15:18:07Z</time>
      </trkpt>
      <trkpt lat="45.83113" lon="4.70667">
        <ele>314.01</ele>
        <time>2015-12-19T15:18:08Z</time>
      </trkpt>
      <trkpt lat="45.83139" lon="4.7075">
        <ele>312.09</ele>
        <time>2015-12-19T15:18:23Z</time>
      </trkpt>
      <trkpt lat="45.83171" lon="4.70848">
        <ele>308.72</ele>
        <time>2015-12-19T15:18:36Z</time>
      </trkpt>
      <trkpt lat="45.83215" lon="4.70952">
        <ele>305.36</ele>
        <time>2015-12-19T15:18:49Z</time>
      </trkpt>
      <trkpt lat="45.83255" lon="4.71048">
        <ele>302.95</ele>
        <time>2015-12-19T15:19:01Z</time>
      </trkpt>
      <trkpt lat="45.83275" lon="4.71098">
        <ele>300.55</ele>
        <time>2015-12-19T15:19:07Z</time>
      </trkpt>
      <trkpt lat="45.83277" lon="4.71107">
        <ele>300.55</ele>
        <time>2015-12-19T15:19:08Z</time>
      </trkpt>
      <trkpt lat="45.83278" lon="4.71117">
        <ele>300.07</ele>
        <time>2015-12-19T15:19:09Z</time>
      </trkpt>
      <trkpt lat="45.83289" lon="4.71201">
        <ele>296.7</ele>
        <time>2015-12-19T15:19:17Z</time>
      </trkpt>
      <trkpt lat="45.8329" lon="4.71212">
        <ele>296.7</ele>
        <time>2015-12-19T15:19:18Z</time>
      </trkpt>
      <trkpt lat="45.83306" lon="4.71286">
        <ele>294.3</ele>
        <time>2015-12-19T15:19:25Z</time>
      </trkpt>
      <trkpt lat="45.83311" lon="4.71295">
        <ele>294.3</ele>
        <time>2015-12-19T15:19:26Z</time>
      </trkpt>
      <trkpt lat="45.83316" lon="4.71304">
        <ele>293.82</ele>
        <time>2015-12-19T15:19:27Z</time>
      </trkpt>
      <trkpt lat="45.83378" lon="4.71403">
        <ele>291.42</ele>
        <time>2015-12-19T15:19:40Z</time>
      </trkpt>
      <trkpt lat="45.83411" lon="4.71456">
        <ele>289.97</ele>
        <time>2015-12-19T15:19:48Z</time>
      </trkpt>
      <trkpt lat="45.83416" lon="4.71461">
        <ele>290.46</ele>
        <time>2015-12-19T15:19:49Z</time>
      </trkpt>
      <trkpt lat="45.83445" lon="4.71479">
        <ele>289.97</ele>
        <time>2015-12-19T15:19:55Z</time>
      </trkpt>
      <trkpt lat="45.83453" lon="4.71485">
        <ele>289.49</ele>
        <time>2015-12-19T15:19:57Z</time>
      </trkpt>
      <trkpt lat="45.83456" lon="4.7149">
        <ele>289.01</ele>
        <time>2015-12-19T15:19:58Z</time>
      </trkpt>
      <trkpt lat="45.83458" lon="4.715">
        <ele>289.01</ele>
        <time>2015-12-19T15:20:00Z</time>
      </trkpt>
      <trkpt lat="45.83457" lon="4.71507">
        <ele>288.53</ele>
        <time>2015-12-19T15:20:01Z</time>
      </trkpt>
      <trkpt lat="45.83455" lon="4.71513">
        <ele>288.53</ele>
        <time>2015-12-19T15:20:02Z</time>
      </trkpt>
      <trkpt lat="45.83454" lon="4.71518">
        <ele>288.05</ele>
        <time>2015-12-19T15:20:03Z</time>
      </trkpt>
      <trkpt lat="45.83453" lon="4.71524">
        <ele>288.53</ele>
        <time>2015-12-19T15:20:04Z</time>
      </trkpt>
      <trkpt lat="45.83452" lon="4.7153">
        <ele>288.05</ele>
        <time>2015-12-19T15:20:05Z</time>
      </trkpt>
      <trkpt lat="45.83452" lon="4.71537">
        <ele>288.05</ele>
        <time>2015-12-19T15:20:06Z</time>
      </trkpt>
      <trkpt lat="45.83452" lon="4.71544">
        <ele>286.61</ele>
        <time>2015-12-19T15:20:07Z</time>
      </trkpt>
      <trkpt lat="45.83452" lon="4.71551">
        <ele>285.65</ele>
        <time>2015-12-19T15:20:08Z</time>
      </trkpt>
      <trkpt lat="45.83451" lon="4.71558">
        <ele>285.17</ele>
        <time>2015-12-19T15:20:09Z</time>
      </trkpt>
      <trkpt lat="45.8345" lon="4.71565">
        <ele>285.17</ele>
        <time>2015-12-19T15:20:10Z</time>
      </trkpt>
      <trkpt lat="45.83449" lon="4.7157">
        <ele>284.69</ele>
        <time>2015-12-19T15:20:11Z</time>
      </trkpt>
      <trkpt lat="45.83448" lon="4.71574">
        <ele>283.73</ele>
        <time>2015-12-19T15:20:12Z</time>
      </trkpt>
      <trkpt lat="45.83447" lon="4.71581">
        <ele>283.25</ele>
        <time>2015-12-19T15:20:14Z</time>
      </trkpt>
      <trkpt lat="45.83442" lon="4.71585">
        <ele>282.77</ele>
        <time>2015-12-19T15:20:16Z</time>
      </trkpt>
      <trkpt lat="45.8344" lon="4.71585">
        <ele>282.28</ele>
        <time>2015-12-19T15:20:17Z</time>
      </trkpt>
      <trkpt lat="45.83437" lon="4.71585">
        <ele>282.28</ele>
        <time>2015-12-19T15:20:18Z</time>
      </trkpt>
      <trkpt lat="45.83435" lon="4.71584">
        <ele>282.28</ele>
        <time>2015-12-19T15:20:19Z</time>
      </trkpt>
      <trkpt lat="45.83431" lon="4.71581">
        <ele>282.28</ele>
        <time>2015-12-19T15:20:20Z</time>
      </trkpt>
      <trkpt lat="45.83428" lon="4.71578">
        <ele>282.28</ele>
        <time>2015-12-19T15:20:21Z</time>
      </trkpt>
      <trkpt lat="45.83425" lon="4.71573">
        <ele>281.32</ele>
        <time>2015-12-19T15:20:22Z</time>
      </trkpt>
      <trkpt lat="45.83422" lon="4.71569">
        <ele>281.8</ele>
        <time>2015-12-19T15:20:23Z</time>
      </trkpt>
      <trkpt lat="45.83419" lon="4.71565">
        <ele>281.8</ele>
        <time>2015-12-19T15:20:24Z</time>
      </trkpt>
      <trkpt lat="45.83415" lon="4.71561">
        <ele>281.32</ele>
        <time>2015-12-19T15:20:25Z</time>
      </trkpt>
      <trkpt lat="45.83408" lon="4.71554">
        <ele>281.32</ele>
        <time>2015-12-19T15:20:27Z</time>
      </trkpt>
      <trkpt lat="45.83404" lon="4.71551">
        <ele>281.32</ele>
        <time>2015-12-19T15:20:28Z</time>
      </trkpt>
      <trkpt lat="45.83399" lon="4.7155">
        <ele>281.32</ele>
        <time>2015-12-19T15:20:29Z</time>
      </trkpt>
      <trkpt lat="45.83394" lon="4.7155">
        <ele>280.84</ele>
        <time>2015-12-19T15:20:30Z</time>
      </trkpt>
      <trkpt lat="45.83389" lon="4.7155">
        <ele>280.84</ele>
        <time>2015-12-19T15:20:31Z</time>
      </trkpt>
      <trkpt lat="45.83384" lon="4.71552">
        <ele>280.36</ele>
        <time>2015-12-19T15:20:32Z</time>
      </trkpt>
      <trkpt lat="45.8338" lon="4.71556">
        <ele>280.36</ele>
        <time>2015-12-19T15:20:33Z</time>
      </trkpt>
      <trkpt lat="45.83376" lon="4.71561">
        <ele>280.36</ele>
        <time>2015-12-19T15:20:34Z</time>
      </trkpt>
      <trkpt lat="45.83372" lon="4.71567">
        <ele>279.88</ele>
        <time>2015-12-19T15:20:35Z</time>
      </trkpt>
      <trkpt lat="45.83369" lon="4.71573">
        <ele>279.4</ele>
        <time>2015-12-19T15:20:36Z</time>
      </trkpt>
      <trkpt lat="45.8336" lon="4.71591">
        <ele>279.4</ele>
        <time>2015-12-19T15:20:39Z</time>
      </trkpt>
      <trkpt lat="45.83355" lon="4.71611">
        <ele>278.92</ele>
        <time>2015-12-19T15:20:42Z</time>
      </trkpt>
      <trkpt lat="45.83355" lon="4.71618">
        <ele>278.92</ele>
        <time>2015-12-19T15:20:43Z</time>
      </trkpt>
      <trkpt lat="45.83357" lon="4.71623">
        <ele>278.44</ele>
        <time>2015-12-19T15:20:44Z</time>
      </trkpt>
      <trkpt lat="45.83361" lon="4.71626">
        <ele>279.4</ele>
        <time>2015-12-19T15:20:45Z</time>
      </trkpt>
      <trkpt lat="45.83365" lon="4.71626">
        <ele>278.92</ele>
        <time>2015-12-19T15:20:46Z</time>
      </trkpt>
      <trkpt lat="45.83369" lon="4.71624">
        <ele>278.92</ele>
        <time>2015-12-19T15:20:47Z</time>
      </trkpt>
      <trkpt lat="45.83373" lon="4.71619">
        <ele>277.48</ele>
        <time>2015-12-19T15:20:48Z</time>
      </trkpt>
      <trkpt lat="45.83376" lon="4.71612">
        <ele>277.96</ele>
        <time>2015-12-19T15:20:49Z</time>
      </trkpt>
      <trkpt lat="45.83378" lon="4.71604">
        <ele>277</ele>
        <time>2015-12-19T15:20:50Z</time>
      </trkpt>
      <trkpt lat="45.83381" lon="4.71596">
        <ele>276.04</ele>
        <time>2015-12-19T15:20:51Z</time>
      </trkpt>
      <trkpt lat="45.83384" lon="4.71591">
        <ele>275.07</ele>
        <time>2015-12-19T15:20:52Z</time>
      </trkpt>
      <trkpt lat="45.83389" lon="4.71589">
        <ele>275.07</ele>
        <time>2015-12-19T15:20:53Z</time>
      </trkpt>
      <trkpt lat="45.83394" lon="4.7159">
        <ele>274.11</ele>
        <time>2015-12-19T15:20:54Z</time>
      </trkpt>
      <trkpt lat="45.83399" lon="4.71596">
        <ele>272.67</ele>
        <time>2015-12-19T15:20:55Z</time>
      </trkpt>
      <trkpt lat="45.83402" lon="4.71605">
        <ele>271.71</ele>
        <time>2015-12-19T15:20:56Z</time>
      </trkpt>
      <trkpt lat="45.83404" lon="4.71615">
        <ele>271.23</ele>
        <time>2015-12-19T15:20:57Z</time>
      </trkpt>
      <trkpt lat="45.83406" lon="4.71627">
        <ele>270.27</ele>
        <time>2015-12-19T15:20:58Z</time>
      </trkpt>
      <trkpt lat="45.83417" lon="4.71679">
        <ele>266.9</ele>
        <time>2015-12-19T15:21:02Z</time>
      </trkpt>
      <trkpt lat="45.83429" lon="4.71739">
        <ele>264.02</ele>
        <time>2015-12-19T15:21:06Z</time>
      </trkpt>
      <trkpt lat="45.83455" lon="4.71825">
        <ele>265.94</ele>
        <time>2015-12-19T15:21:14Z</time>
      </trkpt>
      <trkpt lat="45.83458" lon="4.71832">
        <ele>266.42</ele>
        <time>2015-12-19T15:21:15Z</time>
      </trkpt>
      <trkpt lat="45.83471" lon="4.7186">
        <ele>268.35</ele>
        <time>2015-12-19T15:21:20Z</time>
      </trkpt>
      <trkpt lat="45.83475" lon="4.71872">
        <ele>269.31</ele>
        <time>2015-12-19T15:21:22Z</time>
      </trkpt>
      <trkpt lat="45.83476" lon="4.71879">
        <ele>269.79</ele>
        <time>2015-12-19T15:21:23Z</time>
      </trkpt>
      <trkpt lat="45.83476" lon="4.71885">
        <ele>269.79</ele>
        <time>2015-12-19T15:21:24Z</time>
      </trkpt>
      <trkpt lat="45.83475" lon="4.71891">
        <ele>270.27</ele>
        <time>2015-12-19T15:21:25Z</time>
      </trkpt>
      <trkpt lat="45.83474" lon="4.71896">
        <ele>270.75</ele>
        <time>2015-12-19T15:21:26Z</time>
      </trkpt>
      <trkpt lat="45.83464" lon="4.71937">
        <ele>271.71</ele>
        <time>2015-12-19T15:21:36Z</time>
      </trkpt>
      <trkpt lat="45.83449" lon="4.71995">
        <ele>274.11</ele>
        <time>2015-12-19T15:21:50Z</time>
      </trkpt>
      <trkpt lat="45.83441" lon="4.72042">
        <ele>275.07</ele>
        <time>2015-12-19T15:22:01Z</time>
      </trkpt>
      <trkpt lat="45.83442" lon="4.72046">
        <ele>274.59</ele>
        <time>2015-12-19T15:22:02Z</time>
      </trkpt>
      <trkpt lat="45.83445" lon="4.72049">
        <ele>274.59</ele>
        <time>2015-12-19T15:22:03Z</time>
      </trkpt>
      <trkpt lat="45.83484" lon="4.72062">
        <ele>275.07</ele>
        <time>2015-12-19T15:22:15Z</time>
      </trkpt>
      <trkpt lat="45.8355" lon="4.72056">
        <ele>273.63</ele>
        <time>2015-12-19T15:22:31Z</time>
      </trkpt>
      <trkpt lat="45.83599" lon="4.7205">
        <ele>273.63</ele>
        <time>2015-12-19T15:22:42Z</time>
      </trkpt>
      <trkpt lat="45.83626" lon="4.72047">
        <ele>272.67</ele>
        <time>2015-12-19T15:22:48Z</time>
      </trkpt>
      <trkpt lat="45.83699" lon="4.72036">
        <ele>271.71</ele>
        <time>2015-12-19T15:23:04Z</time>
      </trkpt>
      <trkpt lat="45.83704" lon="4.72036">
        <ele>271.71</ele>
        <time>2015-12-19T15:23:05Z</time>
      </trkpt>
      <trkpt lat="45.83783" lon="4.72071">
        <ele>269.79</ele>
        <time>2015-12-19T15:23:21Z</time>
      </trkpt>
      <trkpt lat="45.83842" lon="4.72107">
        <ele>268.35</ele>
        <time>2015-12-19T15:23:33Z</time>
      </trkpt>
      <trkpt lat="45.83927" lon="4.72159">
        <ele>266.42</ele>
        <time>2015-12-19T15:23:50Z</time>
      </trkpt>
      <trkpt lat="45.83945" lon="4.72178">
        <ele>266.42</ele>
        <time>2015-12-19T15:23:54Z</time>
      </trkpt>
      <trkpt lat="45.83949" lon="4.72184">
        <ele>266.9</ele>
        <time>2015-12-19T15:23:55Z</time>
      </trkpt>
      <trkpt lat="45.83963" lon="4.72209">
        <ele>266.9</ele>
        <time>2015-12-19T15:23:59Z</time>
      </trkpt>
      <trkpt lat="45.83966" lon="4.72215">
        <ele>263.54</ele>
        <time>2015-12-19T15:24:00Z</time>
      </trkpt>
      <trkpt lat="45.83969" lon="4.7222">
        <ele>267.38</ele>
        <time>2015-12-19T15:24:01Z</time>
      </trkpt>
      <trkpt lat="45.83982" lon="4.7225">
        <ele>266.9</ele>
        <time>2015-12-19T15:24:06Z</time>
      </trkpt>
      <trkpt lat="45.84013" lon="4.72305">
        <ele>265.94</ele>
        <time>2015-12-19T15:24:15Z</time>
      </trkpt>
      <trkpt lat="45.84018" lon="4.7231">
        <ele>264.98</ele>
        <time>2015-12-19T15:24:16Z</time>
      </trkpt>
      <trkpt lat="45.84024" lon="4.72315">
        <ele>264.5</ele>
        <time>2015-12-19T15:24:17Z</time>
      </trkpt>
      <trkpt lat="45.8403" lon="4.72319">
        <ele>264.5</ele>
        <time>2015-12-19T15:24:18Z</time>
      </trkpt>
      <trkpt lat="45.84037" lon="4.72324">
        <ele>263.06</ele>
        <time>2015-12-19T15:24:19Z</time>
      </trkpt>
      <trkpt lat="45.84108" lon="4.72355">
        <ele>259.69</ele>
        <time>2015-12-19T15:24:28Z</time>
      </trkpt>
      <trkpt lat="45.84135" lon="4.72367">
        <ele>258.25</ele>
        <time>2015-12-19T15:24:31Z</time>
      </trkpt>
      <trkpt lat="45.84182" lon="4.7239">
        <ele>255.37</ele>
        <time>2015-12-19T15:24:36Z</time>
      </trkpt>
      <trkpt lat="45.84201" lon="4.724">
        <ele>254.41</ele>
        <time>2015-12-19T15:24:38Z</time>
      </trkpt>
      <trkpt lat="45.84212" lon="4.72404">
        <ele>253.93</ele>
        <time>2015-12-19T15:24:39Z</time>
      </trkpt>
      <trkpt lat="45.84222" lon="4.72406">
        <ele>252.96</ele>
        <time>2015-12-19T15:24:40Z</time>
      </trkpt>
      <trkpt lat="45.84243" lon="4.72409">
        <ele>251.52</ele>
        <time>2015-12-19T15:24:42Z</time>
      </trkpt>
      <trkpt lat="45.84275" lon="4.72409">
        <ele>248.16</ele>
        <time>2015-12-19T15:24:45Z</time>
      </trkpt>
      <trkpt lat="45.84286" lon="4.72409">
        <ele>248.16</ele>
        <time>2015-12-19T15:24:46Z</time>
      </trkpt>
      <trkpt lat="45.84332" lon="4.7241">
        <ele>244.79</ele>
        <time>2015-12-19T15:24:50Z</time>
      </trkpt>
      <trkpt lat="45.84344" lon="4.72413">
        <ele>243.83</ele>
        <time>2015-12-19T15:24:51Z</time>
      </trkpt>
      <trkpt lat="45.84386" lon="4.72425">
        <ele>240.95</ele>
        <time>2015-12-19T15:24:55Z</time>
      </trkpt>
      <trkpt lat="45.84422" lon="4.72438">
        <ele>239.02</ele>
        <time>2015-12-19T15:24:59Z</time>
      </trkpt>
      <trkpt lat="45.84436" lon="4.72449">
        <ele>239.51</ele>
        <time>2015-12-19T15:25:01Z</time>
      </trkpt>
      <trkpt lat="45.84443" lon="4.72451">
        <ele>239.51</ele>
        <time>2015-12-19T15:25:02Z</time>
      </trkpt>
      <trkpt lat="45.84451" lon="4.72451">
        <ele>239.51</ele>
        <time>2015-12-19T15:25:03Z</time>
      </trkpt>
      <trkpt lat="45.84457" lon="4.72452">
        <ele>239.02</ele>
        <time>2015-12-19T15:25:04Z</time>
      </trkpt>
      <trkpt lat="45.84463" lon="4.72456">
        <ele>239.02</ele>
        <time>2015-12-19T15:25:05Z</time>
      </trkpt>
      <trkpt lat="45.84468" lon="4.72463">
        <ele>239.51</ele>
        <time>2015-12-19T15:25:06Z</time>
      </trkpt>
      <trkpt lat="45.8447" lon="4.72471">
        <ele>239.99</ele>
        <time>2015-12-19T15:25:07Z</time>
      </trkpt>
      <trkpt lat="45.84471" lon="4.7248">
        <ele>240.47</ele>
        <time>2015-12-19T15:25:08Z</time>
      </trkpt>
      <trkpt lat="45.84472" lon="4.72488">
        <ele>240.47</ele>
        <time>2015-12-19T15:25:09Z</time>
      </trkpt>
      <trkpt lat="45.84473" lon="4.72497">
        <ele>240.47</ele>
        <time>2015-12-19T15:25:10Z</time>
      </trkpt>
      <trkpt lat="45.84475" lon="4.72505">
        <ele>240.95</ele>
        <time>2015-12-19T15:25:11Z</time>
      </trkpt>
      <trkpt lat="45.84492" lon="4.72553">
        <ele>242.39</ele>
        <time>2015-12-19T15:25:19Z</time>
      </trkpt>
      <trkpt lat="45.84498" lon="4.72562">
        <ele>242.39</ele>
        <time>2015-12-19T15:25:21Z</time>
      </trkpt>
      <trkpt lat="45.84502" lon="4.72566">
        <ele>242.39</ele>
        <time>2015-12-19T15:25:22Z</time>
      </trkpt>
      <trkpt lat="45.84506" lon="4.72569">
        <ele>242.87</ele>
        <time>2015-12-19T15:25:23Z</time>
      </trkpt>
      <trkpt lat="45.84519" lon="4.72589">
        <ele>243.83</ele>
        <time>2015-12-19T15:25:28Z</time>
      </trkpt>
      <trkpt lat="45.84521" lon="4.72594">
        <ele>243.83</ele>
        <time>2015-12-19T15:25:29Z</time>
      </trkpt>
      <trkpt lat="45.84524" lon="4.72599">
        <ele>243.35</ele>
        <time>2015-12-19T15:25:30Z</time>
      </trkpt>
      <trkpt lat="45.84527" lon="4.72602">
        <ele>244.31</ele>
        <time>2015-12-19T15:25:31Z</time>
      </trkpt>
      <trkpt lat="45.8453" lon="4.72604">
        <ele>243.83</ele>
        <time>2015-12-19T15:25:32Z</time>
      </trkpt>
      <trkpt lat="45.84534" lon="4.72604">
        <ele>244.79</ele>
        <time>2015-12-19T15:25:33Z</time>
      </trkpt>
      <trkpt lat="45.84537" lon="4.72604">
        <ele>244.79</ele>
        <time>2015-12-19T15:25:34Z</time>
      </trkpt>
      <trkpt lat="45.8454" lon="4.72605">
        <ele>245.27</ele>
        <time>2015-12-19T15:25:35Z</time>
      </trkpt>
      <trkpt lat="45.84543" lon="4.72605">
        <ele>245.27</ele>
        <time>2015-12-19T15:25:36Z</time>
      </trkpt>
      <trkpt lat="45.84545" lon="4.72604">
        <ele>245.75</ele>
        <time>2015-12-19T15:25:37Z</time>
      </trkpt>
      <trkpt lat="45.84569" lon="4.72603">
        <ele>249.12</ele>
        <time>2015-12-19T15:25:50Z</time>
      </trkpt>
      <trkpt lat="45.84575" lon="4.72602">
        <ele>249.6</ele>
        <time>2015-12-19T15:25:54Z</time>
      </trkpt>
      <trkpt lat="45.84576" lon="4.726">
        <ele>249.6</ele>
        <time>2015-12-19T15:25:55Z</time>
      </trkpt>
      <trkpt lat="45.84576" lon="4.72598">
        <ele>249.6</ele>
        <time>2015-12-19T15:25:56Z</time>
      </trkpt>
      <trkpt lat="45.84577" lon="4.72596">
        <ele>250.08</ele>
        <time>2015-12-19T15:25:57Z</time>
      </trkpt>
      <trkpt lat="45.84577" lon="4.72594">
        <ele>250.08</ele>
        <time>2015-12-19T15:25:58Z</time>
      </trkpt>
      <trkpt lat="45.84577" lon="4.72592">
        <ele>250.08</ele>
        <time>2015-12-19T15:25:59Z</time>
      </trkpt>
      <trkpt lat="45.84578" lon="4.72591">
        <ele>250.56</ele>
        <time>2015-12-19T15:26:00Z</time>
      </trkpt>
      <trkpt lat="45.84578" lon="4.72589">
        <ele>250.56</ele>
        <time>2015-12-19T15:26:01Z</time>
      </trkpt>
      <trkpt lat="45.84578" lon="4.72587">
        <ele>250.56</ele>
        <time>2015-12-19T15:26:02Z</time>
      </trkpt>
      <trkpt lat="45.84578" lon="4.72585">
        <ele>251.04</ele>
        <time>2015-12-19T15:26:03Z</time>
      </trkpt>
      <trkpt lat="45.84578" lon="4.72554">
        <ele>254.41</ele>
        <time>2015-12-19T15:26:20Z</time>
      </trkpt>
      <trkpt lat="45.84578" lon="4.72552">
        <ele>253.93</ele>
        <time>2015-12-19T15:26:21Z</time>
      </trkpt>
      <trkpt lat="45.84579" lon="4.7255">
        <ele>254.41</ele>
        <time>2015-12-19T15:26:22Z</time>
      </trkpt>
      <trkpt lat="45.84579" lon="4.72549">
        <ele>254.41</ele>
        <time>2015-12-19T15:26:23Z</time>
      </trkpt>
      <trkpt lat="45.84579" lon="4.72547">
        <ele>254.41</ele>
        <time>2015-12-19T15:26:24Z</time>
      </trkpt>
      <trkpt lat="45.8458" lon="4.72544">
        <ele>255.37</ele>
        <time>2015-12-19T15:26:26Z</time>
      </trkpt>
      <trkpt lat="45.8458" lon="4.72543">
        <ele>255.37</ele>
        <time>2015-12-19T15:26:27Z</time>
      </trkpt>
      <trkpt lat="45.84581" lon="4.72542">
        <ele>255.37</ele>
        <time>2015-12-19T15:26:28Z</time>
      </trkpt>
      <trkpt lat="45.84582" lon="4.7254">
        <ele>255.37</ele>
        <time>2015-12-19T15:26:29Z</time>
      </trkpt>
      <trkpt lat="45.84583" lon="4.72539">
        <ele>255.85</ele>
        <time>2015-12-19T15:26:30Z</time>
      </trkpt>
      <trkpt lat="45.84585" lon="4.72537">
        <ele>255.85</ele>
        <time>2015-12-19T15:26:32Z</time>
      </trkpt>
      <trkpt lat="45.84586" lon="4.72537">
        <ele>255.85</ele>
        <time>2015-12-19T15:26:33Z</time>
      </trkpt>
      <trkpt lat="45.84587" lon="4.72536">
        <ele>255.85</ele>
        <time>2015-12-19T15:26:34Z</time>
      </trkpt>
      <trkpt lat="45.84588" lon="4.72536">
        <ele>255.85</ele>
        <time>2015-12-19T15:26:35Z</time>
      </trkpt>
      <trkpt lat="45.8459" lon="4.72536">
        <ele>255.85</ele>
        <time>2015-12-19T15:26:36Z</time>
      </trkpt>
      <trkpt lat="45.84591" lon="4.72536">
        <ele>255.85</ele>
        <time>2015-12-19T15:26:37Z</time>
      </trkpt>
      <trkpt lat="45.84593" lon="4.72537">
        <ele>255.85</ele>
        <time>2015-12-19T15:26:38Z</time>
      </trkpt>
      <trkpt lat="45.84594" lon="4.72537">
        <ele>256.33</ele>
        <time>2015-12-19T15:26:39Z</time>
      </trkpt>
      <trkpt lat="45.84595" lon="4.72537">
        <ele>256.33</ele>
        <time>2015-12-19T15:26:40Z</time>
      </trkpt>
      <trkpt lat="45.84597" lon="4.72537">
        <ele>256.33</ele>
        <time>2015-12-19T15:26:41Z</time>
      </trkpt>
      <trkpt lat="45.84598" lon="4.72537">
        <ele>256.33</ele>
        <time>2015-12-19T15:26:42Z</time>
      </trkpt>
      <trkpt lat="45.84622" lon="4.7254">
        <ele>257.77</ele>
        <time>2015-12-19T15:26:58Z</time>
      </trkpt>
      <trkpt lat="45.84629" lon="4.72541">
        <ele>258.25</ele>
        <time>2015-12-19T15:27:03Z</time>
      </trkpt>
      <trkpt lat="45.84631" lon="4.72541">
        <ele>258.73</ele>
        <time>2015-12-19T15:27:04Z</time>
      </trkpt>
      <trkpt lat="45.84632" lon="4.72541">
        <ele>258.73</ele>
        <time>2015-12-19T15:27:05Z</time>
      </trkpt>
      <trkpt lat="45.8465" lon="4.72544">
        <ele>260.65</ele>
        <time>2015-12-19T15:27:18Z</time>
      </trkpt>
      <trkpt lat="45.84652" lon="4.72544">
        <ele>260.65</ele>
        <time>2015-12-19T15:27:19Z</time>
      </trkpt>
      <trkpt lat="45.84653" lon="4.72544">
        <ele>260.65</ele>
        <time>2015-12-19T15:27:20Z</time>
      </trkpt>
      <trkpt lat="45.84655" lon="4.72544">
        <ele>260.65</ele>
        <time>2015-12-19T15:27:21Z</time>
      </trkpt>
      <trkpt lat="45.84656" lon="4.72544">
        <ele>261.14</ele>
        <time>2015-12-19T15:27:22Z</time>
      </trkpt>
      <trkpt lat="45.84657" lon="4.72544">
        <ele>261.14</ele>
        <time>2015-12-19T15:27:23Z</time>
      </trkpt>
      <trkpt lat="45.84675" lon="4.72545">
        <ele>264.02</ele>
        <time>2015-12-19T15:27:36Z</time>
      </trkpt>
      <trkpt lat="45.84692" lon="4.72546">
        <ele>266.42</ele>
        <time>2015-12-19T15:27:49Z</time>
      </trkpt>
      <trkpt lat="45.84694" lon="4.72547">
        <ele>266.42</ele>
        <time>2015-12-19T15:27:50Z</time>
      </trkpt>
      <trkpt lat="45.84695" lon="4.72546">
        <ele>266.42</ele>
        <time>2015-12-19T15:27:51Z</time>
      </trkpt>
      <trkpt lat="45.84697" lon="4.72546">
        <ele>266.9</ele>
        <time>2015-12-19T15:27:52Z</time>
      </trkpt>
      <trkpt lat="45.84698" lon="4.72546">
        <ele>266.9</ele>
        <time>2015-12-19T15:27:53Z</time>
      </trkpt>
      <trkpt lat="45.84699" lon="4.72546">
        <ele>266.9</ele>
        <time>2015-12-19T15:27:54Z</time>
      </trkpt>
      <trkpt lat="45.84703" lon="4.72549">
        <ele>267.38</ele>
        <time>2015-12-19T15:28:04Z</time>
      </trkpt>
      <trkpt lat="45.84705" lon="4.72557">
        <ele>268.83</ele>
        <time>2015-12-19T15:28:17Z</time>
      </trkpt>
      <trkpt lat="45.84705" lon="4.72557">
        <ele>268.35</ele>
        <time>2015-12-19T15:28:27Z</time>
      </trkpt>
      <trkpt lat="45.84706" lon="4.72557">
        <ele>268.35</ele>
        <time>2015-12-19T15:29:00Z</time>
      </trkpt>
      <trkpt lat="45.84706" lon="4.72558">
        <ele>268.35</ele>
        <time>2015-12-19T15:29:35Z</time>
      </trkpt>
      <trkpt lat="45.84706" lon="4.72558">
        <ele>267.86</ele>
        <time>2015-12-19T15:30:07Z</time>
      </trkpt>
      <trkpt lat="45.84706" lon="4.72557">
        <ele>268.35</ele>
        <time>2015-12-19T15:30:42Z</time>
      </trkpt>
      <trkpt lat="45.84706" lon="4.72557">
        <ele>267.86</ele>
        <time>2015-12-19T15:31:21Z</time>
      </trkpt>
      <trkpt lat="45.84706" lon="4.72558">
        <ele>268.35</ele>
        <time>2015-12-19T15:32:01Z</time>
      </trkpt>
      <trkpt lat="45.84707" lon="4.72559">
        <ele>267.86</ele>
        <time>2015-12-19T15:32:33Z</time>
      </trkpt>
      <trkpt lat="45.84708" lon="4.72562">
        <ele>268.83</ele>
        <time>2015-12-19T15:32:35Z</time>
      </trkpt>
      <trkpt lat="45.84716" lon="4.7258">
        <ele>270.27</ele>
        <time>2015-12-19T15:32:50Z</time>
      </trkpt>
      <trkpt lat="45.84722" lon="4.72593">
        <ele>273.15</ele>
        <time>2015-12-19T15:33:04Z</time>
      </trkpt>
    </trkseg>
  </trk>
</gpx>